<?xml version='1.0' encoding='UTF-8'?><gpx version="1.1" creator="JPX - https://github.com/jenetics/jpx" xmlns="http://www.topografix.com/GPX/1/1"><trk><trkseg><trkpt lat="45.75153048819374" lon="8.531641195716151"><ele>306.0</ele><time>2026-04-01T09:45:19Z</time></trkpt><trkpt lat="45.75165856164514" lon="8.531622507770562"><ele>306.0</ele><time>2026-04-01T09:45:25Z</time></trkpt><trkpt lat="45.751685345981386" lon="8.531539947075633"><ele>306.0</ele><time>2026-04-01T09:45:56.999Z</time></trkpt><trkpt lat="45.75191469352199" lon="8.531510255434977"><ele>306.0</ele><time>2026-04-01T09:45:59.999Z</time></trkpt><trkpt lat="45.75203802538862" lon="8.531614881864494"><ele>304.5</ele><time>2026-04-01T09:46:00.999Z</time></trkpt><trkpt lat="45.75208455587496" lon="8.531711768975695"><ele>303.0</ele><time>2026-04-01T09:46:01.999Z</time></trkpt><trkpt lat="45.752256066980976" lon="8.531700405367378"><ele>301.5</ele><time>2026-04-01T09:46:04.999Z</time></trkpt><trkpt lat="45.75238050855909" lon="8.531792337905454"><ele>300.0</ele><time>2026-04-01T09:46:06.999Z</time></trkpt><trkpt lat="45.75249605147278" lon="8.531837633316055"><ele>300.0</ele><time>2026-04-01T09:46:07.999Z</time></trkpt><trkpt lat="45.752618966319346" lon="8.53188925449703"><ele>300.0</ele><time>2026-04-01T09:46:08.999Z</time></trkpt><trkpt lat="45.75275784076101" lon="8.53195362174768"><ele>300.0</ele><time>2026-04-01T09:46:09.999Z</time></trkpt><trkpt lat="45.75288062540766" lon="8.53199031062327"><ele>300.0</ele><time>2026-04-01T09:46:10.999Z</time></trkpt><trkpt lat="45.753000169641616" lon="8.532037518141086"><ele>298.0</ele><time>2026-04-01T09:46:11.999Z</time></trkpt><trkpt lat="45.753065665008165" lon="8.5323627931569"><ele>296.0</ele><time>2026-04-01T09:46:12.999Z</time></trkpt><trkpt lat="45.75315853171115" lon="8.532398372335415"><ele>294.0</ele><time>2026-04-01T09:46:13.999Z</time></trkpt><trkpt lat="45.75322435018824" lon="8.532436427009719"><ele>292.0</ele><time>2026-04-01T09:46:14.999Z</time></trkpt><trkpt lat="45.753319931163404" lon="8.53251871186613"><ele>292.0</ele><time>2026-04-01T09:46:15.999Z</time></trkpt><trkpt lat="45.753428879459705" lon="8.532612504546977"><ele>292.0</ele><time>2026-04-01T09:46:16.999Z</time></trkpt><trkpt lat="45.75361588716515" lon="8.532771642718497"><ele>292.0</ele><time>2026-04-01T09:46:17.999Z</time></trkpt><trkpt lat="45.753709664788" lon="8.53285280804745"><ele>289.6</ele><time>2026-04-01T09:46:18.999Z</time></trkpt><trkpt lat="45.753778291733376" lon="8.532916811763531"><ele>287.2</ele><time>2026-04-01T09:46:19.999Z</time></trkpt><trkpt lat="45.75384093817124" lon="8.53302833578906"><ele>284.8</ele><time>2026-04-01T09:46:21.999Z</time></trkpt><trkpt lat="45.75387971241375" lon="8.533124014093323"><ele>282.4</ele><time>2026-04-01T09:46:22.999Z</time></trkpt><trkpt lat="45.753861301556746" lon="8.533239752713047"><ele>280.0</ele><time>2026-04-01T09:46:23.999Z</time></trkpt><trkpt lat="45.75385494042295" lon="8.533411411008908"><ele>280.0</ele><time>2026-04-01T09:46:24.999Z</time></trkpt><trkpt lat="45.75384760011884" lon="8.533555241853376"><ele>280.0</ele><time>2026-04-01T09:46:25.999Z</time></trkpt><trkpt lat="45.75383915207532" lon="8.533709725484037"><ele>280.0</ele><time>2026-04-01T09:46:26.999Z</time></trkpt><trkpt lat="45.753831507033865" lon="8.533849525107795"><ele>280.0</ele><time>2026-04-01T09:46:27.999Z</time></trkpt><trkpt lat="45.753823856030095" lon="8.533975604354005"><ele>280.0</ele><time>2026-04-01T09:46:28.999Z</time></trkpt><trkpt lat="45.75383634797585" lon="8.534121511561068"><ele>278.75</ele><time>2026-04-01T09:46:29.999Z</time></trkpt><trkpt lat="45.75392137897086" lon="8.534242894672328"><ele>277.5</ele><time>2026-04-01T09:46:30.999Z</time></trkpt><trkpt lat="45.75403029476163" lon="8.534310062650523"><ele>276.25</ele><time>2026-04-01T09:46:31.999Z</time></trkpt><trkpt lat="45.754146894710146" lon="8.534415862072372"><ele>275.0</ele><time>2026-04-01T09:46:32.999Z</time></trkpt><trkpt lat="45.7542354812111" lon="8.534515137401685"><ele>273.0</ele><time>2026-04-01T09:46:33.999Z</time></trkpt><trkpt lat="45.75430411463923" lon="8.534632028191691"><ele>271.0</ele><time>2026-04-01T09:46:34.999Z</time></trkpt><trkpt lat="45.75436379189077" lon="8.534749981625922"><ele>269.0</ele><time>2026-04-01T09:46:35.999Z</time></trkpt><trkpt lat="45.75443851978437" lon="8.5349181223206"><ele>267.0</ele><time>2026-04-01T09:46:36.999Z</time></trkpt><trkpt lat="45.75449367704443" lon="8.53504237763668"><ele>267.0</ele><time>2026-04-01T09:46:37.999Z</time></trkpt><trkpt lat="45.754550476135435" lon="8.535177504577499"><ele>267.0</ele><time>2026-04-01T09:46:38.999Z</time></trkpt><trkpt lat="45.754609038485185" lon="8.535315960657078"><ele>267.0</ele><time>2026-04-01T09:46:39.999Z</time></trkpt><trkpt lat="45.75468357381664" lon="8.535444968879494"><ele>267.0</ele><time>2026-04-01T09:46:40.999Z</time></trkpt><trkpt lat="45.754724827478455" lon="8.53561119711459"><ele>265.75</ele><time>2026-04-01T09:46:41.999Z</time></trkpt><trkpt lat="45.75478170090712" lon="8.535772780659238"><ele>264.5</ele><time>2026-04-01T09:46:42.999Z</time></trkpt><trkpt lat="45.75484537159846" lon="8.535929089441801"><ele>263.25</ele><time>2026-04-01T09:46:43.999Z</time></trkpt><trkpt lat="45.754920290816415" lon="8.536063699510994"><ele>262.0</ele><time>2026-04-01T09:46:44.999Z</time></trkpt><trkpt lat="45.7549943941426" lon="8.536221773336516"><ele>261.25</ele><time>2026-04-01T09:46:45.999Z</time></trkpt><trkpt lat="45.75505905211736" lon="8.536370685118177"><ele>260.5</ele><time>2026-04-01T09:46:46.999Z</time></trkpt><trkpt lat="45.75509418388419" lon="8.536519227184327"><ele>259.75</ele><time>2026-04-01T09:46:48Z</time></trkpt><trkpt lat="45.755100540882594" lon="8.536685422759634"><ele>259.0</ele><time>2026-04-01T09:46:49Z</time></trkpt><trkpt lat="45.75513331265143" lon="8.536847263840471"><ele>259.0</ele><time>2026-04-01T09:46:50Z</time></trkpt><trkpt lat="45.75515612598686" lon="8.537015492102736"><ele>259.0</ele><time>2026-04-01T09:46:51Z</time></trkpt><trkpt lat="45.75517736640702" lon="8.537175560200742"><ele>259.0</ele><time>2026-04-01T09:46:52Z</time></trkpt><trkpt lat="45.75520243151511" lon="8.537358159005718"><ele>259.0</ele><time>2026-04-01T09:46:53Z</time></trkpt><trkpt lat="45.75522485572229" lon="8.537535913276642"><ele>257.75</ele><time>2026-04-01T09:46:54Z</time></trkpt><trkpt lat="45.75524115032929" lon="8.537745300545991"><ele>256.5</ele><time>2026-04-01T09:46:55Z</time></trkpt><trkpt lat="45.75525835790651" lon="8.53792273028457"><ele>255.25</ele><time>2026-04-01T09:46:56Z</time></trkpt><trkpt lat="45.75528143367371" lon="8.538124275368151"><ele>254.0</ele><time>2026-04-01T09:46:57Z</time></trkpt><trkpt lat="45.75528537993593" lon="8.538332754104985"><ele>251.0</ele><time>2026-04-01T09:46:58Z</time></trkpt><trkpt lat="45.755308704724094" lon="8.538525580481513"><ele>248.0</ele><time>2026-04-01T09:46:59Z</time></trkpt><trkpt lat="45.75532878848498" lon="8.538714419459323"><ele>245.0</ele><time>2026-04-01T09:47:00Z</time></trkpt><trkpt lat="45.7553422210054" lon="8.538919915294933"><ele>242.0</ele><time>2026-04-01T09:47:01Z</time></trkpt><trkpt lat="45.75534664795262" lon="8.539113361749859"><ele>242.0</ele><time>2026-04-01T09:47:02Z</time></trkpt><trkpt lat="45.75536797452113" lon="8.539304197592923"><ele>242.0</ele><time>2026-04-01T09:47:03Z</time></trkpt><trkpt lat="45.755377074748644" lon="8.539496580881066"><ele>242.0</ele><time>2026-04-01T09:47:04Z</time></trkpt><trkpt lat="45.755388650951204" lon="8.539698146877921"><ele>242.0</ele><time>2026-04-01T09:47:05Z</time></trkpt><trkpt lat="45.75539923098918" lon="8.539871580066594"><ele>243.5</ele><time>2026-04-01T09:47:06Z</time></trkpt><trkpt lat="45.755464101599735" lon="8.540011811255397"><ele>245.0</ele><time>2026-04-01T09:47:07Z</time></trkpt><trkpt lat="45.755545970378826" lon="8.540146201723326"><ele>246.5</ele><time>2026-04-01T09:47:08Z</time></trkpt><trkpt lat="45.75562098843717" lon="8.540305877153548"><ele>248.0</ele><time>2026-04-01T09:47:09Z</time></trkpt><trkpt lat="45.75566335797144" lon="8.540396060468948"><ele>248.0</ele><time>2026-04-01T09:47:10Z</time></trkpt><trkpt lat="45.75570478187809" lon="8.540484231108168"><ele>248.0</ele><time>2026-04-01T09:47:11Z</time></trkpt><trkpt lat="45.755755155204035" lon="8.540635597852116"><ele>248.0</ele><time>2026-04-01T09:47:12Z</time></trkpt><trkpt lat="45.755833667464444" lon="8.540795224800192"><ele>248.0</ele><time>2026-04-01T09:47:13Z</time></trkpt><trkpt lat="45.75589163368227" lon="8.540924370328957"><ele>248.0</ele><time>2026-04-01T09:47:14Z</time></trkpt><trkpt lat="45.75593807852724" lon="8.54104191511198"><ele>248.0</ele><time>2026-04-01T09:47:15Z</time></trkpt><trkpt lat="45.75595551640073" lon="8.541194777975402"><ele>248.0</ele><time>2026-04-01T09:47:16Z</time></trkpt><trkpt lat="45.755972201800695" lon="8.541352182673608"><ele>248.0</ele><time>2026-04-01T09:47:17Z</time></trkpt><trkpt lat="45.755978615827225" lon="8.541473559841034"><ele>248.0</ele><time>2026-04-01T09:47:18Z</time></trkpt><trkpt lat="45.755978659384645" lon="8.541594176553147"><ele>248.0</ele><time>2026-04-01T09:47:19Z</time></trkpt><trkpt lat="45.75597018152476" lon="8.541756447939369"><ele>246.8</ele><time>2026-04-01T09:47:20Z</time></trkpt><trkpt lat="45.75592550302321" lon="8.54188305282111"><ele>245.60000000000002</ele><time>2026-04-01T09:47:21Z</time></trkpt><trkpt lat="45.755888670120804" lon="8.542023573261384"><ele>244.39999999999998</ele><time>2026-04-01T09:47:22Z</time></trkpt><trkpt lat="45.75584981919337" lon="8.542129538499983"><ele>243.2</ele><time>2026-04-01T09:47:23Z</time></trkpt><trkpt lat="45.75579796860947" lon="8.542276652952811"><ele>242.0</ele><time>2026-04-01T09:47:24Z</time></trkpt><trkpt lat="45.7557620924797" lon="8.542359871757572"><ele>240.2</ele><time>2026-04-01T09:47:25Z</time></trkpt><trkpt lat="45.75571022900661" lon="8.542455460354487"><ele>238.39999999999998</ele><time>2026-04-01T09:47:27Z</time></trkpt><trkpt lat="45.755792494435" lon="8.542709086959746"><ele>236.60000000000002</ele><time>2026-04-01T09:47:29Z</time></trkpt><trkpt lat="45.75584478287413" lon="8.542797500821179"><ele>234.8</ele><time>2026-04-01T09:47:30Z</time></trkpt><trkpt lat="45.75589478274803" lon="8.54288204497809"><ele>233.0</ele><time>2026-04-01T09:47:31Z</time></trkpt><trkpt lat="45.7559639430295" lon="8.542996065557455"><ele>234.8</ele><time>2026-04-01T09:47:32Z</time></trkpt><trkpt lat="45.756059730555904" lon="8.54310873026294"><ele>236.60000000000002</ele><time>2026-04-01T09:47:33Z</time></trkpt><trkpt lat="45.75613724651965" lon="8.543188494976055"><ele>238.39999999999998</ele><time>2026-04-01T09:47:34Z</time></trkpt><trkpt lat="45.7562046748452" lon="8.543258085228517"><ele>240.2</ele><time>2026-04-01T09:47:35Z</time></trkpt><trkpt lat="45.756282304686074" lon="8.543338204102168"><ele>242.0</ele><time>2026-04-01T09:47:36Z</time></trkpt><trkpt lat="45.75636255194276" lon="8.543424748629644"><ele>242.0</ele><time>2026-04-01T09:47:37Z</time></trkpt><trkpt lat="45.756418779767095" lon="8.543509878821808"><ele>242.0</ele><time>2026-04-01T09:47:38Z</time></trkpt><trkpt lat="45.7564803167449" lon="8.543619663433436"><ele>242.0</ele><time>2026-04-01T09:47:39Z</time></trkpt><trkpt lat="45.75657536875859" lon="8.54376309933761"><ele>242.0</ele><time>2026-04-01T09:47:40Z</time></trkpt><trkpt lat="45.75660704079861" lon="8.543909192094791"><ele>242.0</ele><time>2026-04-01T09:47:41Z</time></trkpt><trkpt lat="45.7566790759604" lon="8.544017473712804"><ele>241.75</ele><time>2026-04-01T09:47:42Z</time></trkpt><trkpt lat="45.75672607238962" lon="8.544094835826558"><ele>241.5</ele><time>2026-04-01T09:47:42.999Z</time></trkpt><trkpt lat="45.75683116538112" lon="8.544238292858855"><ele>241.25</ele><time>2026-04-01T09:47:44.999Z</time></trkpt><trkpt lat="45.75689849019122" lon="8.544381070556557"><ele>241.0</ele><time>2026-04-01T09:47:46.999Z</time></trkpt><trkpt lat="45.75692298702185" lon="8.544559951318643"><ele>241.0</ele><time>2026-04-01T09:47:48.999Z</time></trkpt><trkpt lat="45.75693091152659" lon="8.544706227333323"><ele>241.00000000000003</ele><time>2026-04-01T09:47:49.999Z</time></trkpt><trkpt lat="45.75697330526214" lon="8.544842467067882"><ele>241.00000000000003</ele><time>2026-04-01T09:47:50.999Z</time></trkpt><trkpt lat="45.75701487388487" lon="8.544959595676229"><ele>241.0</ele><time>2026-04-01T09:47:51.999Z</time></trkpt><trkpt lat="45.757076105557395" lon="8.545075566922849"><ele>241.0</ele><time>2026-04-01T09:47:52.999Z</time></trkpt><trkpt lat="45.75715043965316" lon="8.545200512278926"><ele>241.0</ele><time>2026-04-01T09:47:53.999Z</time></trkpt><trkpt lat="45.757208541423296" lon="8.545343620130396"><ele>241.00000000000003</ele><time>2026-04-01T09:47:54.999Z</time></trkpt><trkpt lat="45.75727111381957" lon="8.54543633626961"><ele>241.00000000000003</ele><time>2026-04-01T09:47:55.999Z</time></trkpt><trkpt lat="45.757342051649566" lon="8.545528047496214"><ele>241.0</ele><time>2026-04-01T09:47:56.999Z</time></trkpt><trkpt lat="45.75742170565101" lon="8.545623349586608"><ele>241.0</ele><time>2026-04-01T09:47:57.999Z</time></trkpt><trkpt lat="45.75748841875125" lon="8.545688970844143"><ele>240.83333333333331</ele><time>2026-04-01T09:47:58.999Z</time></trkpt><trkpt lat="45.757551893158244" lon="8.545755798278197"><ele>240.66666666666666</ele><time>2026-04-01T09:47:59.999Z</time></trkpt><trkpt lat="45.75760919462173" lon="8.545834089722744"><ele>240.5</ele><time>2026-04-01T09:48:00.999Z</time></trkpt><trkpt lat="45.75768473708669" lon="8.545909927841711"><ele>240.33333333333331</ele><time>2026-04-01T09:48:01.999Z</time></trkpt><trkpt lat="45.75776257389391" lon="8.545992628476325"><ele>240.16666666666666</ele><time>2026-04-01T09:48:02.999Z</time></trkpt><trkpt lat="45.75784972736065" lon="8.546062571010536"><ele>240.0</ele><time>2026-04-01T09:48:03.999Z</time></trkpt><trkpt lat="45.75791880506057" lon="8.546137605191875"><ele>237.8</ele><time>2026-04-01T09:48:04.999Z</time></trkpt><trkpt lat="45.75797618613919" lon="8.54622685597861"><ele>235.6</ele><time>2026-04-01T09:48:05.999Z</time></trkpt><trkpt lat="45.75803655055321" lon="8.546312649120736"><ele>233.39999999999998</ele><time>2026-04-01T09:48:06.999Z</time></trkpt><trkpt lat="45.75810730419776" lon="8.546399572818979"><ele>231.2</ele><time>2026-04-01T09:48:07.999Z</time></trkpt><trkpt lat="45.75816522574992" lon="8.546505354197318"><ele>229.0</ele><time>2026-04-01T09:48:08.999Z</time></trkpt><trkpt lat="45.758232023182806" lon="8.546597986047908"><ele>229.0</ele><time>2026-04-01T09:48:09.999Z</time></trkpt><trkpt lat="45.75831161385268" lon="8.546673773023416"><ele>228.99999999999997</ele><time>2026-04-01T09:48:10.999Z</time></trkpt><trkpt lat="45.758360396073456" lon="8.546777052287222"><ele>228.99999999999997</ele><time>2026-04-01T09:48:11.999Z</time></trkpt><trkpt lat="45.758414888811714" lon="8.546845152103392"><ele>229.0</ele><time>2026-04-01T09:48:12.999Z</time></trkpt><trkpt lat="45.75851676436809" lon="8.546945369771308"><ele>229.0</ele><time>2026-04-01T09:48:14.999Z</time></trkpt><trkpt lat="45.75857856342781" lon="8.547009464151284"><ele>229.2</ele><time>2026-04-01T09:48:15.999Z</time></trkpt><trkpt lat="45.75863306949254" lon="8.54706762278769"><ele>229.39999999999998</ele><time>2026-04-01T09:48:16.999Z</time></trkpt><trkpt lat="45.75875424422066" lon="8.547192557231458"><ele>229.6</ele><time>2026-04-01T09:48:18.999Z</time></trkpt><trkpt lat="45.75882136905566" lon="8.547279302794545"><ele>229.8</ele><time>2026-04-01T09:48:19.999Z</time></trkpt><trkpt lat="45.758913885600755" lon="8.54735086092656"><ele>230.0</ele><time>2026-04-01T09:48:20.999Z</time></trkpt><trkpt lat="45.759011982711726" lon="8.547431453920266"><ele>230.0</ele><time>2026-04-01T09:48:21.999Z</time></trkpt><trkpt lat="45.75910744526094" lon="8.547514739952126"><ele>230.0</ele><time>2026-04-01T09:48:22.999Z</time></trkpt><trkpt lat="45.75920836862733" lon="8.547598920806813"><ele>230.0</ele><time>2026-04-01T09:48:23.999Z</time></trkpt><trkpt lat="45.75930299542265" lon="8.547669109026959"><ele>230.0</ele><time>2026-04-01T09:48:24.999Z</time></trkpt><trkpt lat="45.75939075129474" lon="8.547753317880112"><ele>230.0</ele><time>2026-04-01T09:48:25.999Z</time></trkpt><trkpt lat="45.759458455136155" lon="8.547854344789094"><ele>231.4</ele><time>2026-04-01T09:48:26.999Z</time></trkpt><trkpt lat="45.75951917338383" lon="8.547982566114328"><ele>232.8</ele><time>2026-04-01T09:48:27.999Z</time></trkpt><trkpt lat="45.759602784775325" lon="8.54807208772864"><ele>234.2</ele><time>2026-04-01T09:48:28.999Z</time></trkpt><trkpt lat="45.759686422078794" lon="8.548156990634345"><ele>235.6</ele><time>2026-04-01T09:48:29.999Z</time></trkpt><trkpt lat="45.75976779935387" lon="8.548260248008594"><ele>237.0</ele><time>2026-04-01T09:48:30.999Z</time></trkpt><trkpt lat="45.75983655638237" lon="8.548364054520798"><ele>237.0</ele><time>2026-04-01T09:48:31.999Z</time></trkpt><trkpt lat="45.75989773374367" lon="8.548473578374693"><ele>237.0</ele><time>2026-04-01T09:48:32.999Z</time></trkpt><trkpt lat="45.75995121188825" lon="8.548595806230287"><ele>237.0</ele><time>2026-04-01T09:48:33.999Z</time></trkpt><trkpt lat="45.76000956870768" lon="8.548730349684966"><ele>237.0</ele><time>2026-04-01T09:48:34.999Z</time></trkpt><trkpt lat="45.76006179339136" lon="8.548840051115985"><ele>237.0</ele><time>2026-04-01T09:48:35.999Z</time></trkpt><trkpt lat="45.76012049237977" lon="8.54893793573607"><ele>237.5</ele><time>2026-04-01T09:48:36.999Z</time></trkpt><trkpt lat="45.76017218562642" lon="8.54902057565954"><ele>238.0</ele><time>2026-04-01T09:48:37.999Z</time></trkpt><trkpt lat="45.76025691786386" lon="8.549076094199666"><ele>238.5</ele><time>2026-04-01T09:48:38.999Z</time></trkpt><trkpt lat="45.76033169555166" lon="8.549105295256147"><ele>239.0</ele><time>2026-04-01T09:48:39.999Z</time></trkpt><trkpt lat="45.760437578456205" lon="8.549155175925733"><ele>239.5</ele><time>2026-04-01T09:48:41.999Z</time></trkpt><trkpt lat="45.76050858233372" lon="8.54920524990082"><ele>240.0</ele><time>2026-04-01T09:48:43.999Z</time></trkpt><trkpt lat="45.76060368726033" lon="8.549294562165036"><ele>240.0</ele><time>2026-04-01T09:48:45.999Z</time></trkpt><trkpt lat="45.76066768805567" lon="8.549408184726564"><ele>240.0</ele><time>2026-04-01T09:48:47.999Z</time></trkpt><trkpt lat="45.760714093341" lon="8.549512162895411"><ele>240.0</ele><time>2026-04-01T09:48:49.999Z</time></trkpt><trkpt lat="45.76099729939088" lon="8.549795265748726"><ele>239.83333333333334</ele><time>2026-04-01T09:48:57Z</time></trkpt><trkpt lat="45.761106945026576" lon="8.549803866512079"><ele>239.66666666666669</ele><time>2026-04-01T09:48:59Z</time></trkpt><trkpt lat="45.761200092935084" lon="8.549849415706781"><ele>239.5</ele><time>2026-04-01T09:49:01Z</time></trkpt><trkpt lat="45.761251834898545" lon="8.549905095898934"><ele>239.33333333333334</ele><time>2026-04-01T09:49:02Z</time></trkpt><trkpt lat="45.761301753750885" lon="8.549999043536591"><ele>239.16666666666669</ele><time>2026-04-01T09:49:03Z</time></trkpt><trkpt lat="45.7613466253616" lon="8.550105033004597"><ele>239.0</ele><time>2026-04-01T09:49:04Z</time></trkpt><trkpt lat="45.761393262901734" lon="8.550208122164625"><ele>239.00000000000003</ele><time>2026-04-01T09:49:05Z</time></trkpt><trkpt lat="45.761448038827524" lon="8.55029595528192"><ele>239.0</ele><time>2026-04-01T09:49:06Z</time></trkpt><trkpt lat="45.76147260229876" lon="8.55042768866064"><ele>239.0</ele><time>2026-04-01T09:49:07Z</time></trkpt><trkpt lat="45.76150771082053" lon="8.550553533138025"><ele>239.0</ele><time>2026-04-01T09:49:08Z</time></trkpt><trkpt lat="45.76153969005676" lon="8.55066001606007"><ele>239.00000000000003</ele><time>2026-04-01T09:49:09Z</time></trkpt><trkpt lat="45.76156304113045" lon="8.550747182548063"><ele>239.0</ele><time>2026-04-01T09:49:10Z</time></trkpt><trkpt lat="45.76159927704294" lon="8.55082278194105"><ele>239.5</ele><time>2026-04-01T09:49:12Z</time></trkpt><trkpt lat="45.76163756779152" lon="8.55091703721406"><ele>240.0</ele><time>2026-04-01T09:49:16Z</time></trkpt><trkpt lat="45.76165966304689" lon="8.551010915354855"><ele>240.5</ele><time>2026-04-01T09:49:19Z</time></trkpt><trkpt lat="45.76182486143456" lon="8.550911536062062"><ele>241.0</ele><time>2026-04-01T09:49:24Z</time></trkpt><trkpt lat="45.76188902220693" lon="8.55075266670021"><ele>241.0</ele><time>2026-04-01T09:49:26Z</time></trkpt><trkpt lat="45.76193406546275" lon="8.550641466206303"><ele>241.00000000000003</ele><time>2026-04-01T09:49:27Z</time></trkpt><trkpt lat="45.761982223295846" lon="8.550523399540698"><ele>241.00000000000003</ele><time>2026-04-01T09:49:28Z</time></trkpt><trkpt lat="45.76204707640185" lon="8.550365576215938"><ele>241.0</ele><time>2026-04-01T09:49:29Z</time></trkpt><trkpt lat="45.7621099616772" lon="8.550234397419121"><ele>241.0</ele><time>2026-04-01T09:49:30Z</time></trkpt><trkpt lat="45.76217510001152" lon="8.550091706237513"><ele>241.8</ele><time>2026-04-01T09:49:31Z</time></trkpt><trkpt lat="45.762243928325766" lon="8.549944832594585"><ele>242.60000000000002</ele><time>2026-04-01T09:49:32Z</time></trkpt><trkpt lat="45.7622929240843" lon="8.5498062640879"><ele>243.4</ele><time>2026-04-01T09:49:33Z</time></trkpt><trkpt lat="45.76230051992102" lon="8.549671660984695"><ele>244.2</ele><time>2026-04-01T09:49:34Z</time></trkpt><trkpt lat="45.762309409328815" lon="8.549546531547765"><ele>245.0</ele><time>2026-04-01T09:49:35Z</time></trkpt><trkpt lat="45.76226655512684" lon="8.549446779232067"><ele>247.75</ele><time>2026-04-01T09:49:36Z</time></trkpt><trkpt lat="45.762205602348224" lon="8.549376153401722"><ele>250.5</ele><time>2026-04-01T09:49:37Z</time></trkpt><trkpt lat="45.76208097278535" lon="8.549307719075692"><ele>253.25</ele><time>2026-04-01T09:49:38Z</time></trkpt><trkpt lat="45.761962750463205" lon="8.549287477024842"><ele>256.0</ele><time>2026-04-01T09:49:39Z</time></trkpt><trkpt lat="45.761839152272856" lon="8.54926896262178"><ele>256.0</ele><time>2026-04-01T09:49:40Z</time></trkpt><trkpt lat="45.7617528240834" lon="8.549232483340274"><ele>256.0</ele><time>2026-04-01T09:49:41Z</time></trkpt><trkpt lat="45.7616786402286" lon="8.549152381516333"><ele>256.0</ele><time>2026-04-01T09:49:42Z</time></trkpt><trkpt lat="45.76159760825122" lon="8.549055075734213"><ele>256.0</ele><time>2026-04-01T09:49:43Z</time></trkpt><trkpt lat="45.76154421887526" lon="8.548975769175886"><ele>256.0</ele><time>2026-04-01T09:49:44Z</time></trkpt><trkpt lat="45.761543811744524" lon="8.548839804323087"><ele>255.99999999999997</ele><time>2026-04-01T09:49:46Z</time></trkpt><trkpt lat="45.76165775267724" lon="8.548809324854917"><ele>256.0</ele><time>2026-04-01T09:49:47Z</time></trkpt><trkpt lat="45.76171111443355" lon="8.548936924527116"><ele>256.0</ele><time>2026-04-01T09:49:48Z</time></trkpt><trkpt lat="45.76174855890695" lon="8.549016270649267"><ele>256.0</ele><time>2026-04-01T09:49:49Z</time></trkpt><trkpt lat="45.76180824848072" lon="8.549073480403289"><ele>255.99999999999997</ele><time>2026-04-01T09:49:50Z</time></trkpt><trkpt lat="45.76188909947155" lon="8.549052225025953"><ele>256.0</ele><time>2026-04-01T09:49:51Z</time></trkpt><trkpt lat="45.761993183855495" lon="8.5490206609514"><ele>257.0</ele><time>2026-04-01T09:49:52Z</time></trkpt><trkpt lat="45.76208963798739" lon="8.548967566182775"><ele>258.0</ele><time>2026-04-01T09:49:53Z</time></trkpt><trkpt lat="45.76218567364705" lon="8.54894246620872"><ele>259.0</ele><time>2026-04-01T09:49:54Z</time></trkpt><trkpt lat="45.76226733441768" lon="8.548965652391875"><ele>260.0</ele><time>2026-04-01T09:49:55Z</time></trkpt><trkpt lat="45.76235222555509" lon="8.548997301810871"><ele>261.0</ele><time>2026-04-01T09:49:56Z</time></trkpt><trkpt lat="45.76244227249213" lon="8.549030177522408"><ele>261.0</ele><time>2026-04-01T09:49:57Z</time></trkpt><trkpt lat="45.76253758822317" lon="8.549061434770284"><ele>261.0</ele><time>2026-04-01T09:49:58Z</time></trkpt><trkpt lat="45.762649863628916" lon="8.549079727382303"><ele>261.0</ele><time>2026-04-01T09:49:59Z</time></trkpt><trkpt lat="45.76276649050222" lon="8.54903385617097"><ele>261.0</ele><time>2026-04-01T09:50:00Z</time></trkpt><trkpt lat="45.762872220137595" lon="8.54896580888778"><ele>261.0</ele><time>2026-04-01T09:50:01Z</time></trkpt><trkpt lat="45.76297999989075" lon="8.548894705619448"><ele>263.0</ele><time>2026-04-01T09:50:02Z</time></trkpt><trkpt lat="45.76308841943641" lon="8.548822962792434"><ele>265.0</ele><time>2026-04-01T09:50:03Z</time></trkpt><trkpt lat="45.76319519905894" lon="8.548755255410265"><ele>267.0</ele><time>2026-04-01T09:50:04Z</time></trkpt><trkpt lat="45.76329706223048" lon="8.548696859054173"><ele>269.0</ele><time>2026-04-01T09:50:05Z</time></trkpt><trkpt lat="45.763408422009036" lon="8.548656248132557"><ele>271.4</ele><time>2026-04-01T09:50:06Z</time></trkpt><trkpt lat="45.76353056238797" lon="8.548619462532141"><ele>273.79999999999995</ele><time>2026-04-01T09:50:07Z</time></trkpt><trkpt lat="45.76365428856107" lon="8.548583959718838"><ele>276.20000000000005</ele><time>2026-04-01T09:50:08Z</time></trkpt><trkpt lat="45.76375062489733" lon="8.548554676719952"><ele>278.6</ele><time>2026-04-01T09:50:09Z</time></trkpt><trkpt lat="45.76384173620005" lon="8.548504123816615"><ele>281.0</ele><time>2026-04-01T09:50:10Z</time></trkpt><trkpt lat="45.76390476731429" lon="8.548380322385983"><ele>281.0</ele><time>2026-04-01T09:50:11Z</time></trkpt><trkpt lat="45.763913003972725" lon="8.548225195185427"><ele>281.0</ele><time>2026-04-01T09:50:12Z</time></trkpt><trkpt lat="45.7639006876514" lon="8.548092293684665"><ele>281.0</ele><time>2026-04-01T09:50:13Z</time></trkpt><trkpt lat="45.763877346355784" lon="8.547970326466388"><ele>281.0</ele><time>2026-04-01T09:50:14Z</time></trkpt><trkpt lat="45.76383624508739" lon="8.54781927666111"><ele>281.0</ele><time>2026-04-01T09:50:15Z</time></trkpt><trkpt lat="45.763847432411666" lon="8.547674530456726"><ele>281.8</ele><time>2026-04-01T09:50:16Z</time></trkpt><trkpt lat="45.76391615340356" lon="8.547548540563065"><ele>282.6</ele><time>2026-04-01T09:50:17Z</time></trkpt><trkpt lat="45.76398666081742" lon="8.54742375812253"><ele>283.4</ele><time>2026-04-01T09:50:18Z</time></trkpt><trkpt lat="45.764040618005374" lon="8.547299811324248"><ele>284.2</ele><time>2026-04-01T09:50:19Z</time></trkpt><trkpt lat="45.76409366595922" lon="8.54719475688871"><ele>285.0</ele><time>2026-04-01T09:50:20Z</time></trkpt><trkpt lat="45.76415896510451" lon="8.547081293302726"><ele>286.5</ele><time>2026-04-01T09:50:21Z</time></trkpt><trkpt lat="45.76422540591211" lon="8.546955381129186"><ele>288.0</ele><time>2026-04-01T09:50:22Z</time></trkpt><trkpt lat="45.764301611285305" lon="8.546817022279102"><ele>289.5</ele><time>2026-04-01T09:50:23Z</time></trkpt><trkpt lat="45.764373898375425" lon="8.54667864353388"><ele>291.0</ele><time>2026-04-01T09:50:24Z</time></trkpt><trkpt lat="45.76446395895477" lon="8.546543881748779"><ele>292.75</ele><time>2026-04-01T09:50:25Z</time></trkpt><trkpt lat="45.764556103753975" lon="8.546422211528997"><ele>294.5</ele><time>2026-04-01T09:50:26Z</time></trkpt><trkpt lat="45.764666832243115" lon="8.546357391107138"><ele>296.25</ele><time>2026-04-01T09:50:26.999Z</time></trkpt><trkpt lat="45.764786987785016" lon="8.54626728221812"><ele>298.0</ele><time>2026-04-01T09:50:27.999Z</time></trkpt><trkpt lat="45.76487909296624" lon="8.546195936756536"><ele>298.5</ele><time>2026-04-01T09:50:28.999Z</time></trkpt><trkpt lat="45.76496336599436" lon="8.546145287224464"><ele>299.0</ele><time>2026-04-01T09:50:29.999Z</time></trkpt><trkpt lat="45.76506810207902" lon="8.546118062407231"><ele>299.5</ele><time>2026-04-01T09:50:30.999Z</time></trkpt><trkpt lat="45.76519011774874" lon="8.546126194913919"><ele>300.0</ele><time>2026-04-01T09:50:31.999Z</time></trkpt><trkpt lat="45.76532542880526" lon="8.546118816049429"><ele>298.5</ele><time>2026-04-01T09:50:32.999Z</time></trkpt><trkpt lat="45.76546797872383" lon="8.546135443137933"><ele>297.0</ele><time>2026-04-01T09:50:33.999Z</time></trkpt><trkpt lat="45.765604011183655" lon="8.546145654866455"><ele>295.5</ele><time>2026-04-01T09:50:34.999Z</time></trkpt><trkpt lat="45.76576667037697" lon="8.546169548599389"><ele>294.0</ele><time>2026-04-01T09:50:35.999Z</time></trkpt><trkpt lat="45.765929492897776" lon="8.546236839786932"><ele>293.3333333333333</ele><time>2026-04-01T09:50:36.999Z</time></trkpt><trkpt lat="45.766096813089646" lon="8.546262363013543"><ele>292.66666666666663</ele><time>2026-04-01T09:50:37.999Z</time></trkpt><trkpt lat="45.766266833952564" lon="8.546291844282662"><ele>292.0</ele><time>2026-04-01T09:50:38.999Z</time></trkpt><trkpt lat="45.76642694263261" lon="8.546318982793215"><ele>292.0</ele><time>2026-04-01T09:50:39.999Z</time></trkpt><trkpt lat="45.766588867082504" lon="8.546330179752731"><ele>292.0</ele><time>2026-04-01T09:50:40.999Z</time></trkpt><trkpt lat="45.76674093962649" lon="8.546315300699302"><ele>292.0</ele><time>2026-04-01T09:50:41.999Z</time></trkpt><trkpt lat="45.766884465980965" lon="8.54622715164158"><ele>292.0</ele><time>2026-04-01T09:50:42.999Z</time></trkpt><trkpt lat="45.767022937672465" lon="8.5461394739806"><ele>292.0</ele><time>2026-04-01T09:50:43.999Z</time></trkpt><trkpt lat="45.767173083443446" lon="8.546071326365862"><ele>292.0</ele><time>2026-04-01T09:50:44.999Z</time></trkpt><trkpt lat="45.767321449716306" lon="8.545991531319931"><ele>292.0</ele><time>2026-04-01T09:50:45.999Z</time></trkpt><trkpt lat="45.76747065184512" lon="8.54590294956836"><ele>292.0</ele><time>2026-04-01T09:50:46.999Z</time></trkpt><trkpt lat="45.76761857126059" lon="8.545810632530156"><ele>292.0</ele><time>2026-04-01T09:50:47.999Z</time></trkpt><trkpt lat="45.767755115652854" lon="8.545719987050866"><ele>289.5</ele><time>2026-04-01T09:50:48.999Z</time></trkpt><trkpt lat="45.7678925092933" lon="8.54564094964654"><ele>287.0</ele><time>2026-04-01T09:50:49.999Z</time></trkpt><trkpt lat="45.76801128253311" lon="8.545559402383375"><ele>284.5</ele><time>2026-04-01T09:50:50.999Z</time></trkpt><trkpt lat="45.768121809954216" lon="8.545492269705631"><ele>282.0</ele><time>2026-04-01T09:50:51.999Z</time></trkpt><trkpt lat="45.768227799235746" lon="8.545427959873557"><ele>283.8</ele><time>2026-04-01T09:50:52.999Z</time></trkpt><trkpt lat="45.76832383153038" lon="8.545367809451742"><ele>285.6</ele><time>2026-04-01T09:50:53.999Z</time></trkpt><trkpt lat="45.76841492146764" lon="8.545310222810686"><ele>287.40000000000003</ele><time>2026-04-01T09:50:54.999Z</time></trkpt><trkpt lat="45.76848863120263" lon="8.545257550256997"><ele>289.2</ele><time>2026-04-01T09:50:55.999Z</time></trkpt><trkpt lat="45.76858261818332" lon="8.545172924041779"><ele>291.0</ele><time>2026-04-01T09:50:58Z</time></trkpt><trkpt lat="45.7686657311755" lon="8.545098095592856"><ele>291.0</ele><time>2026-04-01T09:51:00Z</time></trkpt><trkpt lat="45.76875482141679" lon="8.545053057981113"><ele>291.0</ele><time>2026-04-01T09:51:02Z</time></trkpt><trkpt lat="45.768610470549554" lon="8.544880879834652"><ele>291.0</ele><time>2026-04-01T09:51:07Z</time></trkpt><trkpt lat="45.76849310480666" lon="8.544825164646182"><ele>291.0</ele><time>2026-04-01T09:51:09Z</time></trkpt><trkpt lat="45.76842692167672" lon="8.54479152062166"><ele>291.5</ele><time>2026-04-01T09:51:10Z</time></trkpt><trkpt lat="45.76834955139274" lon="8.544748391223091"><ele>292.0</ele><time>2026-04-01T09:51:11Z</time></trkpt><trkpt lat="45.76828371658475" lon="8.54469668616793"><ele>292.5</ele><time>2026-04-01T09:51:12Z</time></trkpt><trkpt lat="45.76821809070747" lon="8.544647945359312"><ele>293.0</ele><time>2026-04-01T09:51:13Z</time></trkpt><trkpt lat="45.76814235892299" lon="8.54459612542691"><ele>293.5</ele><time>2026-04-01T09:51:14Z</time></trkpt><trkpt lat="45.768075957084896" lon="8.544551529991804"><ele>294.0</ele><time>2026-04-01T09:51:15Z</time></trkpt><trkpt lat="45.768007187003725" lon="8.544518463556068"><ele>294.7142857142857</ele><time>2026-04-01T09:51:16Z</time></trkpt><trkpt lat="45.76794090997119" lon="8.544476687490711"><ele>295.42857142857144</ele><time>2026-04-01T09:51:17Z</time></trkpt><trkpt lat="45.76787327134459" lon="8.544429402153206"><ele>296.1428571428571</ele><time>2026-04-01T09:51:18Z</time></trkpt><trkpt lat="45.76780179899178" lon="8.54438636206923"><ele>296.8571428571429</ele><time>2026-04-01T09:51:19Z</time></trkpt><trkpt lat="45.76773706058262" lon="8.54434291693423"><ele>297.57142857142856</ele><time>2026-04-01T09:51:20Z</time></trkpt><trkpt lat="45.767663639027845" lon="8.544311479090894"><ele>298.2857142857143</ele><time>2026-04-01T09:51:21Z</time></trkpt><trkpt lat="45.76759505214054" lon="8.544275993254344"><ele>299.0</ele><time>2026-04-01T09:51:22Z</time></trkpt><trkpt lat="45.76753261569588" lon="8.54423511289954"><ele>299.0</ele><time>2026-04-01T09:51:23Z</time></trkpt><trkpt lat="45.76744970226538" lon="8.5442528545914"><ele>299.0</ele><time>2026-04-01T09:51:25Z</time></trkpt><trkpt lat="45.7673267021752" lon="8.544252544285737"><ele>299.0</ele><time>2026-04-01T09:51:27Z</time></trkpt><trkpt lat="45.767233597459565" lon="8.544222312730987"><ele>299.0</ele><time>2026-04-01T09:51:29Z</time></trkpt><trkpt lat="45.76715326213459" lon="8.544204448014344"><ele>299.0</ele><time>2026-04-01T09:51:30Z</time></trkpt><trkpt lat="45.76707601826488" lon="8.544201586667347"><ele>299.0</ele><time>2026-04-01T09:51:31Z</time></trkpt><trkpt lat="45.7669901802827" lon="8.544200923656842"><ele>299.0</ele><time>2026-04-01T09:51:32Z</time></trkpt><trkpt lat="45.76692385316117" lon="8.54419881536725"><ele>299.0</ele><time>2026-04-01T09:51:33Z</time></trkpt><trkpt lat="45.76685596396367" lon="8.544208129248757"><ele>299.0</ele><time>2026-04-01T09:51:34Z</time></trkpt><trkpt lat="45.76671940843846" lon="8.5442085045515"><ele>299.0</ele><time>2026-04-01T09:51:36Z</time></trkpt><trkpt lat="45.76665545208116" lon="8.544234052442794"><ele>299.0</ele><time>2026-04-01T09:51:37Z</time></trkpt><trkpt lat="45.76658750671052" lon="8.544265865203721"><ele>298.7142857142857</ele><time>2026-04-01T09:51:38Z</time></trkpt><trkpt lat="45.76652342337767" lon="8.544296488219072"><ele>298.42857142857144</ele><time>2026-04-01T09:51:39Z</time></trkpt><trkpt lat="45.76644996165268" lon="8.544346927397752"><ele>298.14285714285717</ele><time>2026-04-01T09:51:40Z</time></trkpt><trkpt lat="45.76637932402392" lon="8.544377917238961"><ele>297.8571428571429</ele><time>2026-04-01T09:51:41Z</time></trkpt><trkpt lat="45.76630890207529" lon="8.544414089730704"><ele>297.5714285714286</ele><time>2026-04-01T09:51:42Z</time></trkpt><trkpt lat="45.766242875414406" lon="8.544445275807016"><ele>297.2857142857143</ele><time>2026-04-01T09:51:43Z</time></trkpt><trkpt lat="45.766182729633236" lon="8.544509060011261"><ele>297.0</ele><time>2026-04-01T09:51:44Z</time></trkpt><trkpt lat="45.76610592513984" lon="8.544622087599134"><ele>296.1666666666667</ele><time>2026-04-01T09:51:46Z</time></trkpt><trkpt lat="45.76604566384069" lon="8.544684703067812"><ele>295.3333333333333</ele><time>2026-04-01T09:51:47Z</time></trkpt><trkpt lat="45.765981964763164" lon="8.544761746513629"><ele>294.5</ele><time>2026-04-01T09:51:48Z</time></trkpt><trkpt lat="45.76591272398973" lon="8.544830156744213"><ele>293.66666666666663</ele><time>2026-04-01T09:51:49Z</time></trkpt><trkpt lat="45.76584421250362" lon="8.544888111364363"><ele>292.8333333333333</ele><time>2026-04-01T09:51:50Z</time></trkpt><trkpt lat="45.76577768995268" lon="8.544947348012359"><ele>292.0</ele><time>2026-04-01T09:51:51Z</time></trkpt><trkpt lat="45.765726275968106" lon="8.545024784411934"><ele>292.0</ele><time>2026-04-01T09:51:52Z</time></trkpt><trkpt lat="45.7657062646761" lon="8.545110996306187"><ele>292.0</ele><time>2026-04-01T09:51:53Z</time></trkpt><trkpt lat="45.765696669258645" lon="8.54520156845391"><ele>292.0</ele><time>2026-04-01T09:51:54Z</time></trkpt><trkpt lat="45.76571395698513" lon="8.545356082809258"><ele>292.0</ele><time>2026-04-01T09:51:56Z</time></trkpt><trkpt lat="45.765736644665026" lon="8.545455304824708"><ele>292.0</ele><time>2026-04-01T09:51:57Z</time></trkpt><trkpt lat="45.76573978727044" lon="8.545608447489792"><ele>292.0</ele><time>2026-04-01T09:51:59Z</time></trkpt><trkpt lat="45.76566462904647" lon="8.545738711339062"><ele>292.16666666666663</ele><time>2026-04-01T09:52:01Z</time></trkpt><trkpt lat="45.765615203250526" lon="8.545802932890938"><ele>292.3333333333333</ele><time>2026-04-01T09:52:02Z</time></trkpt><trkpt lat="45.76556799102332" lon="8.545878292682643"><ele>292.5</ele><time>2026-04-01T09:52:03Z</time></trkpt><trkpt lat="45.76546433939805" lon="8.545961838956394"><ele>292.6666666666667</ele><time>2026-04-01T09:52:05Z</time></trkpt><trkpt lat="45.76538520597952" lon="8.545973774994959"><ele>292.83333333333337</ele><time>2026-04-01T09:52:06Z</time></trkpt><trkpt lat="45.7653123175881" lon="8.54597127662567"><ele>293.0</ele><time>2026-04-01T09:52:07Z</time></trkpt><trkpt lat="45.76524887908112" lon="8.545975962607168"><ele>294.1666666666667</ele><time>2026-04-01T09:52:08Z</time></trkpt><trkpt lat="45.76515145213386" lon="8.54599801999248"><ele>295.33333333333337</ele><time>2026-04-01T09:52:10Z</time></trkpt><trkpt lat="45.76508457895005" lon="8.545967431311176"><ele>296.5</ele><time>2026-04-01T09:52:12Z</time></trkpt><trkpt lat="45.765015885415906" lon="8.545842808414998"><ele>297.6666666666667</ele><time>2026-04-01T09:52:14Z</time></trkpt><trkpt lat="45.7649821306556" lon="8.545765288712731"><ele>298.8333333333333</ele><time>2026-04-01T09:52:15Z</time></trkpt><trkpt lat="45.7649510979683" lon="8.54568202600859"><ele>300.0</ele><time>2026-04-01T09:52:16Z</time></trkpt><trkpt lat="45.76487927811665" lon="8.545591732773833"><ele>300.0</ele><time>2026-04-01T09:52:18Z</time></trkpt><trkpt lat="45.76481247788219" lon="8.545581567921479"><ele>300.0</ele><time>2026-04-01T09:52:21Z</time></trkpt><trkpt lat="45.764819939140985" lon="8.545491705425098"><ele>300.0</ele><time>2026-04-01T09:52:44.999Z</time></trkpt><trkpt lat="45.76475966138653" lon="8.545376220195628"><ele>300.0</ele><time>2026-04-01T09:52:47.999Z</time></trkpt><trkpt lat="45.76472412381272" lon="8.545236090605105"><ele>300.0</ele><time>2026-04-01T09:52:49.999Z</time></trkpt><trkpt lat="45.76469263312576" lon="8.545054488462421"><ele>299.8</ele><time>2026-04-01T09:52:51.999Z</time></trkpt><trkpt lat="45.764661987322164" lon="8.544972705827128"><ele>299.6</ele><time>2026-04-01T09:52:52.999Z</time></trkpt><trkpt lat="45.764572143706474" lon="8.544859382904958"><ele>299.4</ele><time>2026-04-01T09:52:54.999Z</time></trkpt><trkpt lat="45.76451775449596" lon="8.544812039226366"><ele>299.2</ele><time>2026-04-01T09:52:55.999Z</time></trkpt><trkpt lat="45.764442632349756" lon="8.544655420047881"><ele>299.0</ele><time>2026-04-01T09:52:57.999Z</time></trkpt><trkpt lat="45.76447084524397" lon="8.544511390149246"><ele>301.2</ele><time>2026-04-01T09:52:58.999Z</time></trkpt><trkpt lat="45.764347837637104" lon="8.544488014299374"><ele>303.4</ele><time>2026-04-01T09:52:59.999Z</time></trkpt><trkpt lat="45.764293468316154" lon="8.544423923225496"><ele>305.6</ele><time>2026-04-01T09:53:00.999Z</time></trkpt><trkpt lat="45.7642071245798" lon="8.544340416831977"><ele>307.8</ele><time>2026-04-01T09:53:01.999Z</time></trkpt><trkpt lat="45.764155902962514" lon="8.544225443970099"><ele>310.0</ele><time>2026-04-01T09:53:02.999Z</time></trkpt><trkpt lat="45.76411774243815" lon="8.544110389185839"><ele>310.0</ele><time>2026-04-01T09:53:04.001Z</time></trkpt><trkpt lat="45.76408856527051" lon="8.544010568661358"><ele>310.0</ele><time>2026-04-01T09:53:05Z</time></trkpt><trkpt lat="45.764050832546125" lon="8.543841771963331"><ele>310.0</ele><time>2026-04-01T09:53:07.001Z</time></trkpt><trkpt lat="45.76401778866448" lon="8.54373396685379"><ele>310.0</ele><time>2026-04-01T09:53:08Z</time></trkpt><trkpt lat="45.76398881831994" lon="8.54362718568651"><ele>310.0</ele><time>2026-04-01T09:53:09Z</time></trkpt><trkpt lat="45.76394699575259" lon="8.543452738350855"><ele>309.66666666666663</ele><time>2026-04-01T09:53:11Z</time></trkpt><trkpt lat="45.763935150142586" lon="8.543360926343304"><ele>309.3333333333333</ele><time>2026-04-01T09:53:12Z</time></trkpt><trkpt lat="45.76391908561656" lon="8.543266447633558"><ele>309.0</ele><time>2026-04-01T09:53:13.001Z</time></trkpt><trkpt lat="45.763882399237914" lon="8.543128721881413"><ele>308.6666666666667</ele><time>2026-04-01T09:53:14Z</time></trkpt><trkpt lat="45.76385628808725" lon="8.542995472478669"><ele>308.33333333333337</ele><time>2026-04-01T09:53:15Z</time></trkpt><trkpt lat="45.76381940291431" lon="8.542875608496773"><ele>308.0</ele><time>2026-04-01T09:53:16.001Z</time></trkpt><trkpt lat="45.763771867820566" lon="8.542774065982716"><ele>307.6</ele><time>2026-04-01T09:53:17Z</time></trkpt><trkpt lat="45.76370084812517" lon="8.542633993345289"><ele>307.20000000000005</ele><time>2026-04-01T09:53:19Z</time></trkpt><trkpt lat="45.763659934414385" lon="8.542528896499638"><ele>306.8</ele><time>2026-04-01T09:53:20Z</time></trkpt><trkpt lat="45.7636305370489" lon="8.542412744961414"><ele>306.40000000000003</ele><time>2026-04-01T09:53:21Z</time></trkpt><trkpt lat="45.76358695415061" lon="8.542266831037933"><ele>306.0</ele><time>2026-04-01T09:53:22Z</time></trkpt><trkpt lat="45.76354980788361" lon="8.542117007693992"><ele>307.6666666666667</ele><time>2026-04-01T09:53:23Z</time></trkpt><trkpt lat="45.763525940458656" lon="8.541990858314405"><ele>309.3333333333333</ele><time>2026-04-01T09:53:24Z</time></trkpt><trkpt lat="45.76349149815543" lon="8.541909986381816"><ele>311.0</ele><time>2026-04-01T09:53:25Z</time></trkpt><trkpt lat="45.76345587313129" lon="8.541832524895796"><ele>312.66666666666663</ele><time>2026-04-01T09:53:26Z</time></trkpt><trkpt lat="45.76342050268085" lon="8.541742243861504"><ele>314.3333333333333</ele><time>2026-04-01T09:53:27Z</time></trkpt><trkpt lat="45.763370181695876" lon="8.54158874342382"><ele>316.0</ele><time>2026-04-01T09:53:29Z</time></trkpt><trkpt lat="45.76328558188192" lon="8.541466814059135"><ele>316.0</ele><time>2026-04-01T09:53:31Z</time></trkpt><trkpt lat="45.76320845712131" lon="8.541379220908228"><ele>316.0</ele><time>2026-04-01T09:53:32Z</time></trkpt><trkpt lat="45.763125779848785" lon="8.54128702111061"><ele>316.0</ele><time>2026-04-01T09:53:33Z</time></trkpt><trkpt lat="45.76305109969412" lon="8.541205243251445"><ele>316.0</ele><time>2026-04-01T09:53:34Z</time></trkpt><trkpt lat="45.7629756462014" lon="8.541168935637232"><ele>316.0</ele><time>2026-04-01T09:53:35Z</time></trkpt><trkpt lat="45.76288673939854" lon="8.54112882747175"><ele>316.5</ele><time>2026-04-01T09:53:36Z</time></trkpt><trkpt lat="45.76278726477934" lon="8.541092767385418"><ele>317.0</ele><time>2026-04-01T09:53:37Z</time></trkpt><trkpt lat="45.762710416300486" lon="8.54105664349481"><ele>317.5</ele><time>2026-04-01T09:53:38Z</time></trkpt><trkpt lat="45.7626347541095" lon="8.541018032346589"><ele>318.0</ele><time>2026-04-01T09:53:39Z</time></trkpt><trkpt lat="45.76257471973123" lon="8.540968672321714"><ele>318.5</ele><time>2026-04-01T09:53:40Z</time></trkpt><trkpt lat="45.76250014253115" lon="8.540925037455992"><ele>319.0</ele><time>2026-04-01T09:53:41Z</time></trkpt><trkpt lat="45.76243455974749" lon="8.540866087920469"><ele>319.0</ele><time>2026-04-01T09:53:42Z</time></trkpt><trkpt lat="45.7623680209162" lon="8.540769404203564"><ele>319.0</ele><time>2026-04-01T09:53:43Z</time></trkpt><trkpt lat="45.76230869476628" lon="8.540651470155415"><ele>319.0</ele><time>2026-04-01T09:53:44Z</time></trkpt><trkpt lat="45.76224785123811" lon="8.540527650652459"><ele>319.0</ele><time>2026-04-01T09:53:45Z</time></trkpt><trkpt lat="45.76218287154448" lon="8.540384709375399"><ele>319.0</ele><time>2026-04-01T09:53:46Z</time></trkpt><trkpt lat="45.762127609356575" lon="8.540248885740876"><ele>316.59999999999997</ele><time>2026-04-01T09:53:47Z</time></trkpt><trkpt lat="45.76208841294084" lon="8.540158532959127"><ele>314.2</ele><time>2026-04-01T09:53:48Z</time></trkpt><trkpt lat="45.76204576363456" lon="8.540064744765894"><ele>311.79999999999995</ele><time>2026-04-01T09:53:49Z</time></trkpt><trkpt lat="45.76199534005966" lon="8.53994031568693"><ele>309.4</ele><time>2026-04-01T09:53:50Z</time></trkpt><trkpt lat="45.7619417487118" lon="8.539778689176607"><ele>307.0</ele><time>2026-04-01T09:53:51Z</time></trkpt><trkpt lat="45.761899232230384" lon="8.539636458924686"><ele>306.0</ele><time>2026-04-01T09:53:52Z</time></trkpt><trkpt lat="45.761869673877925" lon="8.539511801866613"><ele>305.0</ele><time>2026-04-01T09:53:53Z</time></trkpt><trkpt lat="45.76182965590866" lon="8.539395224814946"><ele>304.0</ele><time>2026-04-01T09:53:54Z</time></trkpt><trkpt lat="45.76177053890692" lon="8.539306081131421"><ele>303.0</ele><time>2026-04-01T09:53:55Z</time></trkpt><trkpt lat="45.76172717119232" lon="8.539212057590976"><ele>302.0</ele><time>2026-04-01T09:53:56Z</time></trkpt><trkpt lat="45.76169481435545" lon="8.53908127553392"><ele>301.0</ele><time>2026-04-01T09:53:57Z</time></trkpt><trkpt lat="45.761660233770584" lon="8.538981665977975"><ele>303.5</ele><time>2026-04-01T09:53:58Z</time></trkpt><trkpt lat="45.761616922138025" lon="8.538886107824768"><ele>306.0</ele><time>2026-04-01T09:53:59Z</time></trkpt><trkpt lat="45.76157658348606" lon="8.538808305368205"><ele>308.5</ele><time>2026-04-01T09:54:00Z</time></trkpt><trkpt lat="45.76152228527694" lon="8.538733509886635"><ele>311.0</ele><time>2026-04-01T09:54:01Z</time></trkpt><trkpt lat="45.76145739911895" lon="8.538654545800169"><ele>313.5</ele><time>2026-04-01T09:54:02Z</time></trkpt><trkpt lat="45.76140025841542" lon="8.538578522967816"><ele>316.0</ele><time>2026-04-01T09:54:03Z</time></trkpt><trkpt lat="45.76133767370091" lon="8.53847689024026"><ele>316.0</ele><time>2026-04-01T09:54:04Z</time></trkpt><trkpt lat="45.76128427503841" lon="8.538374687185406"><ele>316.0</ele><time>2026-04-01T09:54:05Z</time></trkpt><trkpt lat="45.761235380223944" lon="8.538269101812823"><ele>316.0</ele><time>2026-04-01T09:54:06Z</time></trkpt><trkpt lat="45.76118172185156" lon="8.53818516394195"><ele>316.0</ele><time>2026-04-01T09:54:07Z</time></trkpt><trkpt lat="45.76113320185638" lon="8.538095543462662"><ele>316.0</ele><time>2026-04-01T09:54:08Z</time></trkpt><trkpt lat="45.761094763138715" lon="8.538018776794825"><ele>316.0</ele><time>2026-04-01T09:54:09Z</time></trkpt><trkpt lat="45.76104723805004" lon="8.537858675674364"><ele>315.8</ele><time>2026-04-01T09:54:11Z</time></trkpt><trkpt lat="45.76103334850092" lon="8.53774911277205"><ele>315.6</ele><time>2026-04-01T09:54:12Z</time></trkpt><trkpt lat="45.76100399340246" lon="8.537628507325678"><ele>315.4</ele><time>2026-04-01T09:54:13Z</time></trkpt><trkpt lat="45.76097010678076" lon="8.537503908093784"><ele>315.2</ele><time>2026-04-01T09:54:14Z</time></trkpt><trkpt lat="45.7609323983499" lon="8.537381836056243"><ele>315.0</ele><time>2026-04-01T09:54:15Z</time></trkpt><trkpt lat="45.76090773518479" lon="8.537239934493888"><ele>315.1666666666667</ele><time>2026-04-01T09:54:16Z</time></trkpt><trkpt lat="45.7608787750996" lon="8.537105345870716"><ele>315.3333333333333</ele><time>2026-04-01T09:54:17Z</time></trkpt><trkpt lat="45.76086077099159" lon="8.537000965061557"><ele>315.5</ele><time>2026-04-01T09:54:18Z</time></trkpt><trkpt lat="45.76082383449578" lon="8.536825034449134"><ele>315.66666666666663</ele><time>2026-04-01T09:54:20Z</time></trkpt><trkpt lat="45.76079602507018" lon="8.536735713233607"><ele>315.8333333333333</ele><time>2026-04-01T09:54:21Z</time></trkpt><trkpt lat="45.76076254617075" lon="8.536642356671482"><ele>316.0</ele><time>2026-04-01T09:54:22Z</time></trkpt><trkpt lat="45.76070320343545" lon="8.53652520706995"><ele>316.0</ele><time>2026-04-01T09:54:22.999Z</time></trkpt><trkpt lat="45.76064719360734" lon="8.536411211308172"><ele>316.0</ele><time>2026-04-01T09:54:23.999Z</time></trkpt><trkpt lat="45.760602629931526" lon="8.536292559212686"><ele>316.0</ele><time>2026-04-01T09:54:24.999Z</time></trkpt><trkpt lat="45.760557814501" lon="8.536177094612574"><ele>316.0</ele><time>2026-04-01T09:54:25.999Z</time></trkpt><trkpt lat="45.76051120503727" lon="8.536069550463797"><ele>316.0</ele><time>2026-04-01T09:54:26.999Z</time></trkpt><trkpt lat="45.760491681730684" lon="8.535948802587791"><ele>316.0</ele><time>2026-04-01T09:54:27.999Z</time></trkpt><trkpt lat="45.76043449299291" lon="8.535863521834662"><ele>316.0</ele><time>2026-04-01T09:54:28.999Z</time></trkpt><trkpt lat="45.76036870981231" lon="8.535805910516746"><ele>316.0</ele><time>2026-04-01T09:54:29.999Z</time></trkpt><trkpt lat="45.76031827812101" lon="8.535739450129487"><ele>316.0</ele><time>2026-04-01T09:54:30.999Z</time></trkpt><trkpt lat="45.76026574997819" lon="8.53565263084465"><ele>316.0</ele><time>2026-04-01T09:54:31.999Z</time></trkpt><trkpt lat="45.760200566828026" lon="8.535560073432142"><ele>316.0</ele><time>2026-04-01T09:54:32.999Z</time></trkpt><trkpt lat="45.760144877517476" lon="8.535436699749544"><ele>314.66666666666663</ele><time>2026-04-01T09:54:33.999Z</time></trkpt><trkpt lat="45.76009654815626" lon="8.535320002616354"><ele>313.3333333333333</ele><time>2026-04-01T09:54:34.999Z</time></trkpt><trkpt lat="45.76004525222981" lon="8.53521606858632"><ele>312.0</ele><time>2026-04-01T09:54:35.999Z</time></trkpt><trkpt lat="45.76000885270049" lon="8.535130213056464"><ele>310.6666666666667</ele><time>2026-04-01T09:54:36.999Z</time></trkpt><trkpt lat="45.759990931872935" lon="8.535018968460939"><ele>309.33333333333337</ele><time>2026-04-01T09:54:37.999Z</time></trkpt><trkpt lat="45.759966563830886" lon="8.534892785550365"><ele>308.0</ele><time>2026-04-01T09:54:38.999Z</time></trkpt><trkpt lat="45.75996108692472" lon="8.534744815142542"><ele>308.0</ele><time>2026-04-01T09:54:39.999Z</time></trkpt><trkpt lat="45.7599507029309" lon="8.534630112081402"><ele>308.0</ele><time>2026-04-01T09:54:40.999Z</time></trkpt><trkpt lat="45.75993250056884" lon="8.534530089469405"><ele>308.0</ele><time>2026-04-01T09:54:41.999Z</time></trkpt><trkpt lat="45.759916327550684" lon="8.534425726595545"><ele>308.0</ele><time>2026-04-01T09:54:42.999Z</time></trkpt><trkpt lat="45.75990547332623" lon="8.53433243712032"><ele>308.0</ele><time>2026-04-01T09:54:43.999Z</time></trkpt><trkpt lat="45.75988600938701" lon="8.534236151964551"><ele>308.0</ele><time>2026-04-01T09:54:44.999Z</time></trkpt><trkpt lat="45.7598560341537" lon="8.534098602085802"><ele>308.2</ele><time>2026-04-01T09:54:46.999Z</time></trkpt><trkpt lat="45.75984744272885" lon="8.53399589709703"><ele>308.4</ele><time>2026-04-01T09:54:48.999Z</time></trkpt><trkpt lat="45.759849789601894" lon="8.533811478635533"><ele>308.59999999999997</ele><time>2026-04-01T09:54:50.999Z</time></trkpt><trkpt lat="45.75983728697558" lon="8.533677397285883"><ele>308.8</ele><time>2026-04-01T09:54:51.999Z</time></trkpt><trkpt lat="45.75986408792557" lon="8.533495571432137"><ele>309.0</ele><time>2026-04-01T09:54:52.999Z</time></trkpt><trkpt lat="45.75987295891732" lon="8.533348727001991"><ele>309.0</ele><time>2026-04-01T09:54:53.999Z</time></trkpt><trkpt lat="45.759871469158206" lon="8.533229596564828"><ele>309.0</ele><time>2026-04-01T09:54:54.999Z</time></trkpt><trkpt lat="45.75986771334287" lon="8.533110548150162"><ele>309.0</ele><time>2026-04-01T09:54:55.999Z</time></trkpt><trkpt lat="45.75986254548574" lon="8.5329894341421"><ele>309.0</ele><time>2026-04-01T09:54:56.999Z</time></trkpt><trkpt lat="45.75986925773196" lon="8.532870487591229"><ele>309.0</ele><time>2026-04-01T09:54:57.999Z</time></trkpt><trkpt lat="45.759888980267114" lon="8.532760445390828"><ele>309.0</ele><time>2026-04-01T09:54:58.999Z</time></trkpt><trkpt lat="45.75990804162437" lon="8.532640861290215"><ele>309.1666666666667</ele><time>2026-04-01T09:54:59.999Z</time></trkpt><trkpt lat="45.75993889037989" lon="8.532514764798972"><ele>309.3333333333333</ele><time>2026-04-01T09:55:00.999Z</time></trkpt><trkpt lat="45.759999213718196" lon="8.532423863268425"><ele>309.5</ele><time>2026-04-01T09:55:01.999Z</time></trkpt><trkpt lat="45.760039740049635" lon="8.532316222202393"><ele>309.66666666666663</ele><time>2026-04-01T09:55:02.999Z</time></trkpt><trkpt lat="45.7600828209846" lon="8.53217237795644"><ele>309.8333333333333</ele><time>2026-04-01T09:55:04.999Z</time></trkpt><trkpt lat="45.76009705522918" lon="8.53208383527033"><ele>310.0</ele><time>2026-04-01T09:55:05.999Z</time></trkpt><trkpt lat="45.76010157518397" lon="8.531989679686177"><ele>310.66666666666663</ele><time>2026-04-01T09:55:06.999Z</time></trkpt><trkpt lat="45.76008683533596" lon="8.531834242026438"><ele>311.3333333333333</ele><time>2026-04-01T09:55:08.999Z</time></trkpt><trkpt lat="45.7600725070532" lon="8.531724422338263"><ele>312.0</ele><time>2026-04-01T09:55:10.001Z</time></trkpt><trkpt lat="45.76006520229012" lon="8.531618934396164"><ele>312.6666666666667</ele><time>2026-04-01T09:55:11.001Z</time></trkpt><trkpt lat="45.760066609399054" lon="8.531518692819104"><ele>313.33333333333337</ele><time>2026-04-01T09:55:12.001Z</time></trkpt><trkpt lat="45.76008665923786" lon="8.531415382640015"><ele>314.0</ele><time>2026-04-01T09:55:13.001Z</time></trkpt><trkpt lat="45.76011723921779" lon="8.531319254091146"><ele>314.0</ele><time>2026-04-01T09:55:14.001Z</time></trkpt><trkpt lat="45.76015689276358" lon="8.531197724091525"><ele>314.0</ele><time>2026-04-01T09:55:15.001Z</time></trkpt><trkpt lat="45.76018862363644" lon="8.531102689825845"><ele>314.0</ele><time>2026-04-01T09:55:16.001Z</time></trkpt><trkpt lat="45.76022649485833" lon="8.531005222996148"><ele>314.0</ele><time>2026-04-01T09:55:17.001Z</time></trkpt><trkpt lat="45.76024780432316" lon="8.530911273788092"><ele>314.0</ele><time>2026-04-01T09:55:18.001Z</time></trkpt><trkpt lat="45.76030183577735" lon="8.530779014760407"><ele>314.0</ele><time>2026-04-01T09:55:20.001Z</time></trkpt><trkpt lat="45.76032859397857" lon="8.530690160502939"><ele>314.0</ele><time>2026-04-01T09:55:21.001Z</time></trkpt><trkpt lat="45.76036304067405" lon="8.53060400207273"><ele>314.0</ele><time>2026-04-01T09:55:22.001Z</time></trkpt><trkpt lat="45.76037921169514" lon="8.530505389038673"><ele>314.0</ele><time>2026-04-01T09:55:23.001Z</time></trkpt><trkpt lat="45.76039870273068" lon="8.530390955745661"><ele>314.0</ele><time>2026-04-01T09:55:24.001Z</time></trkpt><trkpt lat="45.76041391841675" lon="8.530253290686957"><ele>314.0</ele><time>2026-04-01T09:55:25.001Z</time></trkpt><trkpt lat="45.76045406775032" lon="8.530129716607464"><ele>314.0</ele><time>2026-04-01T09:55:26.001Z</time></trkpt><trkpt lat="45.76050516556228" lon="8.530007538328679"><ele>312.59999999999997</ele><time>2026-04-01T09:55:27.001Z</time></trkpt><trkpt lat="45.76054836824684" lon="8.529891852175462"><ele>311.2</ele><time>2026-04-01T09:55:28.001Z</time></trkpt><trkpt lat="45.760591138632236" lon="8.52977837161931"><ele>309.79999999999995</ele><time>2026-04-01T09:55:29.001Z</time></trkpt><trkpt lat="45.76063143689046" lon="8.529654865555115"><ele>308.4</ele><time>2026-04-01T09:55:30Z</time></trkpt><trkpt lat="45.76068246137408" lon="8.529550583699644"><ele>307.0</ele><time>2026-04-01T09:55:31Z</time></trkpt><trkpt lat="45.760713887109766" lon="8.529435580525938"><ele>306.0</ele><time>2026-04-01T09:55:32Z</time></trkpt><trkpt lat="45.76074047847922" lon="8.529333696001176"><ele>305.0</ele><time>2026-04-01T09:55:33Z</time></trkpt><trkpt lat="45.76076108013857" lon="8.529232285471057"><ele>304.0</ele><time>2026-04-01T09:55:34Z</time></trkpt><trkpt lat="45.760741445380404" lon="8.529067861282464"><ele>303.0</ele><time>2026-04-01T09:55:36Z</time></trkpt><trkpt lat="45.76072656968432" lon="8.528948246510591"><ele>302.0</ele><time>2026-04-01T09:55:37Z</time></trkpt><trkpt lat="45.76069559054477" lon="8.528782273455418"><ele>302.4</ele><time>2026-04-01T09:55:38Z</time></trkpt><trkpt lat="45.76068576211072" lon="8.528607055963064"><ele>302.79999999999995</ele><time>2026-04-01T09:55:39Z</time></trkpt><trkpt lat="45.76067504955903" lon="8.528492582163462"><ele>303.2</ele><time>2026-04-01T09:55:40Z</time></trkpt><trkpt lat="45.76063543747337" lon="8.5283248238946"><ele>303.59999999999997</ele><time>2026-04-01T09:55:42Z</time></trkpt><trkpt lat="45.76062190552896" lon="8.528236023857225"><ele>304.0</ele><time>2026-04-01T09:55:43Z</time></trkpt><trkpt lat="45.76060538889697" lon="8.528122934476428"><ele>304.0</ele><time>2026-04-01T09:55:44Z</time></trkpt><trkpt lat="45.7606056331972" lon="8.52801969930085"><ele>304.0</ele><time>2026-04-01T09:55:45Z</time></trkpt><trkpt lat="45.76057377940234" lon="8.527870674702728"><ele>304.0</ele><time>2026-04-01T09:55:47Z</time></trkpt><trkpt lat="45.760470727957085" lon="8.52781063095001"><ele>304.0</ele><time>2026-04-01T09:55:49Z</time></trkpt><trkpt lat="45.760359559361774" lon="8.52787526863339"><ele>304.0</ele><time>2026-04-01T09:55:51Z</time></trkpt><trkpt lat="45.760304279345824" lon="8.527945956251695"><ele>304.0</ele><time>2026-04-01T09:55:52Z</time></trkpt><trkpt lat="45.76022985473736" lon="8.528012154824268"><ele>304.0</ele><time>2026-04-01T09:55:53Z</time></trkpt><trkpt lat="45.76013670339507" lon="8.52807037975136"><ele>304.0</ele><time>2026-04-01T09:55:54Z</time></trkpt><trkpt lat="45.76001941081098" lon="8.528089605418584"><ele>304.0</ele><time>2026-04-01T09:55:55Z</time></trkpt><trkpt lat="45.759903968403115" lon="8.528074833609896"><ele>304.0</ele><time>2026-04-01T09:55:56Z</time></trkpt><trkpt lat="45.759790711963745" lon="8.52806904039897"><ele>304.75</ele><time>2026-04-01T09:55:57Z</time></trkpt><trkpt lat="45.75966216342319" lon="8.528069448162745"><ele>305.5</ele><time>2026-04-01T09:55:58Z</time></trkpt><trkpt lat="45.759538627071414" lon="8.528079925612197"><ele>306.25</ele><time>2026-04-01T09:55:59Z</time></trkpt><trkpt lat="45.759417368845114" lon="8.52808259716043"><ele>307.0</ele><time>2026-04-01T09:56:00Z</time></trkpt><trkpt lat="45.759296584393255" lon="8.52805626212311"><ele>307.0</ele><time>2026-04-01T09:56:01Z</time></trkpt><trkpt lat="45.75917096763088" lon="8.52801897611602"><ele>307.0</ele><time>2026-04-01T09:56:02Z</time></trkpt><trkpt lat="45.75905801297199" lon="8.52798589520976"><ele>307.0</ele><time>2026-04-01T09:56:03Z</time></trkpt><trkpt lat="45.758942906347436" lon="8.527937710366231"><ele>307.0</ele><time>2026-04-01T09:56:04Z</time></trkpt><trkpt lat="45.75883089767055" lon="8.527872948076904"><ele>306.6</ele><time>2026-04-01T09:56:05Z</time></trkpt><trkpt lat="45.75872251991185" lon="8.527814272791694"><ele>306.2</ele><time>2026-04-01T09:56:06Z</time></trkpt><trkpt lat="45.758622932772866" lon="8.527727025342859"><ele>305.8</ele><time>2026-04-01T09:56:07Z</time></trkpt><trkpt lat="45.758542281249426" lon="8.527636833121926"><ele>305.4</ele><time>2026-04-01T09:56:08Z</time></trkpt><trkpt lat="45.75846317476405" lon="8.527529207616217"><ele>305.0</ele><time>2026-04-01T09:56:09Z</time></trkpt><trkpt lat="45.75839762242119" lon="8.52742854955959"><ele>305.0</ele><time>2026-04-01T09:56:10Z</time></trkpt><trkpt lat="45.758323904898326" lon="8.527345034767105"><ele>305.0</ele><time>2026-04-01T09:56:11Z</time></trkpt><trkpt lat="45.758264421323155" lon="8.527238045098077"><ele>305.0</ele><time>2026-04-01T09:56:12Z</time></trkpt><trkpt lat="45.75821940336642" lon="8.527130679557786"><ele>305.0</ele><time>2026-04-01T09:56:13Z</time></trkpt><trkpt lat="45.758194944901994" lon="8.52700344602997"><ele>305.0</ele><time>2026-04-01T09:56:14Z</time></trkpt><trkpt lat="45.75817815076215" lon="8.526866142683973"><ele>304.6</ele><time>2026-04-01T09:56:15Z</time></trkpt><trkpt lat="45.758172911331314" lon="8.526714886032428"><ele>304.2</ele><time>2026-04-01T09:56:16Z</time></trkpt><trkpt lat="45.75819072244884" lon="8.526561839770258"><ele>303.8</ele><time>2026-04-01T09:56:17Z</time></trkpt><trkpt lat="45.75822052309583" lon="8.526413187671038"><ele>303.4</ele><time>2026-04-01T09:56:18Z</time></trkpt><trkpt lat="45.75823569109148" lon="8.526262472590233"><ele>303.0</ele><time>2026-04-01T09:56:19Z</time></trkpt><trkpt lat="45.75824488008873" lon="8.526105735863178"><ele>303.0</ele><time>2026-04-01T09:56:20Z</time></trkpt><trkpt lat="45.75823322404111" lon="8.525951625168032"><ele>303.0</ele><time>2026-04-01T09:56:21Z</time></trkpt><trkpt lat="45.758233086547975" lon="8.525805104750775"><ele>303.0</ele><time>2026-04-01T09:56:22Z</time></trkpt><trkpt lat="45.7582389645259" lon="8.52565727940679"><ele>303.0</ele><time>2026-04-01T09:56:23Z</time></trkpt><trkpt lat="45.758249091867505" lon="8.525511675390751"><ele>303.0</ele><time>2026-04-01T09:56:24Z</time></trkpt><trkpt lat="45.75824344922158" lon="8.525362830085582"><ele>302.8</ele><time>2026-04-01T09:56:25Z</time></trkpt><trkpt lat="45.75823986978378" lon="8.525217054755249"><ele>302.6</ele><time>2026-04-01T09:56:26Z</time></trkpt><trkpt lat="45.758233329476965" lon="8.525065621601994"><ele>302.4</ele><time>2026-04-01T09:56:27Z</time></trkpt><trkpt lat="45.75823612491393" lon="8.524920192872331"><ele>302.2</ele><time>2026-04-01T09:56:28Z</time></trkpt><trkpt lat="45.75823133968603" lon="8.524773522727672"><ele>302.0</ele><time>2026-04-01T09:56:29Z</time></trkpt><trkpt lat="45.75822166753027" lon="8.524629324050643"><ele>302.6</ele><time>2026-04-01T09:56:30Z</time></trkpt><trkpt lat="45.758209815727035" lon="8.524481576445764"><ele>303.2</ele><time>2026-04-01T09:56:31Z</time></trkpt><trkpt lat="45.75819831636713" lon="8.524346239165286"><ele>303.8</ele><time>2026-04-01T09:56:32Z</time></trkpt><trkpt lat="45.7581941278153" lon="8.524197813589357"><ele>304.4</ele><time>2026-04-01T09:56:33Z</time></trkpt><trkpt lat="45.758191422526465" lon="8.524056586161034"><ele>305.0</ele><time>2026-04-01T09:56:34Z</time></trkpt><trkpt lat="45.75819461156311" lon="8.523915084237451"><ele>305.0</ele><time>2026-04-01T09:56:35Z</time></trkpt><trkpt lat="45.7581869115715" lon="8.523776295110006"><ele>305.0</ele><time>2026-04-01T09:56:36Z</time></trkpt><trkpt lat="45.75817837913651" lon="8.523641155913909"><ele>305.0</ele><time>2026-04-01T09:56:37Z</time></trkpt><trkpt lat="45.75817261131547" lon="8.52349859938011"><ele>305.0</ele><time>2026-04-01T09:56:38Z</time></trkpt><trkpt lat="45.7581665808352" lon="8.523369642709294"><ele>305.0</ele><time>2026-04-01T09:56:39Z</time></trkpt><trkpt lat="45.758159911129894" lon="8.523254490452372"><ele>305.33333333333337</ele><time>2026-04-01T09:56:40Z</time></trkpt><trkpt lat="45.75815438523384" lon="8.523160808512143"><ele>305.6666666666667</ele><time>2026-04-01T09:56:41Z</time></trkpt><trkpt lat="45.75815788325696" lon="8.523032566977918"><ele>306.0</ele><time>2026-04-01T09:56:43Z</time></trkpt><trkpt lat="45.758245013111214" lon="8.523001925521456"><ele>306.3333333333333</ele><time>2026-04-01T09:56:45Z</time></trkpt><trkpt lat="45.758340059083665" lon="8.52300686951018"><ele>306.66666666666663</ele><time>2026-04-01T09:56:47Z</time></trkpt><trkpt lat="45.75841193189756" lon="8.522985260263333"><ele>307.0</ele><time>2026-04-01T09:56:48.999Z</time></trkpt><trkpt lat="45.75849708476821" lon="8.52294186038897"><ele>309.3333333333333</ele><time>2026-04-01T09:57:18Z</time></trkpt><trkpt lat="45.758605720278354" lon="8.522878263528655"><ele>311.66666666666663</ele><time>2026-04-01T09:57:20.001Z</time></trkpt><trkpt lat="45.75866503529474" lon="8.522834646786482"><ele>314.0</ele><time>2026-04-01T09:57:21.001Z</time></trkpt><trkpt lat="45.75874498662699" lon="8.522796978680486"><ele>316.3333333333333</ele><time>2026-04-01T09:57:22.001Z</time></trkpt><trkpt lat="45.75883328161266" lon="8.522817844727209"><ele>318.6666666666667</ele><time>2026-04-01T09:57:23Z</time></trkpt><trkpt lat="45.75891272818173" lon="8.522777769837223"><ele>321.0</ele><time>2026-04-01T09:57:24Z</time></trkpt><trkpt lat="45.75898871358327" lon="8.522733683565095"><ele>321.0</ele><time>2026-04-01T09:57:25.001Z</time></trkpt><trkpt lat="45.75910295763332" lon="8.522663815430205"><ele>321.0</ele><time>2026-04-01T09:57:27Z</time></trkpt><trkpt lat="45.75915661655158" lon="8.522602933758126"><ele>321.0</ele><time>2026-04-01T09:57:28.001Z</time></trkpt><trkpt lat="45.75925639248442" lon="8.52252968603576"><ele>321.0</ele><time>2026-04-01T09:57:30Z</time></trkpt><trkpt lat="45.75934609053009" lon="8.522514556860797"><ele>321.0</ele><time>2026-04-01T09:57:32Z</time></trkpt><trkpt lat="45.75927658791456" lon="8.522266370219182"><ele>321.0</ele><time>2026-04-01T09:57:35Z</time></trkpt><trkpt lat="45.75917835187372" lon="8.522148368864313"><ele>321.0</ele><time>2026-04-01T09:57:37Z</time></trkpt><trkpt lat="45.75913387951116" lon="8.522071490736783"><ele>321.0</ele><time>2026-04-01T09:57:38Z</time></trkpt><trkpt lat="45.75906556872786" lon="8.521940461832209"><ele>321.0</ele><time>2026-04-01T09:57:40Z</time></trkpt><trkpt lat="45.759020152778426" lon="8.521814965588947"><ele>321.0</ele><time>2026-04-01T09:57:42Z</time></trkpt><trkpt lat="45.75893008644403" lon="8.521700840143161"><ele>322.3333333333333</ele><time>2026-04-01T09:57:44Z</time></trkpt><trkpt lat="45.75888669925749" lon="8.521628024462958"><ele>323.6666666666667</ele><time>2026-04-01T09:57:45Z</time></trkpt><trkpt lat="45.75881379347767" lon="8.52149995993747"><ele>325.0</ele><time>2026-04-01T09:57:47Z</time></trkpt><trkpt lat="45.75877893719743" lon="8.521422710078818"><ele>326.33333333333337</ele><time>2026-04-01T09:57:48Z</time></trkpt><trkpt lat="45.758714857991244" lon="8.521291779259832"><ele>327.6666666666667</ele><time>2026-04-01T09:57:50Z</time></trkpt><trkpt lat="45.7586639114604" lon="8.52119956489267"><ele>329.0</ele><time>2026-04-01T09:57:51Z</time></trkpt><trkpt lat="45.75862870864921" lon="8.521119340416357"><ele>330.83333333333337</ele><time>2026-04-01T09:57:52Z</time></trkpt><trkpt lat="45.758595262003794" lon="8.521039571082632"><ele>332.6666666666667</ele><time>2026-04-01T09:57:53Z</time></trkpt><trkpt lat="45.75855449203911" lon="8.520956408897883"><ele>334.5</ele><time>2026-04-01T09:57:54Z</time></trkpt><trkpt lat="45.75849837617974" lon="8.520872023568526"><ele>336.3333333333333</ele><time>2026-04-01T09:57:55Z</time></trkpt><trkpt lat="45.758454574112676" lon="8.52077455565974"><ele>338.16666666666663</ele><time>2026-04-01T09:57:56Z</time></trkpt><trkpt lat="45.758412319207274" lon="8.520696680444969"><ele>340.0</ele><time>2026-04-01T09:57:57Z</time></trkpt><trkpt lat="45.758342744019245" lon="8.520545877392086"><ele>336.6</ele><time>2026-04-01T09:57:59Z</time></trkpt><trkpt lat="45.75829190548839" lon="8.520394218221789"><ele>333.2</ele><time>2026-04-01T09:58:01Z</time></trkpt><trkpt lat="45.758248435325584" lon="8.520322149737384"><ele>329.79999999999995</ele><time>2026-04-01T09:58:02Z</time></trkpt><trkpt lat="45.75820661078873" lon="8.520237486827208"><ele>326.4</ele><time>2026-04-01T09:58:03Z</time></trkpt><trkpt lat="45.75814702398748" lon="8.52011018758251"><ele>323.0</ele><time>2026-04-01T09:58:05Z</time></trkpt><trkpt lat="45.758096853976824" lon="8.519973949968655"><ele>323.0</ele><time>2026-04-01T09:58:07Z</time></trkpt><trkpt lat="45.75807930093072" lon="8.519872885552122"><ele>323.0</ele><time>2026-04-01T09:58:10Z</time></trkpt><trkpt lat="45.7580356160483" lon="8.519801618440125"><ele>323.0</ele><time>2026-04-01T09:58:15Z</time></trkpt><trkpt lat="45.75802568349131" lon="8.519686229848979"><ele>323.0</ele><time>2026-04-01T09:58:41.999Z</time></trkpt><trkpt lat="45.75815975910738" lon="8.51948887625261"><ele>323.0</ele><time>2026-04-01T10:00:50.999Z</time></trkpt><trkpt lat="45.75821989693237" lon="8.519453497733963"><ele>323.59999999999997</ele><time>2026-04-01T10:00:51.999Z</time></trkpt><trkpt lat="45.75827783194917" lon="8.51940658790305"><ele>324.2</ele><time>2026-04-01T10:00:52.999Z</time></trkpt><trkpt lat="45.75838745482502" lon="8.519331331596385"><ele>324.8</ele><time>2026-04-01T10:00:54.999Z</time></trkpt><trkpt lat="45.75846098412337" lon="8.519282054562797"><ele>325.4</ele><time>2026-04-01T10:00:55.999Z</time></trkpt><trkpt lat="45.75856376620377" lon="8.51927057651001"><ele>326.0</ele><time>2026-04-01T10:00:56.999Z</time></trkpt><trkpt lat="45.75865913585121" lon="8.519305514351728"><ele>326.0</ele><time>2026-04-01T10:00:57.999Z</time></trkpt><trkpt lat="45.758756483836166" lon="8.519340349473381"><ele>326.0</ele><time>2026-04-01T10:00:58.999Z</time></trkpt><trkpt lat="45.758855791676986" lon="8.51940155792487"><ele>326.0</ele><time>2026-04-01T10:00:59.999Z</time></trkpt><trkpt lat="45.75896037767004" lon="8.51946690769898"><ele>326.0</ele><time>2026-04-01T10:01:00.999Z</time></trkpt><trkpt lat="45.75908782574547" lon="8.519539174401562"><ele>329.25</ele><time>2026-04-01T10:01:01.999Z</time></trkpt><trkpt lat="45.75920898955907" lon="8.519583224031066"><ele>332.5</ele><time>2026-04-01T10:01:02.999Z</time></trkpt><trkpt lat="45.759343331159435" lon="8.519651920669626"><ele>335.75</ele><time>2026-04-01T10:01:03.999Z</time></trkpt><trkpt lat="45.75949469258277" lon="8.519681780738031"><ele>339.0</ele><time>2026-04-01T10:01:04.999Z</time></trkpt><trkpt lat="45.75964725997521" lon="8.519695178996185"><ele>339.75</ele><time>2026-04-01T10:01:05.999Z</time></trkpt><trkpt lat="45.75978254798086" lon="8.519705547501193"><ele>340.5</ele><time>2026-04-01T10:01:06.999Z</time></trkpt><trkpt lat="45.75992626229487" lon="8.519718572992053"><ele>341.25</ele><time>2026-04-01T10:01:07.999Z</time></trkpt><trkpt lat="45.76007655976655" lon="8.519744379133286"><ele>342.0</ele><time>2026-04-01T10:01:08.999Z</time></trkpt><trkpt lat="45.760217550866315" lon="8.519758819510281"><ele>342.6666666666667</ele><time>2026-04-01T10:01:09.999Z</time></trkpt><trkpt lat="45.76036880177431" lon="8.519767394438492"><ele>343.33333333333337</ele><time>2026-04-01T10:01:10.999Z</time></trkpt><trkpt lat="45.76052664679789" lon="8.519733528115225"><ele>344.0</ele><time>2026-04-01T10:01:11.999Z</time></trkpt><trkpt lat="45.76069026478216" lon="8.51968326429054"><ele>344.0</ele><time>2026-04-01T10:01:12.999Z</time></trkpt><trkpt lat="45.76085462171622" lon="8.51963694285063"><ele>344.0</ele><time>2026-04-01T10:01:13.999Z</time></trkpt><trkpt lat="45.76102067957573" lon="8.519565148835147"><ele>344.0</ele><time>2026-04-01T10:01:14.999Z</time></trkpt><trkpt lat="45.76117466117853" lon="8.519480412348829"><ele>344.0</ele><time>2026-04-01T10:01:15.999Z</time></trkpt><trkpt lat="45.761306856444584" lon="8.519367396147137"><ele>344.0</ele><time>2026-04-01T10:01:16.999Z</time></trkpt><trkpt lat="45.761437946925675" lon="8.519225569569423"><ele>344.0</ele><time>2026-04-01T10:01:17.999Z</time></trkpt><trkpt lat="45.76157559673593" lon="8.519118282204163"><ele>344.0</ele><time>2026-04-01T10:01:18.999Z</time></trkpt><trkpt lat="45.761698912325656" lon="8.519008884142574"><ele>344.0</ele><time>2026-04-01T10:01:19.999Z</time></trkpt><trkpt lat="45.761802750470586" lon="8.518902037808012"><ele>344.0</ele><time>2026-04-01T10:01:20.999Z</time></trkpt><trkpt lat="45.76193445873798" lon="8.51884207867597"><ele>344.0</ele><time>2026-04-01T10:01:21.999Z</time></trkpt><trkpt lat="45.76209108428636" lon="8.518816335001823"><ele>346.6666666666667</ele><time>2026-04-01T10:01:22.999Z</time></trkpt><trkpt lat="45.7622407919884" lon="8.518821705992108"><ele>349.3333333333333</ele><time>2026-04-01T10:01:23.999Z</time></trkpt><trkpt lat="45.7623846054522" lon="8.518782158187292"><ele>352.0</ele><time>2026-04-01T10:01:24.999Z</time></trkpt><trkpt lat="45.76254062464255" lon="8.518778027751656"><ele>352.0</ele><time>2026-04-01T10:01:25.999Z</time></trkpt><trkpt lat="45.76269460122318" lon="8.518755012693244"><ele>352.0</ele><time>2026-04-01T10:01:26.999Z</time></trkpt><trkpt lat="45.762845933619914" lon="8.518735502967257"><ele>352.0</ele><time>2026-04-01T10:01:28.001Z</time></trkpt><trkpt lat="45.76300227315517" lon="8.518699206772586"><ele>352.5</ele><time>2026-04-01T10:01:29Z</time></trkpt><trkpt lat="45.763129971793184" lon="8.518686950965641"><ele>353.0</ele><time>2026-04-01T10:01:30Z</time></trkpt><trkpt lat="45.76326484328046" lon="8.518701893937058"><ele>353.5</ele><time>2026-04-01T10:01:31.001Z</time></trkpt><trkpt lat="45.76342171813303" lon="8.518750326515288"><ele>354.0</ele><time>2026-04-01T10:01:32Z</time></trkpt><trkpt lat="45.76356773398018" lon="8.518803227957997"><ele>356.0</ele><time>2026-04-01T10:01:33Z</time></trkpt><trkpt lat="45.76371230949669" lon="8.518875411409986"><ele>358.0</ele><time>2026-04-01T10:01:34.001Z</time></trkpt><trkpt lat="45.76386043817163" lon="8.518924451518057"><ele>360.0</ele><time>2026-04-01T10:01:35Z</time></trkpt><trkpt lat="45.763995909592595" lon="8.518997805510246"><ele>360.0</ele><time>2026-04-01T10:01:36Z</time></trkpt><trkpt lat="45.76411751909084" lon="8.51901153683206"><ele>360.0</ele><time>2026-04-01T10:01:37.001Z</time></trkpt><trkpt lat="45.76424138610533" lon="8.518956174819024"><ele>360.0</ele><time>2026-04-01T10:01:38.001Z</time></trkpt><trkpt lat="45.76434830573811" lon="8.518914948489854"><ele>360.0</ele><time>2026-04-01T10:01:39.001Z</time></trkpt><trkpt lat="45.764507419615406" lon="8.518855001179473"><ele>360.3333333333333</ele><time>2026-04-01T10:01:40Z</time></trkpt><trkpt lat="45.764655605137065" lon="8.51877052420986"><ele>360.66666666666663</ele><time>2026-04-01T10:01:41.001Z</time></trkpt><trkpt lat="45.76481091803638" lon="8.518714762992193"><ele>361.0</ele><time>2026-04-01T10:01:42.001Z</time></trkpt><trkpt lat="45.764963359917125" lon="8.518665137553354"><ele>361.5</ele><time>2026-04-01T10:01:43.001Z</time></trkpt><trkpt lat="45.76511193092684" lon="8.518638256097546"><ele>362.0</ele><time>2026-04-01T10:01:44.001Z</time></trkpt><trkpt lat="45.76525000569047" lon="8.518683436300304"><ele>362.5</ele><time>2026-04-01T10:01:45.001Z</time></trkpt><trkpt lat="45.765368570546734" lon="8.518751107043453"><ele>363.0</ele><time>2026-04-01T10:01:46.001Z</time></trkpt><trkpt lat="45.76547962146224" lon="8.518842306831338"><ele>366.25</ele><time>2026-04-01T10:01:47.001Z</time></trkpt><trkpt lat="45.76557872849584" lon="8.518949153876052"><ele>369.5</ele><time>2026-04-01T10:01:48.001Z</time></trkpt><trkpt lat="45.7656842871413" lon="8.519049587124274"><ele>372.75</ele><time>2026-04-01T10:01:49.001Z</time></trkpt><trkpt lat="45.76580197003864" lon="8.519158784472257"><ele>376.0</ele><time>2026-04-01T10:01:50.001Z</time></trkpt><trkpt lat="45.765929222614545" lon="8.519279398599178"><ele>378.3333333333333</ele><time>2026-04-01T10:01:51Z</time></trkpt><trkpt lat="45.766061557677524" lon="8.51940203689057"><ele>380.6666666666667</ele><time>2026-04-01T10:01:52Z</time></trkpt><trkpt lat="45.76619035285879" lon="8.519520298822204"><ele>383.0</ele><time>2026-04-01T10:01:53Z</time></trkpt><trkpt lat="45.766317556986465" lon="8.51963855926661"><ele>383.0</ele><time>2026-04-01T10:01:54Z</time></trkpt><trkpt lat="45.76645145823075" lon="8.51976905827053"><ele>383.0</ele><time>2026-04-01T10:01:55Z</time></trkpt><trkpt lat="45.7665819773699" lon="8.519920886688112"><ele>383.0</ele><time>2026-04-01T10:01:56Z</time></trkpt><trkpt lat="45.76670483677521" lon="8.520077928127334"><ele>383.0</ele><time>2026-04-01T10:01:57Z</time></trkpt><trkpt lat="45.76684012420621" lon="8.520244443527917"><ele>383.0</ele><time>2026-04-01T10:01:58Z</time></trkpt><trkpt lat="45.7669710507986" lon="8.520378271877595"><ele>383.0</ele><time>2026-04-01T10:01:59Z</time></trkpt><trkpt lat="45.767108142672306" lon="8.52050386312918"><ele>384.5</ele><time>2026-04-01T10:02:00Z</time></trkpt><trkpt lat="45.76721676271853" lon="8.520590041109262"><ele>386.0</ele><time>2026-04-01T10:02:01Z</time></trkpt><trkpt lat="45.76731201167419" lon="8.52068537066067"><ele>387.5</ele><time>2026-04-01T10:02:02Z</time></trkpt><trkpt lat="45.76739438145009" lon="8.520831964144502"><ele>389.0</ele><time>2026-04-01T10:02:03Z</time></trkpt><trkpt lat="45.76743314403288" lon="8.520978556361317"><ele>389.0</ele><time>2026-04-01T10:02:04Z</time></trkpt><trkpt lat="45.76749474060389" lon="8.521105141982732"><ele>389.0</ele><time>2026-04-01T10:02:05Z</time></trkpt><trkpt lat="45.76757073640467" lon="8.52124116475526"><ele>389.0</ele><time>2026-04-01T10:02:06Z</time></trkpt><trkpt lat="45.76768130168077" lon="8.521315877094493"><ele>389.0</ele><time>2026-04-01T10:02:07Z</time></trkpt><trkpt lat="45.76778838574658" lon="8.521413164225676"><ele>390.25</ele><time>2026-04-01T10:02:08Z</time></trkpt><trkpt lat="45.76790187223904" lon="8.521511182298122"><ele>391.5</ele><time>2026-04-01T10:02:09Z</time></trkpt><trkpt lat="45.7680134238601" lon="8.52160798248424"><ele>392.75</ele><time>2026-04-01T10:02:10Z</time></trkpt><trkpt lat="45.76813263042581" lon="8.521709778616144"><ele>394.0</ele><time>2026-04-01T10:02:11Z</time></trkpt><trkpt lat="45.768249976961656" lon="8.52180256021092"><ele>394.0</ele><time>2026-04-01T10:02:12Z</time></trkpt><trkpt lat="45.76837193877264" lon="8.521888789784835"><ele>394.0</ele><time>2026-04-01T10:02:13Z</time></trkpt><trkpt lat="45.768485864585095" lon="8.521963503232696"><ele>394.0</ele><time>2026-04-01T10:02:14Z</time></trkpt><trkpt lat="45.76859283637849" lon="8.52202043123166"><ele>394.0</ele><time>2026-04-01T10:02:15Z</time></trkpt><trkpt lat="45.76868530202294" lon="8.522023723473724"><ele>397.4</ele><time>2026-04-01T10:02:16Z</time></trkpt><trkpt lat="45.76875809635044" lon="8.522018327712"><ele>400.79999999999995</ele><time>2026-04-01T10:02:17Z</time></trkpt><trkpt lat="45.76887525897731" lon="8.522024407079757"><ele>404.20000000000005</ele><time>2026-04-01T10:02:19Z</time></trkpt><trkpt lat="45.76894082053688" lon="8.521982689784867"><ele>407.6</ele><time>2026-04-01T10:02:21Z</time></trkpt><trkpt lat="45.76900853194009" lon="8.521981185317575"><ele>411.0</ele><time>2026-04-01T10:02:24Z</time></trkpt><trkpt lat="45.76902154691102" lon="8.521790767434107"><ele>411.0</ele><time>2026-04-01T10:02:26Z</time></trkpt><trkpt lat="45.769075428207344" lon="8.521617332911205"><ele>411.0</ele><time>2026-04-01T10:02:28Z</time></trkpt><trkpt lat="45.76911023707503" lon="8.521515846481732"><ele>411.0</ele><time>2026-04-01T10:02:29Z</time></trkpt><trkpt lat="45.769122253548765" lon="8.521405850889586"><ele>411.0</ele><time>2026-04-01T10:02:30Z</time></trkpt><trkpt lat="45.76916652459782" lon="8.521280282773805"><ele>411.0</ele><time>2026-04-01T10:02:31Z</time></trkpt><trkpt lat="45.76918807812346" lon="8.521150668108866"><ele>411.0</ele><time>2026-04-01T10:02:32Z</time></trkpt><trkpt lat="45.7692288731328" lon="8.521001744897228"><ele>411.0</ele><time>2026-04-01T10:02:33Z</time></trkpt><trkpt lat="45.769271870324374" lon="8.52077899690446"><ele>411.0</ele><time>2026-04-01T10:02:34Z</time></trkpt><trkpt lat="45.769362300206666" lon="8.52055779699621"><ele>412.25</ele><time>2026-04-01T10:02:35Z</time></trkpt><trkpt lat="45.76945069778942" lon="8.520366331256353"><ele>413.5</ele><time>2026-04-01T10:02:36Z</time></trkpt><trkpt lat="45.76953252658808" lon="8.520193055935165"><ele>414.75</ele><time>2026-04-01T10:02:37Z</time></trkpt><trkpt lat="45.76960876061219" lon="8.520031628220691"><ele>416.0</ele><time>2026-04-01T10:02:38Z</time></trkpt><trkpt lat="45.76969486111496" lon="8.519879159595"><ele>416.0</ele><time>2026-04-01T10:02:39Z</time></trkpt><trkpt lat="45.7697573685315" lon="8.519699028304492"><ele>416.0</ele><time>2026-04-01T10:02:40Z</time></trkpt><trkpt lat="45.76981130194207" lon="8.519513260137323"><ele>416.0</ele><time>2026-04-01T10:02:41Z</time></trkpt><trkpt lat="45.769852947191936" lon="8.519327451352858"><ele>416.0</ele><time>2026-04-01T10:02:42Z</time></trkpt><trkpt lat="45.769892552663244" lon="8.519130398442087"><ele>415.3333333333333</ele><time>2026-04-01T10:02:43Z</time></trkpt><trkpt lat="45.76993710909741" lon="8.518910389903413"><ele>414.66666666666663</ele><time>2026-04-01T10:02:44Z</time></trkpt><trkpt lat="45.76998286604108" lon="8.518697222656233"><ele>414.0</ele><time>2026-04-01T10:02:45Z</time></trkpt><trkpt lat="45.770024402546575" lon="8.5184739723093"><ele>414.0</ele><time>2026-04-01T10:02:46Z</time></trkpt><trkpt lat="45.770068311304485" lon="8.518248807365037"><ele>414.0</ele><time>2026-04-01T10:02:47Z</time></trkpt><trkpt lat="45.77012439794961" lon="8.518024829300503"><ele>414.0</ele><time>2026-04-01T10:02:48Z</time></trkpt><trkpt lat="45.77020321634011" lon="8.517819303252503"><ele>416.66666666666663</ele><time>2026-04-01T10:02:49Z</time></trkpt><trkpt lat="45.770281220593496" lon="8.517626634207213"><ele>419.3333333333333</ele><time>2026-04-01T10:02:50Z</time></trkpt><trkpt lat="45.770359410534354" lon="8.51743670634542"><ele>422.0</ele><time>2026-04-01T10:02:51Z</time></trkpt><trkpt lat="45.77040662623369" lon="8.517231438658312"><ele>422.25</ele><time>2026-04-01T10:02:52Z</time></trkpt><trkpt lat="45.77046842836371" lon="8.517028010497121"><ele>422.5</ele><time>2026-04-01T10:02:53Z</time></trkpt><trkpt lat="45.7705156339922" lon="8.516829288751817"><ele>422.75</ele><time>2026-04-01T10:02:54Z</time></trkpt><trkpt lat="45.770561099942206" lon="8.516631782945721"><ele>423.0</ele><time>2026-04-01T10:02:55Z</time></trkpt><trkpt lat="45.77060658544383" lon="8.516436490445807"><ele>423.0</ele><time>2026-04-01T10:02:56Z</time></trkpt><trkpt lat="45.77065806409893" lon="8.516252702659507"><ele>423.0</ele><time>2026-04-01T10:02:57Z</time></trkpt><trkpt lat="45.770691418636524" lon="8.516094542460602"><ele>423.0</ele><time>2026-04-01T10:02:58Z</time></trkpt><trkpt lat="45.77073007922224" lon="8.515952136442886"><ele>423.0</ele><time>2026-04-01T10:02:59Z</time></trkpt><trkpt lat="45.7707541842349" lon="8.515804459163068"><ele>422.6666666666667</ele><time>2026-04-01T10:03:00Z</time></trkpt><trkpt lat="45.770787291470626" lon="8.515675381822836"><ele>422.33333333333337</ele><time>2026-04-01T10:03:01Z</time></trkpt><trkpt lat="45.77082319622073" lon="8.515566217767716"><ele>422.0</ele><time>2026-04-01T10:03:02Z</time></trkpt><trkpt lat="45.770866389330536" lon="8.515473212736598"><ele>421.6666666666667</ele><time>2026-04-01T10:03:03Z</time></trkpt><trkpt lat="45.77090277143591" lon="8.515376419592048"><ele>421.33333333333337</ele><time>2026-04-01T10:03:04Z</time></trkpt><trkpt lat="45.77093647002096" lon="8.515285299697867"><ele>421.0</ele><time>2026-04-01T10:03:05Z</time></trkpt><trkpt lat="45.77099383276716" lon="8.515129117343522"><ele>420.0</ele><time>2026-04-01T10:03:07Z</time></trkpt><trkpt lat="45.770808149220976" lon="8.515029030931515"><ele>419.0</ele><time>2026-04-01T10:03:12.999Z</time></trkpt><trkpt lat="45.77071744577564" lon="8.514988044418553"><ele>418.0</ele><time>2026-04-01T10:03:14.999Z</time></trkpt><trkpt lat="45.77063180163504" lon="8.514937763749465"><ele>417.0</ele><time>2026-04-01T10:03:16.999Z</time></trkpt><trkpt lat="45.770550972107316" lon="8.514882102303192"><ele>417.0</ele><time>2026-04-01T10:03:18.999Z</time></trkpt><trkpt lat="45.77045391419582" lon="8.51482624851517"><ele>417.0</ele><time>2026-04-01T10:03:20.999Z</time></trkpt><trkpt lat="45.77038919859148" lon="8.51480988039116"><ele>417.0</ele><time>2026-04-01T10:03:21.999Z</time></trkpt><trkpt lat="45.77026369655407" lon="8.514765510369456"><ele>417.0</ele><time>2026-04-01T10:03:23.999Z</time></trkpt><trkpt lat="45.77016355191126" lon="8.51468865123661"><ele>417.0</ele><time>2026-04-01T10:03:25.999Z</time></trkpt><trkpt lat="45.77007170456396" lon="8.514636102351124"><ele>416.5</ele><time>2026-04-01T10:03:27.999Z</time></trkpt><trkpt lat="45.769956736363035" lon="8.514648958311353"><ele>416.0</ele><time>2026-04-01T10:03:29.999Z</time></trkpt><trkpt lat="45.76989019712802" lon="8.51466065885135"><ele>415.5</ele><time>2026-04-01T10:03:30.999Z</time></trkpt><trkpt lat="45.76981338306147" lon="8.514674020487123"><ele>415.0</ele><time>2026-04-01T10:03:31.999Z</time></trkpt><trkpt lat="45.76972360524248" lon="8.51468333185301"><ele>414.5</ele><time>2026-04-01T10:03:32.999Z</time></trkpt><trkpt lat="45.769644302375475" lon="8.514695290681416"><ele>414.0</ele><time>2026-04-01T10:03:34.001Z</time></trkpt><trkpt lat="45.76955928417713" lon="8.514711889087017"><ele>414.0</ele><time>2026-04-01T10:03:35Z</time></trkpt><trkpt lat="45.76947357076473" lon="8.514724608703336"><ele>414.0</ele><time>2026-04-01T10:03:36Z</time></trkpt><trkpt lat="45.76939981136853" lon="8.514754842385928"><ele>414.0</ele><time>2026-04-01T10:03:37Z</time></trkpt><trkpt lat="45.76932764346603" lon="8.514780593821383"><ele>414.0</ele><time>2026-04-01T10:03:38Z</time></trkpt><trkpt lat="45.76924822641198" lon="8.514795403856299"><ele>414.0</ele><time>2026-04-01T10:03:39Z</time></trkpt><trkpt lat="45.76916574218063" lon="8.514810780429883"><ele>414.0</ele><time>2026-04-01T10:03:40.001Z</time></trkpt><trkpt lat="45.76909304011052" lon="8.51482164577292"><ele>413.5</ele><time>2026-04-01T10:03:41Z</time></trkpt><trkpt lat="45.76901328267514" lon="8.514829465233502"><ele>413.0</ele><time>2026-04-01T10:03:42Z</time></trkpt><trkpt lat="45.76892892591552" lon="8.514822086780102"><ele>412.5</ele><time>2026-04-01T10:03:43.001Z</time></trkpt><trkpt lat="45.768852723137556" lon="8.514812571308982"><ele>412.0</ele><time>2026-04-01T10:03:44Z</time></trkpt><trkpt lat="45.76878027438635" lon="8.514810530642057"><ele>411.5</ele><time>2026-04-01T10:03:45Z</time></trkpt><trkpt lat="45.768711014670316" lon="8.514799160499914"><ele>411.0</ele><time>2026-04-01T10:03:46Z</time></trkpt><trkpt lat="45.76864026325387" lon="8.514783938067856"><ele>411.8</ele><time>2026-04-01T10:03:47Z</time></trkpt><trkpt lat="45.76852466094881" lon="8.514812712000646"><ele>412.6</ele><time>2026-04-01T10:03:49Z</time></trkpt><trkpt lat="45.76846267177341" lon="8.514832238968006"><ele>413.4</ele><time>2026-04-01T10:03:50Z</time></trkpt><trkpt lat="45.768338921601064" lon="8.514829511174947"><ele>414.2</ele><time>2026-04-01T10:03:52Z</time></trkpt><trkpt lat="45.768244470877164" lon="8.514827451970962"><ele>415.0</ele><time>2026-04-01T10:03:53Z</time></trkpt><trkpt lat="45.76817053001163" lon="8.514810650191558"><ele>415.00000000000006</ele><time>2026-04-01T10:03:54Z</time></trkpt><trkpt lat="45.76810698839974" lon="8.514782969557427"><ele>415.0</ele><time>2026-04-01T10:03:55Z</time></trkpt><trkpt lat="45.76804135756289" lon="8.514743221786206"><ele>415.0</ele><time>2026-04-01T10:03:56Z</time></trkpt><trkpt lat="45.76796938094578" lon="8.514704767572788"><ele>415.0</ele><time>2026-04-01T10:03:57Z</time></trkpt><trkpt lat="45.76790853699933" lon="8.514673359101392"><ele>415.00000000000006</ele><time>2026-04-01T10:03:58Z</time></trkpt><trkpt lat="45.76777388208103" lon="8.514652129661853"><ele>415.0</ele><time>2026-04-01T10:04:00Z</time></trkpt><trkpt lat="45.76769095642785" lon="8.514629264538215"><ele>415.1666666666667</ele><time>2026-04-01T10:04:01Z</time></trkpt><trkpt lat="45.767591858642646" lon="8.514625028061364"><ele>415.33333333333337</ele><time>2026-04-01T10:04:02Z</time></trkpt><trkpt lat="45.76749598616546" lon="8.51462670354044"><ele>415.5</ele><time>2026-04-01T10:04:03Z</time></trkpt><trkpt lat="45.767422394487916" lon="8.514607983744257"><ele>415.66666666666663</ele><time>2026-04-01T10:04:04Z</time></trkpt><trkpt lat="45.76734102768366" lon="8.514575417611622"><ele>415.8333333333333</ele><time>2026-04-01T10:04:05Z</time></trkpt><trkpt lat="45.767250866520236" lon="8.514544044084747"><ele>416.0</ele><time>2026-04-01T10:04:06Z</time></trkpt><trkpt lat="45.7671781529663" lon="8.514516199598532"><ele>414.99999999999994</ele><time>2026-04-01T10:04:07Z</time></trkpt><trkpt lat="45.76708891453135" lon="8.514507592898019"><ele>414.0</ele><time>2026-04-01T10:04:08Z</time></trkpt><trkpt lat="45.76700864028719" lon="8.51448494346687"><ele>413.0</ele><time>2026-04-01T10:04:09Z</time></trkpt><trkpt lat="45.76694028165217" lon="8.51444654037598"><ele>412.0</ele><time>2026-04-01T10:04:10Z</time></trkpt><trkpt lat="45.76688928404896" lon="8.51438454985351"><ele>410.99999999999994</ele><time>2026-04-01T10:04:11Z</time></trkpt><trkpt lat="45.76680562449947" lon="8.514356174619635"><ele>410.0</ele><time>2026-04-01T10:04:13Z</time></trkpt><trkpt lat="45.766740561554684" lon="8.514306894659864"><ele>410.0</ele><time>2026-04-01T10:04:16Z</time></trkpt><trkpt lat="45.76667316686535" lon="8.514251065053983"><ele>410.0</ele><time>2026-04-01T10:04:24Z</time></trkpt><trkpt lat="45.76658648292488" lon="8.514223328719341"><ele>410.0</ele><time>2026-04-01T10:04:27Z</time></trkpt><trkpt lat="45.76653953614305" lon="8.514154530851718"><ele>410.0</ele><time>2026-04-01T10:04:36Z</time></trkpt><trkpt lat="45.76651998027293" lon="8.514067977377005"><ele>410.0</ele><time>2026-04-01T10:04:54.999Z</time></trkpt><trkpt lat="45.76646427935914" lon="8.514001671316684"><ele>410.0</ele><time>2026-04-01T10:05:04.999Z</time></trkpt><trkpt lat="45.76639576899618" lon="8.513967249273227"><ele>410.0</ele><time>2026-04-01T10:05:06.999Z</time></trkpt><trkpt lat="45.76632121469114" lon="8.51389689518844"><ele>410.0</ele><time>2026-04-01T10:05:08.999Z</time></trkpt><trkpt lat="45.76619909963267" lon="8.513753050416987"><ele>410.0</ele><time>2026-04-01T10:05:11.999Z</time></trkpt><trkpt lat="45.76608618327709" lon="8.513670843842592"><ele>410.0</ele><time>2026-04-01T10:05:13.999Z</time></trkpt><trkpt lat="45.76598448541331" lon="8.513601514352752"><ele>410.0</ele><time>2026-04-01T10:05:15.999Z</time></trkpt><trkpt lat="45.765889903614585" lon="8.513564684631971"><ele>408.0</ele><time>2026-04-01T10:05:17.999Z</time></trkpt><trkpt lat="45.76579316121216" lon="8.513602196105863"><ele>406.0</ele><time>2026-04-01T10:05:21.999Z</time></trkpt><trkpt lat="45.76572227423855" lon="8.513602916501851"><ele>404.0</ele><time>2026-04-01T10:05:22.999Z</time></trkpt><trkpt lat="45.76558147898223" lon="8.513574012416823"><ele>402.0</ele><time>2026-04-01T10:05:24.999Z</time></trkpt><trkpt lat="45.7655111048787" lon="8.513539328808692"><ele>400.0</ele><time>2026-04-01T10:05:25.999Z</time></trkpt><trkpt lat="45.76544555878592" lon="8.513523460273083"><ele>400.0</ele><time>2026-04-01T10:05:27.999Z</time></trkpt><trkpt lat="45.765383183169945" lon="8.513465044353921"><ele>400.0</ele><time>2026-04-01T10:05:31.999Z</time></trkpt><trkpt lat="45.765316087424004" lon="8.513373083890679"><ele>400.0</ele><time>2026-04-01T10:05:33.999Z</time></trkpt><trkpt lat="45.765245729792966" lon="8.513293615607045"><ele>400.0</ele><time>2026-04-01T10:05:35.999Z</time></trkpt><trkpt lat="45.76517943775052" lon="8.513246968921235"><ele>400.0</ele><time>2026-04-01T10:05:37.999Z</time></trkpt><trkpt lat="45.76506563672862" lon="8.513192548815931"><ele>399.75</ele><time>2026-04-01T10:05:40.001Z</time></trkpt><trkpt lat="45.76497571348337" lon="8.513125599822011"><ele>399.5</ele><time>2026-04-01T10:05:42.001Z</time></trkpt><trkpt lat="45.76484227417915" lon="8.513048328534593"><ele>399.25</ele><time>2026-04-01T10:05:44.001Z</time></trkpt><trkpt lat="45.764732556370504" lon="8.513038576534539"><ele>399.0</ele><time>2026-04-01T10:05:46.001Z</time></trkpt><trkpt lat="45.76459246392367" lon="8.513021886378496"><ele>399.0</ele><time>2026-04-01T10:05:48.001Z</time></trkpt><trkpt lat="45.76452023189599" lon="8.513015147024726"><ele>399.0</ele><time>2026-04-01T10:05:49.001Z</time></trkpt><trkpt lat="45.76445035425045" lon="8.513034144340788"><ele>399.0</ele><time>2026-04-01T10:05:50.001Z</time></trkpt><trkpt lat="45.764376625393766" lon="8.513042020705736"><ele>399.0</ele><time>2026-04-01T10:05:51.001Z</time></trkpt><trkpt lat="45.764298907809156" lon="8.513048489135159"><ele>399.0</ele><time>2026-04-01T10:05:52.001Z</time></trkpt><trkpt lat="45.76421704615533" lon="8.513052514738042"><ele>399.0</ele><time>2026-04-01T10:05:53Z</time></trkpt><trkpt lat="45.76413829132933" lon="8.51305314134364"><ele>396.4</ele><time>2026-04-01T10:05:54Z</time></trkpt><trkpt lat="45.764032853299376" lon="8.513066720012283"><ele>393.79999999999995</ele><time>2026-04-01T10:05:56Z</time></trkpt><trkpt lat="45.763933728258884" lon="8.513116766189578"><ele>391.20000000000005</ele><time>2026-04-01T10:05:58Z</time></trkpt><trkpt lat="45.7638665460348" lon="8.5131581734603"><ele>388.6</ele><time>2026-04-01T10:05:59Z</time></trkpt><trkpt lat="45.763762143240534" lon="8.513270862320818"><ele>386.0</ele><time>2026-04-01T10:06:01Z</time></trkpt><trkpt lat="45.76370470210586" lon="8.513321534061749"><ele>386.0</ele><time>2026-04-01T10:06:02Z</time></trkpt><trkpt lat="45.763612165266935" lon="8.513392700796585"><ele>386.0</ele><time>2026-04-01T10:06:04Z</time></trkpt><trkpt lat="45.763535889356085" lon="8.513473251083362"><ele>386.0</ele><time>2026-04-01T10:06:06Z</time></trkpt><trkpt lat="45.76352624561703" lon="8.513567646980519"><ele>386.0</ele><time>2026-04-01T10:06:07Z</time></trkpt><trkpt lat="45.76345186953763" lon="8.513659839844308"><ele>386.0</ele><time>2026-04-01T10:06:08Z</time></trkpt><trkpt lat="45.76335883152149" lon="8.513729780554034"><ele>382.3333333333333</ele><time>2026-04-01T10:06:09Z</time></trkpt><trkpt lat="45.76327675578348" lon="8.513754195101475"><ele>378.66666666666663</ele><time>2026-04-01T10:06:10Z</time></trkpt><trkpt lat="45.763197567001725" lon="8.513768855595181"><ele>375.0</ele><time>2026-04-01T10:06:11Z</time></trkpt><trkpt lat="45.7631316183817" lon="8.513766239789156"><ele>371.3333333333333</ele><time>2026-04-01T10:06:12Z</time></trkpt><trkpt lat="45.76302119113606" lon="8.513778854492713"><ele>367.66666666666663</ele><time>2026-04-01T10:06:14Z</time></trkpt><trkpt lat="45.76294792861092" lon="8.513792224604085"><ele>364.0</ele><time>2026-04-01T10:06:15Z</time></trkpt><trkpt lat="45.76282668693992" lon="8.513835323993417"><ele>364.0</ele><time>2026-04-01T10:06:17Z</time></trkpt><trkpt lat="45.762757680679385" lon="8.513855431239646"><ele>364.0</ele><time>2026-04-01T10:06:18Z</time></trkpt><trkpt lat="45.76265270340124" lon="8.513886204310742"><ele>364.0</ele><time>2026-04-01T10:06:20Z</time></trkpt><trkpt lat="45.76256492187013" lon="8.513889773083282"><ele>364.0</ele><time>2026-04-01T10:06:22Z</time></trkpt><trkpt lat="45.76249646894674" lon="8.513898084391503"><ele>364.0</ele><time>2026-04-01T10:06:24Z</time></trkpt><trkpt lat="45.76238560308793" lon="8.51386990507796"><ele>364.0</ele><time>2026-04-01T10:06:26Z</time></trkpt><trkpt lat="45.76227174256225" lon="8.513821415192394"><ele>361.3333333333333</ele><time>2026-04-01T10:06:28Z</time></trkpt><trkpt lat="45.7621493207" lon="8.513782279466437"><ele>358.66666666666663</ele><time>2026-04-01T10:06:30Z</time></trkpt><trkpt lat="45.76208873636392" lon="8.513754447626845"><ele>356.0</ele><time>2026-04-01T10:06:31Z</time></trkpt><trkpt lat="45.7620242790026" lon="8.513718295564187"><ele>353.3333333333333</ele><time>2026-04-01T10:06:32Z</time></trkpt><trkpt lat="45.76195540856994" lon="8.51368683764814"><ele>350.6666666666667</ele><time>2026-04-01T10:06:33Z</time></trkpt><trkpt lat="45.76189230455377" lon="8.513673160144005"><ele>348.0</ele><time>2026-04-01T10:06:34Z</time></trkpt><trkpt lat="45.76181899100853" lon="8.513659969371686"><ele>346.8333333333333</ele><time>2026-04-01T10:06:35Z</time></trkpt><trkpt lat="45.7616905218189" lon="8.513671640723864"><ele>345.6666666666667</ele><time>2026-04-01T10:06:37Z</time></trkpt><trkpt lat="45.761615161835834" lon="8.51369873045736"><ele>344.5</ele><time>2026-04-01T10:06:38Z</time></trkpt><trkpt lat="45.76154117313078" lon="8.513733489413212"><ele>343.33333333333337</ele><time>2026-04-01T10:06:39Z</time></trkpt><trkpt lat="45.76147431012254" lon="8.513760558428764"><ele>342.1666666666667</ele><time>2026-04-01T10:06:40Z</time></trkpt><trkpt lat="45.76141016980945" lon="8.513781128194726"><ele>341.0</ele><time>2026-04-01T10:06:41Z</time></trkpt><trkpt lat="45.76134153393755" lon="8.513804024487388"><ele>339.6</ele><time>2026-04-01T10:06:42Z</time></trkpt><trkpt lat="45.76127141612124" lon="8.513805777986462"><ele>338.20000000000005</ele><time>2026-04-01T10:06:43Z</time></trkpt><trkpt lat="45.76117350541989" lon="8.513817490329904"><ele>336.79999999999995</ele><time>2026-04-01T10:06:45Z</time></trkpt><trkpt lat="45.76108045357683" lon="8.513871353594688"><ele>335.4</ele><time>2026-04-01T10:06:46.999Z</time></trkpt><trkpt lat="45.760972670267925" lon="8.513892364293017"><ele>334.0</ele><time>2026-04-01T10:06:48.999Z</time></trkpt><trkpt lat="45.76085587798741" lon="8.51382658884138"><ele>333.8333333333333</ele><time>2026-04-01T10:06:50.999Z</time></trkpt><trkpt lat="45.76078815679357" lon="8.513758859002843"><ele>333.66666666666663</ele><time>2026-04-01T10:06:51.999Z</time></trkpt><trkpt lat="45.76073255271901" lon="8.513706814521507"><ele>333.5</ele><time>2026-04-01T10:06:52.999Z</time></trkpt><trkpt lat="45.76066790884155" lon="8.51368222338248"><ele>333.3333333333333</ele><time>2026-04-01T10:06:53.999Z</time></trkpt><trkpt lat="45.760556797710734" lon="8.513759319937146"><ele>333.1666666666667</ele><time>2026-04-01T10:06:55.999Z</time></trkpt><trkpt lat="45.76050877814617" lon="8.513827324145506"><ele>333.0</ele><time>2026-04-01T10:06:56.999Z</time></trkpt><trkpt lat="45.76044893822973" lon="8.513897110251136"><ele>332.2</ele><time>2026-04-01T10:06:57.999Z</time></trkpt><trkpt lat="45.760364435357545" lon="8.51395024519867"><ele>331.4</ele><time>2026-04-01T10:06:58.999Z</time></trkpt><trkpt lat="45.760261200718524" lon="8.513973279108235"><ele>330.59999999999997</ele><time>2026-04-01T10:06:59.999Z</time></trkpt><trkpt lat="45.76016664384449" lon="8.513982072286636"><ele>329.79999999999995</ele><time>2026-04-01T10:07:00.999Z</time></trkpt><trkpt lat="45.760070469087346" lon="8.513976731384318"><ele>329.0</ele><time>2026-04-01T10:07:01.999Z</time></trkpt><trkpt lat="45.75997270501911" lon="8.513943911738695"><ele>328.4</ele><time>2026-04-01T10:07:02.999Z</time></trkpt><trkpt lat="45.75986284947629" lon="8.513909861819922"><ele>327.79999999999995</ele><time>2026-04-01T10:07:03.999Z</time></trkpt><trkpt lat="45.75976264576479" lon="8.51388093739486"><ele>327.20000000000005</ele><time>2026-04-01T10:07:04.999Z</time></trkpt><trkpt lat="45.75968436470988" lon="8.513841177157394"><ele>326.6</ele><time>2026-04-01T10:07:05.999Z</time></trkpt><trkpt lat="45.75960852921508" lon="8.513827711199152"><ele>326.0</ele><time>2026-04-01T10:07:06.999Z</time></trkpt><trkpt lat="45.75949312250822" lon="8.513831893840289"><ele>326.0</ele><time>2026-04-01T10:07:08.999Z</time></trkpt><trkpt lat="45.75943270863775" lon="8.513979857334494"><ele>326.0</ele><time>2026-04-01T10:07:10.999Z</time></trkpt><trkpt lat="45.759393520790354" lon="8.514123640176406"><ele>326.0</ele><time>2026-04-01T10:07:11.999Z</time></trkpt><trkpt lat="45.75938001532772" lon="8.514263756227898"><ele>326.0</ele><time>2026-04-01T10:07:12.999Z</time></trkpt><trkpt lat="45.75935369917422" lon="8.514414190505754"><ele>326.0</ele><time>2026-04-01T10:07:13.999Z</time></trkpt><trkpt lat="45.75931707298731" lon="8.514563535943967"><ele>325.0</ele><time>2026-04-01T10:07:14.999Z</time></trkpt><trkpt lat="45.759279157618955" lon="8.5147016197317"><ele>324.0</ele><time>2026-04-01T10:07:15.999Z</time></trkpt><trkpt lat="45.75923695305134" lon="8.514832820184655"><ele>323.0</ele><time>2026-04-01T10:07:16.999Z</time></trkpt><trkpt lat="45.75920508766124" lon="8.514953225522511"><ele>322.0</ele><time>2026-04-01T10:07:17.999Z</time></trkpt><trkpt lat="45.75917059763731" lon="8.515079121561154"><ele>321.0</ele><time>2026-04-01T10:07:18.999Z</time></trkpt><trkpt lat="45.759136670529436" lon="8.51520526483367"><ele>321.0</ele><time>2026-04-01T10:07:19.999Z</time></trkpt><trkpt lat="45.75909573615909" lon="8.515330360220915"><ele>321.0</ele><time>2026-04-01T10:07:20.999Z</time></trkpt><trkpt lat="45.759063841563794" lon="8.515443794320362"><ele>321.0</ele><time>2026-04-01T10:07:21.999Z</time></trkpt><trkpt lat="45.75904593016108" lon="8.515536549600633"><ele>321.0</ele><time>2026-04-01T10:07:22.999Z</time></trkpt><trkpt lat="45.759030513967055" lon="8.515637585975869"><ele>321.0</ele><time>2026-04-01T10:07:23.999Z</time></trkpt><trkpt lat="45.759004532926134" lon="8.515744650214174"><ele>321.0</ele><time>2026-04-01T10:07:24.999Z</time></trkpt><trkpt lat="45.758992144148955" lon="8.515841710165635"><ele>320.99999999999994</ele><time>2026-04-01T10:07:25.999Z</time></trkpt><trkpt lat="45.75897937092405" lon="8.515933370316045"><ele>321.0</ele><time>2026-04-01T10:07:26.999Z</time></trkpt><trkpt lat="45.758947059498254" lon="8.516028822663491"><ele>321.0</ele><time>2026-04-01T10:07:27.999Z</time></trkpt><trkpt lat="45.758915091283036" lon="8.516119069315716"><ele>321.0</ele><time>2026-04-01T10:07:28.999Z</time></trkpt><trkpt lat="45.758872785006666" lon="8.516215203506844"><ele>321.0</ele><time>2026-04-01T10:07:29.999Z</time></trkpt><trkpt lat="45.75883941627502" lon="8.516296309985762"><ele>320.99999999999994</ele><time>2026-04-01T10:07:30.999Z</time></trkpt><trkpt lat="45.75879619547681" lon="8.51638776004128"><ele>321.0</ele><time>2026-04-01T10:07:31.999Z</time></trkpt><trkpt lat="45.75875168962081" lon="8.516474121680757"><ele>320.6666666666667</ele><time>2026-04-01T10:07:32.999Z</time></trkpt><trkpt lat="45.75870097777986" lon="8.516550949620127"><ele>320.3333333333333</ele><time>2026-04-01T10:07:33.999Z</time></trkpt><trkpt lat="45.758657345000024" lon="8.516636610277086"><ele>320.0</ele><time>2026-04-01T10:07:35.999Z</time></trkpt><trkpt lat="45.758566269658" lon="8.516697836386985"><ele>319.66666666666663</ele><time>2026-04-01T10:07:37.999Z</time></trkpt><trkpt lat="45.75847379621619" lon="8.516730135075102"><ele>319.3333333333333</ele><time>2026-04-01T10:07:39.999Z</time></trkpt><trkpt lat="45.75838069223734" lon="8.516731390128287"><ele>319.0</ele><time>2026-04-01T10:07:41.999Z</time></trkpt><trkpt lat="45.758279050718" lon="8.516733820751291"><ele>319.0</ele><time>2026-04-01T10:07:43.999Z</time></trkpt><trkpt lat="45.7582190947755" lon="8.516699200097948"><ele>319.0</ele><time>2026-04-01T10:07:49Z</time></trkpt><trkpt lat="45.7581510481035" lon="8.516639972831198"><ele>319.0</ele><time>2026-04-01T10:12:11Z</time></trkpt><trkpt lat="45.75805969739571" lon="8.516602472254792"><ele>319.0</ele><time>2026-04-01T10:12:24Z</time></trkpt><trkpt lat="45.758023016197086" lon="8.516453063605338"><ele>319.0</ele><time>2026-04-01T10:12:26Z</time></trkpt><trkpt lat="45.758006307202415" lon="8.51634408535811"><ele>319.0</ele><time>2026-04-01T10:12:27Z</time></trkpt><trkpt lat="45.757986217375475" lon="8.516218341270122"><ele>319.0</ele><time>2026-04-01T10:12:28Z</time></trkpt><trkpt lat="45.75795659242083" lon="8.51606711042019"><ele>319.0</ele><time>2026-04-01T10:12:29Z</time></trkpt><trkpt lat="45.757940812048325" lon="8.515910330484047"><ele>319.0</ele><time>2026-04-01T10:12:30Z</time></trkpt><trkpt lat="45.757911124694886" lon="8.515771772886378"><ele>319.0</ele><time>2026-04-01T10:12:31Z</time></trkpt><trkpt lat="45.757859861636774" lon="8.515637971305305"><ele>319.0</ele><time>2026-04-01T10:12:32Z</time></trkpt><trkpt lat="45.75780987135873" lon="8.515492605463098"><ele>318.25</ele><time>2026-04-01T10:12:33Z</time></trkpt><trkpt lat="45.75775595648367" lon="8.51533311257891"><ele>317.5</ele><time>2026-04-01T10:12:34Z</time></trkpt><trkpt lat="45.757704986585324" lon="8.515181022406127"><ele>316.75</ele><time>2026-04-01T10:12:35Z</time></trkpt><trkpt lat="45.75765053010118" lon="8.51502348196322"><ele>316.0</ele><time>2026-04-01T10:12:36Z</time></trkpt><trkpt lat="45.75759502517377" lon="8.514871587564699"><ele>315.8</ele><time>2026-04-01T10:12:37Z</time></trkpt><trkpt lat="45.75754460272681" lon="8.51472193725153"><ele>315.6</ele><time>2026-04-01T10:12:38Z</time></trkpt><trkpt lat="45.75749937722564" lon="8.514586974256103"><ele>315.4</ele><time>2026-04-01T10:12:39Z</time></trkpt><trkpt lat="45.75746914750325" lon="8.514457706631902"><ele>315.2</ele><time>2026-04-01T10:12:40Z</time></trkpt><trkpt lat="45.75743316644652" lon="8.51433827964012"><ele>315.0</ele><time>2026-04-01T10:12:41Z</time></trkpt><trkpt lat="45.7573810644719" lon="8.514245889083304"><ele>315.0</ele><time>2026-04-01T10:12:42Z</time></trkpt><trkpt lat="45.757345459993225" lon="8.514137893083253"><ele>315.0</ele><time>2026-04-01T10:12:43Z</time></trkpt><trkpt lat="45.75722724685041" lon="8.514077560831259"><ele>315.0</ele><time>2026-04-01T10:12:44Z</time></trkpt><trkpt lat="45.75712586953379" lon="8.514010429318263"><ele>315.0</ele><time>2026-04-01T10:12:45Z</time></trkpt><trkpt lat="45.75703327468441" lon="8.513899249424888"><ele>315.0</ele><time>2026-04-01T10:12:46Z</time></trkpt><trkpt lat="45.756962183524166" lon="8.513816108686374"><ele>315.0</ele><time>2026-04-01T10:12:47Z</time></trkpt><trkpt lat="45.75690083652949" lon="8.51375721914877"><ele>315.0</ele><time>2026-04-01T10:12:48Z</time></trkpt><trkpt lat="45.75684281324325" lon="8.513688735178103"><ele>315.0</ele><time>2026-04-01T10:12:49Z</time></trkpt><trkpt lat="45.75675243846843" lon="8.513670688888432"><ele>315.0</ele><time>2026-04-01T10:12:50Z</time></trkpt><trkpt lat="45.756672858325004" lon="8.513655824037746"><ele>315.0</ele><time>2026-04-01T10:12:51Z</time></trkpt><trkpt lat="45.75658042496626" lon="8.513659130058125"><ele>315.0</ele><time>2026-04-01T10:12:52Z</time></trkpt><trkpt lat="45.75648707581598" lon="8.513602526952127"><ele>315.25</ele><time>2026-04-01T10:12:53Z</time></trkpt><trkpt lat="45.75635604674609" lon="8.513571108160658"><ele>315.5</ele><time>2026-04-01T10:12:54Z</time></trkpt><trkpt lat="45.756229646126656" lon="8.513554972672567"><ele>315.75</ele><time>2026-04-01T10:12:55Z</time></trkpt><trkpt lat="45.75609347542123" lon="8.513539511386348"><ele>316.0</ele><time>2026-04-01T10:12:56Z</time></trkpt><trkpt lat="45.755952231189454" lon="8.513521621900054"><ele>316.0</ele><time>2026-04-01T10:12:57Z</time></trkpt><trkpt lat="45.7558135784076" lon="8.513506279513607"><ele>316.0</ele><time>2026-04-01T10:12:58Z</time></trkpt><trkpt lat="45.75568088224593" lon="8.513495078968512"><ele>316.0</ele><time>2026-04-01T10:12:59Z</time></trkpt><trkpt lat="45.755547658392466" lon="8.513502675056474"><ele>316.0</ele><time>2026-04-01T10:13:00Z</time></trkpt><trkpt lat="45.755420265563735" lon="8.513518284766754"><ele>316.0</ele><time>2026-04-01T10:13:01Z</time></trkpt><trkpt lat="45.755291401218436" lon="8.513546570945593"><ele>316.0</ele><time>2026-04-01T10:13:02Z</time></trkpt><trkpt lat="45.75517109918427" lon="8.513608380000463"><ele>316.0</ele><time>2026-04-01T10:13:03Z</time></trkpt><trkpt lat="45.75504726470744" lon="8.513663041210059"><ele>316.0</ele><time>2026-04-01T10:13:04Z</time></trkpt><trkpt lat="45.754938490738944" lon="8.513718485964294"><ele>316.2</ele><time>2026-04-01T10:13:05Z</time></trkpt><trkpt lat="45.75485175897758" lon="8.513775526513301"><ele>316.40000000000003</ele><time>2026-04-01T10:13:06Z</time></trkpt><trkpt lat="45.75478355240624" lon="8.51383163845091"><ele>316.6</ele><time>2026-04-01T10:13:07Z</time></trkpt><trkpt lat="45.75471937866213" lon="8.513911276606047"><ele>316.8</ele><time>2026-04-01T10:13:08.999Z</time></trkpt><trkpt lat="45.75468769262416" lon="8.51374409259954"><ele>317.0</ele><time>2026-04-01T10:13:13.999Z</time></trkpt><trkpt lat="45.75463190554189" lon="8.51366419305349"><ele>317.0</ele><time>2026-04-01T10:13:18.999Z</time></trkpt><trkpt lat="45.754555427030894" lon="8.513632930873651"><ele>317.0</ele><time>2026-04-01T10:13:20.999Z</time></trkpt><trkpt lat="45.75448087896719" lon="8.513590714112752"><ele>317.0</ele><time>2026-04-01T10:13:22.999Z</time></trkpt><trkpt lat="45.75441368865613" lon="8.513503341071251"><ele>317.0</ele><time>2026-04-01T10:13:24.999Z</time></trkpt><trkpt lat="45.754383173222806" lon="8.513384164362975"><ele>317.0</ele><time>2026-04-01T10:13:26.999Z</time></trkpt><trkpt lat="45.7543670685467" lon="8.513220253722636"><ele>320.33333333333337</ele><time>2026-04-01T10:13:28.999Z</time></trkpt><trkpt lat="45.75433801916634" lon="8.513135630325579"><ele>323.6666666666667</ele><time>2026-04-01T10:13:29.999Z</time></trkpt><trkpt lat="45.754306052368136" lon="8.513043933361248"><ele>327.0</ele><time>2026-04-01T10:13:30.999Z</time></trkpt><trkpt lat="45.75429783538577" lon="8.512938764069997"><ele>330.3333333333333</ele><time>2026-04-01T10:13:31.999Z</time></trkpt><trkpt lat="45.75428938506852" lon="8.51284493438629"><ele>333.66666666666663</ele><time>2026-04-01T10:13:32.999Z</time></trkpt><trkpt lat="45.75425517800224" lon="8.512671171161458"><ele>337.0</ele><time>2026-04-01T10:13:34.999Z</time></trkpt><trkpt lat="45.75423820191786" lon="8.512583504595005"><ele>337.0</ele><time>2026-04-01T10:13:35.999Z</time></trkpt><trkpt lat="45.754182831552065" lon="8.512435521879716"><ele>337.0</ele><time>2026-04-01T10:13:37.999Z</time></trkpt><trkpt lat="45.75415190350671" lon="8.512267065431905"><ele>337.0</ele><time>2026-04-01T10:13:39.999Z</time></trkpt><trkpt lat="45.754126192055445" lon="8.512174297330873"><ele>337.0</ele><time>2026-04-01T10:13:40.999Z</time></trkpt><trkpt lat="45.75410108758288" lon="8.51199639278957"><ele>337.0</ele><time>2026-04-01T10:13:42.999Z</time></trkpt><trkpt lat="45.754090709498875" lon="8.511837657508753"><ele>336.3333333333333</ele><time>2026-04-01T10:13:44.999Z</time></trkpt><trkpt lat="45.75408312845238" lon="8.51173018599763"><ele>335.66666666666663</ele><time>2026-04-01T10:13:45.999Z</time></trkpt><trkpt lat="45.75407467768752" lon="8.511627204123874"><ele>335.0</ele><time>2026-04-01T10:13:46.999Z</time></trkpt><trkpt lat="45.75406497265854" lon="8.511523387346195"><ele>334.3333333333333</ele><time>2026-04-01T10:13:47.999Z</time></trkpt><trkpt lat="45.75405029409981" lon="8.511413836364524"><ele>333.6666666666667</ele><time>2026-04-01T10:13:48.999Z</time></trkpt><trkpt lat="45.75404545716304" lon="8.511286348291518"><ele>333.0</ele><time>2026-04-01T10:13:49.999Z</time></trkpt><trkpt lat="45.754038152108734" lon="8.511166263001925"><ele>332.59999999999997</ele><time>2026-04-01T10:13:50.999Z</time></trkpt><trkpt lat="45.7540391115487" lon="8.511072618127846"><ele>332.2</ele><time>2026-04-01T10:13:51.999Z</time></trkpt><trkpt lat="45.75403963604787" lon="8.510896575508365"><ele>331.8</ele><time>2026-04-01T10:13:53.999Z</time></trkpt><trkpt lat="45.7540319424325" lon="8.510743191153052"><ele>331.4</ele><time>2026-04-01T10:13:55.999Z</time></trkpt><trkpt lat="45.754071109615374" lon="8.510598575673043"><ele>331.0</ele><time>2026-04-01T10:13:57.999Z</time></trkpt><trkpt lat="45.75408829743629" lon="8.510500652602069"><ele>331.16666666666663</ele><time>2026-04-01T10:13:58.999Z</time></trkpt><trkpt lat="45.7541331376627" lon="8.510404070644404"><ele>331.3333333333333</ele><time>2026-04-01T10:13:59.999Z</time></trkpt><trkpt lat="45.75420312620324" lon="8.510300519421225"><ele>331.5</ele><time>2026-04-01T10:14:00.999Z</time></trkpt><trkpt lat="45.75424910443135" lon="8.510217541378116"><ele>331.6666666666667</ele><time>2026-04-01T10:14:01.999Z</time></trkpt><trkpt lat="45.754287558942934" lon="8.510127030799945"><ele>331.83333333333337</ele><time>2026-04-01T10:14:02.999Z</time></trkpt><trkpt lat="45.75431517273312" lon="8.51003424478891"><ele>332.0</ele><time>2026-04-01T10:14:04Z</time></trkpt><trkpt lat="45.75433420887665" lon="8.509941270982742"><ele>332.0</ele><time>2026-04-01T10:14:05Z</time></trkpt><trkpt lat="45.75436940835725" lon="8.509776514264486"><ele>332.0</ele><time>2026-04-01T10:14:07Z</time></trkpt><trkpt lat="45.75438710276918" lon="8.50968847341343"><ele>332.0</ele><time>2026-04-01T10:14:08Z</time></trkpt><trkpt lat="45.75441910435372" lon="8.509544136709954"><ele>332.0</ele><time>2026-04-01T10:14:10Z</time></trkpt><trkpt lat="45.75445511467124" lon="8.509381258563304"><ele>332.0</ele><time>2026-04-01T10:14:12Z</time></trkpt><trkpt lat="45.75448642890788" lon="8.509241768067339"><ele>331.83333333333337</ele><time>2026-04-01T10:14:14Z</time></trkpt><trkpt lat="45.75447637472992" lon="8.509088294873397"><ele>331.6666666666667</ele><time>2026-04-01T10:14:16Z</time></trkpt><trkpt lat="45.7544638684541" lon="8.508970041707741"><ele>331.5</ele><time>2026-04-01T10:14:18Z</time></trkpt><trkpt lat="45.75444552753749" lon="8.508882435900038"><ele>331.3333333333333</ele><time>2026-04-01T10:14:19Z</time></trkpt><trkpt lat="45.75445049162547" lon="8.508735673502885"><ele>331.16666666666663</ele><time>2026-04-01T10:14:21Z</time></trkpt><trkpt lat="45.754463577246845" lon="8.508612630933657"><ele>331.0</ele><time>2026-04-01T10:14:23Z</time></trkpt><trkpt lat="45.75449834442309" lon="8.50846875519593"><ele>331.5</ele><time>2026-04-01T10:14:25Z</time></trkpt><trkpt lat="45.75452041402981" lon="8.508377519656783"><ele>332.0</ele><time>2026-04-01T10:14:26Z</time></trkpt><trkpt lat="45.75454921147925" lon="8.508284208191784"><ele>332.5</ele><time>2026-04-01T10:14:27Z</time></trkpt><trkpt lat="45.754616374953585" lon="8.508124290106881"><ele>333.0</ele><time>2026-04-01T10:14:29Z</time></trkpt><trkpt lat="45.75465225133766" lon="8.508029935357023"><ele>333.5</ele><time>2026-04-01T10:14:30Z</time></trkpt><trkpt lat="45.75467281573237" lon="8.507905907351242"><ele>334.0</ele><time>2026-04-01T10:14:32Z</time></trkpt><trkpt lat="45.75471342690668" lon="8.507817583302762"><ele>334.66666666666663</ele><time>2026-04-01T10:14:36Z</time></trkpt><trkpt lat="45.75476994098182" lon="8.50770887425109"><ele>335.3333333333333</ele><time>2026-04-01T10:14:39Z</time></trkpt><trkpt lat="45.75480529021555" lon="8.507577709788778"><ele>336.0</ele><time>2026-04-01T10:14:41Z</time></trkpt><trkpt lat="45.754864166107744" lon="8.507493493983835"><ele>336.6666666666667</ele><time>2026-04-01T10:14:44Z</time></trkpt><trkpt lat="45.7548859819856" lon="8.507365047380713"><ele>337.33333333333337</ele><time>2026-04-01T10:14:46Z</time></trkpt><trkpt lat="45.754910708475194" lon="8.507266322067377"><ele>338.0</ele><time>2026-04-01T10:14:48Z</time></trkpt><trkpt lat="45.75496041834199" lon="8.50718577032388"><ele>338.0</ele><time>2026-04-01T10:14:53Z</time></trkpt><trkpt lat="45.75500956694349" lon="8.507096557255716"><ele>338.0</ele><time>2026-04-01T10:14:56Z</time></trkpt><trkpt lat="45.75507584037043" lon="8.506992289100843"><ele>338.0</ele><time>2026-04-01T10:14:58Z</time></trkpt><trkpt lat="45.755105212078846" lon="8.506902693251678"><ele>338.0</ele><time>2026-04-01T10:14:59Z</time></trkpt><trkpt lat="45.75513089487208" lon="8.506817020385078"><ele>338.0</ele><time>2026-04-01T10:15:00Z</time></trkpt><trkpt lat="45.75516786159743" lon="8.50672748331103"><ele>338.0</ele><time>2026-04-01T10:15:01Z</time></trkpt><trkpt lat="45.75520812279417" lon="8.506600889962062"><ele>337.0</ele><time>2026-04-01T10:15:02Z</time></trkpt><trkpt lat="45.75522879291176" lon="8.506507057485038"><ele>336.0</ele><time>2026-04-01T10:15:03Z</time></trkpt><trkpt lat="45.755280427669625" lon="8.506379820221113"><ele>335.0</ele><time>2026-04-01T10:15:05Z</time></trkpt><trkpt lat="45.755335492878956" lon="8.506293122550558"><ele>334.0</ele><time>2026-04-01T10:15:07Z</time></trkpt><trkpt lat="45.75538553310198" lon="8.506159158085444"><ele>333.0</ele><time>2026-04-01T10:15:09Z</time></trkpt><trkpt lat="45.75543103353364" lon="8.506039684124953"><ele>333.0</ele><time>2026-04-01T10:15:11Z</time></trkpt><trkpt lat="45.75545806452614" lon="8.50592461017579"><ele>333.0</ele><time>2026-04-01T10:15:13Z</time></trkpt><trkpt lat="45.75548722570556" lon="8.505823300319001"><ele>333.0</ele><time>2026-04-01T10:15:14Z</time></trkpt><trkpt lat="45.75552533279885" lon="8.505733928765506"><ele>333.0</ele><time>2026-04-01T10:15:15Z</time></trkpt><trkpt lat="45.755576009838705" lon="8.5055533046507"><ele>333.0</ele><time>2026-04-01T10:15:17Z</time></trkpt><trkpt lat="45.755631307685285" lon="8.505468658448914"><ele>334.2</ele><time>2026-04-01T10:15:19Z</time></trkpt><trkpt lat="45.75561807964599" lon="8.505371122346062"><ele>335.4</ele><time>2026-04-01T10:15:22Z</time></trkpt><trkpt lat="45.755660013618495" lon="8.505252411969243"><ele>336.59999999999997</ele><time>2026-04-01T10:15:26Z</time></trkpt><trkpt lat="45.75571559075946" lon="8.505168208925898"><ele>337.79999999999995</ele><time>2026-04-01T10:15:28Z</time></trkpt><trkpt lat="45.755871634422" lon="8.505124491957384"><ele>339.0</ele><time>2026-04-01T10:16:12Z</time></trkpt><trkpt lat="45.75590809610794" lon="8.505044522888042"><ele>339.0</ele><time>2026-04-01T10:16:16Z</time></trkpt><trkpt lat="45.755900666370174" lon="8.504939374730649"><ele>339.0</ele><time>2026-04-01T10:16:31Z</time></trkpt><trkpt lat="45.75595559767951" lon="8.504838715826958"><ele>339.0</ele><time>2026-04-01T10:16:33Z</time></trkpt><trkpt lat="45.75601479995413" lon="8.504794328026792"><ele>339.0</ele><time>2026-04-01T10:16:34Z</time></trkpt><trkpt lat="45.75608763748043" lon="8.50478683380044"><ele>339.0</ele><time>2026-04-01T10:16:35Z</time></trkpt><trkpt lat="45.75616520255237" lon="8.5047617715656"><ele>339.0</ele><time>2026-04-01T10:16:36Z</time></trkpt><trkpt lat="45.75626122737711" lon="8.504722815772286"><ele>338.6666666666667</ele><time>2026-04-01T10:16:38Z</time></trkpt><trkpt lat="45.75632672878699" lon="8.504702666356964"><ele>338.3333333333333</ele><time>2026-04-01T10:16:41Z</time></trkpt><trkpt lat="45.75639046889604" lon="8.504646534338107"><ele>338.0</ele><time>2026-04-01T10:16:43Z</time></trkpt><trkpt lat="45.756421822212126" lon="8.504549508126308"><ele>337.66666666666663</ele><time>2026-04-01T10:16:45Z</time></trkpt><trkpt lat="45.75646651863225" lon="8.504424888244992"><ele>337.3333333333333</ele><time>2026-04-01T10:16:48Z</time></trkpt><trkpt lat="45.75656235270762" lon="8.504288679278174"><ele>337.0</ele><time>2026-04-01T10:16:50Z</time></trkpt><trkpt lat="45.75662971496727" lon="8.504241263753178"><ele>336.3333333333333</ele><time>2026-04-01T10:16:51Z</time></trkpt><trkpt lat="45.75670041985131" lon="8.504195529093428"><ele>335.66666666666663</ele><time>2026-04-01T10:16:52Z</time></trkpt><trkpt lat="45.75676879497953" lon="8.504130420644698"><ele>335.0</ele><time>2026-04-01T10:16:53Z</time></trkpt><trkpt lat="45.75685780397052" lon="8.504036749849469"><ele>334.3333333333333</ele><time>2026-04-01T10:16:55Z</time></trkpt><trkpt lat="45.756932402565745" lon="8.503957979684904"><ele>333.6666666666667</ele><time>2026-04-01T10:16:57Z</time></trkpt><trkpt lat="45.75697777491992" lon="8.50385898200502"><ele>333.0</ele><time>2026-04-01T10:16:59Z</time></trkpt><trkpt lat="45.757013465255966" lon="8.503779649925299"><ele>334.8333333333333</ele><time>2026-04-01T10:17:00Z</time></trkpt><trkpt lat="45.7570744442707" lon="8.503663033847609"><ele>336.6666666666667</ele><time>2026-04-01T10:17:02Z</time></trkpt><trkpt lat="45.757116963272615" lon="8.503525375085609"><ele>338.5</ele><time>2026-04-01T10:17:04Z</time></trkpt><trkpt lat="45.75715258246426" lon="8.503449911570964"><ele>340.33333333333337</ele><time>2026-04-01T10:17:05Z</time></trkpt><trkpt lat="45.75721859514031" lon="8.503376468231437"><ele>342.1666666666667</ele><time>2026-04-01T10:17:05.999Z</time></trkpt><trkpt lat="45.757256010366966" lon="8.503295904016198"><ele>344.0</ele><time>2026-04-01T10:17:06.999Z</time></trkpt><trkpt lat="45.757308128124706" lon="8.503172016472636"><ele>344.0</ele><time>2026-04-01T10:17:08.999Z</time></trkpt><trkpt lat="45.75736820562729" lon="8.503032495762682"><ele>344.0</ele><time>2026-04-01T10:17:10.999Z</time></trkpt><trkpt lat="45.75740253645004" lon="8.502947414997568"><ele>344.0</ele><time>2026-04-01T10:17:11.999Z</time></trkpt><trkpt lat="45.75743922447859" lon="8.502859546514802"><ele>344.0</ele><time>2026-04-01T10:17:12.999Z</time></trkpt><trkpt lat="45.757472345633154" lon="8.502703862749836"><ele>344.0</ele><time>2026-04-01T10:17:14.999Z</time></trkpt><trkpt lat="45.7575059653155" lon="8.50261917309776"><ele>344.0</ele><time>2026-04-01T10:17:15.999Z</time></trkpt><trkpt lat="45.757553388931534" lon="8.502494572433108"><ele>344.5</ele><time>2026-04-01T10:17:17.999Z</time></trkpt><trkpt lat="45.757570982709304" lon="8.502404865858354"><ele>345.0</ele><time>2026-04-01T10:17:18.999Z</time></trkpt><trkpt lat="45.75759970476854" lon="8.502273268898684"><ele>345.5</ele><time>2026-04-01T10:17:19.999Z</time></trkpt><trkpt lat="45.75762795310541" lon="8.502179143862138"><ele>346.0</ele><time>2026-04-01T10:17:20.999Z</time></trkpt><trkpt lat="45.7576727657559" lon="8.502111181897654"><ele>346.5</ele><time>2026-04-01T10:17:21.999Z</time></trkpt><trkpt lat="45.757720579924616" lon="8.502048511757511"><ele>347.0</ele><time>2026-04-01T10:17:22.999Z</time></trkpt><trkpt lat="45.75779183130844" lon="8.501972678711866"><ele>347.0</ele><time>2026-04-01T10:17:24.999Z</time></trkpt><trkpt lat="45.7578530738596" lon="8.50185409748376"><ele>347.0</ele><time>2026-04-01T10:17:27.999Z</time></trkpt><trkpt lat="45.75794427997751" lon="8.50175923868229"><ele>347.0</ele><time>2026-04-01T10:17:29.999Z</time></trkpt><trkpt lat="45.75797616980135" lon="8.501552469844674"><ele>347.0</ele><time>2026-04-01T10:17:31.999Z</time></trkpt><trkpt lat="45.75799470017868" lon="8.50144738343519"><ele>347.0</ele><time>2026-04-01T10:17:32.999Z</time></trkpt><trkpt lat="45.75801133372337" lon="8.501351502428097"><ele>345.40000000000003</ele><time>2026-04-01T10:17:33.999Z</time></trkpt><trkpt lat="45.7580617438515" lon="8.50117302556844"><ele>343.8</ele><time>2026-04-01T10:17:35.999Z</time></trkpt><trkpt lat="45.75809586232603" lon="8.501083481715343"><ele>342.2</ele><time>2026-04-01T10:17:36.999Z</time></trkpt><trkpt lat="45.75814415765651" lon="8.501007392580453"><ele>340.6</ele><time>2026-04-01T10:17:37.999Z</time></trkpt><trkpt lat="45.75818732211646" lon="8.50092508036445"><ele>339.0</ele><time>2026-04-01T10:17:38.999Z</time></trkpt><trkpt lat="45.758283981148445" lon="8.50082462542484"><ele>339.0</ele><time>2026-04-01T10:17:40.999Z</time></trkpt><trkpt lat="45.75833915443702" lon="8.500767941849704"><ele>339.0</ele><time>2026-04-01T10:17:41.999Z</time></trkpt><trkpt lat="45.758396176390086" lon="8.500691140309163"><ele>339.0</ele><time>2026-04-01T10:17:42.999Z</time></trkpt><trkpt lat="45.758461534971204" lon="8.50061146169047"><ele>339.0</ele><time>2026-04-01T10:17:43.999Z</time></trkpt><trkpt lat="45.7585197572289" lon="8.500559321665753"><ele>339.0</ele><time>2026-04-01T10:17:44.999Z</time></trkpt><trkpt lat="45.75859200888785" lon="8.500503469847883"><ele>339.0</ele><time>2026-04-01T10:17:45.999Z</time></trkpt><trkpt lat="45.75865846341517" lon="8.50045564265297"><ele>338.7142857142857</ele><time>2026-04-01T10:17:46.999Z</time></trkpt><trkpt lat="45.75872499673476" lon="8.50039871702627"><ele>338.42857142857144</ele><time>2026-04-01T10:17:47.999Z</time></trkpt><trkpt lat="45.75878535061169" lon="8.500343529026258"><ele>338.14285714285717</ele><time>2026-04-01T10:17:48.999Z</time></trkpt><trkpt lat="45.75884664044131" lon="8.50029536948512"><ele>337.8571428571429</ele><time>2026-04-01T10:17:49.999Z</time></trkpt><trkpt lat="45.758910804871206" lon="8.500243355507315"><ele>337.57142857142856</ele><time>2026-04-01T10:17:50.999Z</time></trkpt><trkpt lat="45.75897377502742" lon="8.500205977102086"><ele>337.28571428571433</ele><time>2026-04-01T10:17:51.999Z</time></trkpt><trkpt lat="45.75905100290317" lon="8.500197633175482"><ele>337.0</ele><time>2026-04-01T10:17:52.999Z</time></trkpt><trkpt lat="45.759120296109415" lon="8.500182499727567"><ele>337.0</ele><time>2026-04-01T10:17:53.999Z</time></trkpt><trkpt lat="45.759184345588565" lon="8.500159285210776"><ele>337.0</ele><time>2026-04-01T10:17:54.999Z</time></trkpt><trkpt lat="45.75929444197928" lon="8.500091869400396"><ele>337.0</ele><time>2026-04-01T10:17:56.999Z</time></trkpt><trkpt lat="45.759360958875774" lon="8.500041787661544"><ele>337.0</ele><time>2026-04-01T10:17:57.999Z</time></trkpt><trkpt lat="45.75943799182046" lon="8.49999482154354"><ele>337.0</ele><time>2026-04-01T10:17:58.999Z</time></trkpt><trkpt lat="45.75950315921151" lon="8.499939312358007"><ele>337.0</ele><time>2026-04-01T10:17:59.999Z</time></trkpt><trkpt lat="45.75956161765801" lon="8.499887556220038"><ele>336.8333333333333</ele><time>2026-04-01T10:18:00.999Z</time></trkpt><trkpt lat="45.75961951039752" lon="8.499844458694621"><ele>336.66666666666663</ele><time>2026-04-01T10:18:01.999Z</time></trkpt><trkpt lat="45.75973644055843" lon="8.499747096912571"><ele>336.5</ele><time>2026-04-01T10:18:03.999Z</time></trkpt><trkpt lat="45.75980523362231" lon="8.49968760111791"><ele>336.3333333333333</ele><time>2026-04-01T10:18:04.999Z</time></trkpt><trkpt lat="45.75986978719782" lon="8.49962792022526"><ele>336.1666666666667</ele><time>2026-04-01T10:18:05.999Z</time></trkpt><trkpt lat="45.7599274100902" lon="8.499570640378778"><ele>336.0</ele><time>2026-04-01T10:18:06.999Z</time></trkpt><trkpt lat="45.759993237883634" lon="8.499507262261158"><ele>336.0</ele><time>2026-04-01T10:18:07.999Z</time></trkpt><trkpt lat="45.76005888602046" lon="8.499449980843233"><ele>336.0</ele><time>2026-04-01T10:18:08.999Z</time></trkpt><trkpt lat="45.76012637400046" lon="8.499394946881049"><ele>336.0</ele><time>2026-04-01T10:18:09.999Z</time></trkpt><trkpt lat="45.76018658051259" lon="8.49934012228758"><ele>336.0</ele><time>2026-04-01T10:18:10.999Z</time></trkpt><trkpt lat="45.76023965751922" lon="8.499284716563567"><ele>336.0</ele><time>2026-04-01T10:18:11.999Z</time></trkpt><trkpt lat="45.76030211716556" lon="8.499242854286972"><ele>336.0</ele><time>2026-04-01T10:18:12.999Z</time></trkpt><trkpt lat="45.76035639794842" lon="8.499188808932356"><ele>336.0</ele><time>2026-04-01T10:18:13.999Z</time></trkpt><trkpt lat="45.760422978405494" lon="8.49913973622858"><ele>336.1666666666667</ele><time>2026-04-01T10:18:14.999Z</time></trkpt><trkpt lat="45.76048210631667" lon="8.499091502320212"><ele>336.3333333333333</ele><time>2026-04-01T10:18:16Z</time></trkpt><trkpt lat="45.76053881080614" lon="8.499029623203421"><ele>336.5</ele><time>2026-04-01T10:18:17Z</time></trkpt><trkpt lat="45.7606472096708" lon="8.498917894505604"><ele>336.66666666666663</ele><time>2026-04-01T10:18:19Z</time></trkpt><trkpt lat="45.76069669569801" lon="8.498855447226333"><ele>336.8333333333333</ele><time>2026-04-01T10:18:20Z</time></trkpt><trkpt lat="45.760774463554924" lon="8.498742643603975"><ele>337.0</ele><time>2026-04-01T10:18:22Z</time></trkpt><trkpt lat="45.76086556053079" lon="8.498666011579003"><ele>338.75</ele><time>2026-04-01T10:18:24Z</time></trkpt><trkpt lat="45.760958286764925" lon="8.498791497474786"><ele>340.5</ele><time>2026-04-01T10:18:30Z</time></trkpt><trkpt lat="45.760994198629405" lon="8.498874756012643"><ele>342.25</ele><time>2026-04-01T10:18:35Z</time></trkpt><trkpt lat="45.76106623256628" lon="8.498973587082146"><ele>344.0</ele><time>2026-04-01T10:18:36Z</time></trkpt><trkpt lat="45.761294567570204" lon="8.49888400144491"><ele>343.6666666666667</ele><time>2026-04-01T10:18:40Z</time></trkpt><trkpt lat="45.761382218112864" lon="8.498848656045922"><ele>343.33333333333337</ele><time>2026-04-01T10:18:41Z</time></trkpt><trkpt lat="45.76146478487421" lon="8.498811777391191"><ele>343.0</ele><time>2026-04-01T10:18:42Z</time></trkpt><trkpt lat="45.76153691374305" lon="8.498758502918038"><ele>342.6666666666667</ele><time>2026-04-01T10:18:43Z</time></trkpt><trkpt lat="45.76160279085115" lon="8.498713605950122"><ele>342.3333333333333</ele><time>2026-04-01T10:18:44Z</time></trkpt><trkpt lat="45.76166073625113" lon="8.49866865132639"><ele>342.0</ele><time>2026-04-01T10:18:45Z</time></trkpt><trkpt lat="45.76172214518905" lon="8.498625263383397"><ele>342.0</ele><time>2026-04-01T10:18:46Z</time></trkpt><trkpt lat="45.761825872841214" lon="8.498501975404784"><ele>342.0</ele><time>2026-04-01T10:18:48Z</time></trkpt><trkpt lat="45.76188913335091" lon="8.49842862327824"><ele>342.0</ele><time>2026-04-01T10:18:49Z</time></trkpt><trkpt lat="45.76195655435744" lon="8.498351101411325"><ele>342.0</ele><time>2026-04-01T10:18:50Z</time></trkpt><trkpt lat="45.762019720741606" lon="8.498282375035991"><ele>342.0</ele><time>2026-04-01T10:18:51Z</time></trkpt><trkpt lat="45.76208927548935" lon="8.498217737588876"><ele>342.1666666666667</ele><time>2026-04-01T10:18:52Z</time></trkpt><trkpt lat="45.76215187563626" lon="8.498152112952445"><ele>342.3333333333333</ele><time>2026-04-01T10:18:53Z</time></trkpt><trkpt lat="45.76222158579477" lon="8.498093809427543"><ele>342.5</ele><time>2026-04-01T10:18:54Z</time></trkpt><trkpt lat="45.7622816612898" lon="8.498026231575619"><ele>342.66666666666663</ele><time>2026-04-01T10:18:55Z</time></trkpt><trkpt lat="45.76234741835964" lon="8.497971392928672"><ele>342.8333333333333</ele><time>2026-04-01T10:18:56Z</time></trkpt><trkpt lat="45.762410787006196" lon="8.497906595120378"><ele>343.0</ele><time>2026-04-01T10:18:57Z</time></trkpt><trkpt lat="45.762464287370086" lon="8.497839833844184"><ele>343.0</ele><time>2026-04-01T10:18:58Z</time></trkpt><trkpt lat="45.76252070346881" lon="8.49777899643193"><ele>343.0</ele><time>2026-04-01T10:18:59Z</time></trkpt><trkpt lat="45.762576967992146" lon="8.49772451719596"><ele>343.0</ele><time>2026-04-01T10:19:00Z</time></trkpt><trkpt lat="45.762660420067405" lon="8.497655649156144"><ele>343.0</ele><time>2026-04-01T10:19:02Z</time></trkpt><trkpt lat="45.76273083897547" lon="8.497593357660977"><ele>343.0</ele><time>2026-04-01T10:19:05Z</time></trkpt><trkpt lat="45.762780562119154" lon="8.49752137482982"><ele>343.0</ele><time>2026-04-01T10:19:07Z</time></trkpt><trkpt lat="45.76284968552727" lon="8.497464487381276"><ele>344.5</ele><time>2026-04-01T10:19:09Z</time></trkpt><trkpt lat="45.762917308049275" lon="8.497421070987068"><ele>346.0</ele><time>2026-04-01T10:19:11Z</time></trkpt><trkpt lat="45.76299887454283" lon="8.497353977247531"><ele>347.5</ele><time>2026-04-01T10:19:13Z</time></trkpt><trkpt lat="45.76306933669175" lon="8.497289778328238"><ele>349.0</ele><time>2026-04-01T10:19:15Z</time></trkpt><trkpt lat="45.76312026193772" lon="8.497234274908232"><ele>350.5</ele><time>2026-04-01T10:19:16Z</time></trkpt><trkpt lat="45.76318273187689" lon="8.4971716490092"><ele>352.0</ele><time>2026-04-01T10:19:17Z</time></trkpt><trkpt lat="45.76324772972275" lon="8.49712549558041"><ele>350.6</ele><time>2026-04-01T10:19:18Z</time></trkpt><trkpt lat="45.763271049147484" lon="8.49700818430818"><ele>349.20000000000005</ele><time>2026-04-01T10:19:21Z</time></trkpt><trkpt lat="45.763183236650235" lon="8.49689335134561"><ele>347.8</ele><time>2026-04-01T10:19:23Z</time></trkpt><trkpt lat="45.763143350025416" lon="8.496814727286877"><ele>346.4</ele><time>2026-04-01T10:19:24Z</time></trkpt><trkpt lat="45.7630711968245" lon="8.496678178406288"><ele>345.0</ele><time>2026-04-01T10:19:26Z</time></trkpt><trkpt lat="45.76303267628924" lon="8.496595909661629"><ele>345.0</ele><time>2026-04-01T10:19:27Z</time></trkpt><trkpt lat="45.76305492533168" lon="8.496502433802112"><ele>345.0</ele><time>2026-04-01T10:19:29Z</time></trkpt><trkpt lat="45.76315518130063" lon="8.49645346649048"><ele>345.0</ele><time>2026-04-01T10:19:31Z</time></trkpt><trkpt lat="45.76325096115157" lon="8.496398811926628"><ele>345.0</ele><time>2026-04-01T10:19:33Z</time></trkpt><trkpt lat="45.76333870367039" lon="8.496336514323712"><ele>345.0</ele><time>2026-04-01T10:19:35Z</time></trkpt><trkpt lat="45.763432324187356" lon="8.496272170175198"><ele>345.0</ele><time>2026-04-01T10:19:37Z</time></trkpt><trkpt lat="45.763514131628156" lon="8.496213401997714"><ele>345.0</ele><time>2026-04-01T10:19:39Z</time></trkpt><trkpt lat="45.76356929082131" lon="8.496144688336662"><ele>345.0</ele><time>2026-04-01T10:19:43Z</time></trkpt><trkpt lat="45.76361214144332" lon="8.496064261152393"><ele>345.0</ele><time>2026-04-01T10:19:45Z</time></trkpt><trkpt lat="45.76368902256234" lon="8.495986955040824"><ele>345.0</ele><time>2026-04-01T10:19:47Z</time></trkpt><trkpt lat="45.76378471609449" lon="8.49589506600779"><ele>345.0</ele><time>2026-04-01T10:19:49Z</time></trkpt><trkpt lat="45.76387077264256" lon="8.495814114437431"><ele>346.0</ele><time>2026-04-01T10:19:51Z</time></trkpt><trkpt lat="45.763953807271385" lon="8.495771659549115"><ele>347.0</ele><time>2026-04-01T10:19:53Z</time></trkpt><trkpt lat="45.76404864579875" lon="8.495750682279901"><ele>348.0</ele><time>2026-04-01T10:20:13.999Z</time></trkpt><trkpt lat="45.76409995325028" lon="8.495686599466692"><ele>349.0</ele><time>2026-04-01T10:21:29Z</time></trkpt><trkpt lat="45.76418357466355" lon="8.495608076646409"><ele>350.0</ele><time>2026-04-01T10:21:32Z</time></trkpt><trkpt lat="45.76427538158361" lon="8.495550994035678"><ele>350.0</ele><time>2026-04-01T10:21:34Z</time></trkpt><trkpt lat="45.76442220972822" lon="8.49546149141414"><ele>350.0</ele><time>2026-04-01T10:21:36Z</time></trkpt><trkpt lat="45.764518970446446" lon="8.495413396684802"><ele>350.0</ele><time>2026-04-01T10:21:37Z</time></trkpt><trkpt lat="45.764595198656316" lon="8.495373832513344"><ele>350.0</ele><time>2026-04-01T10:21:38Z</time></trkpt><trkpt lat="45.76466569339192" lon="8.49533649238918"><ele>350.0</ele><time>2026-04-01T10:21:39Z</time></trkpt><trkpt lat="45.764737453739244" lon="8.495299510767937"><ele>350.0</ele><time>2026-04-01T10:21:40Z</time></trkpt><trkpt lat="45.76480720796108" lon="8.495263279222357"><ele>350.0</ele><time>2026-04-01T10:21:41Z</time></trkpt><trkpt lat="45.764881151587176" lon="8.495230116614595"><ele>350.0</ele><time>2026-04-01T10:21:42Z</time></trkpt><trkpt lat="45.76494503183243" lon="8.495204000929"><ele>350.0</ele><time>2026-04-01T10:21:43Z</time></trkpt><trkpt lat="45.76502182470297" lon="8.495191840623788"><ele>350.0</ele><time>2026-04-01T10:21:44Z</time></trkpt><trkpt lat="45.765105405981444" lon="8.495175328846424"><ele>350.0</ele><time>2026-04-01T10:21:45Z</time></trkpt><trkpt lat="45.76520968542497" lon="8.49512019366545"><ele>351.8</ele><time>2026-04-01T10:21:47Z</time></trkpt><trkpt lat="45.76527635345934" lon="8.49506704827074"><ele>353.6</ele><time>2026-04-01T10:21:48.999Z</time></trkpt><trkpt lat="45.76532271123449" lon="8.49491889316791"><ele>355.4</ele><time>2026-04-01T10:21:50.999Z</time></trkpt><trkpt lat="45.765382458543016" lon="8.494792545436956"><ele>357.2</ele><time>2026-04-01T10:21:52.999Z</time></trkpt><trkpt lat="45.76542510353169" lon="8.49461748256424"><ele>359.0</ele><time>2026-04-01T10:21:54.999Z</time></trkpt><trkpt lat="45.765456541457944" lon="8.494538202187547"><ele>359.0</ele><time>2026-04-01T10:21:55.999Z</time></trkpt><trkpt lat="45.765530242612634" lon="8.494435671952893"><ele>359.0</ele><time>2026-04-01T10:21:57.999Z</time></trkpt><trkpt lat="45.765587071646166" lon="8.49437726546131"><ele>359.0</ele><time>2026-04-01T10:21:58.999Z</time></trkpt><trkpt lat="45.765659306694374" lon="8.494348274068681"><ele>359.0</ele><time>2026-04-01T10:21:59.999Z</time></trkpt><trkpt lat="45.76573532607753" lon="8.494313031039209"><ele>359.0</ele><time>2026-04-01T10:22:00.999Z</time></trkpt><trkpt lat="45.76582012654637" lon="8.494304282442265"><ele>359.0</ele><time>2026-04-01T10:22:01.999Z</time></trkpt><trkpt lat="45.7658993294378" lon="8.494317509418455"><ele>359.0</ele><time>2026-04-01T10:22:02.999Z</time></trkpt><trkpt lat="45.76602352754345" lon="8.494283483482823"><ele>359.0</ele><time>2026-04-01T10:22:04.999Z</time></trkpt><trkpt lat="45.76610622255184" lon="8.494247424004472"><ele>359.0</ele><time>2026-04-01T10:22:05.999Z</time></trkpt><trkpt lat="45.76618303716957" lon="8.49421168883361"><ele>359.0</ele><time>2026-04-01T10:22:06.999Z</time></trkpt><trkpt lat="45.76626105783859" lon="8.494184580830105"><ele>359.0</ele><time>2026-04-01T10:22:07.999Z</time></trkpt><trkpt lat="45.76632999155243" lon="8.494141987559939"><ele>359.0</ele><time>2026-04-01T10:22:08.999Z</time></trkpt><trkpt lat="45.766398620159265" lon="8.494091697729612"><ele>359.6666666666667</ele><time>2026-04-01T10:22:09.999Z</time></trkpt><trkpt lat="45.766508450326455" lon="8.49409363791715"><ele>360.33333333333337</ele><time>2026-04-01T10:22:11.999Z</time></trkpt><trkpt lat="45.7666307871587" lon="8.49411311458979"><ele>361.0</ele><time>2026-04-01T10:22:13.999Z</time></trkpt><trkpt lat="45.766701244974854" lon="8.494109574887858"><ele>361.6666666666667</ele><time>2026-04-01T10:22:14.999Z</time></trkpt><trkpt lat="45.7667718138029" lon="8.494122845511237"><ele>362.3333333333333</ele><time>2026-04-01T10:22:15.999Z</time></trkpt><trkpt lat="45.766842750155405" lon="8.494121897901952"><ele>363.0</ele><time>2026-04-01T10:22:16.999Z</time></trkpt><trkpt lat="45.76692808901499" lon="8.49413994338447"><ele>363.0</ele><time>2026-04-01T10:22:17.999Z</time></trkpt><trkpt lat="45.767014247174565" lon="8.494144855261405"><ele>363.0</ele><time>2026-04-01T10:22:18.999Z</time></trkpt><trkpt lat="45.76710378206857" lon="8.49414869917841"><ele>363.0</ele><time>2026-04-01T10:22:19.999Z</time></trkpt><trkpt lat="45.76718658160894" lon="8.494156131265635"><ele>363.0</ele><time>2026-04-01T10:22:20.999Z</time></trkpt><trkpt lat="45.76726666949203" lon="8.494173796696439"><ele>363.0</ele><time>2026-04-01T10:22:21.999Z</time></trkpt><trkpt lat="45.767347768363784" lon="8.494193886250901"><ele>363.0</ele><time>2026-04-01T10:22:22.999Z</time></trkpt><trkpt lat="45.76741879573713" lon="8.494214433686608"><ele>363.0</ele><time>2026-04-01T10:22:23.999Z</time></trkpt><trkpt lat="45.76749103960313" lon="8.494211035792935"><ele>363.0</ele><time>2026-04-01T10:22:24.999Z</time></trkpt><trkpt lat="45.767567182287586" lon="8.494199505110817"><ele>363.0</ele><time>2026-04-01T10:22:25.999Z</time></trkpt><trkpt lat="45.76763420896565" lon="8.494182763890434"><ele>363.0</ele><time>2026-04-01T10:22:26.999Z</time></trkpt><trkpt lat="45.767726291857386" lon="8.49419098062998"><ele>363.0</ele><time>2026-04-01T10:22:28.001Z</time></trkpt><trkpt lat="45.76780137883677" lon="8.494191639030504"><ele>363.0</ele><time>2026-04-01T10:22:29Z</time></trkpt><trkpt lat="45.76788701593572" lon="8.494200560219758"><ele>361.79999999999995</ele><time>2026-04-01T10:22:30Z</time></trkpt><trkpt lat="45.76797332762129" lon="8.494211874354548"><ele>360.6</ele><time>2026-04-01T10:22:31.001Z</time></trkpt><trkpt lat="45.76805946246843" lon="8.494197949933385"><ele>359.4</ele><time>2026-04-01T10:22:32Z</time></trkpt><trkpt lat="45.768150788773276" lon="8.494208370307422"><ele>358.20000000000005</ele><time>2026-04-01T10:22:33Z</time></trkpt><trkpt lat="45.76824329265812" lon="8.494241330806224"><ele>357.0</ele><time>2026-04-01T10:22:34.001Z</time></trkpt><trkpt lat="45.768337682676716" lon="8.494259541703148"><ele>357.0</ele><time>2026-04-01T10:22:35Z</time></trkpt><trkpt lat="45.76842377681779" lon="8.494277292933248"><ele>357.0</ele><time>2026-04-01T10:22:36Z</time></trkpt><trkpt lat="45.76851082357959" lon="8.49429487323307"><ele>357.0</ele><time>2026-04-01T10:22:37.001Z</time></trkpt><trkpt lat="45.768595319544076" lon="8.49430871703787"><ele>357.0</ele><time>2026-04-01T10:22:38.001Z</time></trkpt><trkpt lat="45.76869040866046" lon="8.494317622089783"><ele>357.0</ele><time>2026-04-01T10:22:39.001Z</time></trkpt><trkpt lat="45.76877071718285" lon="8.494341663378384"><ele>357.0</ele><time>2026-04-01T10:22:40.001Z</time></trkpt><trkpt lat="45.768844168671556" lon="8.494344185799713"><ele>356.8333333333333</ele><time>2026-04-01T10:22:41Z</time></trkpt><trkpt lat="45.76891951561235" lon="8.494336723819734"><ele>356.6666666666667</ele><time>2026-04-01T10:22:42Z</time></trkpt><trkpt lat="45.76899377000791" lon="8.494338955096078"><ele>356.5</ele><time>2026-04-01T10:22:43Z</time></trkpt><trkpt lat="45.76905856008162" lon="8.494359248468024"><ele>356.33333333333337</ele><time>2026-04-01T10:22:44Z</time></trkpt><trkpt lat="45.76918502502621" lon="8.494345996360602"><ele>356.1666666666667</ele><time>2026-04-01T10:22:46Z</time></trkpt><trkpt lat="45.769263442818634" lon="8.494361032603717"><ele>356.0</ele><time>2026-04-01T10:22:47Z</time></trkpt><trkpt lat="45.76934005035068" lon="8.494372981184043"><ele>356.83333333333337</ele><time>2026-04-01T10:22:48Z</time></trkpt><trkpt lat="45.769409834520594" lon="8.494379165765618"><ele>357.6666666666667</ele><time>2026-04-01T10:22:49Z</time></trkpt><trkpt lat="45.76948060818948" lon="8.494372849765876"><ele>358.5</ele><time>2026-04-01T10:22:50Z</time></trkpt><trkpt lat="45.76955039593562" lon="8.494370870570046"><ele>359.3333333333333</ele><time>2026-04-01T10:22:51Z</time></trkpt><trkpt lat="45.76965965957471" lon="8.494420417503418"><ele>360.16666666666663</ele><time>2026-04-01T10:22:53Z</time></trkpt><trkpt lat="45.769769419101635" lon="8.494452771031236"><ele>361.0</ele><time>2026-04-01T10:22:55Z</time></trkpt><trkpt lat="45.769872308414094" lon="8.494471174469153"><ele>361.0</ele><time>2026-04-01T10:22:57Z</time></trkpt><trkpt lat="45.76993255614895" lon="8.494431307138631"><ele>361.0</ele><time>2026-04-01T10:23:00Z</time></trkpt><trkpt lat="45.76997182384029" lon="8.49435955146899"><ele>361.0</ele><time>2026-04-01T10:23:02Z</time></trkpt><trkpt lat="45.77001831052002" lon="8.494290135945855"><ele>361.0</ele><time>2026-04-01T10:23:04Z</time></trkpt><trkpt lat="45.77008511724208" lon="8.494194020147088"><ele>361.0</ele><time>2026-04-01T10:23:07Z</time></trkpt><trkpt lat="45.770110432304655" lon="8.494094996064614"><ele>361.0</ele><time>2026-04-01T10:23:10Z</time></trkpt><trkpt lat="45.77013601847766" lon="8.494314019067808"><ele>361.0</ele><time>2026-04-01T10:23:37Z</time></trkpt><trkpt lat="45.77016020778828" lon="8.494223567315942"><ele>361.0</ele><time>2026-04-01T10:23:45Z</time></trkpt><trkpt lat="45.77021596858552" lon="8.4941080574153"><ele>361.0</ele><time>2026-04-01T10:23:56.999Z</time></trkpt><trkpt lat="45.77024113389297" lon="8.49398937811662"><ele>361.0</ele><time>2026-04-01T10:24:07.999Z</time></trkpt><trkpt lat="45.77024094463476" lon="8.493812508011022"><ele>361.0</ele><time>2026-04-01T10:24:09.999Z</time></trkpt><trkpt lat="45.770264294017814" lon="8.493701475303421"><ele>361.5</ele><time>2026-04-01T10:24:10.999Z</time></trkpt><trkpt lat="45.77029058831173" lon="8.493592506217434"><ele>362.0</ele><time>2026-04-01T10:24:11.999Z</time></trkpt><trkpt lat="45.77030980431541" lon="8.493500584458623"><ele>362.5</ele><time>2026-04-01T10:24:12.999Z</time></trkpt><trkpt lat="45.77033990253405" lon="8.493399985320986"><ele>363.0</ele><time>2026-04-01T10:24:13.999Z</time></trkpt><trkpt lat="45.77036525119196" lon="8.493314997045724"><ele>363.5</ele><time>2026-04-01T10:24:14.999Z</time></trkpt><trkpt lat="45.77037919489227" lon="8.493221855622899"><ele>364.0</ele><time>2026-04-01T10:24:15.999Z</time></trkpt><trkpt lat="45.7703716536823" lon="8.493066516551249"><ele>364.0</ele><time>2026-04-01T10:24:17.999Z</time></trkpt><trkpt lat="45.77034602925227" lon="8.492973734834388"><ele>364.0</ele><time>2026-04-01T10:24:18.999Z</time></trkpt><trkpt lat="45.77035684707079" lon="8.4928374149764"><ele>364.0</ele><time>2026-04-01T10:24:20.999Z</time></trkpt><trkpt lat="45.77043608332973" lon="8.49280535483484"><ele>364.0</ele><time>2026-04-01T10:24:22.999Z</time></trkpt><trkpt lat="45.77053708468024" lon="8.492837803165196"><ele>364.0</ele><time>2026-04-01T10:24:24.999Z</time></trkpt><trkpt lat="45.77060263225245" lon="8.492877396383765"><ele>364.0</ele><time>2026-04-01T10:24:25.999Z</time></trkpt><trkpt lat="45.770678518975885" lon="8.492921735248144"><ele>364.0</ele><time>2026-04-01T10:24:26.999Z</time></trkpt><trkpt lat="45.77074425503877" lon="8.49297987582886"><ele>364.0</ele><time>2026-04-01T10:24:27.999Z</time></trkpt><trkpt lat="45.77079966774158" lon="8.493029324946237"><ele>364.0</ele><time>2026-04-01T10:24:28.999Z</time></trkpt><trkpt lat="45.77086259333293" lon="8.493071719850366"><ele>364.0</ele><time>2026-04-01T10:24:29.999Z</time></trkpt><trkpt lat="45.770934951749744" lon="8.493095098208535"><ele>364.0</ele><time>2026-04-01T10:24:30.999Z</time></trkpt><trkpt lat="45.771018919958536" lon="8.493080780617477"><ele>364.0</ele><time>2026-04-01T10:24:32.999Z</time></trkpt><trkpt lat="45.771074345495514" lon="8.49315007329836"><ele>364.0</ele><time>2026-04-01T10:24:35Z</time></trkpt><trkpt lat="45.771143121019485" lon="8.493259633339829"><ele>364.6</ele><time>2026-04-01T10:24:37.001Z</time></trkpt><trkpt lat="45.77120223128292" lon="8.493367377352909"><ele>365.2</ele><time>2026-04-01T10:24:39.001Z</time></trkpt><trkpt lat="45.77131808607735" lon="8.493407332742072"><ele>365.8</ele><time>2026-04-01T10:26:04.999Z</time></trkpt><trkpt lat="45.77137050442758" lon="8.493465461515424"><ele>366.40000000000003</ele><time>2026-04-01T10:26:06.999Z</time></trkpt><trkpt lat="45.771422320185636" lon="8.493602893026727"><ele>367.0</ele><time>2026-04-01T10:26:08.999Z</time></trkpt><trkpt lat="45.771523515723736" lon="8.4937450957154"><ele>367.0</ele><time>2026-04-01T10:26:10.999Z</time></trkpt><trkpt lat="45.77167064277219" lon="8.49373429029566"><ele>367.0</ele><time>2026-04-01T10:26:11.999Z</time></trkpt><trkpt lat="45.77167357933692" lon="8.493948424658008"><ele>367.0</ele><time>2026-04-01T10:26:12.999Z</time></trkpt><trkpt lat="45.7718162738371" lon="8.493928347407605"><ele>367.0</ele><time>2026-04-01T10:26:13.999Z</time></trkpt><trkpt lat="45.771881800928796" lon="8.494015663926335"><ele>367.8333333333333</ele><time>2026-04-01T10:26:14.999Z</time></trkpt><trkpt lat="45.77192385815031" lon="8.494101157476162"><ele>368.66666666666663</ele><time>2026-04-01T10:26:15.999Z</time></trkpt><trkpt lat="45.772002239446294" lon="8.494171910127628"><ele>369.5</ele><time>2026-04-01T10:26:16.999Z</time></trkpt><trkpt lat="45.77208561442917" lon="8.494248562832832"><ele>370.3333333333333</ele><time>2026-04-01T10:26:17.999Z</time></trkpt><trkpt lat="45.7721609198894" lon="8.494305081053906"><ele>371.1666666666667</ele><time>2026-04-01T10:26:18.999Z</time></trkpt><trkpt lat="45.77222689305916" lon="8.494336537980242"><ele>372.0</ele><time>2026-04-01T10:26:20.999Z</time></trkpt><trkpt lat="45.772149752007714" lon="8.494131994545947"><ele>372.0</ele><time>2026-04-01T10:26:27.999Z</time></trkpt><trkpt lat="45.77209513870715" lon="8.49408109194802"><ele>372.0</ele><time>2026-04-01T10:26:28.999Z</time></trkpt><trkpt lat="45.77202335196768" lon="8.494003174658836"><ele>372.0</ele><time>2026-04-01T10:26:29.999Z</time></trkpt><trkpt lat="45.77195284255165" lon="8.4939127467454"><ele>372.0</ele><time>2026-04-01T10:26:30.999Z</time></trkpt><trkpt lat="45.771882384202826" lon="8.493822137622516"><ele>372.0</ele><time>2026-04-01T10:26:31.999Z</time></trkpt><trkpt lat="45.77180286652906" lon="8.493716287849454"><ele>370.75</ele><time>2026-04-01T10:26:32.999Z</time></trkpt><trkpt lat="45.77171433830688" lon="8.493612033049645"><ele>369.5</ele><time>2026-04-01T10:26:33.999Z</time></trkpt><trkpt lat="45.77162273849146" lon="8.493500994411946"><ele>368.25</ele><time>2026-04-01T10:26:34.999Z</time></trkpt><trkpt lat="45.77152212124473" lon="8.493372561471972"><ele>367.0</ele><time>2026-04-01T10:26:35.999Z</time></trkpt><trkpt lat="45.77142509525783" lon="8.493245442474258"><ele>367.0</ele><time>2026-04-01T10:26:36.999Z</time></trkpt><trkpt lat="45.771325895002754" lon="8.493123728978025"><ele>367.0</ele><time>2026-04-01T10:26:37.999Z</time></trkpt><trkpt lat="45.77122222233014" lon="8.493006745905321"><ele>367.0</ele><time>2026-04-01T10:26:38.999Z</time></trkpt><trkpt lat="45.77110785191171" lon="8.49289407779244"><ele>367.0</ele><time>2026-04-01T10:26:40.001Z</time></trkpt><trkpt lat="45.770982163995406" lon="8.492788891701407"><ele>371.0</ele><time>2026-04-01T10:26:41Z</time></trkpt><trkpt lat="45.77085483405371" lon="8.492710124954982"><ele>375.0</ele><time>2026-04-01T10:26:42Z</time></trkpt><trkpt lat="45.77072912296038" lon="8.492640647728273"><ele>379.0</ele><time>2026-04-01T10:26:43.001Z</time></trkpt><trkpt lat="45.7705997687742" lon="8.492581232681168"><ele>383.0</ele><time>2026-04-01T10:26:44Z</time></trkpt><trkpt lat="45.77046721106877" lon="8.492535209924728"><ele>383.0</ele><time>2026-04-01T10:26:45Z</time></trkpt><trkpt lat="45.770334412433144" lon="8.492519910061072"><ele>383.0</ele><time>2026-04-01T10:26:46.001Z</time></trkpt><trkpt lat="45.77019322068409" lon="8.492502819229054"><ele>383.0</ele><time>2026-04-01T10:26:47Z</time></trkpt><trkpt lat="45.77004133267725" lon="8.492491396763343"><ele>383.0</ele><time>2026-04-01T10:26:48Z</time></trkpt><trkpt lat="45.76987887514368" lon="8.492469988564848"><ele>383.33333333333337</ele><time>2026-04-01T10:26:49.001Z</time></trkpt><trkpt lat="45.76971678219593" lon="8.492434816361696"><ele>383.6666666666667</ele><time>2026-04-01T10:26:50Z</time></trkpt><trkpt lat="45.76955610499864" lon="8.492444738153637"><ele>384.0</ele><time>2026-04-01T10:26:51Z</time></trkpt><trkpt lat="45.76937965813266" lon="8.49248420434941"><ele>389.0</ele><time>2026-04-01T10:26:52.001Z</time></trkpt><trkpt lat="45.769220828703205" lon="8.492533967644627"><ele>394.0</ele><time>2026-04-01T10:26:53.001Z</time></trkpt><trkpt lat="45.769070209782164" lon="8.492582890707256"><ele>399.0</ele><time>2026-04-01T10:26:54.001Z</time></trkpt><trkpt lat="45.768924736589284" lon="8.492630142374962"><ele>399.0</ele><time>2026-04-01T10:26:55.001Z</time></trkpt><trkpt lat="45.76877945663995" lon="8.492677331263257"><ele>399.0</ele><time>2026-04-01T10:26:56.001Z</time></trkpt><trkpt lat="45.76863411670259" lon="8.492724539643548"><ele>399.0</ele><time>2026-04-01T10:26:57.001Z</time></trkpt><trkpt lat="45.76847133044151" lon="8.492777385418478"><ele>403.0</ele><time>2026-04-01T10:26:58.001Z</time></trkpt><trkpt lat="45.76832968347897" lon="8.492823294138379"><ele>407.0</ele><time>2026-04-01T10:26:59.001Z</time></trkpt><trkpt lat="45.768177387297385" lon="8.492871928932235"><ele>411.0</ele><time>2026-04-01T10:27:00.001Z</time></trkpt><trkpt lat="45.768015447018165" lon="8.492922075206835"><ele>403.33333333333337</ele><time>2026-04-01T10:27:01.001Z</time></trkpt><trkpt lat="45.76786433086379" lon="8.492966369761001"><ele>395.6666666666667</ele><time>2026-04-01T10:27:02Z</time></trkpt><trkpt lat="45.76771270798103" lon="8.493003226202202"><ele>388.0</ele><time>2026-04-01T10:27:03Z</time></trkpt><trkpt lat="45.76756575563643" lon="8.493024185770448"><ele>388.0</ele><time>2026-04-01T10:27:04Z</time></trkpt><trkpt lat="45.76744282498416" lon="8.493010683399305"><ele>388.0</ele><time>2026-04-01T10:27:05Z</time></trkpt><trkpt lat="45.767320164463015" lon="8.492963310969143"><ele>388.0</ele><time>2026-04-01T10:27:06Z</time></trkpt><trkpt lat="45.767187919032175" lon="8.492883432071013"><ele>388.0</ele><time>2026-04-01T10:27:07Z</time></trkpt><trkpt lat="45.76706319527882" lon="8.492778816292244"><ele>390.5</ele><time>2026-04-01T10:27:08Z</time></trkpt><trkpt lat="45.76695272097304" lon="8.492637253078176"><ele>393.0</ele><time>2026-04-01T10:27:09Z</time></trkpt><trkpt lat="45.76684897797413" lon="8.492458808591772"><ele>395.5</ele><time>2026-04-01T10:27:10Z</time></trkpt><trkpt lat="45.76678558310571" lon="8.492285026097314"><ele>398.0</ele><time>2026-04-01T10:27:11Z</time></trkpt><trkpt lat="45.76673298528771" lon="8.492123716715724"><ele>398.5</ele><time>2026-04-01T10:27:12Z</time></trkpt><trkpt lat="45.76671136434044" lon="8.491920085664416"><ele>399.0</ele><time>2026-04-01T10:27:13Z</time></trkpt><trkpt lat="45.76670962053376" lon="8.491715185308841"><ele>399.5</ele><time>2026-04-01T10:27:14Z</time></trkpt><trkpt lat="45.76671340695519" lon="8.49150755003722"><ele>400.0</ele><time>2026-04-01T10:27:15Z</time></trkpt><trkpt lat="45.766719834790344" lon="8.491306955911053"><ele>400.0</ele><time>2026-04-01T10:27:16Z</time></trkpt><trkpt lat="45.766718619498384" lon="8.49111225591236"><ele>400.0</ele><time>2026-04-01T10:27:17Z</time></trkpt><trkpt lat="45.76670931341302" lon="8.490933062189857"><ele>400.0</ele><time>2026-04-01T10:27:18Z</time></trkpt><trkpt lat="45.766710226792135" lon="8.4907291439269"><ele>400.0</ele><time>2026-04-01T10:27:19Z</time></trkpt><trkpt lat="45.76674699367795" lon="8.49049108750834"><ele>400.75</ele><time>2026-04-01T10:27:20Z</time></trkpt><trkpt lat="45.76674709717567" lon="8.490282742266862"><ele>401.5</ele><time>2026-04-01T10:27:21Z</time></trkpt><trkpt lat="45.766748614135146" lon="8.490071902642358"><ele>402.25</ele><time>2026-04-01T10:27:22Z</time></trkpt><trkpt lat="45.76675511264748" lon="8.489881804991837"><ele>403.0</ele><time>2026-04-01T10:27:23Z</time></trkpt><trkpt lat="45.766785309233256" lon="8.48970231887983"><ele>403.75</ele><time>2026-04-01T10:27:24Z</time></trkpt><trkpt lat="45.76684926401075" lon="8.489513326465183"><ele>404.5</ele><time>2026-04-01T10:27:25Z</time></trkpt><trkpt lat="45.76692959239492" lon="8.489342178461246"><ele>405.25</ele><time>2026-04-01T10:27:26Z</time></trkpt><trkpt lat="45.76700763694616" lon="8.489179738516642"><ele>406.0</ele><time>2026-04-01T10:27:27Z</time></trkpt><trkpt lat="45.767069785908916" lon="8.489005155431949"><ele>407.5</ele><time>2026-04-01T10:27:28Z</time></trkpt><trkpt lat="45.76710540480276" lon="8.48882153344397"><ele>409.0</ele><time>2026-04-01T10:27:29Z</time></trkpt><trkpt lat="45.767115534296" lon="8.48862642459662"><ele>410.5</ele><time>2026-04-01T10:27:30Z</time></trkpt><trkpt lat="45.76710835177905" lon="8.48844749014063"><ele>412.0</ele><time>2026-04-01T10:27:31Z</time></trkpt><trkpt lat="45.767076329476566" lon="8.488256727525966"><ele>412.0</ele><time>2026-04-01T10:27:32Z</time></trkpt><trkpt lat="45.76704620429064" lon="8.488052098636615"><ele>412.0</ele><time>2026-04-01T10:27:33Z</time></trkpt><trkpt lat="45.76700199549674" lon="8.487869763208858"><ele>412.0</ele><time>2026-04-01T10:27:34Z</time></trkpt><trkpt lat="45.76695778416627" lon="8.48769497809121"><ele>412.0</ele><time>2026-04-01T10:27:35Z</time></trkpt><trkpt lat="45.76686365308092" lon="8.48755388553771"><ele>411.75</ele><time>2026-04-01T10:27:36Z</time></trkpt><trkpt lat="45.76678506184447" lon="8.487396353955969"><ele>411.5</ele><time>2026-04-01T10:27:37Z</time></trkpt><trkpt lat="45.766659851654765" lon="8.487307344740737"><ele>411.25</ele><time>2026-04-01T10:27:38Z</time></trkpt><trkpt lat="45.76653980335047" lon="8.487213079513955"><ele>411.0</ele><time>2026-04-01T10:27:39Z</time></trkpt><trkpt lat="45.766424888753285" lon="8.487113521720309"><ele>411.25</ele><time>2026-04-01T10:27:40Z</time></trkpt><trkpt lat="45.76632415056722" lon="8.486999461680867"><ele>411.5</ele><time>2026-04-01T10:27:41Z</time></trkpt><trkpt lat="45.766223536009086" lon="8.486885531619018"><ele>411.75</ele><time>2026-04-01T10:27:42Z</time></trkpt><trkpt lat="45.76610489909232" lon="8.486799280711908"><ele>412.0</ele><time>2026-04-01T10:27:43Z</time></trkpt><trkpt lat="45.76599100796671" lon="8.486701303141214"><ele>412.40000000000003</ele><time>2026-04-01T10:27:44Z</time></trkpt><trkpt lat="45.765887691222304" lon="8.486599836876094"><ele>412.8</ele><time>2026-04-01T10:27:45Z</time></trkpt><trkpt lat="45.76578533353185" lon="8.486508666959896"><ele>413.2</ele><time>2026-04-01T10:27:46Z</time></trkpt><trkpt lat="45.765694471089795" lon="8.486425930487542"><ele>413.6</ele><time>2026-04-01T10:27:47Z</time></trkpt><trkpt lat="45.76563574037626" lon="8.48632616273643"><ele>414.0</ele><time>2026-04-01T10:27:48Z</time></trkpt><trkpt lat="45.7656015858455" lon="8.486231797910468"><ele>415.0</ele><time>2026-04-01T10:27:49Z</time></trkpt><trkpt lat="45.76551872763062" lon="8.48615512899844"><ele>416.0</ele><time>2026-04-01T10:27:51Z</time></trkpt><trkpt lat="45.765451405085855" lon="8.486178687196967"><ele>417.0</ele><time>2026-04-01T10:27:52Z</time></trkpt><trkpt lat="45.76537305401084" lon="8.486148117012377"><ele>418.0</ele><time>2026-04-01T10:27:53Z</time></trkpt><trkpt lat="45.765282878492116" lon="8.486093494686019"><ele>419.0</ele><time>2026-04-01T10:27:54Z</time></trkpt><trkpt lat="45.76518654727924" lon="8.486055932806241"><ele>420.0</ele><time>2026-04-01T10:27:55Z</time></trkpt><trkpt lat="45.765074090587994" lon="8.486047249725651"><ele>420.0</ele><time>2026-04-01T10:27:56Z</time></trkpt><trkpt lat="45.76496274806434" lon="8.486020682217037"><ele>420.0</ele><time>2026-04-01T10:27:57Z</time></trkpt><trkpt lat="45.76483905126106" lon="8.486013318076857"><ele>420.0</ele><time>2026-04-01T10:27:58Z</time></trkpt><trkpt lat="45.76470615554413" lon="8.486010784177743"><ele>420.0</ele><time>2026-04-01T10:27:59Z</time></trkpt><trkpt lat="45.7645745285035" lon="8.486014388660227"><ele>420.0</ele><time>2026-04-01T10:28:00Z</time></trkpt><trkpt lat="45.76443981278441" lon="8.486016529493313"><ele>420.0</ele><time>2026-04-01T10:28:01Z</time></trkpt><trkpt lat="45.764306249064305" lon="8.48601303430535"><ele>420.0</ele><time>2026-04-01T10:28:02Z</time></trkpt><trkpt lat="45.76417092292746" lon="8.486012587250828"><ele>420.0</ele><time>2026-04-01T10:28:03Z</time></trkpt><trkpt lat="45.764043063187984" lon="8.486006136191246"><ele>419.75</ele><time>2026-04-01T10:28:04Z</time></trkpt><trkpt lat="45.763923476389515" lon="8.485992919454944"><ele>419.5</ele><time>2026-04-01T10:28:05Z</time></trkpt><trkpt lat="45.76379883966884" lon="8.485980583723414"><ele>419.25</ele><time>2026-04-01T10:28:06Z</time></trkpt><trkpt lat="45.76368095872068" lon="8.485965433438746"><ele>419.0</ele><time>2026-04-01T10:28:07Z</time></trkpt><trkpt lat="45.763558395604825" lon="8.485952749518777"><ele>418.0</ele><time>2026-04-01T10:28:08Z</time></trkpt><trkpt lat="45.76343903644025" lon="8.485947550988685"><ele>417.0</ele><time>2026-04-01T10:28:09Z</time></trkpt><trkpt lat="45.763311921891344" lon="8.485928560308198"><ele>416.0</ele><time>2026-04-01T10:28:10Z</time></trkpt><trkpt lat="45.763187632825144" lon="8.485913970416183"><ele>415.0</ele><time>2026-04-01T10:28:11Z</time></trkpt><trkpt lat="45.763060927802194" lon="8.485903414860877"><ele>415.0</ele><time>2026-04-01T10:28:12Z</time></trkpt><trkpt lat="45.7629274202375" lon="8.485891412744445"><ele>415.0</ele><time>2026-04-01T10:28:13Z</time></trkpt><trkpt lat="45.76280596187011" lon="8.48587912341925"><ele>415.0</ele><time>2026-04-01T10:28:14Z</time></trkpt><trkpt lat="45.76269073989052" lon="8.485803108000134"><ele>415.0</ele><time>2026-04-01T10:28:15Z</time></trkpt><trkpt lat="45.76256287983577" lon="8.485766175439199"><ele>415.25</ele><time>2026-04-01T10:28:16Z</time></trkpt><trkpt lat="45.76243719435292" lon="8.485711907335446"><ele>415.5</ele><time>2026-04-01T10:28:17Z</time></trkpt><trkpt lat="45.76231291633118" lon="8.485649238693345"><ele>415.75</ele><time>2026-04-01T10:28:18Z</time></trkpt><trkpt lat="45.76219246153183" lon="8.48559088311913"><ele>416.0</ele><time>2026-04-01T10:28:19Z</time></trkpt><trkpt lat="45.762072413661826" lon="8.485543849500552"><ele>416.0</ele><time>2026-04-01T10:28:20Z</time></trkpt><trkpt lat="45.76195444959625" lon="8.485490666691883"><ele>416.0</ele><time>2026-04-01T10:28:21Z</time></trkpt><trkpt lat="45.76184988806276" lon="8.48544922137807"><ele>416.0</ele><time>2026-04-01T10:28:22Z</time></trkpt><trkpt lat="45.7617414113835" lon="8.485412367497672"><ele>416.0</ele><time>2026-04-01T10:28:23Z</time></trkpt><trkpt lat="45.761631733597135" lon="8.485380712004176"><ele>416.4</ele><time>2026-04-01T10:28:24Z</time></trkpt><trkpt lat="45.7615201033644" lon="8.4853608899655"><ele>416.8</ele><time>2026-04-01T10:28:25Z</time></trkpt><trkpt lat="45.761410088255325" lon="8.48536467777038"><ele>417.2</ele><time>2026-04-01T10:28:26Z</time></trkpt><trkpt lat="45.76130067185916" lon="8.485372426960899"><ele>417.59999999999997</ele><time>2026-04-01T10:28:27Z</time></trkpt><trkpt lat="45.761198062052955" lon="8.485395967180132"><ele>418.0</ele><time>2026-04-01T10:28:28Z</time></trkpt><trkpt lat="45.76109280828791" lon="8.485417771710047"><ele>417.00000000000006</ele><time>2026-04-01T10:28:29Z</time></trkpt><trkpt lat="45.76099002412796" lon="8.485437542690873"><ele>416.0</ele><time>2026-04-01T10:28:29.999Z</time></trkpt><trkpt lat="45.760899568639886" lon="8.485457363855447"><ele>415.0</ele><time>2026-04-01T10:28:30.999Z</time></trkpt><trkpt lat="45.760814972878904" lon="8.485478233769488"><ele>414.0</ele><time>2026-04-01T10:28:31.999Z</time></trkpt><trkpt lat="45.76073344334552" lon="8.48550631746469"><ele>413.00000000000006</ele><time>2026-04-01T10:28:32.999Z</time></trkpt><trkpt lat="45.76066321134694" lon="8.48552919664437"><ele>412.0</ele><time>2026-04-01T10:28:33.999Z</time></trkpt><trkpt lat="45.760583221285806" lon="8.485552421432747"><ele>412.0</ele><time>2026-04-01T10:28:34.999Z</time></trkpt><trkpt lat="45.76048578780061" lon="8.485521808146862"><ele>412.0</ele><time>2026-04-01T10:28:35.999Z</time></trkpt><trkpt lat="45.760422573445155" lon="8.48553800937629"><ele>412.0</ele><time>2026-04-01T10:28:36.999Z</time></trkpt><trkpt lat="45.760312674551834" lon="8.485554767473793"><ele>412.0</ele><time>2026-04-01T10:28:38.999Z</time></trkpt><trkpt lat="45.76020557581691" lon="8.485560668641329"><ele>412.0</ele><time>2026-04-01T10:28:40.999Z</time></trkpt><trkpt lat="45.7601048785101" lon="8.485560129493544"><ele>411.83333333333337</ele><time>2026-04-01T10:28:42.999Z</time></trkpt><trkpt lat="45.76003734038182" lon="8.485599376342998"><ele>411.6666666666667</ele><time>2026-04-01T10:28:43.999Z</time></trkpt><trkpt lat="45.75998641609797" lon="8.485752671623272"><ele>411.5</ele><time>2026-04-01T10:28:46.001Z</time></trkpt><trkpt lat="45.76000331740909" lon="8.485844616791889"><ele>411.33333333333337</ele><time>2026-04-01T10:28:47Z</time></trkpt><trkpt lat="45.76004823717139" lon="8.485938627959435"><ele>411.1666666666667</ele><time>2026-04-01T10:28:48Z</time></trkpt><trkpt lat="45.76009190402401" lon="8.486044502698169"><ele>411.0</ele><time>2026-04-01T10:28:49.001Z</time></trkpt><trkpt lat="45.76015460007899" lon="8.486161460574223"><ele>411.20000000000005</ele><time>2026-04-01T10:28:50Z</time></trkpt><trkpt lat="45.760205415744004" lon="8.486272270351199"><ele>411.40000000000003</ele><time>2026-04-01T10:28:51Z</time></trkpt><trkpt lat="45.76020630670275" lon="8.486429228099542"><ele>411.6</ele><time>2026-04-01T10:28:52.001Z</time></trkpt><trkpt lat="45.760248275830754" lon="8.486564945957339"><ele>411.8</ele><time>2026-04-01T10:28:53Z</time></trkpt><trkpt lat="45.7603061679778" lon="8.486688297819732"><ele>412.0</ele><time>2026-04-01T10:28:54Z</time></trkpt><trkpt lat="45.76037878829692" lon="8.486822020754481"><ele>412.0</ele><time>2026-04-01T10:28:55.001Z</time></trkpt><trkpt lat="45.76046518860117" lon="8.486923578409025"><ele>412.0</ele><time>2026-04-01T10:28:56.001Z</time></trkpt><trkpt lat="45.76055684184812" lon="8.487048705335805"><ele>412.0</ele><time>2026-04-01T10:28:57.001Z</time></trkpt><trkpt lat="45.76064278107671" lon="8.487203102053352"><ele>412.0</ele><time>2026-04-01T10:28:58Z</time></trkpt><trkpt lat="45.76070751630674" lon="8.487348315808282"><ele>411.5</ele><time>2026-04-01T10:28:59Z</time></trkpt><trkpt lat="45.76076347082557" lon="8.48751472552393"><ele>411.0</ele><time>2026-04-01T10:29:00Z</time></trkpt><trkpt lat="45.76079595728256" lon="8.487700640390962"><ele>410.5</ele><time>2026-04-01T10:29:01Z</time></trkpt><trkpt lat="45.7607965456797" lon="8.487882424183441"><ele>410.0</ele><time>2026-04-01T10:29:02Z</time></trkpt><trkpt lat="45.76077887648743" lon="8.48806715541337"><ele>409.25</ele><time>2026-04-01T10:29:03Z</time></trkpt><trkpt lat="45.760741453304796" lon="8.488255599003876"><ele>408.5</ele><time>2026-04-01T10:29:04Z</time></trkpt><trkpt lat="45.760710804291385" lon="8.4884626614228"><ele>407.75</ele><time>2026-04-01T10:29:05Z</time></trkpt><trkpt lat="45.76068966625294" lon="8.488675708485598"><ele>407.0</ele><time>2026-04-01T10:29:06Z</time></trkpt><trkpt lat="45.76067648725797" lon="8.48888671402932"><ele>406.3333333333333</ele><time>2026-04-01T10:29:07Z</time></trkpt><trkpt lat="45.76066656162092" lon="8.489113781174277"><ele>405.66666666666663</ele><time>2026-04-01T10:29:08Z</time></trkpt><trkpt lat="45.76065454318154" lon="8.489336623631267"><ele>405.0</ele><time>2026-04-01T10:29:09Z</time></trkpt><trkpt lat="45.76064624635289" lon="8.489557321632043"><ele>404.33333333333337</ele><time>2026-04-01T10:29:10Z</time></trkpt><trkpt lat="45.76063311680887" lon="8.48977750436996"><ele>403.6666666666667</ele><time>2026-04-01T10:29:11Z</time></trkpt><trkpt lat="45.76062550127224" lon="8.489994234921909"><ele>403.0</ele><time>2026-04-01T10:29:12Z</time></trkpt><trkpt lat="45.76061707005087" lon="8.490201214822703"><ele>403.0</ele><time>2026-04-01T10:29:13Z</time></trkpt><trkpt lat="45.76060455588333" lon="8.490416955449254"><ele>403.0</ele><time>2026-04-01T10:29:14Z</time></trkpt><trkpt lat="45.760590772984884" lon="8.490634532213365"><ele>403.0</ele><time>2026-04-01T10:29:15Z</time></trkpt><trkpt lat="45.760569526343886" lon="8.490857788246"><ele>404.33333333333337</ele><time>2026-04-01T10:29:16Z</time></trkpt><trkpt lat="45.76054355493815" lon="8.491090104990178"><ele>405.66666666666663</ele><time>2026-04-01T10:29:17Z</time></trkpt><trkpt lat="45.76051094126175" lon="8.49130415542761"><ele>407.0</ele><time>2026-04-01T10:29:18Z</time></trkpt><trkpt lat="45.76046577084267" lon="8.49149425880346"><ele>408.3333333333333</ele><time>2026-04-01T10:29:19Z</time></trkpt><trkpt lat="45.760378767705" lon="8.491670480449791"><ele>409.66666666666663</ele><time>2026-04-01T10:29:20Z</time></trkpt><trkpt lat="45.76025646360377" lon="8.491820588220211"><ele>411.0</ele><time>2026-04-01T10:29:21Z</time></trkpt><trkpt lat="45.760119580438484" lon="8.49194518040768"><ele>412.0</ele><time>2026-04-01T10:29:22Z</time></trkpt><trkpt lat="45.759967157985166" lon="8.491999080936898"><ele>413.0</ele><time>2026-04-01T10:29:23Z</time></trkpt><trkpt lat="45.75981154506905" lon="8.491997780701224"><ele>414.0</ele><time>2026-04-01T10:29:24Z</time></trkpt><trkpt lat="45.759652969716555" lon="8.491985872217025"><ele>414.0</ele><time>2026-04-01T10:29:25Z</time></trkpt><trkpt lat="45.75950110517894" lon="8.491959431552454"><ele>414.0</ele><time>2026-04-01T10:29:26Z</time></trkpt><trkpt lat="45.75933294770607" lon="8.491928950002302"><ele>414.0</ele><time>2026-04-01T10:29:27Z</time></trkpt><trkpt lat="45.759175358364544" lon="8.491901108895192"><ele>413.0</ele><time>2026-04-01T10:29:28Z</time></trkpt><trkpt lat="45.759011823412166" lon="8.491871369756113"><ele>412.0</ele><time>2026-04-01T10:29:29Z</time></trkpt><trkpt lat="45.758857875802825" lon="8.491842536382347"><ele>411.0</ele><time>2026-04-01T10:29:30Z</time></trkpt><trkpt lat="45.758719355009454" lon="8.491817634087887"><ele>411.0</ele><time>2026-04-01T10:29:31Z</time></trkpt><trkpt lat="45.758595249484195" lon="8.491795683449842"><ele>411.0</ele><time>2026-04-01T10:29:32Z</time></trkpt><trkpt lat="45.75847720946735" lon="8.491777061133366"><ele>411.0</ele><time>2026-04-01T10:29:33Z</time></trkpt><trkpt lat="45.75837452406997" lon="8.491754431649337"><ele>411.0</ele><time>2026-04-01T10:29:34Z</time></trkpt><trkpt lat="45.75831147707106" lon="8.49170978274329"><ele>411.0</ele><time>2026-04-01T10:29:35Z</time></trkpt><trkpt lat="45.75823374235698" lon="8.491689671244835"><ele>410.6666666666667</ele><time>2026-04-01T10:29:36Z</time></trkpt><trkpt lat="45.75816494497697" lon="8.491708805826175"><ele>410.33333333333337</ele><time>2026-04-01T10:29:37Z</time></trkpt><trkpt lat="45.75809808271272" lon="8.49176383209959"><ele>410.0</ele><time>2026-04-01T10:29:38Z</time></trkpt><trkpt lat="45.75803648330423" lon="8.491823770522428"><ele>409.6666666666667</ele><time>2026-04-01T10:29:39Z</time></trkpt><trkpt lat="45.75796231600246" lon="8.491892137402543"><ele>409.33333333333337</ele><time>2026-04-01T10:29:40Z</time></trkpt><trkpt lat="45.75787639479104" lon="8.49196750015115"><ele>409.0</ele><time>2026-04-01T10:29:41Z</time></trkpt><trkpt lat="45.757806912156205" lon="8.492060993739653"><ele>408.4</ele><time>2026-04-01T10:29:42Z</time></trkpt><trkpt lat="45.7577069085275" lon="8.49211175538619"><ele>407.79999999999995</ele><time>2026-04-01T10:29:43Z</time></trkpt><trkpt lat="45.7576319333048" lon="8.492199932184048"><ele>407.20000000000005</ele><time>2026-04-01T10:29:44Z</time></trkpt><trkpt lat="45.75753248699961" lon="8.492275027639495"><ele>406.6</ele><time>2026-04-01T10:29:45Z</time></trkpt><trkpt lat="45.75746280339819" lon="8.49242961078844"><ele>406.0</ele><time>2026-04-01T10:29:46Z</time></trkpt><trkpt lat="45.757402156735246" lon="8.492615569608343"><ele>406.0</ele><time>2026-04-01T10:29:47Z</time></trkpt><trkpt lat="45.75734404758332" lon="8.49280098662052"><ele>406.0</ele><time>2026-04-01T10:29:48Z</time></trkpt><trkpt lat="45.757288980065724" lon="8.492992942083218"><ele>406.0</ele><time>2026-04-01T10:29:49Z</time></trkpt><trkpt lat="45.75726688260416" lon="8.493187133122428"><ele>406.0</ele><time>2026-04-01T10:29:50Z</time></trkpt><trkpt lat="45.757223799788356" lon="8.493361142286462"><ele>406.0</ele><time>2026-04-01T10:29:51Z</time></trkpt><trkpt lat="45.75720242631566" lon="8.493571190415306"><ele>406.0</ele><time>2026-04-01T10:29:52Z</time></trkpt><trkpt lat="45.75718272889299" lon="8.49375375757865"><ele>406.0</ele><time>2026-04-01T10:29:53Z</time></trkpt><trkpt lat="45.75716108473171" lon="8.493954368130876"><ele>406.0</ele><time>2026-04-01T10:29:54Z</time></trkpt><trkpt lat="45.75713842572307" lon="8.49416438495944"><ele>404.75</ele><time>2026-04-01T10:29:55Z</time></trkpt><trkpt lat="45.757116851097024" lon="8.494361905606816"><ele>403.5</ele><time>2026-04-01T10:29:56Z</time></trkpt><trkpt lat="45.7570920333001" lon="8.494563238864975"><ele>402.25</ele><time>2026-04-01T10:29:57Z</time></trkpt><trkpt lat="45.75705981341544" lon="8.49475926520953"><ele>401.0</ele><time>2026-04-01T10:29:58Z</time></trkpt><trkpt lat="45.75701092366806" lon="8.494932714743916"><ele>400.75</ele><time>2026-04-01T10:29:59Z</time></trkpt><trkpt lat="45.75694792956074" lon="8.495089107123643"><ele>400.5</ele><time>2026-04-01T10:30:00Z</time></trkpt><trkpt lat="45.75686297965085" lon="8.495232122044506"><ele>400.25</ele><time>2026-04-01T10:30:01Z</time></trkpt><trkpt lat="45.756766329965934" lon="8.495344554320587"><ele>400.0</ele><time>2026-04-01T10:30:02Z</time></trkpt><trkpt lat="45.756658668745665" lon="8.495437070560504"><ele>400.0</ele><time>2026-04-01T10:30:03Z</time></trkpt><trkpt lat="45.75653700613916" lon="8.495532774313281"><ele>400.0</ele><time>2026-04-01T10:30:04Z</time></trkpt><trkpt lat="45.75642799908041" lon="8.495640883578861"><ele>400.0</ele><time>2026-04-01T10:30:04.999Z</time></trkpt><trkpt lat="45.75628447353931" lon="8.49571465188418"><ele>400.0</ele><time>2026-04-01T10:30:05.999Z</time></trkpt><trkpt lat="45.75615808831141" lon="8.495815469653484"><ele>400.0</ele><time>2026-04-01T10:30:06.999Z</time></trkpt><trkpt lat="45.75604512155752" lon="8.495932473760568"><ele>400.0</ele><time>2026-04-01T10:30:07.999Z</time></trkpt><trkpt lat="45.75594656970893" lon="8.496071798902138"><ele>400.0</ele><time>2026-04-01T10:30:08.999Z</time></trkpt><trkpt lat="45.755854333720784" lon="8.496213639789662"><ele>400.0</ele><time>2026-04-01T10:30:09.999Z</time></trkpt><trkpt lat="45.75577402096462" lon="8.496350405394788"><ele>399.0</ele><time>2026-04-01T10:30:10.999Z</time></trkpt><trkpt lat="45.75568511530783" lon="8.49649236813692"><ele>398.0</ele><time>2026-04-01T10:30:11.999Z</time></trkpt><trkpt lat="45.755608063395115" lon="8.496636092386675"><ele>397.0</ele><time>2026-04-01T10:30:12.999Z</time></trkpt><trkpt lat="45.75553011671105" lon="8.496790989024655"><ele>396.0</ele><time>2026-04-01T10:30:13.999Z</time></trkpt><trkpt lat="45.75545636734919" lon="8.496938643073394"><ele>395.5</ele><time>2026-04-01T10:30:14.999Z</time></trkpt><trkpt lat="45.755395774452595" lon="8.497105085564433"><ele>395.0</ele><time>2026-04-01T10:30:15.999Z</time></trkpt><trkpt lat="45.755350844869376" lon="8.497275899812076"><ele>394.5</ele><time>2026-04-01T10:30:16.999Z</time></trkpt><trkpt lat="45.75531584865743" lon="8.497463201608392"><ele>394.0</ele><time>2026-04-01T10:30:17.999Z</time></trkpt><trkpt lat="45.75529032345077" lon="8.497648972945257"><ele>394.0</ele><time>2026-04-01T10:30:18.999Z</time></trkpt><trkpt lat="45.755260371392446" lon="8.49782958275343"><ele>394.0</ele><time>2026-04-01T10:30:19.999Z</time></trkpt><trkpt lat="45.75522537167553" lon="8.497997411118487"><ele>394.0</ele><time>2026-04-01T10:30:20.999Z</time></trkpt><trkpt lat="45.75517316796326" lon="8.498163472300183"><ele>394.0</ele><time>2026-04-01T10:30:21.999Z</time></trkpt><trkpt lat="45.755106389253704" lon="8.49831106553945"><ele>393.0</ele><time>2026-04-01T10:30:22.999Z</time></trkpt><trkpt lat="45.7550203150947" lon="8.49843752139608"><ele>392.0</ele><time>2026-04-01T10:30:23.999Z</time></trkpt><trkpt lat="45.75492267604001" lon="8.498555340956273"><ele>391.0</ele><time>2026-04-01T10:30:24.999Z</time></trkpt><trkpt lat="45.75483482089694" lon="8.498664283710381"><ele>390.0</ele><time>2026-04-01T10:30:25.999Z</time></trkpt><trkpt lat="45.754751788532936" lon="8.498760025133501"><ele>389.5</ele><time>2026-04-01T10:30:26.999Z</time></trkpt><trkpt lat="45.754677432673915" lon="8.498845491361509"><ele>389.0</ele><time>2026-04-01T10:30:27.999Z</time></trkpt><trkpt lat="45.75461347710775" lon="8.498918347105503"><ele>388.5</ele><time>2026-04-01T10:30:28.999Z</time></trkpt><trkpt lat="45.754543475280194" lon="8.49898209644568"><ele>388.0</ele><time>2026-04-01T10:30:29.999Z</time></trkpt><trkpt lat="45.75448034419015" lon="8.499038561642948"><ele>387.5</ele><time>2026-04-01T10:30:30.999Z</time></trkpt><trkpt lat="45.75441842130595" lon="8.4990857943998"><ele>387.0</ele><time>2026-04-01T10:30:31.999Z</time></trkpt><trkpt lat="45.75436126673869" lon="8.499143366971406"><ele>387.0</ele><time>2026-04-01T10:30:32.999Z</time></trkpt><trkpt lat="45.754260849523405" lon="8.499222239550505"><ele>387.0</ele><time>2026-04-01T10:30:34.999Z</time></trkpt><trkpt lat="45.75419796186904" lon="8.499246699254792"><ele>387.0</ele><time>2026-04-01T10:30:35.999Z</time></trkpt><trkpt lat="45.75411880705225" lon="8.499269680839365"><ele>387.0</ele><time>2026-04-01T10:30:36.999Z</time></trkpt><trkpt lat="45.75402161594055" lon="8.499230912925794"><ele>387.0</ele><time>2026-04-01T10:30:37.999Z</time></trkpt><trkpt lat="45.7539279578662" lon="8.499254025608584"><ele>387.0</ele><time>2026-04-01T10:30:38.999Z</time></trkpt><trkpt lat="45.753836787445266" lon="8.49927865596275"><ele>387.0</ele><time>2026-04-01T10:30:39.999Z</time></trkpt><trkpt lat="45.75374828063696" lon="8.499314639515273"><ele>387.0</ele><time>2026-04-01T10:30:40.999Z</time></trkpt><trkpt lat="45.75365912015884" lon="8.499359190275113"><ele>387.0</ele><time>2026-04-01T10:30:41.999Z</time></trkpt><trkpt lat="45.753560899116295" lon="8.499442337050285"><ele>387.0</ele><time>2026-04-01T10:30:42.999Z</time></trkpt><trkpt lat="45.753445670881355" lon="8.499493390124938"><ele>387.0</ele><time>2026-04-01T10:30:43.999Z</time></trkpt><trkpt lat="45.75334114545831" lon="8.499542901664677"><ele>387.0</ele><time>2026-04-01T10:30:44.999Z</time></trkpt><trkpt lat="45.75323820713204" lon="8.499574095255007"><ele>387.0</ele><time>2026-04-01T10:30:45.999Z</time></trkpt><trkpt lat="45.75312999634684" lon="8.499585929689482"><ele>387.0</ele><time>2026-04-01T10:30:46.999Z</time></trkpt><trkpt lat="45.75301847036514" lon="8.499582314701618"><ele>387.0</ele><time>2026-04-01T10:30:47.999Z</time></trkpt><trkpt lat="45.75291018009213" lon="8.499572639737115"><ele>387.0</ele><time>2026-04-01T10:30:48.999Z</time></trkpt><trkpt lat="45.75279676319399" lon="8.499572112524254"><ele>387.0</ele><time>2026-04-01T10:30:49.999Z</time></trkpt><trkpt lat="45.75267926770672" lon="8.499580145137973"><ele>387.0</ele><time>2026-04-01T10:30:50.999Z</time></trkpt><trkpt lat="45.75256867276651" lon="8.499591599810186"><ele>387.0</ele><time>2026-04-01T10:30:52.001Z</time></trkpt><trkpt lat="45.75245843466144" lon="8.49961211083019"><ele>387.5</ele><time>2026-04-01T10:30:53Z</time></trkpt><trkpt lat="45.752350325556016" lon="8.499634999414212"><ele>388.0</ele><time>2026-04-01T10:30:54Z</time></trkpt><trkpt lat="45.75223983580043" lon="8.499661394543992"><ele>388.5</ele><time>2026-04-01T10:30:55.001Z</time></trkpt><trkpt lat="45.75211535025212" lon="8.499683844740906"><ele>389.0</ele><time>2026-04-01T10:30:56.001Z</time></trkpt><trkpt lat="45.75199404243518" lon="8.49971348092832"><ele>389.0</ele><time>2026-04-01T10:30:57.001Z</time></trkpt><trkpt lat="45.75187283283441" lon="8.499737556980035"><ele>389.0</ele><time>2026-04-01T10:30:58.001Z</time></trkpt><trkpt lat="45.751746193061976" lon="8.499751317714036"><ele>389.0</ele><time>2026-04-01T10:30:59Z</time></trkpt><trkpt lat="45.75161422071957" lon="8.499765360337078"><ele>389.0</ele><time>2026-04-01T10:31:00Z</time></trkpt><trkpt lat="45.75149150653502" lon="8.49978333649625"><ele>389.0</ele><time>2026-04-01T10:31:01.001Z</time></trkpt><trkpt lat="45.75136430693918" lon="8.49976117688136"><ele>389.0</ele><time>2026-04-01T10:31:02Z</time></trkpt><trkpt lat="45.75124073708097" lon="8.499773565310552"><ele>389.0</ele><time>2026-04-01T10:31:03Z</time></trkpt><trkpt lat="45.75112221244029" lon="8.49978936400698"><ele>389.0</ele><time>2026-04-01T10:31:04Z</time></trkpt><trkpt lat="45.75101936092314" lon="8.49980337428146"><ele>388.0</ele><time>2026-04-01T10:31:05Z</time></trkpt><trkpt lat="45.750916618461225" lon="8.49982102563079"><ele>387.0</ele><time>2026-04-01T10:31:06Z</time></trkpt><trkpt lat="45.75082618699387" lon="8.499851971746162"><ele>386.0</ele><time>2026-04-01T10:31:07Z</time></trkpt><trkpt lat="45.75073545057825" lon="8.499878102566765"><ele>385.0</ele><time>2026-04-01T10:31:08Z</time></trkpt><trkpt lat="45.750659157522" lon="8.499906208738434"><ele>384.0</ele><time>2026-04-01T10:31:09Z</time></trkpt><trkpt lat="45.75054399002063" lon="8.49992096230846"><ele>384.0</ele><time>2026-04-01T10:31:11Z</time></trkpt><trkpt lat="45.75047010360833" lon="8.499909687815034"><ele>384.0</ele><time>2026-04-01T10:31:12Z</time></trkpt><trkpt lat="45.750379348180125" lon="8.499919084956085"><ele>384.0</ele><time>2026-04-01T10:31:13Z</time></trkpt><trkpt lat="45.750294591814566" lon="8.499945414742678"><ele>384.0</ele><time>2026-04-01T10:31:14Z</time></trkpt><trkpt lat="45.7502141959515" lon="8.499984037000207"><ele>384.0</ele><time>2026-04-01T10:31:15Z</time></trkpt><trkpt lat="45.750135451602056" lon="8.50002902514669"><ele>384.0</ele><time>2026-04-01T10:31:16Z</time></trkpt><trkpt lat="45.75007839930431" lon="8.500096912094687"><ele>383.6666666666667</ele><time>2026-04-01T10:31:17Z</time></trkpt><trkpt lat="45.75000612312164" lon="8.500145941211628"><ele>383.3333333333333</ele><time>2026-04-01T10:31:18Z</time></trkpt><trkpt lat="45.74994280982881" lon="8.500190775699728"><ele>383.0</ele><time>2026-04-01T10:31:19Z</time></trkpt><trkpt lat="45.74987987068382" lon="8.500247074276697"><ele>382.66666666666663</ele><time>2026-04-01T10:31:20Z</time></trkpt><trkpt lat="45.749808028962555" lon="8.500304062801302"><ele>382.3333333333333</ele><time>2026-04-01T10:31:21Z</time></trkpt><trkpt lat="45.749734717312386" lon="8.50035400404771"><ele>382.0</ele><time>2026-04-01T10:31:22Z</time></trkpt><trkpt lat="45.7496766338948" lon="8.500399474919226"><ele>382.66666666666663</ele><time>2026-04-01T10:31:23Z</time></trkpt><trkpt lat="45.74960755670059" lon="8.500458476823509"><ele>383.3333333333333</ele><time>2026-04-01T10:31:24Z</time></trkpt><trkpt lat="45.749532459909226" lon="8.500515338975616"><ele>384.0</ele><time>2026-04-01T10:31:25Z</time></trkpt><trkpt lat="45.74946215015153" lon="8.500573863850079"><ele>384.66666666666663</ele><time>2026-04-01T10:31:26Z</time></trkpt><trkpt lat="45.749381921874466" lon="8.500609808172785"><ele>385.3333333333333</ele><time>2026-04-01T10:31:27Z</time></trkpt><trkpt lat="45.74930947765211" lon="8.500688831126741"><ele>386.0</ele><time>2026-04-01T10:31:28Z</time></trkpt><trkpt lat="45.749228121132525" lon="8.500712362540584"><ele>386.00000000000006</ele><time>2026-04-01T10:31:29Z</time></trkpt><trkpt lat="45.74916497614102" lon="8.50074037014341"><ele>386.0</ele><time>2026-04-01T10:31:30Z</time></trkpt><trkpt lat="45.74910107476093" lon="8.500766337149653"><ele>386.0</ele><time>2026-04-01T10:31:31Z</time></trkpt><trkpt lat="45.74903464695237" lon="8.500818220304517"><ele>386.0</ele><time>2026-04-01T10:31:32Z</time></trkpt><trkpt lat="45.748966128241335" lon="8.500842757910586"><ele>386.0</ele><time>2026-04-01T10:31:33Z</time></trkpt><trkpt lat="45.7488895234985" lon="8.500859267185485"><ele>386.00000000000006</ele><time>2026-04-01T10:31:34Z</time></trkpt><trkpt lat="45.74883431796717" lon="8.500912525134982"><ele>386.0</ele><time>2026-04-01T10:31:35Z</time></trkpt><trkpt lat="45.74877522110758" lon="8.500952206542806"><ele>386.0</ele><time>2026-04-01T10:31:36Z</time></trkpt><trkpt lat="45.74870659687765" lon="8.500998285080835"><ele>386.0</ele><time>2026-04-01T10:31:37Z</time></trkpt><trkpt lat="45.74871593525557" lon="8.501103000062798"><ele>386.0</ele><time>2026-04-01T10:31:38Z</time></trkpt><trkpt lat="45.74855933569767" lon="8.50100040416862"><ele>386.0</ele><time>2026-04-01T10:31:39Z</time></trkpt><trkpt lat="45.74848662464293" lon="8.5010470850883"><ele>386.0</ele><time>2026-04-01T10:31:40Z</time></trkpt><trkpt lat="45.748412682456404" lon="8.501102070028606"><ele>385.20000000000005</ele><time>2026-04-01T10:31:41Z</time></trkpt><trkpt lat="45.74831568293683" lon="8.501152037441825"><ele>384.40000000000003</ele><time>2026-04-01T10:31:42Z</time></trkpt><trkpt lat="45.748226390427924" lon="8.501205732502203"><ele>383.6</ele><time>2026-04-01T10:31:43Z</time></trkpt><trkpt lat="45.748121924642845" lon="8.501233288378833"><ele>382.8</ele><time>2026-04-01T10:31:44Z</time></trkpt><trkpt lat="45.74802253416844" lon="8.501270098914977"><ele>382.0</ele><time>2026-04-01T10:31:45Z</time></trkpt><trkpt lat="45.74792418628589" lon="8.50130372220744"><ele>381.40000000000003</ele><time>2026-04-01T10:31:46Z</time></trkpt><trkpt lat="45.747829317230405" lon="8.501338120324906"><ele>380.8</ele><time>2026-04-01T10:31:47Z</time></trkpt><trkpt lat="45.74772802113541" lon="8.501375452540481"><ele>380.2</ele><time>2026-04-01T10:31:48Z</time></trkpt><trkpt lat="45.74762978183501" lon="8.50140988011059"><ele>379.6</ele><time>2026-04-01T10:31:49Z</time></trkpt><trkpt lat="45.74752923698068" lon="8.501442762470813"><ele>379.0</ele><time>2026-04-01T10:31:50Z</time></trkpt><trkpt lat="45.747437058457606" lon="8.501475331509658"><ele>379.0</ele><time>2026-04-01T10:31:51Z</time></trkpt><trkpt lat="45.74734570602721" lon="8.501520211148874"><ele>379.0</ele><time>2026-04-01T10:31:52Z</time></trkpt><trkpt lat="45.74724144682661" lon="8.501562961944803"><ele>379.0</ele><time>2026-04-01T10:31:53Z</time></trkpt><trkpt lat="45.74714896467052" lon="8.501597374245682"><ele>379.0</ele><time>2026-04-01T10:31:54Z</time></trkpt><trkpt lat="45.74706185076088" lon="8.501629053288491"><ele>379.0</ele><time>2026-04-01T10:31:55Z</time></trkpt><trkpt lat="45.746971106395634" lon="8.501668084806418"><ele>379.0</ele><time>2026-04-01T10:31:56Z</time></trkpt><trkpt lat="45.7468808414562" lon="8.50171480462042"><ele>379.0</ele><time>2026-04-01T10:31:57Z</time></trkpt><trkpt lat="45.74678594805129" lon="8.50175987494582"><ele>379.0</ele><time>2026-04-01T10:31:58Z</time></trkpt><trkpt lat="45.74669584423873" lon="8.501814669035257"><ele>379.0</ele><time>2026-04-01T10:31:59Z</time></trkpt><trkpt lat="45.74662259642109" lon="8.50187155352394"><ele>379.0</ele><time>2026-04-01T10:32:00Z</time></trkpt><trkpt lat="45.74654974339593" lon="8.50193066090432"><ele>379.0</ele><time>2026-04-01T10:32:01Z</time></trkpt><trkpt lat="45.74645049831727" lon="8.502000298219352"><ele>379.0</ele><time>2026-04-01T10:32:02Z</time></trkpt><trkpt lat="45.74634632188911" lon="8.502057769411175"><ele>379.0</ele><time>2026-04-01T10:32:03Z</time></trkpt><trkpt lat="45.74624180399573" lon="8.502092629807551"><ele>379.0</ele><time>2026-04-01T10:32:04Z</time></trkpt><trkpt lat="45.74613922376183" lon="8.50211205257233"><ele>379.0</ele><time>2026-04-01T10:32:05Z</time></trkpt><trkpt lat="45.7460339008366" lon="8.502139672090882"><ele>379.2</ele><time>2026-04-01T10:32:06Z</time></trkpt><trkpt lat="45.74592425835464" lon="8.502163234426375"><ele>379.4</ele><time>2026-04-01T10:32:07Z</time></trkpt><trkpt lat="45.74582145506195" lon="8.50218541879641"><ele>379.6</ele><time>2026-04-01T10:32:08Z</time></trkpt><trkpt lat="45.74572705188218" lon="8.502207622054918"><ele>379.8</ele><time>2026-04-01T10:32:09Z</time></trkpt><trkpt lat="45.74563463250598" lon="8.502231924588127"><ele>380.0</ele><time>2026-04-01T10:32:10Z</time></trkpt><trkpt lat="45.74554302762886" lon="8.502227685994587"><ele>380.0</ele><time>2026-04-01T10:32:11Z</time></trkpt><trkpt lat="45.74546319204664" lon="8.502214119042453"><ele>380.0</ele><time>2026-04-01T10:32:11.999Z</time></trkpt><trkpt lat="45.74539166586978" lon="8.502192116783904"><ele>380.0</ele><time>2026-04-01T10:32:12.999Z</time></trkpt><trkpt lat="45.74533690361974" lon="8.502142457867118"><ele>380.0</ele><time>2026-04-01T10:32:13.999Z</time></trkpt><trkpt lat="45.745279285224804" lon="8.50201795942897"><ele>380.0</ele><time>2026-04-01T10:32:15.999Z</time></trkpt><trkpt lat="45.745205015594514" lon="8.501931932375618"><ele>380.0</ele><time>2026-04-01T10:32:17.999Z</time></trkpt><trkpt lat="45.74511211101341" lon="8.502016365993036"><ele>379.5</ele><time>2026-04-01T10:32:19.999Z</time></trkpt><trkpt lat="45.74503911418103" lon="8.502107576599562"><ele>379.0</ele><time>2026-04-01T10:32:20.999Z</time></trkpt><trkpt lat="45.74497558080456" lon="8.502172279826027"><ele>378.5</ele><time>2026-04-01T10:32:21.999Z</time></trkpt><trkpt lat="45.7449141170392" lon="8.502249955066892"><ele>378.0</ele><time>2026-04-01T10:32:22.999Z</time></trkpt><trkpt lat="45.744845419646914" lon="8.50229569143969"><ele>377.5</ele><time>2026-04-01T10:32:23.999Z</time></trkpt><trkpt lat="45.74475747400743" lon="8.502342399312193"><ele>377.0</ele><time>2026-04-01T10:32:24.999Z</time></trkpt><trkpt lat="45.74465237590039" lon="8.502403286797879"><ele>377.0</ele><time>2026-04-01T10:32:25.999Z</time></trkpt><trkpt lat="45.74457867981822" lon="8.502409072132417"><ele>377.0</ele><time>2026-04-01T10:32:26.999Z</time></trkpt><trkpt lat="45.744492245106095" lon="8.502391306348342"><ele>377.0</ele><time>2026-04-01T10:32:27.999Z</time></trkpt><trkpt lat="45.744396241280924" lon="8.502388961027705"><ele>377.0</ele><time>2026-04-01T10:32:28.999Z</time></trkpt><trkpt lat="45.74430445978357" lon="8.502399962891008"><ele>377.0</ele><time>2026-04-01T10:32:29.999Z</time></trkpt><trkpt lat="45.744234514043065" lon="8.502420197780099"><ele>377.0</ele><time>2026-04-01T10:32:30.999Z</time></trkpt><trkpt lat="45.744146461183675" lon="8.502443990649695"><ele>377.1666666666667</ele><time>2026-04-01T10:32:31.999Z</time></trkpt><trkpt lat="45.744073383912195" lon="8.502463124521816"><ele>377.33333333333337</ele><time>2026-04-01T10:32:32.999Z</time></trkpt><trkpt lat="45.74398019325981" lon="8.502510984256658"><ele>377.5</ele><time>2026-04-01T10:32:34.999Z</time></trkpt><trkpt lat="45.74389874435006" lon="8.502511062325773"><ele>377.6666666666667</ele><time>2026-04-01T10:32:36.999Z</time></trkpt><trkpt lat="45.74383260968194" lon="8.502475592195754"><ele>377.8333333333333</ele><time>2026-04-01T10:32:39.999Z</time></trkpt><trkpt lat="45.74381360137164" lon="8.502383187029793"><ele>378.0</ele><time>2026-04-01T10:33:24Z</time></trkpt><trkpt lat="45.743786464545" lon="8.502246905842643"><ele>378.0</ele><time>2026-04-01T10:33:31Z</time></trkpt><trkpt lat="45.743740553112815" lon="8.50210028539375"><ele>378.0</ele><time>2026-04-01T10:33:33Z</time></trkpt><trkpt lat="45.74370943535541" lon="8.501979424004583"><ele>378.0</ele><time>2026-04-01T10:33:35Z</time></trkpt><trkpt lat="45.74363483574966" lon="8.5018491860989"><ele>378.0</ele><time>2026-04-01T10:33:37Z</time></trkpt><trkpt lat="45.7436125174066" lon="8.501717802843123"><ele>378.0</ele><time>2026-04-01T10:33:39Z</time></trkpt><trkpt lat="45.74355345589735" lon="8.501643758028909"><ele>378.6666666666667</ele><time>2026-04-01T10:33:41Z</time></trkpt><trkpt lat="45.74345813800038" lon="8.501532027251304"><ele>379.3333333333333</ele><time>2026-04-01T10:33:43Z</time></trkpt><trkpt lat="45.74339246340853" lon="8.501490714266446"><ele>380.0</ele><time>2026-04-01T10:33:44Z</time></trkpt><trkpt lat="45.74330873433728" lon="8.5014474204563"><ele>380.66666666666663</ele><time>2026-04-01T10:33:46Z</time></trkpt><trkpt lat="45.74323820679438" lon="8.501394602403925"><ele>381.3333333333333</ele><time>2026-04-01T10:33:48Z</time></trkpt><trkpt lat="45.743183658780566" lon="8.501327541602102"><ele>382.0</ele><time>2026-04-01T10:33:49Z</time></trkpt><trkpt lat="45.74312047277363" lon="8.501213465127632"><ele>382.0</ele><time>2026-04-01T10:33:50Z</time></trkpt><trkpt lat="45.743059756047366" lon="8.501181449687833"><ele>382.0</ele><time>2026-04-01T10:33:51Z</time></trkpt><trkpt lat="45.742985217155955" lon="8.50114567887101"><ele>382.0</ele><time>2026-04-01T10:33:52Z</time></trkpt><trkpt lat="45.742919100792946" lon="8.501104155214753"><ele>382.0</ele><time>2026-04-01T10:33:53Z</time></trkpt><trkpt lat="45.74284297975248" lon="8.501071688001362"><ele>382.0</ele><time>2026-04-01T10:33:54Z</time></trkpt><trkpt lat="45.74278536214559" lon="8.501028690127743"><ele>382.0</ele><time>2026-04-01T10:33:55Z</time></trkpt><trkpt lat="45.74272050864117" lon="8.501037356751452"><ele>382.0</ele><time>2026-04-01T10:33:56Z</time></trkpt><trkpt lat="45.74262422933798" lon="8.500984634543277"><ele>382.0</ele><time>2026-04-01T10:33:57Z</time></trkpt><trkpt lat="45.742545997784966" lon="8.50094816826956"><ele>382.0</ele><time>2026-04-01T10:33:58Z</time></trkpt><trkpt lat="45.74247778887003" lon="8.500942342084642"><ele>382.0</ele><time>2026-04-01T10:33:59Z</time></trkpt><trkpt lat="45.742408983576844" lon="8.500932228952246"><ele>382.0</ele><time>2026-04-01T10:34:00Z</time></trkpt><trkpt lat="45.74232870963087" lon="8.500919324094466"><ele>382.0</ele><time>2026-04-01T10:34:01Z</time></trkpt><trkpt lat="45.742247428598624" lon="8.50091436890895"><ele>382.0</ele><time>2026-04-01T10:34:02Z</time></trkpt><trkpt lat="45.74217582522742" lon="8.50089038400343"><ele>382.0</ele><time>2026-04-01T10:34:03Z</time></trkpt><trkpt lat="45.74209266023234" lon="8.500904173715695"><ele>382.0</ele><time>2026-04-01T10:34:04Z</time></trkpt><trkpt lat="45.74200679588666" lon="8.500926526777114"><ele>382.0</ele><time>2026-04-01T10:34:05Z</time></trkpt><trkpt lat="45.7419099637803" lon="8.500924714350406"><ele>382.0</ele><time>2026-04-01T10:34:06Z</time></trkpt><trkpt lat="45.74183402933815" lon="8.500919394812716"><ele>382.0</ele><time>2026-04-01T10:34:07Z</time></trkpt><trkpt lat="45.74174644081725" lon="8.500939829122538"><ele>382.0</ele><time>2026-04-01T10:34:08Z</time></trkpt><trkpt lat="45.7416543985283" lon="8.500972977894442"><ele>381.20000000000005</ele><time>2026-04-01T10:34:09Z</time></trkpt><trkpt lat="45.74157057241269" lon="8.501009304462222"><ele>380.4</ele><time>2026-04-01T10:34:10Z</time></trkpt><trkpt lat="45.74148641620298" lon="8.501051525346927"><ele>379.6</ele><time>2026-04-01T10:34:11Z</time></trkpt><trkpt lat="45.74141425611975" lon="8.501068414473703"><ele>378.79999999999995</ele><time>2026-04-01T10:34:12Z</time></trkpt><trkpt lat="45.74127681291151" lon="8.501084045785227"><ele>378.0</ele><time>2026-04-01T10:34:14Z</time></trkpt><trkpt lat="45.74118844431067" lon="8.501094129007631"><ele>378.0</ele><time>2026-04-01T10:34:15Z</time></trkpt><trkpt lat="45.74110523048955" lon="8.501108925438153"><ele>378.0</ele><time>2026-04-01T10:34:16Z</time></trkpt><trkpt lat="45.74103972249754" lon="8.501114894224633"><ele>378.0</ele><time>2026-04-01T10:34:17Z</time></trkpt><trkpt lat="45.74093206937538" lon="8.501116218827036"><ele>378.0</ele><time>2026-04-01T10:34:19Z</time></trkpt><trkpt lat="45.7408453957208" lon="8.501177280634627"><ele>378.0</ele><time>2026-04-01T10:34:21Z</time></trkpt><trkpt lat="45.74075591180497" lon="8.501214538798257"><ele>378.0</ele><time>2026-04-01T10:34:23Z</time></trkpt><trkpt lat="45.74069063510008" lon="8.501224193146427"><ele>378.0</ele><time>2026-04-01T10:34:24Z</time></trkpt><trkpt lat="45.740617170615394" lon="8.50124095148264"><ele>378.0</ele><time>2026-04-01T10:34:24.999Z</time></trkpt><trkpt lat="45.74048349826426" lon="8.501222861741216"><ele>378.0</ele><time>2026-04-01T10:34:26.999Z</time></trkpt><trkpt lat="45.74040201943386" lon="8.501216349574564"><ele>378.0</ele><time>2026-04-01T10:34:27.999Z</time></trkpt><trkpt lat="45.74032972316864" lon="8.501220240800558"><ele>378.0</ele><time>2026-04-01T10:34:28.999Z</time></trkpt><trkpt lat="45.74026604892074" lon="8.501237472953575"><ele>378.0</ele><time>2026-04-01T10:34:29.999Z</time></trkpt><trkpt lat="45.74015586771255" lon="8.501294384385137"><ele>378.0</ele><time>2026-04-01T10:34:31.999Z</time></trkpt><trkpt lat="45.74008267720451" lon="8.501336116521157"><ele>378.0</ele><time>2026-04-01T10:34:32.999Z</time></trkpt><trkpt lat="45.73996377392463" lon="8.501373358631673"><ele>378.0</ele><time>2026-04-01T10:34:34.999Z</time></trkpt><trkpt lat="45.73989195202242" lon="8.501370948422702"><ele>378.0</ele><time>2026-04-01T10:34:35.999Z</time></trkpt><trkpt lat="45.7398087265835" lon="8.5013848432723"><ele>378.0</ele><time>2026-04-01T10:34:36.999Z</time></trkpt><trkpt lat="45.73973844476648" lon="8.501398144561403"><ele>378.0</ele><time>2026-04-01T10:34:37.999Z</time></trkpt><trkpt lat="45.73963647848268" lon="8.501406248271726"><ele>378.0</ele><time>2026-04-01T10:34:38.999Z</time></trkpt><trkpt lat="45.73951133612342" lon="8.501390175974176"><ele>378.0</ele><time>2026-04-01T10:34:39.999Z</time></trkpt><trkpt lat="45.73940692001841" lon="8.501382663407357"><ele>378.0</ele><time>2026-04-01T10:34:40.999Z</time></trkpt><trkpt lat="45.739285594404905" lon="8.501351109359218"><ele>378.0</ele><time>2026-04-01T10:34:41.999Z</time></trkpt><trkpt lat="45.73919394764169" lon="8.501326567325352"><ele>378.0</ele><time>2026-04-01T10:34:42.999Z</time></trkpt><trkpt lat="45.73910346807089" lon="8.501307288798706"><ele>376.4</ele><time>2026-04-01T10:34:43.999Z</time></trkpt><trkpt lat="45.738997183592275" lon="8.501297651254163"><ele>374.79999999999995</ele><time>2026-04-01T10:34:44.999Z</time></trkpt><trkpt lat="45.738905556275746" lon="8.501277724037092"><ele>373.2</ele><time>2026-04-01T10:34:45.999Z</time></trkpt><trkpt lat="45.738816778746695" lon="8.501256047912305"><ele>371.6</ele><time>2026-04-01T10:34:46.999Z</time></trkpt><trkpt lat="45.73874210923614" lon="8.50126385454675"><ele>370.0</ele><time>2026-04-01T10:34:47.999Z</time></trkpt><trkpt lat="45.73865081651023" lon="8.501273883056973"><ele>370.3333333333333</ele><time>2026-04-01T10:34:48.999Z</time></trkpt><trkpt lat="45.73855034762876" lon="8.501282422580354"><ele>370.66666666666663</ele><time>2026-04-01T10:34:49.999Z</time></trkpt><trkpt lat="45.73847060489718" lon="8.501299961927783"><ele>371.0</ele><time>2026-04-01T10:34:50.999Z</time></trkpt><trkpt lat="45.738387449784184" lon="8.50132534321551"><ele>371.3333333333333</ele><time>2026-04-01T10:34:51.999Z</time></trkpt><trkpt lat="45.73828907653482" lon="8.50133076447638"><ele>371.6666666666667</ele><time>2026-04-01T10:34:52.999Z</time></trkpt><trkpt lat="45.73822255909139" lon="8.501321876469534"><ele>372.0</ele><time>2026-04-01T10:34:53.999Z</time></trkpt><trkpt lat="45.738154454012445" lon="8.50132286920373"><ele>372.0</ele><time>2026-04-01T10:34:54.999Z</time></trkpt><trkpt lat="45.73808631442648" lon="8.501314890926869"><ele>372.0</ele><time>2026-04-01T10:34:55.999Z</time></trkpt><trkpt lat="45.73801714772157" lon="8.5013160268877"><ele>372.0</ele><time>2026-04-01T10:34:56.999Z</time></trkpt><trkpt lat="45.737943452432106" lon="8.501323347276102"><ele>372.0</ele><time>2026-04-01T10:34:57.999Z</time></trkpt><trkpt lat="45.737874980227744" lon="8.50135390354513"><ele>372.0</ele><time>2026-04-01T10:34:58.999Z</time></trkpt><trkpt lat="45.73780650382183" lon="8.50140127725742"><ele>372.0</ele><time>2026-04-01T10:34:59.999Z</time></trkpt><trkpt lat="45.73768119725393" lon="8.5014611553877"><ele>372.3333333333333</ele><time>2026-04-01T10:35:01.999Z</time></trkpt><trkpt lat="45.73759673154138" lon="8.501485971362186"><ele>372.6666666666667</ele><time>2026-04-01T10:35:02.999Z</time></trkpt><trkpt lat="45.7375327186195" lon="8.501510942562668"><ele>373.0</ele><time>2026-04-01T10:35:04.001Z</time></trkpt><trkpt lat="45.737414621959175" lon="8.501530112940578"><ele>373.33333333333337</ele><time>2026-04-01T10:35:06Z</time></trkpt><trkpt lat="45.73734596457439" lon="8.501554656606114"><ele>373.6666666666667</ele><time>2026-04-01T10:35:08Z</time></trkpt><trkpt lat="45.73727908985252" lon="8.501534027082092"><ele>374.0</ele><time>2026-04-01T10:35:09Z</time></trkpt><trkpt lat="45.73718121472205" lon="8.501532955680457"><ele>374.0</ele><time>2026-04-01T10:35:10.001Z</time></trkpt><trkpt lat="45.737091362850464" lon="8.501506392383728"><ele>374.0</ele><time>2026-04-01T10:35:11Z</time></trkpt><trkpt lat="45.73701754902457" lon="8.501510380048936"><ele>374.0</ele><time>2026-04-01T10:35:12Z</time></trkpt><trkpt lat="45.73688974759307" lon="8.501491244773723"><ele>374.0</ele><time>2026-04-01T10:35:14Z</time></trkpt><trkpt lat="45.73681459418355" lon="8.501524259183494"><ele>374.0</ele><time>2026-04-01T10:35:16Z</time></trkpt><trkpt lat="45.73675197444005" lon="8.501570361715583"><ele>374.0</ele><time>2026-04-01T10:35:20.001Z</time></trkpt><trkpt lat="45.73666371325493" lon="8.501523388803832"><ele>373.1666666666667</ele><time>2026-04-01T10:35:23.001Z</time></trkpt><trkpt lat="45.73652224129216" lon="8.50155005353622"><ele>372.33333333333337</ele><time>2026-04-01T10:35:28Z</time></trkpt><trkpt lat="45.73645789165855" lon="8.50157123669835"><ele>371.5</ele><time>2026-04-01T10:35:31Z</time></trkpt><trkpt lat="45.736358872294076" lon="8.501546673587926"><ele>370.6666666666667</ele><time>2026-04-01T10:35:36Z</time></trkpt><trkpt lat="45.7362981708803" lon="8.501520143256888"><ele>369.8333333333333</ele><time>2026-04-01T10:35:45Z</time></trkpt><trkpt lat="45.73623946986095" lon="8.501486714619862"><ele>369.0</ele><time>2026-04-01T10:35:55Z</time></trkpt><trkpt lat="45.73617180758948" lon="8.501502692957793"><ele>369.0</ele><time>2026-04-01T10:47:13.999Z</time></trkpt><trkpt lat="45.73607944295462" lon="8.501436735261267"><ele>369.0</ele><time>2026-04-01T10:47:15.999Z</time></trkpt><trkpt lat="45.73603136696589" lon="8.501364524571205"><ele>369.0</ele><time>2026-04-01T10:47:16.999Z</time></trkpt><trkpt lat="45.73594754527922" lon="8.501243222650679"><ele>369.0</ele><time>2026-04-01T10:47:18.999Z</time></trkpt><trkpt lat="45.73584551911446" lon="8.501156398246824"><ele>369.0</ele><time>2026-04-01T10:47:20.999Z</time></trkpt><trkpt lat="45.73577951695346" lon="8.501072182897552"><ele>368.2</ele><time>2026-04-01T10:47:22.999Z</time></trkpt><trkpt lat="45.73571144308448" lon="8.501015938289749"><ele>367.4</ele><time>2026-04-01T10:47:24.999Z</time></trkpt><trkpt lat="45.73562122024723" lon="8.500924065379063"><ele>366.6</ele><time>2026-04-01T10:47:26.999Z</time></trkpt><trkpt lat="45.73555108172107" lon="8.500830621913897"><ele>365.8</ele><time>2026-04-01T10:47:27.999Z</time></trkpt><trkpt lat="45.735508008914884" lon="8.50074467168287"><ele>365.0</ele><time>2026-04-01T10:47:28.999Z</time></trkpt><trkpt lat="45.73544303607647" lon="8.500648650010124"><ele>365.0</ele><time>2026-04-01T10:47:30.999Z</time></trkpt><trkpt lat="45.73536440651632" lon="8.500587229837917"><ele>365.0</ele><time>2026-04-01T10:47:32.999Z</time></trkpt><trkpt lat="45.73532095206275" lon="8.500498757631169"><ele>365.0</ele><time>2026-04-01T10:47:37.999Z</time></trkpt><trkpt lat="45.735204450075884" lon="8.500453899966947"><ele>365.0</ele><time>2026-04-01T10:47:40.001Z</time></trkpt><trkpt lat="45.73511018429274" lon="8.500440587521254"><ele>365.0</ele><time>2026-04-01T10:47:41Z</time></trkpt><trkpt lat="45.73500516315703" lon="8.5003832984621"><ele>363.8</ele><time>2026-04-01T10:47:42Z</time></trkpt><trkpt lat="45.73491264236193" lon="8.500330478652604"><ele>362.6</ele><time>2026-04-01T10:47:43.001Z</time></trkpt><trkpt lat="45.7348173223917" lon="8.500290058828828"><ele>361.4</ele><time>2026-04-01T10:47:44Z</time></trkpt><trkpt lat="45.73472115382442" lon="8.500228168643877"><ele>360.2</ele><time>2026-04-01T10:47:45Z</time></trkpt><trkpt lat="45.73462245510809" lon="8.500180877808388"><ele>359.0</ele><time>2026-04-01T10:47:46.001Z</time></trkpt><trkpt lat="45.73452092053629" lon="8.500118920448"><ele>359.0</ele><time>2026-04-01T10:47:47Z</time></trkpt><trkpt lat="45.734416366369" lon="8.500051925938116"><ele>359.0</ele><time>2026-04-01T10:47:48Z</time></trkpt><trkpt lat="45.73431383328621" lon="8.499983838424326"><ele>359.0</ele><time>2026-04-01T10:47:49.001Z</time></trkpt><trkpt lat="45.73420818530461" lon="8.499921839224317"><ele>359.0</ele><time>2026-04-01T10:47:50Z</time></trkpt><trkpt lat="45.73411723971965" lon="8.499860142740966"><ele>359.0</ele><time>2026-04-01T10:47:51Z</time></trkpt><trkpt lat="45.73403230388183" lon="8.499824412574"><ele>358.4</ele><time>2026-04-01T10:47:52Z</time></trkpt><trkpt lat="45.73392948636914" lon="8.499797573998507"><ele>357.79999999999995</ele><time>2026-04-01T10:47:53Z</time></trkpt><trkpt lat="45.73385938771077" lon="8.499762911793848"><ele>357.20000000000005</ele><time>2026-04-01T10:47:54Z</time></trkpt><trkpt lat="45.73378225871261" lon="8.499706957630005"><ele>356.6</ele><time>2026-04-01T10:47:55Z</time></trkpt><trkpt lat="45.73369717673165" lon="8.499637412051836"><ele>356.0</ele><time>2026-04-01T10:47:56Z</time></trkpt><trkpt lat="45.733596453535135" lon="8.499576805408422"><ele>355.20000000000005</ele><time>2026-04-01T10:47:57Z</time></trkpt><trkpt lat="45.73349128555659" lon="8.499503898008117"><ele>354.40000000000003</ele><time>2026-04-01T10:47:58Z</time></trkpt><trkpt lat="45.733402406754585" lon="8.499471848124829"><ele>353.6</ele><time>2026-04-01T10:47:59Z</time></trkpt><trkpt lat="45.73331957560753" lon="8.499460761641348"><ele>352.8</ele><time>2026-04-01T10:48:00Z</time></trkpt><trkpt lat="45.73318941207752" lon="8.499397797586699"><ele>352.0</ele><time>2026-04-01T10:48:02Z</time></trkpt><trkpt lat="45.73309730444788" lon="8.499354800333569"><ele>352.0</ele><time>2026-04-01T10:48:03Z</time></trkpt><trkpt lat="45.73300826584146" lon="8.499329126925748"><ele>352.0</ele><time>2026-04-01T10:48:04Z</time></trkpt><trkpt lat="45.73289101973985" lon="8.499329461771206"><ele>352.0</ele><time>2026-04-01T10:48:05Z</time></trkpt><trkpt lat="45.73279044777995" lon="8.499328284764117"><ele>352.0</ele><time>2026-04-01T10:48:06Z</time></trkpt><trkpt lat="45.73269579334557" lon="8.499344726727637"><ele>352.0</ele><time>2026-04-01T10:48:07Z</time></trkpt><trkpt lat="45.73261818076258" lon="8.499378076459086"><ele>351.5</ele><time>2026-04-01T10:48:08Z</time></trkpt><trkpt lat="45.732538389952055" lon="8.49940014059594"><ele>351.0</ele><time>2026-04-01T10:48:09Z</time></trkpt><trkpt lat="45.73245953539238" lon="8.49939105714706"><ele>350.5</ele><time>2026-04-01T10:48:10Z</time></trkpt><trkpt lat="45.73237861233685" lon="8.499366420248384"><ele>350.0</ele><time>2026-04-01T10:48:11Z</time></trkpt><trkpt lat="45.7323001679061" lon="8.499366506206131"><ele>349.5</ele><time>2026-04-01T10:48:12Z</time></trkpt><trkpt lat="45.73221437873052" lon="8.49936151970338"><ele>349.0</ele><time>2026-04-01T10:48:13Z</time></trkpt><trkpt lat="45.73213459900761" lon="8.499364047282086"><ele>349.0</ele><time>2026-04-01T10:48:14Z</time></trkpt><trkpt lat="45.732046474697924" lon="8.499355261330463"><ele>349.0</ele><time>2026-04-01T10:48:15Z</time></trkpt><trkpt lat="45.73197313493042" lon="8.499349989398048"><ele>349.0</ele><time>2026-04-01T10:48:16Z</time></trkpt><trkpt lat="45.731872475151036" lon="8.499456224513018"><ele>349.0</ele><time>2026-04-01T10:48:18Z</time></trkpt><trkpt lat="45.731837845611196" lon="8.499560280841282"><ele>349.0</ele><time>2026-04-01T10:48:19Z</time></trkpt><trkpt lat="45.73182464918715" lon="8.499680261365267"><ele>348.8333333333333</ele><time>2026-04-01T10:48:20Z</time></trkpt><trkpt lat="45.73179689592779" lon="8.499793106965647"><ele>348.66666666666663</ele><time>2026-04-01T10:48:21Z</time></trkpt><trkpt lat="45.73176902819876" lon="8.499905109002171"><ele>348.5</ele><time>2026-04-01T10:48:22Z</time></trkpt><trkpt lat="45.73174112604128" lon="8.49999138119512"><ele>348.3333333333333</ele><time>2026-04-01T10:48:23Z</time></trkpt><trkpt lat="45.73162725524655" lon="8.500036625156657"><ele>348.1666666666667</ele><time>2026-04-01T10:48:25Z</time></trkpt><trkpt lat="45.73155528335096" lon="8.500015002420035"><ele>348.0</ele><time>2026-04-01T10:48:26Z</time></trkpt><trkpt lat="45.73149544461336" lon="8.499951980537674"><ele>348.0</ele><time>2026-04-01T10:48:27Z</time></trkpt><trkpt lat="45.73142380860841" lon="8.499897240654114"><ele>348.0</ele><time>2026-04-01T10:48:28Z</time></trkpt><trkpt lat="45.73135864022907" lon="8.499840250948811"><ele>348.0</ele><time>2026-04-01T10:48:29Z</time></trkpt><trkpt lat="45.731290089763434" lon="8.49977627688409"><ele>348.0</ele><time>2026-04-01T10:48:30Z</time></trkpt><trkpt lat="45.7312432297017" lon="8.499709103885678"><ele>348.0</ele><time>2026-04-01T10:48:31Z</time></trkpt><trkpt lat="45.731209769531574" lon="8.499616847055409"><ele>348.0</ele><time>2026-04-01T10:48:32Z</time></trkpt><trkpt lat="45.731242169508086" lon="8.499499004731105"><ele>347.8333333333333</ele><time>2026-04-01T10:48:33Z</time></trkpt><trkpt lat="45.73124038884692" lon="8.499389931375173"><ele>347.6666666666667</ele><time>2026-04-01T10:48:34Z</time></trkpt><trkpt lat="45.7312540259932" lon="8.499277623996202"><ele>347.5</ele><time>2026-04-01T10:48:35Z</time></trkpt><trkpt lat="45.73127233399639" lon="8.499131689875842"><ele>347.33333333333337</ele><time>2026-04-01T10:48:36Z</time></trkpt><trkpt lat="45.73131324745262" lon="8.499023009497607"><ele>347.1666666666667</ele><time>2026-04-01T10:48:37Z</time></trkpt><trkpt lat="45.73137258379765" lon="8.498915786635246"><ele>347.0</ele><time>2026-04-01T10:48:38Z</time></trkpt><trkpt lat="45.73134341951473" lon="8.498793483145992"><ele>346.6</ele><time>2026-04-01T10:48:39Z</time></trkpt><trkpt lat="45.731364253943866" lon="8.498671875574827"><ele>346.20000000000005</ele><time>2026-04-01T10:48:40Z</time></trkpt><trkpt lat="45.73138388006978" lon="8.498562129337719"><ele>345.8</ele><time>2026-04-01T10:48:41Z</time></trkpt><trkpt lat="45.731398660935426" lon="8.498460915844744"><ele>345.4</ele><time>2026-04-01T10:48:42Z</time></trkpt><trkpt lat="45.731383637682576" lon="8.498254765780201"><ele>345.0</ele><time>2026-04-01T10:48:44Z</time></trkpt><trkpt lat="45.731356104588286" lon="8.498094907490024"><ele>345.0</ele><time>2026-04-01T10:48:45Z</time></trkpt><trkpt lat="45.73133641081358" lon="8.497923970266779"><ele>345.0</ele><time>2026-04-01T10:48:46Z</time></trkpt><trkpt lat="45.73133291717501" lon="8.497788424488943"><ele>345.0</ele><time>2026-04-01T10:48:47Z</time></trkpt><trkpt lat="45.73134587452429" lon="8.497654440808791"><ele>345.0</ele><time>2026-04-01T10:48:48Z</time></trkpt><trkpt lat="45.73136397437885" lon="8.497514170168548"><ele>345.0</ele><time>2026-04-01T10:48:49Z</time></trkpt><trkpt lat="45.73137629109429" lon="8.497385625786746"><ele>344.6666666666667</ele><time>2026-04-01T10:48:50Z</time></trkpt><trkpt lat="45.73138209915841" lon="8.497255423661974"><ele>344.3333333333333</ele><time>2026-04-01T10:48:51Z</time></trkpt><trkpt lat="45.731365510516966" lon="8.497130375343303"><ele>344.0</ele><time>2026-04-01T10:48:52Z</time></trkpt><trkpt lat="45.731333368642105" lon="8.497033847482484"><ele>343.66666666666663</ele><time>2026-04-01T10:48:53Z</time></trkpt><trkpt lat="45.731309798948764" lon="8.496946616621997"><ele>343.3333333333333</ele><time>2026-04-01T10:48:54Z</time></trkpt><trkpt lat="45.731281286906885" lon="8.496838266207993"><ele>343.0</ele><time>2026-04-01T10:48:54.999Z</time></trkpt><trkpt lat="45.731254875512285" lon="8.496720824972478"><ele>344.0</ele><time>2026-04-01T10:48:55.999Z</time></trkpt><trkpt lat="45.73124368106452" lon="8.496573409268542"><ele>345.0</ele><time>2026-04-01T10:48:56.999Z</time></trkpt><trkpt lat="45.73123259262973" lon="8.496417462595458"><ele>346.0</ele><time>2026-04-01T10:48:57.999Z</time></trkpt><trkpt lat="45.73123718256283" lon="8.496270830450612"><ele>347.0</ele><time>2026-04-01T10:48:58.999Z</time></trkpt><trkpt lat="45.73125744525341" lon="8.496124919561561"><ele>348.0</ele><time>2026-04-01T10:48:59.999Z</time></trkpt><trkpt lat="45.73126746226884" lon="8.496004974833985"><ele>348.79999999999995</ele><time>2026-04-01T10:49:00.999Z</time></trkpt><trkpt lat="45.73124816394345" lon="8.495905785491614"><ele>349.6</ele><time>2026-04-01T10:49:01.999Z</time></trkpt><trkpt lat="45.73114224272509" lon="8.495792611690506"><ele>350.4</ele><time>2026-04-01T10:49:03.999Z</time></trkpt><trkpt lat="45.73106614249758" lon="8.495723195792017"><ele>351.20000000000005</ele><time>2026-04-01T10:49:04.999Z</time></trkpt><trkpt lat="45.73099585856404" lon="8.495657186916574"><ele>352.0</ele><time>2026-04-01T10:49:05.999Z</time></trkpt><trkpt lat="45.730918064784355" lon="8.495578647411584"><ele>352.0</ele><time>2026-04-01T10:49:06.999Z</time></trkpt><trkpt lat="45.73084431879133" lon="8.495498535860268"><ele>352.0</ele><time>2026-04-01T10:49:07.999Z</time></trkpt><trkpt lat="45.730770986055155" lon="8.495413010762842"><ele>352.0</ele><time>2026-04-01T10:49:08.999Z</time></trkpt><trkpt lat="45.73070232737669" lon="8.495342024037246"><ele>352.0</ele><time>2026-04-01T10:49:09.999Z</time></trkpt><trkpt lat="45.730634329525216" lon="8.495268608698522"><ele>352.0</ele><time>2026-04-01T10:49:10.999Z</time></trkpt><trkpt lat="45.73056417566691" lon="8.495182956250401"><ele>352.0</ele><time>2026-04-01T10:49:11.999Z</time></trkpt><trkpt lat="45.73048878231693" lon="8.495120820423063"><ele>352.6</ele><time>2026-04-01T10:49:12.999Z</time></trkpt><trkpt lat="45.730402897372564" lon="8.49507937323465"><ele>353.20000000000005</ele><time>2026-04-01T10:49:13.999Z</time></trkpt><trkpt lat="45.73031122266743" lon="8.495043546225268"><ele>353.8</ele><time>2026-04-01T10:49:14.999Z</time></trkpt><trkpt lat="45.730226342730056" lon="8.494997013883935"><ele>354.4</ele><time>2026-04-01T10:49:15.999Z</time></trkpt><trkpt lat="45.7301412890281" lon="8.494959740304807"><ele>355.0</ele><time>2026-04-01T10:49:16.999Z</time></trkpt><trkpt lat="45.73005827251297" lon="8.494926180889246"><ele>353.8333333333333</ele><time>2026-04-01T10:49:17.999Z</time></trkpt><trkpt lat="45.729973675339366" lon="8.494906459913997"><ele>352.66666666666663</ele><time>2026-04-01T10:49:18.999Z</time></trkpt><trkpt lat="45.729894979880484" lon="8.494871112361132"><ele>351.5</ele><time>2026-04-01T10:49:19.999Z</time></trkpt><trkpt lat="45.7298105823467" lon="8.494840766432853"><ele>350.3333333333333</ele><time>2026-04-01T10:49:20.999Z</time></trkpt><trkpt lat="45.72973675826976" lon="8.494806942451138"><ele>349.1666666666667</ele><time>2026-04-01T10:49:21.999Z</time></trkpt><trkpt lat="45.729667178669914" lon="8.49477843561454"><ele>348.0</ele><time>2026-04-01T10:49:22.999Z</time></trkpt><trkpt lat="45.72958915153477" lon="8.494741442077615"><ele>348.0</ele><time>2026-04-01T10:49:23.999Z</time></trkpt><trkpt lat="45.72951258342299" lon="8.49471933472033"><ele>348.0</ele><time>2026-04-01T10:49:24.999Z</time></trkpt><trkpt lat="45.72942693384923" lon="8.494688171730667"><ele>348.0</ele><time>2026-04-01T10:49:25.999Z</time></trkpt><trkpt lat="45.72933960572705" lon="8.49467205874011"><ele>348.0</ele><time>2026-04-01T10:49:26.999Z</time></trkpt><trkpt lat="45.7292537741027" lon="8.494634846129982"><ele>348.0</ele><time>2026-04-01T10:49:27.999Z</time></trkpt><trkpt lat="45.729159856274116" lon="8.494594683814228"><ele>348.0</ele><time>2026-04-01T10:49:28.999Z</time></trkpt><trkpt lat="45.72907667434921" lon="8.494567422281584"><ele>347.4</ele><time>2026-04-01T10:49:29.999Z</time></trkpt><trkpt lat="45.729003227908734" lon="8.494552391400124"><ele>346.79999999999995</ele><time>2026-04-01T10:49:30.999Z</time></trkpt><trkpt lat="45.72891421734157" lon="8.49452901410606"><ele>346.2</ele><time>2026-04-01T10:49:31.999Z</time></trkpt><trkpt lat="45.728816520488046" lon="8.49449483347914"><ele>345.6</ele><time>2026-04-01T10:49:32.999Z</time></trkpt><trkpt lat="45.72872202815831" lon="8.494485909135625"><ele>345.0</ele><time>2026-04-01T10:49:33.999Z</time></trkpt><trkpt lat="45.72862499305984" lon="8.494473963016542"><ele>345.0</ele><time>2026-04-01T10:49:34.999Z</time></trkpt><trkpt lat="45.72853264185177" lon="8.494482815665275"><ele>345.0</ele><time>2026-04-01T10:49:35.999Z</time></trkpt><trkpt lat="45.728438754586925" lon="8.494484892256958"><ele>345.0</ele><time>2026-04-01T10:49:36.999Z</time></trkpt><trkpt lat="45.728338256630686" lon="8.49449783990211"><ele>345.0</ele><time>2026-04-01T10:49:37.999Z</time></trkpt><trkpt lat="45.72823644150358" lon="8.494498774866752"><ele>345.0</ele><time>2026-04-01T10:49:38.999Z</time></trkpt><trkpt lat="45.72813977864743" lon="8.494498999383234"><ele>345.0</ele><time>2026-04-01T10:49:39.999Z</time></trkpt><trkpt lat="45.728038145736754" lon="8.494498106448892"><ele>345.0</ele><time>2026-04-01T10:49:40.999Z</time></trkpt><trkpt lat="45.72794075600475" lon="8.49450601845759"><ele>345.0</ele><time>2026-04-01T10:49:41.999Z</time></trkpt><trkpt lat="45.727847164405624" lon="8.494510756226786"><ele>345.0</ele><time>2026-04-01T10:49:42.999Z</time></trkpt><trkpt lat="45.72775806506901" lon="8.494528992934494"><ele>345.0</ele><time>2026-04-01T10:49:43.999Z</time></trkpt><trkpt lat="45.727676144499796" lon="8.494539559927723"><ele>345.3333333333333</ele><time>2026-04-01T10:49:44.999Z</time></trkpt><trkpt lat="45.72760618989924" lon="8.494545482236306"><ele>345.6666666666667</ele><time>2026-04-01T10:49:46Z</time></trkpt><trkpt lat="45.7275312945595" lon="8.494537524942265"><ele>346.0</ele><time>2026-04-01T10:49:47Z</time></trkpt><trkpt lat="45.727464518611924" lon="8.494506579682746"><ele>346.33333333333337</ele><time>2026-04-01T10:49:48Z</time></trkpt><trkpt lat="45.727358953496925" lon="8.49441793831203"><ele>346.6666666666667</ele><time>2026-04-01T10:49:50Z</time></trkpt><trkpt lat="45.727261544699736" lon="8.494354284054099"><ele>347.0</ele><time>2026-04-01T10:49:52Z</time></trkpt><trkpt lat="45.72717368968345" lon="8.494328528285749"><ele>347.0</ele><time>2026-04-01T10:49:54Z</time></trkpt><trkpt lat="45.72709348406856" lon="8.49425596014244"><ele>347.0</ele><time>2026-04-01T10:49:57Z</time></trkpt><trkpt lat="45.726993189008255" lon="8.494142292585956"><ele>347.0</ele><time>2026-04-01T10:49:59Z</time></trkpt><trkpt lat="45.726944707937974" lon="8.494033842789385"><ele>347.0</ele><time>2026-04-01T10:50:00Z</time></trkpt><trkpt lat="45.726900752184996" lon="8.493922021594832"><ele>347.0</ele><time>2026-04-01T10:50:01Z</time></trkpt><trkpt lat="45.72685504256537" lon="8.493797972426696"><ele>347.40000000000003</ele><time>2026-04-01T10:50:02Z</time></trkpt><trkpt lat="45.72679228390824" lon="8.493692217833258"><ele>347.8</ele><time>2026-04-01T10:50:03Z</time></trkpt><trkpt lat="45.726721041655516" lon="8.493565947987465"><ele>348.2</ele><time>2026-04-01T10:50:04Z</time></trkpt><trkpt lat="45.72664583101935" lon="8.49345141774871"><ele>348.6</ele><time>2026-04-01T10:50:05Z</time></trkpt><trkpt lat="45.726562358015144" lon="8.493350265947873"><ele>349.0</ele><time>2026-04-01T10:50:06Z</time></trkpt><trkpt lat="45.726476752355694" lon="8.493253417950669"><ele>349.0</ele><time>2026-04-01T10:50:07Z</time></trkpt><trkpt lat="45.72638581773312" lon="8.493183083468136"><ele>349.0</ele><time>2026-04-01T10:50:08Z</time></trkpt><trkpt lat="45.72627336018184" lon="8.493127069615744"><ele>349.0</ele><time>2026-04-01T10:50:09Z</time></trkpt><trkpt lat="45.72617328626053" lon="8.49306561981729"><ele>349.0</ele><time>2026-04-01T10:50:10Z</time></trkpt><trkpt lat="45.72607624917892" lon="8.493008262681562"><ele>349.0</ele><time>2026-04-01T10:50:11Z</time></trkpt><trkpt lat="45.725984438999376" lon="8.492957806054784"><ele>349.8333333333333</ele><time>2026-04-01T10:50:12Z</time></trkpt><trkpt lat="45.725899130965324" lon="8.492895656692813"><ele>350.66666666666663</ele><time>2026-04-01T10:50:13Z</time></trkpt><trkpt lat="45.72582910754411" lon="8.492812895724711"><ele>351.5</ele><time>2026-04-01T10:50:14Z</time></trkpt><trkpt lat="45.725772752548316" lon="8.492726510095988"><ele>352.3333333333333</ele><time>2026-04-01T10:50:15Z</time></trkpt><trkpt lat="45.725710391218065" lon="8.492646184646764"><ele>353.1666666666667</ele><time>2026-04-01T10:50:16Z</time></trkpt><trkpt lat="45.72567199372154" lon="8.49257178397437"><ele>354.0</ele><time>2026-04-01T10:50:17Z</time></trkpt><trkpt lat="45.7256431677726" lon="8.492487158164996"><ele>354.0</ele><time>2026-04-01T10:50:18Z</time></trkpt><trkpt lat="45.72558389396959" lon="8.492397474595794"><ele>354.0</ele><time>2026-04-01T10:50:19Z</time></trkpt><trkpt lat="45.72552038149997" lon="8.492306852272103"><ele>354.0</ele><time>2026-04-01T10:50:20Z</time></trkpt><trkpt lat="45.725459741963775" lon="8.492201197324391"><ele>354.0</ele><time>2026-04-01T10:50:21Z</time></trkpt><trkpt lat="45.72541509755214" lon="8.492102301735901"><ele>354.0</ele><time>2026-04-01T10:50:22Z</time></trkpt><trkpt lat="45.72538428606912" lon="8.492005152220186"><ele>354.0</ele><time>2026-04-01T10:50:23Z</time></trkpt><trkpt lat="45.7253253033897" lon="8.491853594644848"><ele>353.0</ele><time>2026-04-01T10:50:25Z</time></trkpt><trkpt lat="45.72531774125916" lon="8.491752218010877"><ele>352.0</ele><time>2026-04-01T10:50:28Z</time></trkpt><trkpt lat="45.72524482067171" lon="8.491616194838938"><ele>351.0</ele><time>2026-04-01T10:50:31Z</time></trkpt><trkpt lat="45.725140810928366" lon="8.491521200644796"><ele>350.0</ele><time>2026-04-01T10:50:33Z</time></trkpt><trkpt lat="45.7250261564869" lon="8.491474732032557"><ele>349.0</ele><time>2026-04-01T10:50:35Z</time></trkpt><trkpt lat="45.72494883067116" lon="8.491435989468746"><ele>348.16666666666663</ele><time>2026-04-01T10:50:36Z</time></trkpt><trkpt lat="45.72488109574622" lon="8.491384617257113"><ele>347.3333333333333</ele><time>2026-04-01T10:50:37Z</time></trkpt><trkpt lat="45.72480551503116" lon="8.491351492556205"><ele>346.5</ele><time>2026-04-01T10:50:38Z</time></trkpt><trkpt lat="45.72473310396832" lon="8.491323989902163"><ele>345.6666666666667</ele><time>2026-04-01T10:50:39Z</time></trkpt><trkpt lat="45.72464686145888" lon="8.491321656799563"><ele>344.83333333333337</ele><time>2026-04-01T10:50:40Z</time></trkpt><trkpt lat="45.72455654844615" lon="8.491281469157695"><ele>344.0</ele><time>2026-04-01T10:50:41Z</time></trkpt><trkpt lat="45.72447467304745" lon="8.491229182084469"><ele>343.83333333333337</ele><time>2026-04-01T10:50:42Z</time></trkpt><trkpt lat="45.724391219209856" lon="8.491178584920878"><ele>343.6666666666667</ele><time>2026-04-01T10:50:43Z</time></trkpt><trkpt lat="45.72432022634933" lon="8.491145915829504"><ele>343.5</ele><time>2026-04-01T10:50:44Z</time></trkpt><trkpt lat="45.72425955257258" lon="8.491100198134298"><ele>343.3333333333333</ele><time>2026-04-01T10:50:45Z</time></trkpt><trkpt lat="45.72421603524511" lon="8.491029355568518"><ele>343.16666666666663</ele><time>2026-04-01T10:50:46Z</time></trkpt><trkpt lat="45.72420699403728" lon="8.490870367119129"><ele>343.0</ele><time>2026-04-01T10:50:48Z</time></trkpt><trkpt lat="45.72423437049893" lon="8.490771558541844"><ele>343.0</ele><time>2026-04-01T10:50:49Z</time></trkpt><trkpt lat="45.724250306022604" lon="8.490655851985066"><ele>343.0</ele><time>2026-04-01T10:50:50Z</time></trkpt><trkpt lat="45.72426158073593" lon="8.490532928563175"><ele>343.0</ele><time>2026-04-01T10:50:51Z</time></trkpt><trkpt lat="45.72424648217944" lon="8.490397890424065"><ele>343.0</ele><time>2026-04-01T10:50:52Z</time></trkpt><trkpt lat="45.72422792144226" lon="8.49025597047034"><ele>343.0</ele><time>2026-04-01T10:50:53Z</time></trkpt><trkpt lat="45.72421579481639" lon="8.490132875144669"><ele>342.8333333333333</ele><time>2026-04-01T10:50:54Z</time></trkpt><trkpt lat="45.724201478631755" lon="8.490025983860681"><ele>342.66666666666663</ele><time>2026-04-01T10:50:55Z</time></trkpt><trkpt lat="45.724196629565604" lon="8.489904046954637"><ele>342.5</ele><time>2026-04-01T10:50:56Z</time></trkpt><trkpt lat="45.72419468808417" lon="8.489799670380064"><ele>342.3333333333333</ele><time>2026-04-01T10:50:57Z</time></trkpt><trkpt lat="45.72420161997743" lon="8.489668904634266"><ele>342.1666666666667</ele><time>2026-04-01T10:50:58Z</time></trkpt><trkpt lat="45.724201709425486" lon="8.489522206320638"><ele>342.0</ele><time>2026-04-01T10:50:59Z</time></trkpt><trkpt lat="45.72420008842286" lon="8.48938377172586"><ele>342.3333333333333</ele><time>2026-04-01T10:51:00Z</time></trkpt><trkpt lat="45.724218547880405" lon="8.489235441599192"><ele>342.6666666666667</ele><time>2026-04-01T10:51:01Z</time></trkpt><trkpt lat="45.72423614654858" lon="8.489100561751941"><ele>343.0</ele><time>2026-04-01T10:51:02Z</time></trkpt><trkpt lat="45.72423937998463" lon="8.488979987478993"><ele>343.33333333333337</ele><time>2026-04-01T10:51:03Z</time></trkpt><trkpt lat="45.72423230890688" lon="8.488867484441876"><ele>343.6666666666667</ele><time>2026-04-01T10:51:03.999Z</time></trkpt><trkpt lat="45.724214127300975" lon="8.488748507674792"><ele>344.0</ele><time>2026-04-01T10:51:04.999Z</time></trkpt><trkpt lat="45.72417604963851" lon="8.488645250303808"><ele>344.0</ele><time>2026-04-01T10:51:05.999Z</time></trkpt><trkpt lat="45.7241236108895" lon="8.488563046805593"><ele>344.0</ele><time>2026-04-01T10:51:06.999Z</time></trkpt><trkpt lat="45.72408333253191" lon="8.488456958222663"><ele>344.0</ele><time>2026-04-01T10:51:07.999Z</time></trkpt><trkpt lat="45.72405699536175" lon="8.488353129698309"><ele>344.0</ele><time>2026-04-01T10:51:08.999Z</time></trkpt><trkpt lat="45.72402719289498" lon="8.488236357456051"><ele>344.0</ele><time>2026-04-01T10:51:09.999Z</time></trkpt><trkpt lat="45.724005739808526" lon="8.48811712463012"><ele>344.0</ele><time>2026-04-01T10:51:10.999Z</time></trkpt><trkpt lat="45.723977867708335" lon="8.488007903513981"><ele>344.0</ele><time>2026-04-01T10:51:11.999Z</time></trkpt><trkpt lat="45.72396769494441" lon="8.487914248820463"><ele>344.0</ele><time>2026-04-01T10:51:12.999Z</time></trkpt><trkpt lat="45.7239549729923" lon="8.48782574829096"><ele>344.0</ele><time>2026-04-01T10:51:13.999Z</time></trkpt><trkpt lat="45.72393196252782" lon="8.487723607749944"><ele>344.0</ele><time>2026-04-01T10:51:15.999Z</time></trkpt><trkpt lat="45.72385625358976" lon="8.487724567490273"><ele>344.0</ele><time>2026-04-01T10:51:19.999Z</time></trkpt><trkpt lat="45.72376542425691" lon="8.487828896160945"><ele>344.0</ele><time>2026-04-01T10:51:21.999Z</time></trkpt><trkpt lat="45.723679558363294" lon="8.487897377616902"><ele>344.0</ele><time>2026-04-01T10:51:23.999Z</time></trkpt><trkpt lat="45.72356709209094" lon="8.487929070617804"><ele>344.0</ele><time>2026-04-01T10:51:25.999Z</time></trkpt><trkpt lat="45.7234808019177" lon="8.487923724256035"><ele>344.0</ele><time>2026-04-01T10:51:26.999Z</time></trkpt><trkpt lat="45.72339292012138" lon="8.487955099405179"><ele>344.0</ele><time>2026-04-01T10:51:27.999Z</time></trkpt><trkpt lat="45.72327867613949" lon="8.487993556942977"><ele>344.0</ele><time>2026-04-01T10:51:28.999Z</time></trkpt><trkpt lat="45.72318079618686" lon="8.488043432762804"><ele>343.5</ele><time>2026-04-01T10:51:29.999Z</time></trkpt><trkpt lat="45.72307547270702" lon="8.488093208325328"><ele>343.0</ele><time>2026-04-01T10:51:30.999Z</time></trkpt><trkpt lat="45.722961267273014" lon="8.488142301896948"><ele>342.5</ele><time>2026-04-01T10:51:31.999Z</time></trkpt><trkpt lat="45.722851119814116" lon="8.488182603329665"><ele>342.0</ele><time>2026-04-01T10:51:32.999Z</time></trkpt><trkpt lat="45.72274554316602" lon="8.488231909155516"><ele>341.40000000000003</ele><time>2026-04-01T10:51:33.999Z</time></trkpt><trkpt lat="45.72262637213579" lon="8.488283214691918"><ele>340.8</ele><time>2026-04-01T10:51:34.999Z</time></trkpt><trkpt lat="45.72251735686535" lon="8.488340337704194"><ele>340.2</ele><time>2026-04-01T10:51:35.999Z</time></trkpt><trkpt lat="45.722425544776684" lon="8.488418701329998"><ele>339.6</ele><time>2026-04-01T10:51:36.999Z</time></trkpt><trkpt lat="45.72234253631254" lon="8.48849443906825"><ele>339.0</ele><time>2026-04-01T10:51:37.999Z</time></trkpt><trkpt lat="45.72226288124505" lon="8.48858817183548"><ele>339.0</ele><time>2026-04-01T10:51:38.999Z</time></trkpt><trkpt lat="45.72218842369935" lon="8.488701503644613"><ele>339.0</ele><time>2026-04-01T10:51:39.999Z</time></trkpt><trkpt lat="45.72211080648874" lon="8.488807345232848"><ele>339.0</ele><time>2026-04-01T10:51:40.999Z</time></trkpt><trkpt lat="45.72203054616973" lon="8.488931806591683"><ele>339.0</ele><time>2026-04-01T10:51:41.999Z</time></trkpt><trkpt lat="45.721952758705456" lon="8.489053707542618"><ele>339.0</ele><time>2026-04-01T10:51:42.999Z</time></trkpt><trkpt lat="45.721871354564264" lon="8.489170477934048"><ele>339.0</ele><time>2026-04-01T10:51:43.999Z</time></trkpt><trkpt lat="45.72178801011687" lon="8.48928668301263"><ele>339.0</ele><time>2026-04-01T10:51:44.999Z</time></trkpt><trkpt lat="45.7217104740973" lon="8.489392195257187"><ele>339.0</ele><time>2026-04-01T10:51:45.999Z</time></trkpt><trkpt lat="45.721630012761395" lon="8.48949930656125"><ele>339.0</ele><time>2026-04-01T10:51:46.999Z</time></trkpt><trkpt lat="45.72155401916353" lon="8.48960979967624"><ele>339.0</ele><time>2026-04-01T10:51:47.999Z</time></trkpt><trkpt lat="45.72148540310288" lon="8.489708118201476"><ele>338.8333333333333</ele><time>2026-04-01T10:51:48.999Z</time></trkpt><trkpt lat="45.721426515944025" lon="8.489793219585083"><ele>338.6666666666667</ele><time>2026-04-01T10:51:49.999Z</time></trkpt><trkpt lat="45.7213731243174" lon="8.489873906212486"><ele>338.5</ele><time>2026-04-01T10:51:50.999Z</time></trkpt><trkpt lat="45.72132681060828" lon="8.48993977673124"><ele>338.33333333333337</ele><time>2026-04-01T10:51:52.001Z</time></trkpt><trkpt lat="45.72127635110464" lon="8.490000883622903"><ele>338.1666666666667</ele><time>2026-04-01T10:51:53Z</time></trkpt><trkpt lat="45.72120883012852" lon="8.490067761450149"><ele>338.0</ele><time>2026-04-01T10:51:55.001Z</time></trkpt><trkpt lat="45.72111891859017" lon="8.490042864811905"><ele>338.4</ele><time>2026-04-01T10:52:03Z</time></trkpt><trkpt lat="45.72104419539423" lon="8.489971851514117"><ele>338.79999999999995</ele><time>2026-04-01T10:52:04Z</time></trkpt><trkpt lat="45.720961551155746" lon="8.489906621194825"><ele>339.2</ele><time>2026-04-01T10:52:05.001Z</time></trkpt><trkpt lat="45.72087492822428" lon="8.489821889717472"><ele>339.6</ele><time>2026-04-01T10:52:06Z</time></trkpt><trkpt lat="45.72079366140933" lon="8.489732627989769"><ele>340.0</ele><time>2026-04-01T10:52:07Z</time></trkpt><trkpt lat="45.72071170687473" lon="8.489637286453947"><ele>339.4</ele><time>2026-04-01T10:52:08Z</time></trkpt><trkpt lat="45.72061774276083" lon="8.489537971620578"><ele>338.8</ele><time>2026-04-01T10:52:09Z</time></trkpt><trkpt lat="45.72052992097571" lon="8.489450314028579"><ele>338.20000000000005</ele><time>2026-04-01T10:52:10Z</time></trkpt><trkpt lat="45.72046119531579" lon="8.489379667055237"><ele>337.6</ele><time>2026-04-01T10:52:11Z</time></trkpt><trkpt lat="45.720410766399205" lon="8.489305602536469"><ele>337.0</ele><time>2026-04-01T10:52:12Z</time></trkpt><trkpt lat="45.72037175699357" lon="8.489216389618578"><ele>337.0</ele><time>2026-04-01T10:52:13Z</time></trkpt><trkpt lat="45.72033954261673" lon="8.48913293804236"><ele>337.0</ele><time>2026-04-01T10:52:14Z</time></trkpt><trkpt lat="45.720254866239735" lon="8.489068225553616"><ele>337.0</ele><time>2026-04-01T10:52:16Z</time></trkpt><trkpt lat="45.720155503646865" lon="8.489122136235437"><ele>337.0</ele><time>2026-04-01T10:52:18Z</time></trkpt><trkpt lat="45.720146816278294" lon="8.489263162227289"><ele>337.0</ele><time>2026-04-01T10:52:19Z</time></trkpt><trkpt lat="45.72015272355389" lon="8.489388562220771"><ele>337.0</ele><time>2026-04-01T10:52:20Z</time></trkpt><trkpt lat="45.72013889548568" lon="8.489508709675535"><ele>337.0</ele><time>2026-04-01T10:52:21Z</time></trkpt><trkpt lat="45.720115460485275" lon="8.489656874322588"><ele>337.0</ele><time>2026-04-01T10:52:22Z</time></trkpt><trkpt lat="45.72009422300851" lon="8.489823234191594"><ele>337.0</ele><time>2026-04-01T10:52:23Z</time></trkpt><trkpt lat="45.720077293366884" lon="8.489990348862335"><ele>337.0</ele><time>2026-04-01T10:52:24Z</time></trkpt><trkpt lat="45.72006154987673" lon="8.49017108319526"><ele>337.25</ele><time>2026-04-01T10:52:25Z</time></trkpt><trkpt lat="45.72004252051705" lon="8.490370933711745"><ele>337.5</ele><time>2026-04-01T10:52:26Z</time></trkpt><trkpt lat="45.72001916826838" lon="8.490565872946567"><ele>337.75</ele><time>2026-04-01T10:52:27Z</time></trkpt><trkpt lat="45.71998713743725" lon="8.490769931485993"><ele>338.0</ele><time>2026-04-01T10:52:28Z</time></trkpt><trkpt lat="45.719961871718546" lon="8.490964918945334"><ele>338.25</ele><time>2026-04-01T10:52:29Z</time></trkpt><trkpt lat="45.71993660282707" lon="8.49114522236343"><ele>338.5</ele><time>2026-04-01T10:52:30Z</time></trkpt><trkpt lat="45.71986180413991" lon="8.49130267733508"><ele>338.75</ele><time>2026-04-01T10:52:31Z</time></trkpt><trkpt lat="45.71981079506955" lon="8.491482150309182"><ele>339.0</ele><time>2026-04-01T10:52:32Z</time></trkpt><trkpt lat="45.71975912151245" lon="8.491668521281776"><ele>338.5</ele><time>2026-04-01T10:52:33Z</time></trkpt><trkpt lat="45.719718743063176" lon="8.49185031529552"><ele>338.0</ele><time>2026-04-01T10:52:34Z</time></trkpt><trkpt lat="45.71965447773298" lon="8.492035978151058"><ele>337.5</ele><time>2026-04-01T10:52:35Z</time></trkpt><trkpt lat="45.71962144787766" lon="8.492219940070811"><ele>337.0</ele><time>2026-04-01T10:52:36Z</time></trkpt><trkpt lat="45.71956867940649" lon="8.492413213000246"><ele>336.25</ele><time>2026-04-01T10:52:37Z</time></trkpt><trkpt lat="45.719531729193505" lon="8.492611743356623"><ele>335.5</ele><time>2026-04-01T10:52:38Z</time></trkpt><trkpt lat="45.719506169736874" lon="8.49277932348916"><ele>334.75</ele><time>2026-04-01T10:52:39Z</time></trkpt><trkpt lat="45.719482157129775" lon="8.492957699885109"><ele>334.0</ele><time>2026-04-01T10:52:40Z</time></trkpt><trkpt lat="45.71945795250838" lon="8.493135732238288"><ele>333.75</ele><time>2026-04-01T10:52:41Z</time></trkpt><trkpt lat="45.71943513874011" lon="8.493324611591568"><ele>333.5</ele><time>2026-04-01T10:52:42Z</time></trkpt><trkpt lat="45.71940731467653" lon="8.493512925094443"><ele>333.25</ele><time>2026-04-01T10:52:43Z</time></trkpt><trkpt lat="45.71938685580662" lon="8.493685025158587"><ele>333.0</ele><time>2026-04-01T10:52:44Z</time></trkpt><trkpt lat="45.71937033331929" lon="8.493845934449729"><ele>333.0</ele><time>2026-04-01T10:52:45Z</time></trkpt><trkpt lat="45.719358091803116" lon="8.493997410403864"><ele>333.0</ele><time>2026-04-01T10:52:46Z</time></trkpt><trkpt lat="45.71935170166465" lon="8.494155271787847"><ele>333.0</ele><time>2026-04-01T10:52:47Z</time></trkpt><trkpt lat="45.719331372749146" lon="8.494333664607545"><ele>333.0</ele><time>2026-04-01T10:52:48Z</time></trkpt><trkpt lat="45.719303118946016" lon="8.494511886523183"><ele>334.0</ele><time>2026-04-01T10:52:49Z</time></trkpt><trkpt lat="45.71925914292813" lon="8.494685508002842"><ele>335.0</ele><time>2026-04-01T10:52:50Z</time></trkpt><trkpt lat="45.71920574119497" lon="8.494864342721328"><ele>336.0</ele><time>2026-04-01T10:52:51Z</time></trkpt><trkpt lat="45.719152668388354" lon="8.495017751073586"><ele>337.0</ele><time>2026-04-01T10:52:52Z</time></trkpt><trkpt lat="45.719109917164765" lon="8.495154278041419"><ele>337.0</ele><time>2026-04-01T10:52:53Z</time></trkpt><trkpt lat="45.7190655043039" lon="8.495293334438768"><ele>337.0</ele><time>2026-04-01T10:52:54Z</time></trkpt><trkpt lat="45.719030326176735" lon="8.495386489156132"><ele>337.0</ele><time>2026-04-01T10:52:55Z</time></trkpt><trkpt lat="45.718971180330364" lon="8.495522467900003"><ele>337.0</ele><time>2026-04-01T10:52:57Z</time></trkpt><trkpt lat="45.7190708207578" lon="8.495642072201688"><ele>337.0</ele><time>2026-04-01T10:53:01Z</time></trkpt><trkpt lat="45.7191248783724" lon="8.495583286446287"><ele>337.8</ele><time>2026-04-01T10:53:02Z</time></trkpt><trkpt lat="45.71922241429734" lon="8.495530799975823"><ele>338.6</ele><time>2026-04-01T10:53:04Z</time></trkpt><trkpt lat="45.71933705406748" lon="8.49555117793882"><ele>339.40000000000003</ele><time>2026-04-01T10:53:06Z</time></trkpt><trkpt lat="45.71939837173253" lon="8.495629716610521"><ele>340.20000000000005</ele><time>2026-04-01T10:53:08Z</time></trkpt><trkpt lat="45.7194278941826" lon="8.4957272961165"><ele>341.0</ele><time>2026-04-01T10:54:22Z</time></trkpt><trkpt lat="45.71949020540236" lon="8.495884516151579"><ele>341.5</ele><time>2026-04-01T10:54:24Z</time></trkpt><trkpt lat="45.71951991665669" lon="8.495966391299747"><ele>342.0</ele><time>2026-04-01T10:54:25Z</time></trkpt><trkpt lat="45.71955738822575" lon="8.496059645554539"><ele>342.5</ele><time>2026-04-01T10:54:26Z</time></trkpt><trkpt lat="45.719622049218906" lon="8.49617854159844"><ele>343.0</ele><time>2026-04-01T10:54:27Z</time></trkpt><trkpt lat="45.719652222745076" lon="8.496323884093929"><ele>343.5</ele><time>2026-04-01T10:54:28Z</time></trkpt><trkpt lat="45.7196675847647" lon="8.496460011320004"><ele>344.0</ele><time>2026-04-01T10:54:29Z</time></trkpt><trkpt lat="45.71968795697598" lon="8.496580942178241"><ele>346.2</ele><time>2026-04-01T10:54:30Z</time></trkpt><trkpt lat="45.71970035278275" lon="8.49669935627124"><ele>348.4</ele><time>2026-04-01T10:54:31Z</time></trkpt><trkpt lat="45.71969733478478" lon="8.496821084796332"><ele>350.6</ele><time>2026-04-01T10:54:32Z</time></trkpt><trkpt lat="45.71967950068077" lon="8.496952389453236"><ele>352.8</ele><time>2026-04-01T10:54:33Z</time></trkpt><trkpt lat="45.71964173979372" lon="8.49710852475178"><ele>355.0</ele><time>2026-04-01T10:54:34Z</time></trkpt><trkpt lat="45.71958621948127" lon="8.497222827710331"><ele>355.66666666666663</ele><time>2026-04-01T10:54:35Z</time></trkpt><trkpt lat="45.71954504070104" lon="8.497305980635455"><ele>356.3333333333333</ele><time>2026-04-01T10:54:36Z</time></trkpt><trkpt lat="45.719508751178545" lon="8.49743354858841"><ele>357.0</ele><time>2026-04-01T10:54:37Z</time></trkpt><trkpt lat="45.71949330537002" lon="8.497551248935112"><ele>357.6666666666667</ele><time>2026-04-01T10:54:38Z</time></trkpt><trkpt lat="45.719534649165794" lon="8.497656275459823"><ele>358.33333333333337</ele><time>2026-04-01T10:54:39Z</time></trkpt><trkpt lat="45.71953825409221" lon="8.497752451152577"><ele>359.0</ele><time>2026-04-01T10:54:40Z</time></trkpt><trkpt lat="45.71955091051409" lon="8.497867860331667"><ele>359.0</ele><time>2026-04-01T10:54:41Z</time></trkpt><trkpt lat="45.71957046789392" lon="8.497994634953917"><ele>359.0</ele><time>2026-04-01T10:54:42Z</time></trkpt><trkpt lat="45.719582859047286" lon="8.498118472705277"><ele>359.0</ele><time>2026-04-01T10:54:43Z</time></trkpt><trkpt lat="45.71960268712395" lon="8.498232034944095"><ele>359.0</ele><time>2026-04-01T10:54:44Z</time></trkpt><trkpt lat="45.71963087145158" lon="8.498335928937573"><ele>359.0</ele><time>2026-04-01T10:54:45Z</time></trkpt><trkpt lat="45.71966924118742" lon="8.498419941794"><ele>359.0</ele><time>2026-04-01T10:54:46Z</time></trkpt><trkpt lat="45.71975073702978" lon="8.498535139113248"><ele>359.0</ele><time>2026-04-01T10:54:48Z</time></trkpt><trkpt lat="45.7198038066706" lon="8.498622632624217"><ele>359.0</ele><time>2026-04-01T10:54:49Z</time></trkpt><trkpt lat="45.71986289418731" lon="8.498683096034284"><ele>359.0</ele><time>2026-04-01T10:54:50Z</time></trkpt><trkpt lat="45.71991128534814" lon="8.49876127015909"><ele>359.0</ele><time>2026-04-01T10:54:51Z</time></trkpt><trkpt lat="45.71996716574763" lon="8.498849930909397"><ele>359.0</ele><time>2026-04-01T10:54:52Z</time></trkpt><trkpt lat="45.72001019636821" lon="8.498935905979641"><ele>359.0</ele><time>2026-04-01T10:54:53Z</time></trkpt><trkpt lat="45.72006826612777" lon="8.499033223307466"><ele>360.0</ele><time>2026-04-01T10:54:54Z</time></trkpt><trkpt lat="45.72013244584538" lon="8.499134233346648"><ele>361.0</ele><time>2026-04-01T10:54:55Z</time></trkpt><trkpt lat="45.720164143133914" lon="8.499223854391762"><ele>362.0</ele><time>2026-04-01T10:54:56Z</time></trkpt><trkpt lat="45.72015686171603" lon="8.499393814366876"><ele>363.0</ele><time>2026-04-01T10:54:58Z</time></trkpt><trkpt lat="45.72013185725467" lon="8.499494434089156"><ele>364.0</ele><time>2026-04-01T10:54:59Z</time></trkpt><trkpt lat="45.72009448250669" lon="8.499589487274493"><ele>365.0</ele><time>2026-04-01T10:54:59.999Z</time></trkpt><trkpt lat="45.72007091667292" lon="8.499711228950806"><ele>365.5</ele><time>2026-04-01T10:55:00.999Z</time></trkpt><trkpt lat="45.72003770698457" lon="8.499818114563235"><ele>366.0</ele><time>2026-04-01T10:55:01.999Z</time></trkpt><trkpt lat="45.719998067265244" lon="8.499921123028614"><ele>366.5</ele><time>2026-04-01T10:55:02.999Z</time></trkpt><trkpt lat="45.71995282261284" lon="8.500009467459908"><ele>367.0</ele><time>2026-04-01T10:55:03.999Z</time></trkpt><trkpt lat="45.719891559698134" lon="8.500088573268675"><ele>367.5</ele><time>2026-04-01T10:55:04.999Z</time></trkpt><trkpt lat="45.71984306244734" lon="8.500152426631043"><ele>368.0</ele><time>2026-04-01T10:55:05.999Z</time></trkpt><trkpt lat="45.719782363317954" lon="8.500206434282406"><ele>368.0</ele><time>2026-04-01T10:55:06.999Z</time></trkpt><trkpt lat="45.7197238829731" lon="8.50025442235863"><ele>368.0</ele><time>2026-04-01T10:55:07.999Z</time></trkpt><trkpt lat="45.71967071438767" lon="8.5003134475308"><ele>368.0</ele><time>2026-04-01T10:55:08.999Z</time></trkpt><trkpt lat="45.71961187485307" lon="8.500376632612804"><ele>368.0</ele><time>2026-04-01T10:55:09.999Z</time></trkpt><trkpt lat="45.71954583426208" lon="8.50046221926764"><ele>368.0</ele><time>2026-04-01T10:55:10.999Z</time></trkpt><trkpt lat="45.71949279634301" lon="8.50055420897402"><ele>368.0</ele><time>2026-04-01T10:55:11.999Z</time></trkpt><trkpt lat="45.71944925110187" lon="8.500633601659857"><ele>369.2</ele><time>2026-04-01T10:55:12.999Z</time></trkpt><trkpt lat="45.719409699477154" lon="8.50072298324486"><ele>370.4</ele><time>2026-04-01T10:55:13.999Z</time></trkpt><trkpt lat="45.71935738800553" lon="8.500856406784822"><ele>371.59999999999997</ele><time>2026-04-01T10:55:15.999Z</time></trkpt><trkpt lat="45.71940873297568" lon="8.500916282923239"><ele>372.79999999999995</ele><time>2026-04-01T10:55:17.999Z</time></trkpt><trkpt lat="45.71954916607402" lon="8.500914324975778"><ele>374.0</ele><time>2026-04-01T10:55:20.999Z</time></trkpt><trkpt lat="45.71961209091354" lon="8.50093320470208"><ele>374.0</ele><time>2026-04-01T10:55:21.999Z</time></trkpt><trkpt lat="45.71968245555037" lon="8.5009491264266"><ele>374.0</ele><time>2026-04-01T10:55:22.999Z</time></trkpt><trkpt lat="45.71975652329459" lon="8.500952842488982"><ele>374.0</ele><time>2026-04-01T10:55:23.999Z</time></trkpt><trkpt lat="45.719844543523045" lon="8.50097742866715"><ele>374.0</ele><time>2026-04-01T10:55:24.999Z</time></trkpt><trkpt lat="45.719930991467066" lon="8.500986187087555"><ele>374.0</ele><time>2026-04-01T10:55:25.999Z</time></trkpt><trkpt lat="45.72003713371818" lon="8.500984645054949"><ele>374.0</ele><time>2026-04-01T10:55:26.999Z</time></trkpt><trkpt lat="45.720137093436165" lon="8.50100750759557"><ele>373.25</ele><time>2026-04-01T10:55:27.999Z</time></trkpt><trkpt lat="45.72023379949409" lon="8.50104771304605"><ele>372.5</ele><time>2026-04-01T10:55:28.999Z</time></trkpt><trkpt lat="45.720345631119365" lon="8.50110785179711"><ele>371.75</ele><time>2026-04-01T10:55:29.999Z</time></trkpt><trkpt lat="45.720453082781596" lon="8.501156601711681"><ele>371.0</ele><time>2026-04-01T10:55:30.999Z</time></trkpt><trkpt lat="45.72056677475745" lon="8.501206222594067"><ele>373.0</ele><time>2026-04-01T10:55:31.999Z</time></trkpt><trkpt lat="45.72066359889714" lon="8.501252024978994"><ele>375.0</ele><time>2026-04-01T10:55:32.999Z</time></trkpt><trkpt lat="45.72076439085052" lon="8.501314377053124"><ele>377.0</ele><time>2026-04-01T10:55:33.999Z</time></trkpt><trkpt lat="45.72083958131401" lon="8.501345297706473"><ele>379.0</ele><time>2026-04-01T10:55:34.999Z</time></trkpt><trkpt lat="45.720917840879686" lon="8.501383551612637"><ele>381.0</ele><time>2026-04-01T10:55:35.999Z</time></trkpt><trkpt lat="45.72097580033247" lon="8.50144532682372"><ele>383.0</ele><time>2026-04-01T10:55:36.999Z</time></trkpt><trkpt lat="45.721020459075575" lon="8.501635697393738"><ele>383.0</ele><time>2026-04-01T10:55:38.999Z</time></trkpt><trkpt lat="45.721039942212954" lon="8.501744313381485"><ele>383.0</ele><time>2026-04-01T10:55:39.999Z</time></trkpt><trkpt lat="45.72105357122544" lon="8.501873124992684"><ele>383.0</ele><time>2026-04-01T10:55:40.999Z</time></trkpt><trkpt lat="45.72108485329162" lon="8.501991011080454"><ele>383.0</ele><time>2026-04-01T10:55:41.999Z</time></trkpt><trkpt lat="45.72111300634759" lon="8.502094135196286"><ele>383.0</ele><time>2026-04-01T10:55:42.999Z</time></trkpt><trkpt lat="45.72113375259614" lon="8.502223811898489"><ele>383.0</ele><time>2026-04-01T10:55:43.999Z</time></trkpt><trkpt lat="45.72119310437919" lon="8.502346824096444"><ele>384.25</ele><time>2026-04-01T10:55:45.999Z</time></trkpt><trkpt lat="45.72145090573689" lon="8.502386538989686"><ele>385.5</ele><time>2026-04-01T10:55:54.999Z</time></trkpt><trkpt lat="45.72153249777754" lon="8.502372923238088"><ele>386.75</ele><time>2026-04-01T10:55:55.999Z</time></trkpt><trkpt lat="45.72164015352924" lon="8.502363533795338"><ele>388.0</ele><time>2026-04-01T10:55:57.999Z</time></trkpt><trkpt lat="45.7217034723278" lon="8.50235442142105"><ele>388.00000000000006</ele><time>2026-04-01T10:55:58.999Z</time></trkpt><trkpt lat="45.72176730315598" lon="8.502351428969916"><ele>388.0</ele><time>2026-04-01T10:55:59.999Z</time></trkpt><trkpt lat="45.72188204499147" lon="8.50230390025987"><ele>388.0</ele><time>2026-04-01T10:56:01.999Z</time></trkpt><trkpt lat="45.72195472956703" lon="8.502309682485611"><ele>388.0</ele><time>2026-04-01T10:56:02.999Z</time></trkpt><trkpt lat="45.72203036365733" lon="8.502302261057928"><ele>388.00000000000006</ele><time>2026-04-01T10:56:04Z</time></trkpt><trkpt lat="45.72209679212501" lon="8.50230567961385"><ele>388.0</ele><time>2026-04-01T10:56:05Z</time></trkpt><trkpt lat="45.72222144602674" lon="8.502303026491697"><ele>388.2</ele><time>2026-04-01T10:56:07Z</time></trkpt><trkpt lat="45.72232987508284" lon="8.50228501061075"><ele>388.4</ele><time>2026-04-01T10:56:09Z</time></trkpt><trkpt lat="45.72244720143201" lon="8.502291115070058"><ele>388.59999999999997</ele><time>2026-04-01T10:56:11Z</time></trkpt><trkpt lat="45.722549222116825" lon="8.502286972509994"><ele>388.79999999999995</ele><time>2026-04-01T10:56:13Z</time></trkpt><trkpt lat="45.72263728941125" lon="8.502290893902348"><ele>389.0</ele><time>2026-04-01T10:56:15Z</time></trkpt><trkpt lat="45.72279039896818" lon="8.502286835915493"><ele>389.0</ele><time>2026-04-01T10:56:19Z</time></trkpt><trkpt lat="45.72292417633393" lon="8.502312231064817"><ele>389.0</ele><time>2026-04-01T10:56:22Z</time></trkpt><trkpt lat="45.722996870076436" lon="8.502359487476255"><ele>389.0</ele><time>2026-04-01T10:56:25Z</time></trkpt><trkpt lat="45.72309975604065" lon="8.502413320175728"><ele>389.0</ele><time>2026-04-01T10:56:28Z</time></trkpt><trkpt lat="45.723155064444136" lon="8.502460897286099"><ele>389.0</ele><time>2026-04-01T10:56:29Z</time></trkpt><trkpt lat="45.723214142305" lon="8.50249746880938"><ele>389.0</ele><time>2026-04-01T10:56:30Z</time></trkpt><trkpt lat="45.72327316723451" lon="8.502530692629941"><ele>389.0</ele><time>2026-04-01T10:56:31Z</time></trkpt><trkpt lat="45.72338635263095" lon="8.502577967068929"><ele>389.0</ele><time>2026-04-01T10:56:33Z</time></trkpt><trkpt lat="45.723482891451404" lon="8.502614457315891"><ele>389.0</ele><time>2026-04-01T10:56:35Z</time></trkpt><trkpt lat="45.723562195645954" lon="8.50269146498638"><ele>389.0</ele><time>2026-04-01T10:56:37Z</time></trkpt><trkpt lat="45.72365862859942" lon="8.50273058257638"><ele>389.4</ele><time>2026-04-01T10:56:39Z</time></trkpt><trkpt lat="45.723743176066534" lon="8.502764399385034"><ele>389.79999999999995</ele><time>2026-04-01T10:56:41Z</time></trkpt><trkpt lat="45.72384622607501" lon="8.502809581391418"><ele>390.20000000000005</ele><time>2026-04-01T10:56:44Z</time></trkpt><trkpt lat="45.723954086164895" lon="8.50284411315606"><ele>390.6</ele><time>2026-04-01T10:56:46Z</time></trkpt><trkpt lat="45.72404634403653" lon="8.502884848270284"><ele>391.0</ele><time>2026-04-01T10:56:48Z</time></trkpt><trkpt lat="45.724111376133436" lon="8.50293016946612"><ele>391.00000000000006</ele><time>2026-04-01T10:56:49Z</time></trkpt><trkpt lat="45.72418501315379" lon="8.502969997004728"><ele>391.0</ele><time>2026-04-01T10:56:50Z</time></trkpt><trkpt lat="45.72425065640291" lon="8.503023817039375"><ele>391.0</ele><time>2026-04-01T10:56:51Z</time></trkpt><trkpt lat="45.724337605333" lon="8.503068537531187"><ele>391.0</ele><time>2026-04-01T10:56:53Z</time></trkpt><trkpt lat="45.724407614309676" lon="8.503146781761531"><ele>391.00000000000006</ele><time>2026-04-01T10:56:55Z</time></trkpt><trkpt lat="45.724459305043034" lon="8.503258261379345"><ele>391.0</ele><time>2026-04-01T10:56:57Z</time></trkpt><trkpt lat="45.72451521281662" lon="8.50335775692111"><ele>391.33333333333337</ele><time>2026-04-01T10:56:58.999Z</time></trkpt><trkpt lat="45.72458279118626" lon="8.503369540188038"><ele>391.6666666666667</ele><time>2026-04-01T10:57:02.999Z</time></trkpt><trkpt lat="45.72464743107733" lon="8.503427525703547"><ele>392.0</ele><time>2026-04-01T10:57:08.999Z</time></trkpt><trkpt lat="45.724669988394155" lon="8.50352303020269"><ele>392.33333333333337</ele><time>2026-04-01T10:57:11.999Z</time></trkpt><trkpt lat="45.7247256073451" lon="8.503647458783782"><ele>392.6666666666667</ele><time>2026-04-01T10:57:13.999Z</time></trkpt><trkpt lat="45.72475008944241" lon="8.503751097526745"><ele>393.0</ele><time>2026-04-01T10:57:14.999Z</time></trkpt><trkpt lat="45.724751449028" lon="8.50389764673639"><ele>393.0</ele><time>2026-04-01T10:57:15.999Z</time></trkpt><trkpt lat="45.724776136041825" lon="8.50405648408786"><ele>393.0</ele><time>2026-04-01T10:57:17.999Z</time></trkpt><trkpt lat="45.72478158716719" lon="8.504162639270593"><ele>393.0</ele><time>2026-04-01T10:57:18.999Z</time></trkpt><trkpt lat="45.724753908221295" lon="8.504346854624142"><ele>393.0</ele><time>2026-04-01T10:57:20.999Z</time></trkpt><trkpt lat="45.72472995454166" lon="8.50445080651326"><ele>393.0</ele><time>2026-04-01T10:57:21.999Z</time></trkpt><trkpt lat="45.72468338800073" lon="8.504604990377535"><ele>393.6666666666667</ele><time>2026-04-01T10:57:23.999Z</time></trkpt><trkpt lat="45.72463377584868" lon="8.504739948406078"><ele>394.33333333333337</ele><time>2026-04-01T10:57:25.999Z</time></trkpt><trkpt lat="45.72463027904509" lon="8.50487668199897"><ele>395.0</ele><time>2026-04-01T10:57:27.999Z</time></trkpt><trkpt lat="45.72461462193828" lon="8.504978681152"><ele>395.6666666666667</ele><time>2026-04-01T10:57:28.999Z</time></trkpt><trkpt lat="45.7246232057655" lon="8.505076743394536"><ele>396.33333333333337</ele><time>2026-04-01T10:57:29.999Z</time></trkpt><trkpt lat="45.72461988413272" lon="8.505176682384555"><ele>397.0</ele><time>2026-04-01T10:57:30.999Z</time></trkpt><trkpt lat="45.72463681308589" lon="8.505354813264583"><ele>398.20000000000005</ele><time>2026-04-01T10:57:32.999Z</time></trkpt><trkpt lat="45.72463161058209" lon="8.505492008774945"><ele>399.4</ele><time>2026-04-01T10:57:34.999Z</time></trkpt><trkpt lat="45.724654849685294" lon="8.505646033017957"><ele>400.6</ele><time>2026-04-01T10:57:36.999Z</time></trkpt><trkpt lat="45.72465537856589" lon="8.505760492441814"><ele>401.79999999999995</ele><time>2026-04-01T10:57:37.999Z</time></trkpt><trkpt lat="45.724651780698956" lon="8.505898914197216"><ele>403.0</ele><time>2026-04-01T10:57:39.999Z</time></trkpt><trkpt lat="45.724647668893105" lon="8.506089584536538"><ele>403.50000000000006</ele><time>2026-04-01T10:57:41.999Z</time></trkpt><trkpt lat="45.724646168645364" lon="8.506252382377816"><ele>404.0</ele><time>2026-04-01T10:57:43.999Z</time></trkpt><trkpt lat="45.724651131878325" lon="8.506343998437806"><ele>404.5</ele><time>2026-04-01T10:57:45.999Z</time></trkpt><trkpt lat="45.72463414353077" lon="8.506463587299397"><ele>405.0</ele><time>2026-04-01T10:57:48.999Z</time></trkpt><trkpt lat="45.724638316506415" lon="8.506608005639489"><ele>405.50000000000006</ele><time>2026-04-01T10:57:51.999Z</time></trkpt><trkpt lat="45.72461016570326" lon="8.506691684366492"><ele>406.0</ele><time>2026-04-01T10:57:52.999Z</time></trkpt><trkpt lat="45.72458589826472" lon="8.506831070274412"><ele>405.6</ele><time>2026-04-01T10:57:54.999Z</time></trkpt><trkpt lat="45.72461215461665" lon="8.507086824973056"><ele>405.20000000000005</ele><time>2026-04-01T10:58:11Z</time></trkpt><trkpt lat="45.72459401973011" lon="8.507183166856459"><ele>404.79999999999995</ele><time>2026-04-01T11:01:38.999Z</time></trkpt><trkpt lat="45.724530802102" lon="8.507253492705914"><ele>404.4</ele><time>2026-04-01T11:01:41.999Z</time></trkpt><trkpt lat="45.724456243052835" lon="8.507281214261745"><ele>404.0</ele><time>2026-04-01T11:01:43.999Z</time></trkpt><trkpt lat="45.72437969493812" lon="8.507396595410198"><ele>403.99999999999994</ele><time>2026-04-01T11:01:45.999Z</time></trkpt><trkpt lat="45.72429300302429" lon="8.507509719575937"><ele>404.0</ele><time>2026-04-01T11:01:47.999Z</time></trkpt><trkpt lat="45.72424716259011" lon="8.507593121182868"><ele>404.0</ele><time>2026-04-01T11:01:48.999Z</time></trkpt><trkpt lat="45.72419075111103" lon="8.507676424962504"><ele>404.0</ele><time>2026-04-01T11:01:49.999Z</time></trkpt><trkpt lat="45.724140077706714" lon="8.50776920056532"><ele>403.99999999999994</ele><time>2026-04-01T11:01:50.999Z</time></trkpt><trkpt lat="45.7240832580911" lon="8.507834348168089"><ele>404.0</ele><time>2026-04-01T11:01:51.999Z</time></trkpt><trkpt lat="45.724004348346945" lon="8.507902934860882"><ele>403.16666666666663</ele><time>2026-04-01T11:01:52.999Z</time></trkpt><trkpt lat="45.723955565148415" lon="8.507972655931075"><ele>402.3333333333333</ele><time>2026-04-01T11:01:53.999Z</time></trkpt><trkpt lat="45.723887734909326" lon="8.508046301578249"><ele>401.5</ele><time>2026-04-01T11:01:54.999Z</time></trkpt><trkpt lat="45.72382491286942" lon="8.508108479853066"><ele>400.66666666666663</ele><time>2026-04-01T11:01:55.999Z</time></trkpt><trkpt lat="45.72376560970601" lon="8.508171857568803"><ele>399.8333333333333</ele><time>2026-04-01T11:01:56.999Z</time></trkpt><trkpt lat="45.72370449798912" lon="8.508220499217408"><ele>399.0</ele><time>2026-04-01T11:01:57.999Z</time></trkpt><trkpt lat="45.723626994224375" lon="8.508256551821013"><ele>399.8333333333333</ele><time>2026-04-01T11:01:58.999Z</time></trkpt><trkpt lat="45.72351021709193" lon="8.508306064521811"><ele>400.66666666666663</ele><time>2026-04-01T11:02:00.999Z</time></trkpt><trkpt lat="45.72345264606437" lon="8.508349965723257"><ele>401.5</ele><time>2026-04-01T11:02:01.999Z</time></trkpt><trkpt lat="45.723401356975906" lon="8.508408644135583"><ele>402.3333333333333</ele><time>2026-04-01T11:02:02.999Z</time></trkpt><trkpt lat="45.723342288694354" lon="8.508516278118694"><ele>403.16666666666663</ele><time>2026-04-01T11:02:04.999Z</time></trkpt><trkpt lat="45.723279771294195" lon="8.508558666834077"><ele>404.0</ele><time>2026-04-01T11:02:05.999Z</time></trkpt><trkpt lat="45.72316176003971" lon="8.508609168920566"><ele>403.99999999999994</ele><time>2026-04-01T11:02:07.999Z</time></trkpt><trkpt lat="45.723086490889344" lon="8.508687548378695"><ele>404.0</ele><time>2026-04-01T11:02:09.999Z</time></trkpt><trkpt lat="45.72302623440674" lon="8.50872604470296"><ele>404.0</ele><time>2026-04-01T11:02:10.999Z</time></trkpt><trkpt lat="45.72296010530489" lon="8.508755559144838"><ele>404.0</ele><time>2026-04-01T11:02:11.999Z</time></trkpt><trkpt lat="45.72284838946282" lon="8.508842765051249"><ele>403.99999999999994</ele><time>2026-04-01T11:02:13.999Z</time></trkpt><trkpt lat="45.72277655721634" lon="8.508884977259285"><ele>404.0</ele><time>2026-04-01T11:02:14.999Z</time></trkpt><trkpt lat="45.72269709680326" lon="8.508927957517228"><ele>403.4</ele><time>2026-04-01T11:02:16.999Z</time></trkpt><trkpt lat="45.722639604431535" lon="8.50901650206347"><ele>402.79999999999995</ele><time>2026-04-01T11:02:19.999Z</time></trkpt><trkpt lat="45.722540043831195" lon="8.509059460905604"><ele>402.20000000000005</ele><time>2026-04-01T11:02:22.001Z</time></trkpt><trkpt lat="45.72247026573345" lon="8.50907767754387"><ele>401.6</ele><time>2026-04-01T11:02:24Z</time></trkpt><trkpt lat="45.72236703821974" lon="8.509127443584049"><ele>401.0</ele><time>2026-04-01T11:02:26Z</time></trkpt><trkpt lat="45.72224242527641" lon="8.509174172113035"><ele>400.99999999999994</ele><time>2026-04-01T11:02:28.001Z</time></trkpt><trkpt lat="45.72215887713397" lon="8.509205568342727"><ele>401.0</ele><time>2026-04-01T11:02:29.001Z</time></trkpt><trkpt lat="45.722071347367255" lon="8.509240211710384"><ele>401.0</ele><time>2026-04-01T11:02:30Z</time></trkpt><trkpt lat="45.72198905633186" lon="8.509288892995887"><ele>401.0</ele><time>2026-04-01T11:02:31Z</time></trkpt><trkpt lat="45.721902793925636" lon="8.509332524590183"><ele>400.99999999999994</ele><time>2026-04-01T11:02:32Z</time></trkpt><trkpt lat="45.72182010599063" lon="8.509370364644857"><ele>401.0</ele><time>2026-04-01T11:02:33Z</time></trkpt><trkpt lat="45.721741176596" lon="8.50940912059604"><ele>401.3333333333333</ele><time>2026-04-01T11:02:34Z</time></trkpt><trkpt lat="45.72167924434903" lon="8.509447686247162"><ele>401.66666666666663</ele><time>2026-04-01T11:02:35Z</time></trkpt><trkpt lat="45.72160713590223" lon="8.509473907942112"><ele>402.0</ele><time>2026-04-01T11:02:36Z</time></trkpt><trkpt lat="45.72150419492928" lon="8.509541962095994"><ele>402.33333333333337</ele><time>2026-04-01T11:02:38Z</time></trkpt><trkpt lat="45.721436370594326" lon="8.509572081389523"><ele>402.6666666666667</ele><time>2026-04-01T11:02:39Z</time></trkpt><trkpt lat="45.7213709042418" lon="8.50959221960649"><ele>403.0</ele><time>2026-04-01T11:02:40Z</time></trkpt><trkpt lat="45.72130479777508" lon="8.509603661179213"><ele>402.2</ele><time>2026-04-01T11:02:41Z</time></trkpt><trkpt lat="45.72122693688219" lon="8.509604483978654"><ele>401.4</ele><time>2026-04-01T11:02:43Z</time></trkpt><trkpt lat="45.72111938615324" lon="8.509587742208813"><ele>400.59999999999997</ele><time>2026-04-01T11:02:45Z</time></trkpt><trkpt lat="45.7210211112164" lon="8.50957074757038"><ele>399.79999999999995</ele><time>2026-04-01T11:02:46Z</time></trkpt><trkpt lat="45.720924200500434" lon="8.509563230032489"><ele>399.0</ele><time>2026-04-01T11:02:47Z</time></trkpt><trkpt lat="45.72084030059734" lon="8.50955114339155"><ele>399.0</ele><time>2026-04-01T11:02:48Z</time></trkpt><trkpt lat="45.7207672276461" lon="8.50954641989372"><ele>399.0</ele><time>2026-04-01T11:02:49Z</time></trkpt><trkpt lat="45.720671817160905" lon="8.509547543241867"><ele>399.0</ele><time>2026-04-01T11:02:51Z</time></trkpt><trkpt lat="45.72060750221573" lon="8.509567429102583"><ele>399.0</ele><time>2026-04-01T11:02:52Z</time></trkpt><trkpt lat="45.72052617904487" lon="8.509598448893895"><ele>399.0</ele><time>2026-04-01T11:02:53Z</time></trkpt><trkpt lat="45.720406269215594" lon="8.509617689153139"><ele>399.0</ele><time>2026-04-01T11:02:55Z</time></trkpt><trkpt lat="45.72033494437417" lon="8.509606131306747"><ele>399.1666666666667</ele><time>2026-04-01T11:02:56Z</time></trkpt><trkpt lat="45.720256216947114" lon="8.509577570101856"><ele>399.33333333333337</ele><time>2026-04-01T11:02:57Z</time></trkpt><trkpt lat="45.72018882778095" lon="8.509559469806108"><ele>399.5</ele><time>2026-04-01T11:02:58Z</time></trkpt><trkpt lat="45.720121794237045" lon="8.509536926312265"><ele>399.6666666666667</ele><time>2026-04-01T11:02:59Z</time></trkpt><trkpt lat="45.72004993939355" lon="8.509521855492991"><ele>399.83333333333337</ele><time>2026-04-01T11:03:00Z</time></trkpt><trkpt lat="45.7199214847941" lon="8.509499049084548"><ele>400.0</ele><time>2026-04-01T11:03:02Z</time></trkpt><trkpt lat="45.719854000666025" lon="8.509491084994057"><ele>400.14285714285717</ele><time>2026-04-01T11:03:03Z</time></trkpt><trkpt lat="45.7197880638097" lon="8.509504796488923"><ele>400.2857142857143</ele><time>2026-04-01T11:03:04Z</time></trkpt><trkpt lat="45.719710208004486" lon="8.509527665180544"><ele>400.42857142857144</ele><time>2026-04-01T11:03:05Z</time></trkpt><trkpt lat="45.71964438152806" lon="8.50955137214519"><ele>400.57142857142856</ele><time>2026-04-01T11:03:06Z</time></trkpt><trkpt lat="45.71957478223979" lon="8.509552936545962"><ele>400.7142857142857</ele><time>2026-04-01T11:03:07Z</time></trkpt><trkpt lat="45.719496540118655" lon="8.509555388636922"><ele>400.8571428571429</ele><time>2026-04-01T11:03:08Z</time></trkpt><trkpt lat="45.719430557357626" lon="8.509551637804373"><ele>401.0</ele><time>2026-04-01T11:03:09Z</time></trkpt><trkpt lat="45.71936081632714" lon="8.509551959355566"><ele>400.99999999999994</ele><time>2026-04-01T11:03:10Z</time></trkpt><trkpt lat="45.71929084037171" lon="8.509563232838584"><ele>401.0</ele><time>2026-04-01T11:03:11Z</time></trkpt><trkpt lat="45.7192091781317" lon="8.509571631392083"><ele>401.0</ele><time>2026-04-01T11:03:12Z</time></trkpt><trkpt lat="45.719117100641824" lon="8.509575209065476"><ele>401.0</ele><time>2026-04-01T11:03:13Z</time></trkpt><trkpt lat="45.71903095775348" lon="8.509577692769941"><ele>400.99999999999994</ele><time>2026-04-01T11:03:14Z</time></trkpt><trkpt lat="45.71893836594299" lon="8.509570255184897"><ele>401.0</ele><time>2026-04-01T11:03:15Z</time></trkpt><trkpt lat="45.718846973719295" lon="8.509551312962182"><ele>400.99999999999994</ele><time>2026-04-01T11:03:16Z</time></trkpt><trkpt lat="45.718772404798585" lon="8.509537267516905"><ele>401.0</ele><time>2026-04-01T11:03:17Z</time></trkpt><trkpt lat="45.71870383960856" lon="8.509529960167766"><ele>401.0</ele><time>2026-04-01T11:03:18Z</time></trkpt><trkpt lat="45.71862074673636" lon="8.509514864036973"><ele>401.0</ele><time>2026-04-01T11:03:20Z</time></trkpt><trkpt lat="45.71850229316249" lon="8.509528463281006"><ele>400.99999999999994</ele><time>2026-04-01T11:03:22Z</time></trkpt><trkpt lat="45.71842949610156" lon="8.509518217138611"><ele>401.0</ele><time>2026-04-01T11:03:23Z</time></trkpt><trkpt lat="45.71834267747478" lon="8.509490524004319"><ele>400.2857142857143</ele><time>2026-04-01T11:03:24Z</time></trkpt><trkpt lat="45.71828048069716" lon="8.50945675400164"><ele>399.57142857142856</ele><time>2026-04-01T11:03:25Z</time></trkpt><trkpt lat="45.71821618590366" lon="8.509429286542975"><ele>398.8571428571429</ele><time>2026-04-01T11:03:26Z</time></trkpt><trkpt lat="45.718144725072925" lon="8.50938745118183"><ele>398.1428571428571</ele><time>2026-04-01T11:03:27Z</time></trkpt><trkpt lat="45.718087819422365" lon="8.509348311181185"><ele>397.4285714285714</ele><time>2026-04-01T11:03:28Z</time></trkpt><trkpt lat="45.718022526535854" lon="8.50930049611876"><ele>396.7142857142857</ele><time>2026-04-01T11:03:29.999Z</time></trkpt><trkpt lat="45.717963811189996" lon="8.509258153282905"><ele>396.0</ele><time>2026-04-01T11:03:30.999Z</time></trkpt><trkpt lat="45.71789626986147" lon="8.509179916884378"><ele>396.0</ele><time>2026-04-01T11:03:31.999Z</time></trkpt><trkpt lat="45.71783084054675" lon="8.509112795293422"><ele>396.0</ele><time>2026-04-01T11:03:32.999Z</time></trkpt><trkpt lat="45.717765979807496" lon="8.509034808885373"><ele>396.0</ele><time>2026-04-01T11:03:33.999Z</time></trkpt><trkpt lat="45.717684595769285" lon="8.50892482172216"><ele>396.0</ele><time>2026-04-01T11:03:34.999Z</time></trkpt><trkpt lat="45.717597451040206" lon="8.508842130696804"><ele>396.0</ele><time>2026-04-01T11:03:35.999Z</time></trkpt><trkpt lat="45.71747966363104" lon="8.508775199745102"><ele>393.5</ele><time>2026-04-01T11:03:36.999Z</time></trkpt><trkpt lat="45.71737904384258" lon="8.508699688602023"><ele>391.0</ele><time>2026-04-01T11:03:37.999Z</time></trkpt><trkpt lat="45.717267353068365" lon="8.50862476583221"><ele>388.5</ele><time>2026-04-01T11:03:38.999Z</time></trkpt><trkpt lat="45.71715565770665" lon="8.50854048885901"><ele>386.0</ele><time>2026-04-01T11:03:39.999Z</time></trkpt><trkpt lat="45.71706650667434" lon="8.508460495712175"><ele>386.0</ele><time>2026-04-01T11:03:40.999Z</time></trkpt><trkpt lat="45.71697386274944" lon="8.508367389886013"><ele>386.0</ele><time>2026-04-01T11:03:41.999Z</time></trkpt><trkpt lat="45.7168952495449" lon="8.508275856132085"><ele>386.0</ele><time>2026-04-01T11:03:42.999Z</time></trkpt><trkpt lat="45.71683119700884" lon="8.508186391942383"><ele>386.0</ele><time>2026-04-01T11:03:43.999Z</time></trkpt><trkpt lat="45.71677145109624" lon="8.50808661240924"><ele>386.0</ele><time>2026-04-01T11:03:44.999Z</time></trkpt><trkpt lat="45.71671150127169" lon="8.507989515319275"><ele>386.5</ele><time>2026-04-01T11:03:45.999Z</time></trkpt><trkpt lat="45.71665977939568" lon="8.50785604680826"><ele>387.0</ele><time>2026-04-01T11:03:46.999Z</time></trkpt><trkpt lat="45.7166097648383" lon="8.507722885740447"><ele>387.5</ele><time>2026-04-01T11:03:47.999Z</time></trkpt><trkpt lat="45.71655839889128" lon="8.50756584073328"><ele>388.0</ele><time>2026-04-01T11:03:48.999Z</time></trkpt><trkpt lat="45.71648719346" lon="8.507409137066464"><ele>388.0</ele><time>2026-04-01T11:03:49.999Z</time></trkpt><trkpt lat="45.716417067712285" lon="8.507257224182572"><ele>388.0</ele><time>2026-04-01T11:03:50.999Z</time></trkpt><trkpt lat="45.716354792241816" lon="8.507121104966675"><ele>388.0</ele><time>2026-04-01T11:03:51.999Z</time></trkpt><trkpt lat="45.71628748263253" lon="8.506992632286599"><ele>388.0</ele><time>2026-04-01T11:03:52.999Z</time></trkpt><trkpt lat="45.71620390347563" lon="8.506876487881277"><ele>387.0</ele><time>2026-04-01T11:03:53.999Z</time></trkpt><trkpt lat="45.71609776418654" lon="8.506764905198157"><ele>386.0</ele><time>2026-04-01T11:03:54.999Z</time></trkpt><trkpt lat="45.71599138553669" lon="8.506679067652977"><ele>385.0</ele><time>2026-04-01T11:03:55.999Z</time></trkpt><trkpt lat="45.71588434854399" lon="8.506589325187877"><ele>384.0</ele><time>2026-04-01T11:03:56.999Z</time></trkpt><trkpt lat="45.71579529299658" lon="8.50647527071035"><ele>384.0</ele><time>2026-04-01T11:03:57.999Z</time></trkpt><trkpt lat="45.715709149070534" lon="8.506394777908705"><ele>384.0</ele><time>2026-04-01T11:03:58.999Z</time></trkpt><trkpt lat="45.715631396367606" lon="8.506306444730068"><ele>384.0</ele><time>2026-04-01T11:03:59.999Z</time></trkpt><trkpt lat="45.7155667440623" lon="8.506202265810563"><ele>384.0</ele><time>2026-04-01T11:04:00.999Z</time></trkpt><trkpt lat="45.715508068865134" lon="8.506079878796928"><ele>384.0</ele><time>2026-04-01T11:04:01.999Z</time></trkpt><trkpt lat="45.715453368153305" lon="8.505936472692543"><ele>382.4</ele><time>2026-04-01T11:04:02.999Z</time></trkpt><trkpt lat="45.715410619749235" lon="8.50580237114053"><ele>380.79999999999995</ele><time>2026-04-01T11:04:03.999Z</time></trkpt><trkpt lat="45.71537021338" lon="8.505675292538717"><ele>379.20000000000005</ele><time>2026-04-01T11:04:04.999Z</time></trkpt><trkpt lat="45.715332443130265" lon="8.50556764439686"><ele>377.6</ele><time>2026-04-01T11:04:05.999Z</time></trkpt><trkpt lat="45.71528099299361" lon="8.505461478959951"><ele>376.0</ele><time>2026-04-01T11:04:06.999Z</time></trkpt><trkpt lat="45.715246971495354" lon="8.505346661890105"><ele>377.4</ele><time>2026-04-01T11:04:07.999Z</time></trkpt><trkpt lat="45.7151992736301" lon="8.505224217657034"><ele>378.8</ele><time>2026-04-01T11:04:08.999Z</time></trkpt><trkpt lat="45.71515581020385" lon="8.505084782111362"><ele>380.2</ele><time>2026-04-01T11:04:09.999Z</time></trkpt><trkpt lat="45.71508801134715" lon="8.504948676922776"><ele>381.59999999999997</ele><time>2026-04-01T11:04:10.999Z</time></trkpt><trkpt lat="45.71502545240134" lon="8.504814786032242"><ele>383.0</ele><time>2026-04-01T11:04:11.999Z</time></trkpt><trkpt lat="45.714962743441475" lon="8.504659796903084"><ele>381.75</ele><time>2026-04-01T11:04:12.999Z</time></trkpt><trkpt lat="45.714910106259346" lon="8.504509889604712"><ele>380.5</ele><time>2026-04-01T11:04:13.999Z</time></trkpt><trkpt lat="45.714855773943576" lon="8.504349467628398"><ele>379.25</ele><time>2026-04-01T11:04:14.999Z</time></trkpt><trkpt lat="45.71480048301112" lon="8.504193586262794"><ele>378.0</ele><time>2026-04-01T11:04:15.999Z</time></trkpt><trkpt lat="45.71475014926727" lon="8.504047041684219"><ele>378.0</ele><time>2026-04-01T11:04:16.999Z</time></trkpt><trkpt lat="45.714674835801965" lon="8.503957800817064"><ele>378.0</ele><time>2026-04-01T11:04:17.999Z</time></trkpt><trkpt lat="45.71461390382537" lon="8.503869747097436"><ele>378.0</ele><time>2026-04-01T11:04:18.999Z</time></trkpt><trkpt lat="45.71453790509716" lon="8.50380591543094"><ele>378.0</ele><time>2026-04-01T11:04:19.999Z</time></trkpt><trkpt lat="45.71446566574553" lon="8.50377298719812"><ele>378.0</ele><time>2026-04-01T11:04:20.999Z</time></trkpt><trkpt lat="45.714383279041165" lon="8.503760441650945"><ele>378.0</ele><time>2026-04-01T11:04:21.999Z</time></trkpt><trkpt lat="45.714302552837076" lon="8.503836752204904"><ele>378.0</ele><time>2026-04-01T11:04:23.999Z</time></trkpt><trkpt lat="45.71420562032988" lon="8.503952922267162"><ele>378.0</ele><time>2026-04-01T11:04:26.999Z</time></trkpt><trkpt lat="45.71415282019103" lon="8.504022970374079"><ele>378.0</ele><time>2026-04-01T11:04:28Z</time></trkpt><trkpt lat="45.71408004786731" lon="8.504091814016876"><ele>378.0</ele><time>2026-04-01T11:04:29Z</time></trkpt><trkpt lat="45.71398509243101" lon="8.504163500721614"><ele>378.0</ele><time>2026-04-01T11:04:30Z</time></trkpt><trkpt lat="45.713877448037614" lon="8.504251285379388"><ele>378.0</ele><time>2026-04-01T11:04:31Z</time></trkpt><trkpt lat="45.7137678273754" lon="8.504349176327372"><ele>378.0</ele><time>2026-04-01T11:04:32Z</time></trkpt><trkpt lat="45.71366591689875" lon="8.50444851573409"><ele>378.0</ele><time>2026-04-01T11:04:33Z</time></trkpt><trkpt lat="45.71356437329862" lon="8.504543605032062"><ele>378.0</ele><time>2026-04-01T11:04:34Z</time></trkpt><trkpt lat="45.713458205177886" lon="8.504636993092562"><ele>378.5</ele><time>2026-04-01T11:04:35Z</time></trkpt><trkpt lat="45.71333589856976" lon="8.50474655748499"><ele>379.0</ele><time>2026-04-01T11:04:36Z</time></trkpt><trkpt lat="45.7132294250645" lon="8.50486204257164"><ele>379.5</ele><time>2026-04-01T11:04:37Z</time></trkpt><trkpt lat="45.71310994078444" lon="8.504954217323544"><ele>380.0</ele><time>2026-04-01T11:04:38Z</time></trkpt><trkpt lat="45.71299096422022" lon="8.505060334428364"><ele>380.0</ele><time>2026-04-01T11:04:39Z</time></trkpt><trkpt lat="45.712882628000465" lon="8.505156909324786"><ele>380.0</ele><time>2026-04-01T11:04:40Z</time></trkpt><trkpt lat="45.71275856148604" lon="8.505252359857131"><ele>380.0</ele><time>2026-04-01T11:04:41Z</time></trkpt><trkpt lat="45.712647469647024" lon="8.505352557676817"><ele>380.0</ele><time>2026-04-01T11:04:42Z</time></trkpt><trkpt lat="45.71252017285913" lon="8.505435940546421"><ele>380.5</ele><time>2026-04-01T11:04:43Z</time></trkpt><trkpt lat="45.712386086713394" lon="8.505527388496015"><ele>381.0</ele><time>2026-04-01T11:04:44Z</time></trkpt><trkpt lat="45.71225403773085" lon="8.505618354220271"><ele>381.5</ele><time>2026-04-01T11:04:45Z</time></trkpt><trkpt lat="45.712125462529706" lon="8.50571503892845"><ele>382.0</ele><time>2026-04-01T11:04:46Z</time></trkpt><trkpt lat="45.71200896506472" lon="8.50580470248245"><ele>380.25</ele><time>2026-04-01T11:04:47Z</time></trkpt><trkpt lat="45.71188727501583" lon="8.505896293342483"><ele>378.5</ele><time>2026-04-01T11:04:48Z</time></trkpt><trkpt lat="45.71174700641634" lon="8.505960325770282"><ele>376.75</ele><time>2026-04-01T11:04:49Z</time></trkpt><trkpt lat="45.71163831519658" lon="8.50609042193604"><ele>375.0</ele><time>2026-04-01T11:04:50Z</time></trkpt><trkpt lat="45.71153048899151" lon="8.506203112900167"><ele>376.75</ele><time>2026-04-01T11:04:51Z</time></trkpt><trkpt lat="45.711412102470355" lon="8.506301410499823"><ele>378.5</ele><time>2026-04-01T11:04:52Z</time></trkpt><trkpt lat="45.71129472305596" lon="8.50639279966628"><ele>380.25</ele><time>2026-04-01T11:04:53Z</time></trkpt><trkpt lat="45.71117831840662" lon="8.506483429916338"><ele>382.0</ele><time>2026-04-01T11:04:54Z</time></trkpt><trkpt lat="45.71108433762551" lon="8.506554351272465"><ele>381.0</ele><time>2026-04-01T11:04:55Z</time></trkpt><trkpt lat="45.71099193613173" lon="8.506622551109583"><ele>380.0</ele><time>2026-04-01T11:04:56Z</time></trkpt><trkpt lat="45.71089729417202" lon="8.506682687835124"><ele>379.0</ele><time>2026-04-01T11:04:57Z</time></trkpt><trkpt lat="45.7108108706586" lon="8.506728233688403"><ele>378.0</ele><time>2026-04-01T11:04:58Z</time></trkpt><trkpt lat="45.71071572012416" lon="8.50676415975354"><ele>377.0</ele><time>2026-04-01T11:04:59Z</time></trkpt><trkpt lat="45.71064238377621" lon="8.506845762327425"><ele>377.0</ele><time>2026-04-01T11:05:00Z</time></trkpt><trkpt lat="45.71058998192531" lon="8.50692162223194"><ele>377.0</ele><time>2026-04-01T11:05:01Z</time></trkpt><trkpt lat="45.710545275581524" lon="8.50702090383132"><ele>377.0</ele><time>2026-04-01T11:05:02Z</time></trkpt><trkpt lat="45.71049649283713" lon="8.50711647477763"><ele>377.0</ele><time>2026-04-01T11:05:03Z</time></trkpt><trkpt lat="45.71044655001669" lon="8.507180532557223"><ele>377.0</ele><time>2026-04-01T11:05:04Z</time></trkpt><trkpt lat="45.71039975390354" lon="8.507281687703095"><ele>377.0</ele><time>2026-04-01T11:05:06Z</time></trkpt><trkpt lat="45.71034085740558" lon="8.507338706171046"><ele>377.20000000000005</ele><time>2026-04-01T11:05:14Z</time></trkpt><trkpt lat="45.710315637731654" lon="8.507477715145495"><ele>377.4</ele><time>2026-04-01T11:05:16Z</time></trkpt><trkpt lat="45.7103204231517" lon="8.50760502776139"><ele>377.6</ele><time>2026-04-01T11:05:17Z</time></trkpt><trkpt lat="45.710317594139894" lon="8.507731944778097"><ele>377.79999999999995</ele><time>2026-04-01T11:05:18Z</time></trkpt><trkpt lat="45.71031701192193" lon="8.507867604524556"><ele>378.0</ele><time>2026-04-01T11:05:19Z</time></trkpt><trkpt lat="45.710307028035324" lon="8.508007096265832"><ele>377.5</ele><time>2026-04-01T11:05:20Z</time></trkpt><trkpt lat="45.71030487215061" lon="8.508166155348354"><ele>377.0</ele><time>2026-04-01T11:05:21Z</time></trkpt><trkpt lat="45.710299600754524" lon="8.508339480409193"><ele>376.5</ele><time>2026-04-01T11:05:22Z</time></trkpt><trkpt lat="45.710297083955595" lon="8.508508789026601"><ele>376.0</ele><time>2026-04-01T11:05:23Z</time></trkpt><trkpt lat="45.710291627459895" lon="8.50871149745217"><ele>375.25</ele><time>2026-04-01T11:05:24Z</time></trkpt><trkpt lat="45.710294093248585" lon="8.508899481180633"><ele>374.5</ele><time>2026-04-01T11:05:25Z</time></trkpt><trkpt lat="45.71030616988992" lon="8.50909548196573"><ele>373.75</ele><time>2026-04-01T11:05:26Z</time></trkpt><trkpt lat="45.7102966538026" lon="8.509299802462328"><ele>373.0</ele><time>2026-04-01T11:05:27Z</time></trkpt><trkpt lat="45.71026647882612" lon="8.509486398717563"><ele>372.0</ele><time>2026-04-01T11:05:28Z</time></trkpt><trkpt lat="45.71024307512613" lon="8.509676569246468"><ele>371.0</ele><time>2026-04-01T11:05:29Z</time></trkpt><trkpt lat="45.71021921463998" lon="8.509869034157619"><ele>370.0</ele><time>2026-04-01T11:05:30Z</time></trkpt><trkpt lat="45.71019202350704" lon="8.510047563024775"><ele>369.0</ele><time>2026-04-01T11:05:31Z</time></trkpt><trkpt lat="45.71017099625636" lon="8.51021198604636"><ele>367.75</ele><time>2026-04-01T11:05:32Z</time></trkpt><trkpt lat="45.710150457649206" lon="8.510371326517422"><ele>366.5</ele><time>2026-04-01T11:05:33Z</time></trkpt><trkpt lat="45.71013501099965" lon="8.51052774839096"><ele>365.25</ele><time>2026-04-01T11:05:34Z</time></trkpt><trkpt lat="45.71011325791661" lon="8.510697120772496"><ele>364.0</ele><time>2026-04-01T11:05:35Z</time></trkpt><trkpt lat="45.7100896418938" lon="8.510877699099726"><ele>363.75</ele><time>2026-04-01T11:05:35.999Z</time></trkpt><trkpt lat="45.71006220661998" lon="8.511070594418596"><ele>363.5</ele><time>2026-04-01T11:05:36.999Z</time></trkpt><trkpt lat="45.71003481178734" lon="8.51126789808991"><ele>363.25</ele><time>2026-04-01T11:05:37.999Z</time></trkpt><trkpt lat="45.7100111693787" lon="8.511466889663104"><ele>363.0</ele><time>2026-04-01T11:05:38.999Z</time></trkpt><trkpt lat="45.70998262223216" lon="8.51166938901102"><ele>363.0</ele><time>2026-04-01T11:05:39.999Z</time></trkpt><trkpt lat="45.70995559661681" lon="8.511867564939017"><ele>363.0</ele><time>2026-04-01T11:05:40.999Z</time></trkpt><trkpt lat="45.709926178128285" lon="8.51207211870331"><ele>363.0</ele><time>2026-04-01T11:05:41.999Z</time></trkpt><trkpt lat="45.70989745494299" lon="8.512274900711665"><ele>363.0</ele><time>2026-04-01T11:05:42.999Z</time></trkpt><trkpt lat="45.70986536265639" lon="8.51248558044025"><ele>362.75</ele><time>2026-04-01T11:05:43.999Z</time></trkpt><trkpt lat="45.70983054252121" lon="8.512689155158247"><ele>362.5</ele><time>2026-04-01T11:05:44.999Z</time></trkpt><trkpt lat="45.709802783453235" lon="8.512889915968936"><ele>362.25</ele><time>2026-04-01T11:05:45.999Z</time></trkpt><trkpt lat="45.7097700495517" lon="8.513091419988607"><ele>362.0</ele><time>2026-04-01T11:05:46.999Z</time></trkpt><trkpt lat="45.709740030217326" lon="8.513292320736607"><ele>362.0</ele><time>2026-04-01T11:05:47.999Z</time></trkpt><trkpt lat="45.709699525952885" lon="8.513497826826297"><ele>362.0</ele><time>2026-04-01T11:05:48.999Z</time></trkpt><trkpt lat="45.70966540328153" lon="8.51369104057172"><ele>362.0</ele><time>2026-04-01T11:05:49.999Z</time></trkpt><trkpt lat="45.70963048987648" lon="8.513891099184818"><ele>362.0</ele><time>2026-04-01T11:05:50.999Z</time></trkpt><trkpt lat="45.70960086115563" lon="8.514088093681861"><ele>362.25</ele><time>2026-04-01T11:05:51.999Z</time></trkpt><trkpt lat="45.709570744523866" lon="8.514290043855507"><ele>362.5</ele><time>2026-04-01T11:05:52.999Z</time></trkpt><trkpt lat="45.70953801647386" lon="8.514496874153023"><ele>362.75</ele><time>2026-04-01T11:05:53.999Z</time></trkpt><trkpt lat="45.70950510179688" lon="8.514695301102025"><ele>363.0</ele><time>2026-04-01T11:05:54.999Z</time></trkpt><trkpt lat="45.70947263337495" lon="8.514888577757176"><ele>363.75</ele><time>2026-04-01T11:05:55.999Z</time></trkpt><trkpt lat="45.70943888062524" lon="8.51508914312004"><ele>364.5</ele><time>2026-04-01T11:05:56.999Z</time></trkpt><trkpt lat="45.70940946528045" lon="8.515280590367038"><ele>365.25</ele><time>2026-04-01T11:05:57.999Z</time></trkpt><trkpt lat="45.709378204021405" lon="8.515473646435261"><ele>366.0</ele><time>2026-04-01T11:05:58.999Z</time></trkpt><trkpt lat="45.70935139715979" lon="8.515667561911789"><ele>368.5</ele><time>2026-04-01T11:05:59.999Z</time></trkpt><trkpt lat="45.70932464937387" lon="8.515869759048744"><ele>371.0</ele><time>2026-04-01T11:06:00.999Z</time></trkpt><trkpt lat="45.70929869310516" lon="8.516070830043237"><ele>373.5</ele><time>2026-04-01T11:06:01.999Z</time></trkpt><trkpt lat="45.709276434867995" lon="8.516267820643234"><ele>376.0</ele><time>2026-04-01T11:06:02.999Z</time></trkpt><trkpt lat="45.709266353086" lon="8.516459378886017"><ele>377.0</ele><time>2026-04-01T11:06:03.999Z</time></trkpt><trkpt lat="45.709291862718025" lon="8.516649551306642"><ele>378.0</ele><time>2026-04-01T11:06:04.999Z</time></trkpt><trkpt lat="45.70934314048652" lon="8.516812297504417"><ele>379.0</ele><time>2026-04-01T11:06:05.999Z</time></trkpt><trkpt lat="45.70939269449061" lon="8.516972734385337"><ele>380.0</ele><time>2026-04-01T11:06:06.999Z</time></trkpt><trkpt lat="45.70944009618758" lon="8.517137015512757"><ele>380.75</ele><time>2026-04-01T11:06:07.999Z</time></trkpt><trkpt lat="45.70949272062764" lon="8.517288778090395"><ele>381.5</ele><time>2026-04-01T11:06:08.999Z</time></trkpt><trkpt lat="45.70954213990303" lon="8.517451163528875"><ele>382.25</ele><time>2026-04-01T11:06:09.999Z</time></trkpt><trkpt lat="45.70959267169106" lon="8.51760383164344"><ele>383.0</ele><time>2026-04-01T11:06:10.999Z</time></trkpt><trkpt lat="45.70963156116225" lon="8.517730318717389"><ele>383.0</ele><time>2026-04-01T11:06:11.999Z</time></trkpt><trkpt lat="45.70966852611813" lon="8.517847974861528"><ele>383.0</ele><time>2026-04-01T11:06:12.999Z</time></trkpt><trkpt lat="45.70968832146251" lon="8.517941192515925"><ele>383.0</ele><time>2026-04-01T11:06:13.999Z</time></trkpt><trkpt lat="45.709727398222284" lon="8.51805390091008"><ele>383.0</ele><time>2026-04-01T11:06:14.999Z</time></trkpt><trkpt lat="45.70975867456802" lon="8.518171466781578"><ele>383.0</ele><time>2026-04-01T11:06:15.999Z</time></trkpt><trkpt lat="45.70979311891255" lon="8.518282339794052"><ele>383.0</ele><time>2026-04-01T11:06:16.999Z</time></trkpt><trkpt lat="45.70982431877066" lon="8.518367852886572"><ele>383.2</ele><time>2026-04-01T11:06:17.999Z</time></trkpt><trkpt lat="45.70983833260718" lon="8.518495502802503"><ele>383.4</ele><time>2026-04-01T11:06:19.999Z</time></trkpt><trkpt lat="45.709722720902626" lon="8.518552364833196"><ele>383.59999999999997</ele><time>2026-04-01T11:06:21.999Z</time></trkpt><trkpt lat="45.709648030687624" lon="8.518592938558271"><ele>383.79999999999995</ele><time>2026-04-01T11:06:22.999Z</time></trkpt><trkpt lat="45.70956011354304" lon="8.518609620339843"><ele>384.0</ele><time>2026-04-01T11:06:23.999Z</time></trkpt><trkpt lat="45.70947126212004" lon="8.518626010189761"><ele>384.3333333333333</ele><time>2026-04-01T11:06:24.999Z</time></trkpt><trkpt lat="45.70937414129273" lon="8.518612625656344"><ele>384.66666666666663</ele><time>2026-04-01T11:06:25.999Z</time></trkpt><trkpt lat="45.70926155483752" lon="8.518624688681488"><ele>385.0</ele><time>2026-04-01T11:06:26.999Z</time></trkpt><trkpt lat="45.70919195038728" lon="8.518641391784685"><ele>385.3333333333333</ele><time>2026-04-01T11:06:27.999Z</time></trkpt><trkpt lat="45.7091253604644" lon="8.518623091455535"><ele>385.66666666666663</ele><time>2026-04-01T11:06:29.999Z</time></trkpt><trkpt lat="45.70905723033572" lon="8.518610880026797"><ele>386.0</ele><time>2026-04-01T11:06:57Z</time></trkpt><trkpt lat="45.70894499285803" lon="8.518609951125773"><ele>386.0</ele><time>2026-04-01T11:06:59Z</time></trkpt><trkpt lat="45.70904554163227" lon="8.51860402087578"><ele>386.0</ele><time>2026-04-01T11:07:10Z</time></trkpt><trkpt lat="45.70920219294065" lon="8.518618559964937"><ele>386.0</ele><time>2026-04-01T11:07:27Z</time></trkpt><trkpt lat="45.709304684073565" lon="8.518612515144563"><ele>386.0</ele><time>2026-04-01T11:07:29Z</time></trkpt><trkpt lat="45.70937573720579" lon="8.51862894703316"><ele>386.0</ele><time>2026-04-01T11:07:30Z</time></trkpt><trkpt lat="45.709452616110916" lon="8.518603696026396"><ele>385.66666666666663</ele><time>2026-04-01T11:07:31Z</time></trkpt><trkpt lat="45.70953715270793" lon="8.518597722886037"><ele>385.3333333333333</ele><time>2026-04-01T11:07:32Z</time></trkpt><trkpt lat="45.70960398167104" lon="8.518593000921907"><ele>385.0</ele><time>2026-04-01T11:07:33Z</time></trkpt><trkpt lat="45.70970233179881" lon="8.518586051782455"><ele>384.66666666666663</ele><time>2026-04-01T11:07:35Z</time></trkpt><trkpt lat="45.70978755908079" lon="8.518580029880688"><ele>384.3333333333333</ele><time>2026-04-01T11:07:48.999Z</time></trkpt><trkpt lat="45.70985594076998" lon="8.518572758956262"><ele>384.0</ele><time>2026-04-01T11:07:51.999Z</time></trkpt><trkpt lat="45.70995988817898" lon="8.518935369020845"><ele>383.2</ele><time>2026-04-01T11:07:55.999Z</time></trkpt><trkpt lat="45.709950397328555" lon="8.51904048419513"><ele>382.4</ele><time>2026-04-01T11:07:57.999Z</time></trkpt><trkpt lat="45.709846430625355" lon="8.519135414654377"><ele>381.6</ele><time>2026-04-01T11:07:58.999Z</time></trkpt><trkpt lat="45.709775268026554" lon="8.519210492450044"><ele>380.8</ele><time>2026-04-01T11:07:59.999Z</time></trkpt><trkpt lat="45.70970594181747" lon="8.519281896334604"><ele>380.0</ele><time>2026-04-01T11:08:00.999Z</time></trkpt><trkpt lat="45.70960766648908" lon="8.519355372039373"><ele>380.0</ele><time>2026-04-01T11:08:01.999Z</time></trkpt><trkpt lat="45.709531498296755" lon="8.51949572381525"><ele>380.0</ele><time>2026-04-01T11:08:02.999Z</time></trkpt><trkpt lat="45.7094301220608" lon="8.519593761650897"><ele>380.0</ele><time>2026-04-01T11:08:03.999Z</time></trkpt><trkpt lat="45.70934018710064" lon="8.519700431164638"><ele>380.0</ele><time>2026-04-01T11:08:04.999Z</time></trkpt><trkpt lat="45.70923641922352" lon="8.51980224568327"><ele>379.75</ele><time>2026-04-01T11:08:05.999Z</time></trkpt><trkpt lat="45.709127706438274" lon="8.519929852169337"><ele>379.5</ele><time>2026-04-01T11:08:06.999Z</time></trkpt><trkpt lat="45.70903094547428" lon="8.520051575100794"><ele>379.25</ele><time>2026-04-01T11:08:07.999Z</time></trkpt><trkpt lat="45.70891381310441" lon="8.520166871694629"><ele>379.0</ele><time>2026-04-01T11:08:08.999Z</time></trkpt><trkpt lat="45.708801982859484" lon="8.520299914935416"><ele>378.5</ele><time>2026-04-01T11:08:09.999Z</time></trkpt><trkpt lat="45.70868503970432" lon="8.520430225552571"><ele>378.0</ele><time>2026-04-01T11:08:10.999Z</time></trkpt><trkpt lat="45.708562442876996" lon="8.520535844307307"><ele>377.5</ele><time>2026-04-01T11:08:11.999Z</time></trkpt><trkpt lat="45.70846517458834" lon="8.520644514139196"><ele>377.0</ele><time>2026-04-01T11:08:12.999Z</time></trkpt><trkpt lat="45.70838516161271" lon="8.520745832547888"><ele>377.0</ele><time>2026-04-01T11:08:13.999Z</time></trkpt><trkpt lat="45.70829280957193" lon="8.520846835438752"><ele>377.0</ele><time>2026-04-01T11:08:14.999Z</time></trkpt><trkpt lat="45.708205290992076" lon="8.520951822825346"><ele>377.0</ele><time>2026-04-01T11:08:15.999Z</time></trkpt><trkpt lat="45.70810136897692" lon="8.521052495532881"><ele>377.0</ele><time>2026-04-01T11:08:16.999Z</time></trkpt><trkpt lat="45.707980556367474" lon="8.521117154954336"><ele>377.0</ele><time>2026-04-01T11:08:17.999Z</time></trkpt><trkpt lat="45.70788467947283" lon="8.521213950161854"><ele>377.0</ele><time>2026-04-01T11:08:18.999Z</time></trkpt><trkpt lat="45.70779930834692" lon="8.521302734642683"><ele>377.0</ele><time>2026-04-01T11:08:19.999Z</time></trkpt><trkpt lat="45.70773345912235" lon="8.521413067128462"><ele>377.0</ele><time>2026-04-01T11:08:20.999Z</time></trkpt><trkpt lat="45.707663042532985" lon="8.521482550877518"><ele>377.0</ele><time>2026-04-01T11:08:21.999Z</time></trkpt><trkpt lat="45.70759824281013" lon="8.521543469104834"><ele>376.40000000000003</ele><time>2026-04-01T11:08:22.999Z</time></trkpt><trkpt lat="45.707535562783924" lon="8.521575574341341"><ele>375.8</ele><time>2026-04-01T11:08:23.999Z</time></trkpt><trkpt lat="45.70747372531114" lon="8.521604258505775"><ele>375.2</ele><time>2026-04-01T11:08:24.999Z</time></trkpt><trkpt lat="45.707340864044724" lon="8.521609391292735"><ele>374.6</ele><time>2026-04-01T11:08:26.999Z</time></trkpt><trkpt lat="45.70724066098318" lon="8.521584464703793"><ele>374.0</ele><time>2026-04-01T11:08:27.999Z</time></trkpt><trkpt lat="45.707147537923966" lon="8.521540400813315"><ele>374.0</ele><time>2026-04-01T11:08:28.999Z</time></trkpt><trkpt lat="45.707063175235014" lon="8.521424774797682"><ele>374.0</ele><time>2026-04-01T11:08:29.999Z</time></trkpt><trkpt lat="45.70696931073003" lon="8.521332439305018"><ele>374.0</ele><time>2026-04-01T11:08:30.999Z</time></trkpt><trkpt lat="45.70687346612648" lon="8.521239913134549"><ele>374.0</ele><time>2026-04-01T11:08:31.999Z</time></trkpt><trkpt lat="45.70677438336612" lon="8.521158608758622"><ele>374.75</ele><time>2026-04-01T11:08:32.999Z</time></trkpt><trkpt lat="45.7066811311422" lon="8.52110082115932"><ele>375.5</ele><time>2026-04-01T11:08:33.999Z</time></trkpt><trkpt lat="45.70656352555237" lon="8.52104990784064"><ele>376.25</ele><time>2026-04-01T11:08:34.999Z</time></trkpt><trkpt lat="45.70643484966644" lon="8.521020060572164"><ele>377.0</ele><time>2026-04-01T11:08:35.999Z</time></trkpt><trkpt lat="45.70631634028857" lon="8.521012162429924"><ele>377.0</ele><time>2026-04-01T11:08:36.999Z</time></trkpt><trkpt lat="45.706194557745604" lon="8.521024128665912"><ele>377.0</ele><time>2026-04-01T11:08:37.999Z</time></trkpt><trkpt lat="45.70607711581869" lon="8.521044106087766"><ele>377.0</ele><time>2026-04-01T11:08:39Z</time></trkpt><trkpt lat="45.70596745489022" lon="8.521066847854526"><ele>377.0</ele><time>2026-04-01T11:08:40Z</time></trkpt><trkpt lat="45.70587444038793" lon="8.521086137575114"><ele>377.0</ele><time>2026-04-01T11:08:41Z</time></trkpt><trkpt lat="45.705787507574" lon="8.521102353507853"><ele>377.20000000000005</ele><time>2026-04-01T11:08:42Z</time></trkpt><trkpt lat="45.705712692158485" lon="8.521184072947259"><ele>377.4</ele><time>2026-04-01T11:08:43Z</time></trkpt><trkpt lat="45.705628056069486" lon="8.521220441617018"><ele>377.6</ele><time>2026-04-01T11:08:44Z</time></trkpt><trkpt lat="45.705543127964845" lon="8.521280299463747"><ele>377.79999999999995</ele><time>2026-04-01T11:08:45Z</time></trkpt><trkpt lat="45.705450721767654" lon="8.521358510337675"><ele>378.0</ele><time>2026-04-01T11:08:46Z</time></trkpt><trkpt lat="45.70532846789521" lon="8.521406647422284"><ele>377.75</ele><time>2026-04-01T11:08:47Z</time></trkpt><trkpt lat="45.705232313646896" lon="8.521503033382643"><ele>377.5</ele><time>2026-04-01T11:08:48Z</time></trkpt><trkpt lat="45.705137730757365" lon="8.52162249161775"><ele>377.25</ele><time>2026-04-01T11:08:49Z</time></trkpt><trkpt lat="45.7050149403076" lon="8.521710280771899"><ele>377.0</ele><time>2026-04-01T11:08:50Z</time></trkpt><trkpt lat="45.70491787207666" lon="8.521802042973379"><ele>377.0</ele><time>2026-04-01T11:08:51Z</time></trkpt><trkpt lat="45.70482110629436" lon="8.521903011818475"><ele>377.0</ele><time>2026-04-01T11:08:52Z</time></trkpt><trkpt lat="45.70473437544414" lon="8.52199199656342"><ele>377.0</ele><time>2026-04-01T11:08:53Z</time></trkpt><trkpt lat="45.70464181932932" lon="8.522086331406829"><ele>377.0</ele><time>2026-04-01T11:08:54Z</time></trkpt><trkpt lat="45.70455213155766" lon="8.522167345360113"><ele>377.0</ele><time>2026-04-01T11:08:55Z</time></trkpt><trkpt lat="45.70446404047084" lon="8.522257107045244"><ele>376.5</ele><time>2026-04-01T11:08:56Z</time></trkpt><trkpt lat="45.7043854983121" lon="8.522350012710394"><ele>376.0</ele><time>2026-04-01T11:08:57Z</time></trkpt><trkpt lat="45.7043124109295" lon="8.522429054460567"><ele>375.5</ele><time>2026-04-01T11:08:58Z</time></trkpt><trkpt lat="45.70426574207665" lon="8.52250861387619"><ele>375.0</ele><time>2026-04-01T11:08:59Z</time></trkpt><trkpt lat="45.70420749932857" lon="8.522551938774509"><ele>374.5</ele><time>2026-04-01T11:09:00Z</time></trkpt><trkpt lat="45.70414677407451" lon="8.522614448337263"><ele>374.0</ele><time>2026-04-01T11:09:01Z</time></trkpt><trkpt lat="45.70408874654095" lon="8.522674180935818"><ele>374.0</ele><time>2026-04-01T11:09:03Z</time></trkpt><trkpt lat="45.704148258941984" lon="8.522612919846653"><ele>374.0</ele><time>2026-04-01T11:09:57.999Z</time></trkpt><trkpt lat="45.704199868817376" lon="8.522559793477383"><ele>374.0</ele><time>2026-04-01T11:10:03.999Z</time></trkpt><trkpt lat="45.70427897035563" lon="8.522478367557198"><ele>374.0</ele><time>2026-04-01T11:10:05.999Z</time></trkpt><trkpt lat="45.704344340756485" lon="8.522437691669895"><ele>374.0</ele><time>2026-04-01T11:10:06.999Z</time></trkpt><trkpt lat="45.70446892920298" lon="8.522283948204901"><ele>374.6</ele><time>2026-04-01T11:10:08.999Z</time></trkpt><trkpt lat="45.70457305831196" lon="8.522219274676885"><ele>375.2</ele><time>2026-04-01T11:10:09.999Z</time></trkpt><trkpt lat="45.70466019995814" lon="8.52212340092453"><ele>375.8</ele><time>2026-04-01T11:10:10.999Z</time></trkpt><trkpt lat="45.70472615371816" lon="8.522044502652658"><ele>376.40000000000003</ele><time>2026-04-01T11:10:11.999Z</time></trkpt><trkpt lat="45.70480645659347" lon="8.521964866499069"><ele>377.0</ele><time>2026-04-01T11:10:12.999Z</time></trkpt><trkpt lat="45.704884074723196" lon="8.521902128922543"><ele>377.0</ele><time>2026-04-01T11:10:13.999Z</time></trkpt><trkpt lat="45.70497215087851" lon="8.521838107606206"><ele>377.0</ele><time>2026-04-01T11:10:14.999Z</time></trkpt><trkpt lat="45.70505591024437" lon="8.521746630257711"><ele>377.0</ele><time>2026-04-01T11:10:15.999Z</time></trkpt><trkpt lat="45.70512025411277" lon="8.521637215694012"><ele>377.0</ele><time>2026-04-01T11:10:16.999Z</time></trkpt><trkpt lat="45.70519722030505" lon="8.521532370016743"><ele>377.0</ele><time>2026-04-01T11:10:17.999Z</time></trkpt><trkpt lat="45.70528238663344" lon="8.52142826467858"><ele>377.1666666666667</ele><time>2026-04-01T11:10:18.999Z</time></trkpt><trkpt lat="45.705360409434384" lon="8.521349601790716"><ele>377.33333333333337</ele><time>2026-04-01T11:10:19.999Z</time></trkpt><trkpt lat="45.70543173479512" lon="8.521285627324003"><ele>377.5</ele><time>2026-04-01T11:10:20.999Z</time></trkpt><trkpt lat="45.705500232865454" lon="8.521239410213063"><ele>377.6666666666667</ele><time>2026-04-01T11:10:21.999Z</time></trkpt><trkpt lat="45.7055861899171" lon="8.52115064263636"><ele>377.8333333333333</ele><time>2026-04-01T11:10:23.999Z</time></trkpt><trkpt lat="45.705602401843336" lon="8.521051751843562"><ele>378.0</ele><time>2026-04-01T11:10:26.999Z</time></trkpt><trkpt lat="45.70558263177937" lon="8.520962126891547"><ele>378.0</ele><time>2026-04-01T11:10:29.999Z</time></trkpt><trkpt lat="45.70556682487667" lon="8.52086492558897"><ele>378.0</ele><time>2026-04-01T11:10:35.999Z</time></trkpt><trkpt lat="45.70554768510382" lon="8.520752366217215"><ele>378.0</ele><time>2026-04-01T11:10:37.999Z</time></trkpt><trkpt lat="45.705556190864606" lon="8.520592872931768"><ele>378.0</ele><time>2026-04-01T11:10:39.999Z</time></trkpt><trkpt lat="45.7055499855088" lon="8.520466786940457"><ele>378.0</ele><time>2026-04-01T11:10:40.999Z</time></trkpt><trkpt lat="45.705534329914315" lon="8.520343726065395"><ele>378.0</ele><time>2026-04-01T11:10:41.999Z</time></trkpt><trkpt lat="45.705500055062274" lon="8.52025271549739"><ele>378.42857142857144</ele><time>2026-04-01T11:10:42.999Z</time></trkpt><trkpt lat="45.70548377291246" lon="8.520160826764718"><ele>378.8571428571429</ele><time>2026-04-01T11:10:43.999Z</time></trkpt><trkpt lat="45.705462449673874" lon="8.520070868363044"><ele>379.2857142857143</ele><time>2026-04-01T11:10:45Z</time></trkpt><trkpt lat="45.70543138776869" lon="8.519943076677249"><ele>379.7142857142857</ele><time>2026-04-01T11:10:47Z</time></trkpt><trkpt lat="45.70540654009065" lon="8.51985167804405"><ele>380.14285714285717</ele><time>2026-04-01T11:10:49Z</time></trkpt><trkpt lat="45.705351713656704" lon="8.519776037055147"><ele>380.57142857142856</ele><time>2026-04-01T11:10:50Z</time></trkpt><trkpt lat="45.70531164107364" lon="8.519690973631876"><ele>381.0</ele><time>2026-04-01T11:10:51Z</time></trkpt><trkpt lat="45.70525018049984" lon="8.519611279473246"><ele>381.4</ele><time>2026-04-01T11:10:52Z</time></trkpt><trkpt lat="45.70521843218192" lon="8.51950348400358"><ele>381.8</ele><time>2026-04-01T11:10:53Z</time></trkpt><trkpt lat="45.705188153614536" lon="8.519409921436285"><ele>382.2</ele><time>2026-04-01T11:10:54Z</time></trkpt><trkpt lat="45.70513101884481" lon="8.51929298916686"><ele>382.59999999999997</ele><time>2026-04-01T11:10:56Z</time></trkpt><trkpt lat="45.70512467919146" lon="8.519193861886578"><ele>383.0</ele><time>2026-04-01T11:10:59Z</time></trkpt><trkpt lat="45.70524789509612" lon="8.519000413480361"><ele>383.2</ele><time>2026-04-01T11:11:02Z</time></trkpt><trkpt lat="45.70530981949694" lon="8.51891230711714"><ele>383.4</ele><time>2026-04-01T11:11:03Z</time></trkpt><trkpt lat="45.70536686799562" lon="8.518821598836254"><ele>383.59999999999997</ele><time>2026-04-01T11:11:04Z</time></trkpt><trkpt lat="45.705412154568265" lon="8.518747375711468"><ele>383.79999999999995</ele><time>2026-04-01T11:11:05Z</time></trkpt><trkpt lat="45.70545296486894" lon="8.518675035595543"><ele>384.0</ele><time>2026-04-01T11:11:06Z</time></trkpt><trkpt lat="45.70542308680827" lon="8.518456738588945"><ele>384.0</ele><time>2026-04-01T11:11:10Z</time></trkpt><trkpt lat="45.70530664940514" lon="8.518411119011539"><ele>384.0</ele><time>2026-04-01T11:11:12Z</time></trkpt><trkpt lat="45.70521822758771" lon="8.518379477663666"><ele>384.0</ele><time>2026-04-01T11:11:13Z</time></trkpt><trkpt lat="45.70512589335109" lon="8.518344404479405"><ele>384.0</ele><time>2026-04-01T11:11:14Z</time></trkpt><trkpt lat="45.7050356430128" lon="8.5182972820305"><ele>384.0</ele><time>2026-04-01T11:11:15Z</time></trkpt><trkpt lat="45.70496857836978" lon="8.518243537658767"><ele>383.6</ele><time>2026-04-01T11:11:16Z</time></trkpt><trkpt lat="45.70489339156446" lon="8.518157603375027"><ele>383.2</ele><time>2026-04-01T11:11:17Z</time></trkpt><trkpt lat="45.704816160060275" lon="8.518048233186198"><ele>382.8</ele><time>2026-04-01T11:11:18Z</time></trkpt><trkpt lat="45.70474020656127" lon="8.517925399651208"><ele>382.40000000000003</ele><time>2026-04-01T11:11:19Z</time></trkpt><trkpt lat="45.70466586291842" lon="8.517799509904037"><ele>382.0</ele><time>2026-04-01T11:11:20Z</time></trkpt><trkpt lat="45.70458629514962" lon="8.517659781034643"><ele>380.75</ele><time>2026-04-01T11:11:21Z</time></trkpt><trkpt lat="45.70450518087488" lon="8.517515840920845"><ele>379.5</ele><time>2026-04-01T11:11:22Z</time></trkpt><trkpt lat="45.704418271973175" lon="8.517361617940553"><ele>378.25</ele><time>2026-04-01T11:11:23Z</time></trkpt><trkpt lat="45.704322115405255" lon="8.517191376038332"><ele>377.0</ele><time>2026-04-01T11:11:24Z</time></trkpt><trkpt lat="45.704227291164734" lon="8.517025663757432"><ele>373.6666666666667</ele><time>2026-04-01T11:11:25Z</time></trkpt><trkpt lat="45.70412655832886" lon="8.51685583424894"><ele>370.3333333333333</ele><time>2026-04-01T11:11:26Z</time></trkpt><trkpt lat="45.70401780946464" lon="8.516683313521744"><ele>367.0</ele><time>2026-04-01T11:11:27Z</time></trkpt><trkpt lat="45.70390643329401" lon="8.516511806416174"><ele>367.0</ele><time>2026-04-01T11:11:28Z</time></trkpt><trkpt lat="45.70378995703893" lon="8.516332445204412"><ele>367.0</ele><time>2026-04-01T11:11:29Z</time></trkpt><trkpt lat="45.70368138264268" lon="8.51615177082988"><ele>367.0</ele><time>2026-04-01T11:11:30Z</time></trkpt><trkpt lat="45.703554547139916" lon="8.515999176512697"><ele>366.3333333333333</ele><time>2026-04-01T11:11:31Z</time></trkpt><trkpt lat="45.703444618880006" lon="8.515819280064303"><ele>365.6666666666667</ele><time>2026-04-01T11:11:32Z</time></trkpt><trkpt lat="45.7033322011466" lon="8.515633695946846"><ele>365.0</ele><time>2026-04-01T11:11:33Z</time></trkpt><trkpt lat="45.70322087569491" lon="8.515453781727949"><ele>362.6666666666667</ele><time>2026-04-01T11:11:34Z</time></trkpt><trkpt lat="45.703104445154906" lon="8.515279162547568"><ele>360.3333333333333</ele><time>2026-04-01T11:11:35Z</time></trkpt><trkpt lat="45.70301210544421" lon="8.515081350361639"><ele>358.0</ele><time>2026-04-01T11:11:36Z</time></trkpt><trkpt lat="45.702879567902286" lon="8.514940160849388"><ele>360.66666666666663</ele><time>2026-04-01T11:11:37Z</time></trkpt><trkpt lat="45.70272312340409" lon="8.514809075954417"><ele>363.3333333333333</ele><time>2026-04-01T11:11:38Z</time></trkpt><trkpt lat="45.70256986164691" lon="8.514708786928871"><ele>366.0</ele><time>2026-04-01T11:11:39Z</time></trkpt><trkpt lat="45.702421321855056" lon="8.51461364233797"><ele>362.3333333333333</ele><time>2026-04-01T11:11:40Z</time></trkpt><trkpt lat="45.70226733678499" lon="8.514507629137523"><ele>358.66666666666663</ele><time>2026-04-01T11:11:41Z</time></trkpt><trkpt lat="45.702116291813965" lon="8.514400247497937"><ele>355.0</ele><time>2026-04-01T11:11:42Z</time></trkpt><trkpt lat="45.701974218126566" lon="8.514285144844452"><ele>355.75</ele><time>2026-04-01T11:11:43Z</time></trkpt><trkpt lat="45.701842346999335" lon="8.514158293790976"><ele>356.5</ele><time>2026-04-01T11:11:44Z</time></trkpt><trkpt lat="45.70173087172356" lon="8.514025892016388"><ele>357.25</ele><time>2026-04-01T11:11:45Z</time></trkpt><trkpt lat="45.701641298496305" lon="8.513876119175094"><ele>358.0</ele><time>2026-04-01T11:11:46Z</time></trkpt><trkpt lat="45.70154379126885" lon="8.51369441675607"><ele>354.3333333333333</ele><time>2026-04-01T11:11:47Z</time></trkpt><trkpt lat="45.70144113341376" lon="8.513496438655423"><ele>350.6666666666667</ele><time>2026-04-01T11:11:48Z</time></trkpt><trkpt lat="45.70133699051933" lon="8.513296991617041"><ele>347.0</ele><time>2026-04-01T11:11:49Z</time></trkpt><trkpt lat="45.7012296424529" lon="8.513093050436323"><ele>345.0</ele><time>2026-04-01T11:11:50Z</time></trkpt><trkpt lat="45.70111947585956" lon="8.512883754583983"><ele>343.0</ele><time>2026-04-01T11:11:51Z</time></trkpt><trkpt lat="45.70100529491111" lon="8.512666832234084"><ele>341.0</ele><time>2026-04-01T11:11:52Z</time></trkpt><trkpt lat="45.700890022226275" lon="8.512447835718586"><ele>339.6666666666667</ele><time>2026-04-01T11:11:53Z</time></trkpt><trkpt lat="45.70077957322515" lon="8.512238674257285"><ele>338.3333333333333</ele><time>2026-04-01T11:11:54Z</time></trkpt><trkpt lat="45.70066894439845" lon="8.512029403015964"><ele>337.0</ele><time>2026-04-01T11:11:55Z</time></trkpt><trkpt lat="45.70055275519685" lon="8.511832916875447"><ele>336.66666666666663</ele><time>2026-04-01T11:11:56Z</time></trkpt><trkpt lat="45.70045415970288" lon="8.511629391007974"><ele>336.3333333333333</ele><time>2026-04-01T11:11:57Z</time></trkpt><trkpt lat="45.700363989998586" lon="8.511447317144949"><ele>336.0</ele><time>2026-04-01T11:11:58Z</time></trkpt><trkpt lat="45.70027622214144" lon="8.511268062152618"><ele>337.3333333333333</ele><time>2026-04-01T11:11:59Z</time></trkpt><trkpt lat="45.70018560057453" lon="8.511094105421844"><ele>338.66666666666663</ele><time>2026-04-01T11:12:00Z</time></trkpt><trkpt lat="45.700091943533074" lon="8.510917292200231"><ele>340.0</ele><time>2026-04-01T11:12:01Z</time></trkpt><trkpt lat="45.700004883557746" lon="8.510737959789461"><ele>340.0</ele><time>2026-04-01T11:12:02Z</time></trkpt><trkpt lat="45.69992886774613" lon="8.510573289205112"><ele>340.0</ele><time>2026-04-01T11:12:03Z</time></trkpt><trkpt lat="45.699852117770575" lon="8.510409203299622"><ele>340.0</ele><time>2026-04-01T11:12:04Z</time></trkpt><trkpt lat="45.69976926528895" lon="8.510237978678537"><ele>340.0</ele><time>2026-04-01T11:12:05Z</time></trkpt><trkpt lat="45.699682422698224" lon="8.51006945177805"><ele>340.66666666666663</ele><time>2026-04-01T11:12:06Z</time></trkpt><trkpt lat="45.69959015130339" lon="8.509896783534595"><ele>341.3333333333333</ele><time>2026-04-01T11:12:07Z</time></trkpt><trkpt lat="45.69950107052054" lon="8.509725190693915"><ele>342.0</ele><time>2026-04-01T11:12:08Z</time></trkpt><trkpt lat="45.699415052685396" lon="8.509550839996317"><ele>340.0</ele><time>2026-04-01T11:12:08.999Z</time></trkpt><trkpt lat="45.699335901730045" lon="8.509366369930982"><ele>338.0</ele><time>2026-04-01T11:12:09.999Z</time></trkpt><trkpt lat="45.69925353704849" lon="8.509165749792206"><ele>336.0</ele><time>2026-04-01T11:12:10.999Z</time></trkpt><trkpt lat="45.69917348641301" lon="8.508959073716056"><ele>336.0</ele><time>2026-04-01T11:12:11.999Z</time></trkpt><trkpt lat="45.69909530644746" lon="8.508749574583343"><ele>336.0</ele><time>2026-04-01T11:12:12.999Z</time></trkpt><trkpt lat="45.699017348700146" lon="8.50855489516229"><ele>336.0</ele><time>2026-04-01T11:12:13.999Z</time></trkpt><trkpt lat="45.69894080488139" lon="8.508363230052083"><ele>336.0</ele><time>2026-04-01T11:12:14.999Z</time></trkpt><trkpt lat="45.698854238338924" lon="8.508175987945625"><ele>336.0</ele><time>2026-04-01T11:12:15.999Z</time></trkpt><trkpt lat="45.69877265665107" lon="8.508003712480463"><ele>336.0</ele><time>2026-04-01T11:12:16.999Z</time></trkpt><trkpt lat="45.698694867420706" lon="8.507804688995023"><ele>336.0</ele><time>2026-04-01T11:12:17.999Z</time></trkpt><trkpt lat="45.698618430910514" lon="8.50761153265453"><ele>336.0</ele><time>2026-04-01T11:12:18.999Z</time></trkpt><trkpt lat="45.69855091324143" lon="8.507420972291683"><ele>336.0</ele><time>2026-04-01T11:12:19.999Z</time></trkpt><trkpt lat="45.69847783354284" lon="8.507240227514117"><ele>334.25</ele><time>2026-04-01T11:12:20.999Z</time></trkpt><trkpt lat="45.69840864246729" lon="8.507066408028251"><ele>332.5</ele><time>2026-04-01T11:12:21.999Z</time></trkpt><trkpt lat="45.69834955783611" lon="8.50689848649776"><ele>330.75</ele><time>2026-04-01T11:12:22.999Z</time></trkpt><trkpt lat="45.69829137538354" lon="8.506748942171656"><ele>329.0</ele><time>2026-04-01T11:12:23.999Z</time></trkpt><trkpt lat="45.69824003158135" lon="8.506609431411713"><ele>329.0</ele><time>2026-04-01T11:12:24.999Z</time></trkpt><trkpt lat="45.69819478697149" lon="8.506480268237633"><ele>329.0</ele><time>2026-04-01T11:12:25.999Z</time></trkpt><trkpt lat="45.698154131300605" lon="8.506365631916031"><ele>329.0</ele><time>2026-04-01T11:12:26.999Z</time></trkpt><trkpt lat="45.69811302343737" lon="8.50625738008018"><ele>329.0</ele><time>2026-04-01T11:12:27.999Z</time></trkpt><trkpt lat="45.6980723310694" lon="8.50617041435833"><ele>329.0</ele><time>2026-04-01T11:12:28.999Z</time></trkpt><trkpt lat="45.698041190097726" lon="8.506079705380232"><ele>329.0</ele><time>2026-04-01T11:12:29.999Z</time></trkpt><trkpt lat="45.69799377206725" lon="8.505949373289878"><ele>330.2</ele><time>2026-04-01T11:12:31.999Z</time></trkpt><trkpt lat="45.69797486705519" lon="8.505842535261817"><ele>331.4</ele><time>2026-04-01T11:12:34.999Z</time></trkpt><trkpt lat="45.69793989654383" lon="8.50574313218686"><ele>332.6</ele><time>2026-04-01T11:12:39.999Z</time></trkpt><trkpt lat="45.697879844679115" lon="8.505690488499607"><ele>333.8</ele><time>2026-04-01T11:12:43.999Z</time></trkpt><trkpt lat="45.69779937882185" lon="8.505665799504447"><ele>335.0</ele><time>2026-04-01T11:12:45.999Z</time></trkpt><trkpt lat="45.697354763652754" lon="8.505623438831446"><ele>335.0</ele><time>2026-04-01T11:12:47.999Z</time></trkpt><trkpt lat="45.697291645252164" lon="8.505567029868958"><ele>335.0</ele><time>2026-04-01T11:12:49.999Z</time></trkpt><trkpt lat="45.6972334550132" lon="8.505532421769077"><ele>335.0</ele><time>2026-04-01T11:12:52Z</time></trkpt><trkpt lat="45.697173341475384" lon="8.505468379252099"><ele>335.0</ele><time>2026-04-01T11:12:54Z</time></trkpt><trkpt lat="45.69710825636096" lon="8.505386225461118"><ele>335.0</ele><time>2026-04-01T11:12:56Z</time></trkpt><trkpt lat="45.69704746554243" lon="8.505324959501097"><ele>335.0</ele><time>2026-04-01T11:12:58Z</time></trkpt><trkpt lat="45.69695231946251" lon="8.505229287035876"><ele>334.6666666666667</ele><time>2026-04-01T11:13:00Z</time></trkpt><trkpt lat="45.69690242217252" lon="8.505158332687571"><ele>334.33333333333337</ele><time>2026-04-01T11:13:01Z</time></trkpt><trkpt lat="45.69685235354141" lon="8.505097753263364"><ele>334.0</ele><time>2026-04-01T11:13:02Z</time></trkpt><trkpt lat="45.696802359689684" lon="8.505021361741555"><ele>333.6666666666667</ele><time>2026-04-01T11:13:03Z</time></trkpt><trkpt lat="45.69673527108523" lon="8.504952802421537"><ele>333.3333333333333</ele><time>2026-04-01T11:13:04Z</time></trkpt><trkpt lat="45.696669862132914" lon="8.504862812874846"><ele>333.0</ele><time>2026-04-01T11:13:05Z</time></trkpt><trkpt lat="45.69661011455104" lon="8.504771548939027"><ele>333.0</ele><time>2026-04-01T11:13:06Z</time></trkpt><trkpt lat="45.69654177987898" lon="8.504681493141616"><ele>333.0</ele><time>2026-04-01T11:13:07Z</time></trkpt><trkpt lat="45.69647708515846" lon="8.504592897576968"><ele>333.0</ele><time>2026-04-01T11:13:08Z</time></trkpt><trkpt lat="45.696422745579326" lon="8.50449096092711"><ele>333.0</ele><time>2026-04-01T11:13:09Z</time></trkpt><trkpt lat="45.69636917460879" lon="8.504403712849482"><ele>333.0</ele><time>2026-04-01T11:13:10Z</time></trkpt><trkpt lat="45.69628584860189" lon="8.50431376370428"><ele>333.2</ele><time>2026-04-01T11:13:11Z</time></trkpt><trkpt lat="45.6961814409137" lon="8.504206566893224"><ele>333.4</ele><time>2026-04-01T11:13:12Z</time></trkpt><trkpt lat="45.69610572130057" lon="8.504096228220224"><ele>333.59999999999997</ele><time>2026-04-01T11:13:13Z</time></trkpt><trkpt lat="45.6960425259815" lon="8.50401735246665"><ele>333.79999999999995</ele><time>2026-04-01T11:13:14Z</time></trkpt><trkpt lat="45.695974073886916" lon="8.503934798479765"><ele>334.0</ele><time>2026-04-01T11:13:15Z</time></trkpt><trkpt lat="45.695906384884" lon="8.503839796322769"><ele>334.66666666666663</ele><time>2026-04-01T11:13:16Z</time></trkpt><trkpt lat="45.69582501800241" lon="8.503713271818446"><ele>335.3333333333333</ele><time>2026-04-01T11:13:17Z</time></trkpt><trkpt lat="45.69576962877226" lon="8.503602280584339"><ele>336.0</ele><time>2026-04-01T11:13:18Z</time></trkpt><trkpt lat="45.69572769641651" lon="8.503524389866936"><ele>336.6666666666667</ele><time>2026-04-01T11:13:19Z</time></trkpt><trkpt lat="45.69568019172214" lon="8.503446160571176"><ele>337.33333333333337</ele><time>2026-04-01T11:13:20Z</time></trkpt><trkpt lat="45.69562992887646" lon="8.503381946185002"><ele>338.0</ele><time>2026-04-01T11:13:21Z</time></trkpt><trkpt lat="45.695549598313484" lon="8.503351653663271"><ele>338.0</ele><time>2026-04-01T11:13:23Z</time></trkpt><trkpt lat="45.695481595425115" lon="8.50341918021604"><ele>338.0</ele><time>2026-04-01T11:13:27Z</time></trkpt><trkpt lat="45.695429245059316" lon="8.503476132577388"><ele>338.0</ele><time>2026-04-01T11:13:28Z</time></trkpt><trkpt lat="45.69534372765433" lon="8.503609009352616"><ele>338.0</ele><time>2026-04-01T11:13:30Z</time></trkpt><trkpt lat="45.69528780427143" lon="8.503692470050114"><ele>338.0</ele><time>2026-04-01T11:13:31Z</time></trkpt><trkpt lat="45.695246007137094" lon="8.50377769492025"><ele>338.0</ele><time>2026-04-01T11:13:32Z</time></trkpt><trkpt lat="45.69516533623933" lon="8.503917923888757"><ele>338.5</ele><time>2026-04-01T11:13:34Z</time></trkpt><trkpt lat="45.69512215876269" lon="8.503996166172527"><ele>339.0</ele><time>2026-04-01T11:13:35Z</time></trkpt><trkpt lat="45.69507827620072" lon="8.504077953407206"><ele>339.5</ele><time>2026-04-01T11:13:36Z</time></trkpt><trkpt lat="45.695028822172446" lon="8.504176393949724"><ele>340.0</ele><time>2026-04-01T11:13:37Z</time></trkpt><trkpt lat="45.69499471902124" lon="8.504266473139209"><ele>340.5</ele><time>2026-04-01T11:13:38Z</time></trkpt><trkpt lat="45.694941211257216" lon="8.504361718246455"><ele>341.0</ele><time>2026-04-01T11:13:39Z</time></trkpt><trkpt lat="45.694867837403834" lon="8.504500355917775"><ele>341.0</ele><time>2026-04-01T11:13:41Z</time></trkpt><trkpt lat="45.694816805148974" lon="8.504576075025994"><ele>341.0</ele><time>2026-04-01T11:13:42Z</time></trkpt><trkpt lat="45.69477912217533" lon="8.504655074038471"><ele>341.0</ele><time>2026-04-01T11:13:43Z</time></trkpt><trkpt lat="45.694735523391735" lon="8.504750116636174"><ele>341.0</ele><time>2026-04-01T11:13:44Z</time></trkpt><trkpt lat="45.69467423031266" lon="8.504848630759815"><ele>341.0</ele><time>2026-04-01T11:13:45Z</time></trkpt><trkpt lat="45.69463160462847" lon="8.504950071174536"><ele>341.0</ele><time>2026-04-01T11:13:46Z</time></trkpt><trkpt lat="45.694580175859" lon="8.50505845224976"><ele>340.20000000000005</ele><time>2026-04-01T11:13:47Z</time></trkpt><trkpt lat="45.69452927414278" lon="8.505153221568474"><ele>339.40000000000003</ele><time>2026-04-01T11:13:48Z</time></trkpt><trkpt lat="45.69443800504386" lon="8.505311348025879"><ele>338.6</ele><time>2026-04-01T11:13:50Z</time></trkpt><trkpt lat="45.69438631179547" lon="8.505401045658074"><ele>337.8</ele><time>2026-04-01T11:13:51Z</time></trkpt><trkpt lat="45.69435245107931" lon="8.505495192409075"><ele>337.0</ele><time>2026-04-01T11:13:52Z</time></trkpt><trkpt lat="45.69430018735112" lon="8.505577352637376"><ele>336.8333333333333</ele><time>2026-04-01T11:13:53Z</time></trkpt><trkpt lat="45.69425160980804" lon="8.505658073705826"><ele>336.66666666666663</ele><time>2026-04-01T11:13:54Z</time></trkpt><trkpt lat="45.694205269321195" lon="8.50574535427386"><ele>336.5</ele><time>2026-04-01T11:13:55Z</time></trkpt><trkpt lat="45.69415832986142" lon="8.50589150155743"><ele>336.3333333333333</ele><time>2026-04-01T11:13:57Z</time></trkpt><trkpt lat="45.69410207151509" lon="8.505957255380304"><ele>336.1666666666667</ele><time>2026-04-01T11:13:58Z</time></trkpt><trkpt lat="45.694050633603524" lon="8.506022663528894"><ele>336.0</ele><time>2026-04-01T11:13:59Z</time></trkpt><trkpt lat="45.69399484521332" lon="8.50608673627419"><ele>336.0</ele><time>2026-04-01T11:14:00Z</time></trkpt><trkpt lat="45.693920861319214" lon="8.506159064211966"><ele>336.0</ele><time>2026-04-01T11:14:01Z</time></trkpt><trkpt lat="45.69387311901789" lon="8.50621966065981"><ele>336.0</ele><time>2026-04-01T11:14:02Z</time></trkpt><trkpt lat="45.693823413772385" lon="8.506284361547353"><ele>336.0</ele><time>2026-04-01T11:14:02.999Z</time></trkpt><trkpt lat="45.693774279799996" lon="8.506350824926043"><ele>336.0</ele><time>2026-04-01T11:14:03.999Z</time></trkpt><trkpt lat="45.69371457634854" lon="8.506450431712613"><ele>336.0</ele><time>2026-04-01T11:14:05.999Z</time></trkpt><trkpt lat="45.693642397941304" lon="8.506538285375534"><ele>336.0</ele><time>2026-04-01T11:14:07.999Z</time></trkpt><trkpt lat="45.69358238495186" lon="8.506614690713013"><ele>336.0</ele><time>2026-04-01T11:14:09.999Z</time></trkpt><trkpt lat="45.693518830929754" lon="8.506721958836474"><ele>336.0</ele><time>2026-04-01T11:14:11.999Z</time></trkpt><trkpt lat="45.69344571165807" lon="8.506839456150939"><ele>336.0</ele><time>2026-04-01T11:14:13.999Z</time></trkpt><trkpt lat="45.69337620969069" lon="8.506933503277"><ele>336.0</ele><time>2026-04-01T11:14:15.999Z</time></trkpt><trkpt lat="45.69332164376568" lon="8.506981657208295"><ele>336.0</ele><time>2026-04-01T11:14:17.999Z</time></trkpt><trkpt lat="45.6932853363543" lon="8.50705577430515"><ele>334.4</ele><time>2026-04-01T11:14:19.999Z</time></trkpt><trkpt lat="45.69317467585665" lon="8.507181446953572"><ele>332.8</ele><time>2026-04-01T11:14:21.999Z</time></trkpt><trkpt lat="45.693093714738616" lon="8.50724597732513"><ele>331.2</ele><time>2026-04-01T11:14:22.999Z</time></trkpt><trkpt lat="45.69302370469442" lon="8.507311811447318"><ele>329.59999999999997</ele><time>2026-04-01T11:14:23.999Z</time></trkpt><trkpt lat="45.692951202324224" lon="8.507404500780654"><ele>328.0</ele><time>2026-04-01T11:14:24.999Z</time></trkpt><trkpt lat="45.69287577340071" lon="8.507480675790218"><ele>328.0</ele><time>2026-04-01T11:14:25.999Z</time></trkpt><trkpt lat="45.69282537711109" lon="8.507536370925164"><ele>328.0</ele><time>2026-04-01T11:14:26.999Z</time></trkpt><trkpt lat="45.69277050389511" lon="8.507587004231304"><ele>328.0</ele><time>2026-04-01T11:14:27.999Z</time></trkpt><trkpt lat="45.69267247260582" lon="8.507648658200438"><ele>328.0</ele><time>2026-04-01T11:14:29.999Z</time></trkpt><trkpt lat="45.6925653659664" lon="8.507682931624728"><ele>328.0</ele><time>2026-04-01T11:14:31.999Z</time></trkpt><trkpt lat="45.69250190754369" lon="8.507707010465074"><ele>328.0</ele><time>2026-04-01T11:14:32.999Z</time></trkpt><trkpt lat="45.692432747227436" lon="8.507715218997614"><ele>327.4</ele><time>2026-04-01T11:14:33.999Z</time></trkpt><trkpt lat="45.692332146175545" lon="8.507770965126218"><ele>326.79999999999995</ele><time>2026-04-01T11:14:35.999Z</time></trkpt><trkpt lat="45.69222975741863" lon="8.507867427758796"><ele>326.2</ele><time>2026-04-01T11:14:37.999Z</time></trkpt><trkpt lat="45.69216999604834" lon="8.50792116717836"><ele>325.6</ele><time>2026-04-01T11:14:38.999Z</time></trkpt><trkpt lat="45.69207226602178" lon="8.507989680108338"><ele>325.0</ele><time>2026-04-01T11:14:40.999Z</time></trkpt><trkpt lat="45.69201623021413" lon="8.508032673403832"><ele>325.0</ele><time>2026-04-01T11:14:41.999Z</time></trkpt><trkpt lat="45.69195716306655" lon="8.508106479382631"><ele>325.0</ele><time>2026-04-01T11:14:43.999Z</time></trkpt><trkpt lat="45.691888809563906" lon="8.508162747949047"><ele>325.0</ele><time>2026-04-01T11:14:45.999Z</time></trkpt><trkpt lat="45.6918282405043" lon="8.508195567185169"><ele>325.0</ele><time>2026-04-01T11:14:47.999Z</time></trkpt><trkpt lat="45.691763962585945" lon="8.50824279141188"><ele>325.0</ele><time>2026-04-01T11:14:49.999Z</time></trkpt><trkpt lat="45.691671451617225" lon="8.508275408914264"><ele>325.0</ele><time>2026-04-01T11:14:51.999Z</time></trkpt><trkpt lat="45.69158638782266" lon="8.508341533053962"><ele>327.8</ele><time>2026-04-01T11:14:53.999Z</time></trkpt><trkpt lat="45.691502302997236" lon="8.508421923341231"><ele>330.6</ele><time>2026-04-01T11:14:55.999Z</time></trkpt><trkpt lat="45.69144472558877" lon="8.508462118447431"><ele>333.4</ele><time>2026-04-01T11:14:57Z</time></trkpt><trkpt lat="45.69131525310961" lon="8.50851852295782"><ele>336.2</ele><time>2026-04-01T11:14:59Z</time></trkpt><trkpt lat="45.69123907804048" lon="8.50854846067098"><ele>339.0</ele><time>2026-04-01T11:15:00Z</time></trkpt><trkpt lat="45.69113131604996" lon="8.508563578887117"><ele>338.8333333333333</ele><time>2026-04-01T11:15:02Z</time></trkpt><trkpt lat="45.691028828780915" lon="8.508594994022765"><ele>338.6666666666667</ele><time>2026-04-01T11:15:04Z</time></trkpt><trkpt lat="45.69097630663332" lon="8.508651323214377"><ele>338.5</ele><time>2026-04-01T11:15:06Z</time></trkpt><trkpt lat="45.6909174362635" lon="8.508694445621277"><ele>338.33333333333337</ele><time>2026-04-01T11:15:08Z</time></trkpt><trkpt lat="45.690824500647196" lon="8.508761088460256"><ele>338.1666666666667</ele><time>2026-04-01T11:15:11Z</time></trkpt><trkpt lat="45.690737742623654" lon="8.50879674818988"><ele>338.0</ele><time>2026-04-01T11:15:13Z</time></trkpt><trkpt lat="45.690658006349395" lon="8.508829170635119"><ele>338.0</ele><time>2026-04-01T11:15:16Z</time></trkpt><trkpt lat="45.6905691600322" lon="8.508882733624871"><ele>338.0</ele><time>2026-04-01T11:15:19Z</time></trkpt><trkpt lat="45.69044233422276" lon="8.508947498293551"><ele>338.0</ele><time>2026-04-01T11:15:21Z</time></trkpt><trkpt lat="45.69034407240769" lon="8.508987544407212"><ele>338.0</ele><time>2026-04-01T11:15:23Z</time></trkpt><trkpt lat="45.69027966693544" lon="8.509001494027933"><ele>338.0</ele><time>2026-04-01T11:15:24Z</time></trkpt><trkpt lat="45.69017426982904" lon="8.509041223769277"><ele>339.0</ele><time>2026-04-01T11:15:25Z</time></trkpt><trkpt lat="45.690085748178014" lon="8.509075322174322"><ele>340.0</ele><time>2026-04-01T11:15:26Z</time></trkpt><trkpt lat="45.69000681317946" lon="8.509104490428804"><ele>341.0</ele><time>2026-04-01T11:15:27Z</time></trkpt><trkpt lat="45.689931345666615" lon="8.509135155355372"><ele>342.0</ele><time>2026-04-01T11:15:28Z</time></trkpt><trkpt lat="45.68985366438048" lon="8.509181184455565"><ele>343.0</ele><time>2026-04-01T11:15:29Z</time></trkpt><trkpt lat="45.689759505861005" lon="8.50922019970727"><ele>344.0</ele><time>2026-04-01T11:15:30Z</time></trkpt><trkpt lat="45.68966495893133" lon="8.509261649135972"><ele>344.0</ele><time>2026-04-01T11:15:31Z</time></trkpt><trkpt lat="45.68959343139451" lon="8.509309739519454"><ele>344.0</ele><time>2026-04-01T11:15:32Z</time></trkpt><trkpt lat="45.68951271043625" lon="8.509353089772954"><ele>344.0</ele><time>2026-04-01T11:15:33Z</time></trkpt><trkpt lat="45.689448574261625" lon="8.509384395115005"><ele>344.0</ele><time>2026-04-01T11:15:34Z</time></trkpt><trkpt lat="45.68932623372613" lon="8.509408557545015"><ele>344.0</ele><time>2026-04-01T11:15:36Z</time></trkpt><trkpt lat="45.6892586082339" lon="8.509415433156954"><ele>344.0</ele><time>2026-04-01T11:15:37Z</time></trkpt><trkpt lat="45.68913472020922" lon="8.50940562456821"><ele>345.6</ele><time>2026-04-01T11:15:39Z</time></trkpt><trkpt lat="45.68906821267395" lon="8.509385211431745"><ele>347.2</ele><time>2026-04-01T11:15:40Z</time></trkpt><trkpt lat="45.688947157371906" lon="8.509336865351159"><ele>348.8</ele><time>2026-04-01T11:15:42Z</time></trkpt><trkpt lat="45.68885006539537" lon="8.509343562067802"><ele>350.40000000000003</ele><time>2026-04-01T11:15:44Z</time></trkpt><trkpt lat="45.68876476608029" lon="8.509296168440482"><ele>352.0</ele><time>2026-04-01T11:15:47.999Z</time></trkpt><trkpt lat="45.68869809083815" lon="8.509214449193193"><ele>352.0</ele><time>2026-04-01T11:15:49.999Z</time></trkpt><trkpt lat="45.68866286569339" lon="8.50913475404055"><ele>352.0</ele><time>2026-04-01T11:16:44.999Z</time></trkpt><trkpt lat="45.688590928889944" lon="8.509129610906825"><ele>352.0</ele><time>2026-04-01T11:16:47.999Z</time></trkpt><trkpt lat="45.688493740876936" lon="8.509114101469649"><ele>352.0</ele><time>2026-04-01T11:16:49.999Z</time></trkpt><trkpt lat="45.68842456726991" lon="8.509088998544415"><ele>352.0</ele><time>2026-04-01T11:16:50.999Z</time></trkpt><trkpt lat="45.68832022882576" lon="8.509058336292583"><ele>352.0</ele><time>2026-04-01T11:16:51.999Z</time></trkpt><trkpt lat="45.688241320507075" lon="8.50901534909353"><ele>351.66666666666663</ele><time>2026-04-01T11:16:52.999Z</time></trkpt><trkpt lat="45.688170595117526" lon="8.5089660427382"><ele>351.3333333333333</ele><time>2026-04-01T11:16:53.999Z</time></trkpt><trkpt lat="45.68810649697352" lon="8.508936154841082"><ele>351.0</ele><time>2026-04-01T11:16:54.999Z</time></trkpt><trkpt lat="45.688019499507476" lon="8.50889391444716"><ele>350.6666666666667</ele><time>2026-04-01T11:16:55.999Z</time></trkpt><trkpt lat="45.68795711732211" lon="8.50886785432589"><ele>350.33333333333337</ele><time>2026-04-01T11:16:56.999Z</time></trkpt><trkpt lat="45.687837128975296" lon="8.508824815181182"><ele>350.0</ele><time>2026-04-01T11:16:58.999Z</time></trkpt><trkpt lat="45.68777284304005" lon="8.508823039718303"><ele>349.83333333333337</ele><time>2026-04-01T11:16:59.999Z</time></trkpt><trkpt lat="45.68767560170798" lon="8.508880800924334"><ele>349.6666666666667</ele><time>2026-04-01T11:17:01.999Z</time></trkpt><trkpt lat="45.68758695150418" lon="8.50894192191275"><ele>349.5</ele><time>2026-04-01T11:17:04Z</time></trkpt><trkpt lat="45.6875366470534" lon="8.50901683675103"><ele>349.3333333333333</ele><time>2026-04-01T11:17:06Z</time></trkpt><trkpt lat="45.68747195847171" lon="8.50904742014686"><ele>349.16666666666663</ele><time>2026-04-01T11:17:08Z</time></trkpt><trkpt lat="45.68740197982241" lon="8.509083719857621"><ele>349.0</ele><time>2026-04-01T11:17:11Z</time></trkpt><trkpt lat="45.687337687523154" lon="8.509181434858117"><ele>348.99999999999994</ele><time>2026-04-01T11:17:26Z</time></trkpt><trkpt lat="45.687262352073475" lon="8.50924369810922"><ele>349.0</ele><time>2026-04-01T11:17:33Z</time></trkpt><trkpt lat="45.687205827568505" lon="8.509307556575198"><ele>349.0</ele><time>2026-04-01T11:17:35Z</time></trkpt><trkpt lat="45.687172481953006" lon="8.509384888252844"><ele>349.0</ele><time>2026-04-01T11:17:36Z</time></trkpt><trkpt lat="45.68709847438628" lon="8.509421209844627"><ele>349.0</ele><time>2026-04-01T11:17:37Z</time></trkpt><trkpt lat="45.68704446525645" lon="8.50947292302027"><ele>348.99999999999994</ele><time>2026-04-01T11:17:38Z</time></trkpt><trkpt lat="45.686988054684235" lon="8.509519461373866"><ele>349.0</ele><time>2026-04-01T11:17:39Z</time></trkpt><trkpt lat="45.68689468662687" lon="8.509618844556538"><ele>347.8333333333333</ele><time>2026-04-01T11:17:41Z</time></trkpt><trkpt lat="45.68682176326433" lon="8.509668385096614"><ele>346.66666666666663</ele><time>2026-04-01T11:17:42Z</time></trkpt><trkpt lat="45.68675766385054" lon="8.50971614099035"><ele>345.5</ele><time>2026-04-01T11:17:43Z</time></trkpt><trkpt lat="45.686689609734906" lon="8.509760123473106"><ele>344.3333333333333</ele><time>2026-04-01T11:17:44Z</time></trkpt><trkpt lat="45.686616570395145" lon="8.509820155749136"><ele>343.1666666666667</ele><time>2026-04-01T11:17:45Z</time></trkpt><trkpt lat="45.68651048499515" lon="8.50988136045374"><ele>342.0</ele><time>2026-04-01T11:17:47Z</time></trkpt><trkpt lat="45.68640865814202" lon="8.510041968341172"><ele>342.0</ele><time>2026-04-01T11:17:49Z</time></trkpt><trkpt lat="45.68632904354115" lon="8.510133296134615"><ele>342.0</ele><time>2026-04-01T11:17:50Z</time></trkpt><trkpt lat="45.68625883095964" lon="8.51020874032278"><ele>342.0</ele><time>2026-04-01T11:17:51Z</time></trkpt><trkpt lat="45.68620407427486" lon="8.510292674562116"><ele>342.0</ele><time>2026-04-01T11:17:52Z</time></trkpt><trkpt lat="45.68614143709289" lon="8.510426391599239"><ele>342.0</ele><time>2026-04-01T11:17:54Z</time></trkpt><trkpt lat="45.686117470517516" lon="8.510537256150215"><ele>341.3333333333333</ele><time>2026-04-01T11:17:56Z</time></trkpt><trkpt lat="45.68610929446072" lon="8.510688293091114"><ele>340.6666666666667</ele><time>2026-04-01T11:17:58Z</time></trkpt><trkpt lat="45.686085939987926" lon="8.510776182696471"><ele>340.0</ele><time>2026-04-01T11:17:59Z</time></trkpt><trkpt lat="45.68607156639248" lon="8.51086585967688"><ele>339.33333333333337</ele><time>2026-04-01T11:18:00Z</time></trkpt><trkpt lat="45.686058311890676" lon="8.510956859945177"><ele>338.6666666666667</ele><time>2026-04-01T11:18:01Z</time></trkpt><trkpt lat="45.686028185834424" lon="8.51109466945604"><ele>338.0</ele><time>2026-04-01T11:18:03Z</time></trkpt><trkpt lat="45.68599040754316" lon="8.51123489554289"><ele>337.1666666666667</ele><time>2026-04-01T11:18:05Z</time></trkpt><trkpt lat="45.685955196320684" lon="8.511312537584018"><ele>336.33333333333337</ele><time>2026-04-01T11:18:06Z</time></trkpt><trkpt lat="45.68587681797091" lon="8.511455443401749"><ele>335.5</ele><time>2026-04-01T11:18:08Z</time></trkpt><trkpt lat="45.68582765207027" lon="8.511528898565096"><ele>334.6666666666667</ele><time>2026-04-01T11:18:09Z</time></trkpt><trkpt lat="45.68575852586209" lon="8.511619525654611"><ele>333.8333333333333</ele><time>2026-04-01T11:18:11Z</time></trkpt><trkpt lat="45.68572966080453" lon="8.511727049090009"><ele>333.0</ele><time>2026-04-01T11:18:13Z</time></trkpt><trkpt lat="45.685678019906845" lon="8.511823772199104"><ele>333.0</ele><time>2026-04-01T11:18:15Z</time></trkpt><trkpt lat="45.685624485539755" lon="8.511895075605441"><ele>333.0</ele><time>2026-04-01T11:18:17Z</time></trkpt><trkpt lat="45.68558120478804" lon="8.511962541703953"><ele>333.0</ele><time>2026-04-01T11:18:19Z</time></trkpt><trkpt lat="45.68551727211121" lon="8.512038857722851"><ele>333.0</ele><time>2026-04-01T11:18:23Z</time></trkpt><trkpt lat="45.68545992035746" lon="8.512094552884632"><ele>333.0</ele><time>2026-04-01T11:18:27Z</time></trkpt><trkpt lat="45.68538428650416" lon="8.51214042575808"><ele>333.0</ele><time>2026-04-01T11:18:30Z</time></trkpt><trkpt lat="45.68525067150398" lon="8.51217984207062"><ele>332.59999999999997</ele><time>2026-04-01T11:18:32Z</time></trkpt><trkpt lat="45.68515810972698" lon="8.512217543862898"><ele>332.2</ele><time>2026-04-01T11:18:33Z</time></trkpt><trkpt lat="45.68508633559005" lon="8.512280084227916"><ele>331.8</ele><time>2026-04-01T11:18:34Z</time></trkpt><trkpt lat="45.685016412628464" lon="8.512375352000836"><ele>331.4</ele><time>2026-04-01T11:18:36Z</time></trkpt><trkpt lat="45.68494507506291" lon="8.512479336518753"><ele>331.0</ele><time>2026-04-01T11:18:38Z</time></trkpt><trkpt lat="45.684830781827735" lon="8.512537277982053"><ele>331.0</ele><time>2026-04-01T11:18:40Z</time></trkpt><trkpt lat="45.68473943803541" lon="8.51256631550646"><ele>331.0</ele><time>2026-04-01T11:18:40.999Z</time></trkpt><trkpt lat="45.684654939421705" lon="8.512580381907748"><ele>331.0</ele><time>2026-04-01T11:18:41.999Z</time></trkpt><trkpt lat="45.68458092435931" lon="8.512613641456964"><ele>331.0</ele><time>2026-04-01T11:18:42.999Z</time></trkpt><trkpt lat="45.68451492867404" lon="8.512635029447617"><ele>331.0</ele><time>2026-04-01T11:18:43.999Z</time></trkpt><trkpt lat="45.68444770739523" lon="8.512663991684901"><ele>331.0</ele><time>2026-04-01T11:18:44.999Z</time></trkpt><trkpt lat="45.684379548896395" lon="8.512691896808885"><ele>331.3333333333333</ele><time>2026-04-01T11:18:45.999Z</time></trkpt><trkpt lat="45.68430457881647" lon="8.512729286327865"><ele>331.66666666666663</ele><time>2026-04-01T11:18:46.999Z</time></trkpt><trkpt lat="45.68424153422549" lon="8.512753802167428"><ele>332.0</ele><time>2026-04-01T11:18:47.999Z</time></trkpt><trkpt lat="45.684173304681565" lon="8.512783530638272"><ele>332.3333333333333</ele><time>2026-04-01T11:18:48.999Z</time></trkpt><trkpt lat="45.6840638886963" lon="8.512838983973971"><ele>332.6666666666667</ele><time>2026-04-01T11:18:50.999Z</time></trkpt><trkpt lat="45.68399992407994" lon="8.512858901833454"><ele>333.0</ele><time>2026-04-01T11:18:51.999Z</time></trkpt><trkpt lat="45.68391347217672" lon="8.512880685209561"><ele>333.0</ele><time>2026-04-01T11:18:52.999Z</time></trkpt><trkpt lat="45.68385115024006" lon="8.512901239114063"><ele>333.0</ele><time>2026-04-01T11:18:53.999Z</time></trkpt><trkpt lat="45.68377038949654" lon="8.512904506988644"><ele>333.0</ele><time>2026-04-01T11:18:54.999Z</time></trkpt><trkpt lat="45.683681084177834" lon="8.512925110141877"><ele>333.0</ele><time>2026-04-01T11:18:55.999Z</time></trkpt><trkpt lat="45.68361403860608" lon="8.51294675505813"><ele>333.0</ele><time>2026-04-01T11:18:56.999Z</time></trkpt><trkpt lat="45.68353831306679" lon="8.51297179446217"><ele>333.0</ele><time>2026-04-01T11:18:57.999Z</time></trkpt><trkpt lat="45.683450991533505" lon="8.512996841442042"><ele>331.3333333333333</ele><time>2026-04-01T11:18:58.999Z</time></trkpt><trkpt lat="45.68338503697127" lon="8.513006254396862"><ele>329.6666666666667</ele><time>2026-04-01T11:18:59.999Z</time></trkpt><trkpt lat="45.68328370398205" lon="8.513031303722764"><ele>328.0</ele><time>2026-04-01T11:19:01.999Z</time></trkpt><trkpt lat="45.68321966875373" lon="8.513039938864887"><ele>326.33333333333337</ele><time>2026-04-01T11:19:04.999Z</time></trkpt><trkpt lat="45.68313467266927" lon="8.513042749911005"><ele>324.6666666666667</ele><time>2026-04-01T11:19:25Z</time></trkpt><trkpt lat="45.68307122822697" lon="8.513063348963612"><ele>323.0</ele><time>2026-04-01T11:19:33Z</time></trkpt><trkpt lat="45.683010136805" lon="8.513016940194275"><ele>323.0</ele><time>2026-04-01T11:19:45Z</time></trkpt><trkpt lat="45.68294953190674" lon="8.51306255432938"><ele>323.0</ele><time>2026-04-01T11:19:51Z</time></trkpt><trkpt lat="45.68288127051166" lon="8.51307670337486"><ele>323.0</ele><time>2026-04-01T11:19:53Z</time></trkpt><trkpt lat="45.682794500757105" lon="8.51307594743175"><ele>323.0</ele><time>2026-04-01T11:19:57Z</time></trkpt><trkpt lat="45.68271794542521" lon="8.51307991313415"><ele>323.0</ele><time>2026-04-01T11:19:59Z</time></trkpt><trkpt lat="45.68263485303272" lon="8.513068963447619"><ele>323.0</ele><time>2026-04-01T11:20:01Z</time></trkpt><trkpt lat="45.68254219255724" lon="8.513088405426243"><ele>323.59999999999997</ele><time>2026-04-01T11:20:03Z</time></trkpt><trkpt lat="45.68239587395755" lon="8.513078726953326"><ele>324.2</ele><time>2026-04-01T11:20:05Z</time></trkpt><trkpt lat="45.68231011523678" lon="8.513062128455775"><ele>324.8</ele><time>2026-04-01T11:20:06Z</time></trkpt><trkpt lat="45.68222549535636" lon="8.513045407050212"><ele>325.4</ele><time>2026-04-01T11:20:07Z</time></trkpt><trkpt lat="45.6821351260419" lon="8.513040103409866"><ele>326.0</ele><time>2026-04-01T11:20:08Z</time></trkpt><trkpt lat="45.68204731316276" lon="8.513016776897533"><ele>326.0</ele><time>2026-04-01T11:20:09Z</time></trkpt><trkpt lat="45.68195560816644" lon="8.51299478780259"><ele>326.0</ele><time>2026-04-01T11:20:10Z</time></trkpt><trkpt lat="45.68187061699333" lon="8.512967282953134"><ele>326.0</ele><time>2026-04-01T11:20:11Z</time></trkpt><trkpt lat="45.68179721521712" lon="8.512944971508125"><ele>326.0</ele><time>2026-04-01T11:20:12Z</time></trkpt><trkpt lat="45.68168889537351" lon="8.512937768754183"><ele>326.0</ele><time>2026-04-01T11:20:14Z</time></trkpt><trkpt lat="45.681548772172086" lon="8.512980631420758"><ele>326.4</ele><time>2026-04-01T11:20:16Z</time></trkpt><trkpt lat="45.681471704886974" lon="8.513009865035574"><ele>326.8</ele><time>2026-04-01T11:20:17Z</time></trkpt><trkpt lat="45.6813814356613" lon="8.513021631434052"><ele>327.2</ele><time>2026-04-01T11:20:18Z</time></trkpt><trkpt lat="45.681284546806005" lon="8.513033812634907"><ele>327.59999999999997</ele><time>2026-04-01T11:20:19Z</time></trkpt><trkpt lat="45.68119520208544" lon="8.513054978787377"><ele>328.0</ele><time>2026-04-01T11:20:20Z</time></trkpt><trkpt lat="45.68110288836219" lon="8.513087896811635"><ele>328.16666666666663</ele><time>2026-04-01T11:20:20.999Z</time></trkpt><trkpt lat="45.6810144417281" lon="8.513118335239426"><ele>328.3333333333333</ele><time>2026-04-01T11:20:21.999Z</time></trkpt><trkpt lat="45.68093249558032" lon="8.513149194283145"><ele>328.5</ele><time>2026-04-01T11:20:22.999Z</time></trkpt><trkpt lat="45.68085957194096" lon="8.513173916984096"><ele>328.6666666666667</ele><time>2026-04-01T11:20:23.999Z</time></trkpt><trkpt lat="45.680774080312574" lon="8.513209342793981"><ele>328.83333333333337</ele><time>2026-04-01T11:20:24.999Z</time></trkpt><trkpt lat="45.68067242008988" lon="8.513265287902042"><ele>329.0</ele><time>2026-04-01T11:20:26.999Z</time></trkpt><trkpt lat="45.68054450440405" lon="8.513330108422943"><ele>329.0</ele><time>2026-04-01T11:20:28.999Z</time></trkpt><trkpt lat="45.68042814429983" lon="8.51339062374816"><ele>329.0</ele><time>2026-04-01T11:20:30.999Z</time></trkpt><trkpt lat="45.68035948750319" lon="8.51342236226165"><ele>329.0</ele><time>2026-04-01T11:20:31.999Z</time></trkpt><trkpt lat="45.680254173965736" lon="8.513430892434627"><ele>329.0</ele><time>2026-04-01T11:20:33.999Z</time></trkpt><trkpt lat="45.68018910331203" lon="8.513455030290615"><ele>329.0</ele><time>2026-04-01T11:20:34.999Z</time></trkpt><trkpt lat="45.68012589206593" lon="8.513462613664014"><ele>329.0</ele><time>2026-04-01T11:20:35.999Z</time></trkpt><trkpt lat="45.680060719877595" lon="8.5134718375301"><ele>329.4</ele><time>2026-04-01T11:20:36.999Z</time></trkpt><trkpt lat="45.67992704687352" lon="8.5134861757698"><ele>329.79999999999995</ele><time>2026-04-01T11:20:38.999Z</time></trkpt><trkpt lat="45.67984411691778" lon="8.513486330367446"><ele>330.20000000000005</ele><time>2026-04-01T11:20:39.999Z</time></trkpt><trkpt lat="45.67976507075054" lon="8.51348940027288"><ele>330.6</ele><time>2026-04-01T11:20:40.999Z</time></trkpt><trkpt lat="45.679697999189806" lon="8.513493197598304"><ele>331.0</ele><time>2026-04-01T11:20:41.999Z</time></trkpt><trkpt lat="45.67959769755231" lon="8.513487448055415"><ele>331.0</ele><time>2026-04-01T11:20:43.999Z</time></trkpt><trkpt lat="45.679525455776464" lon="8.513498936520564"><ele>331.0</ele><time>2026-04-01T11:20:44.999Z</time></trkpt><trkpt lat="45.6794629337583" lon="8.513515387096183"><ele>331.0</ele><time>2026-04-01T11:20:45.999Z</time></trkpt><trkpt lat="45.67937843530539" lon="8.513518068135731"><ele>331.0</ele><time>2026-04-01T11:20:47.999Z</time></trkpt><trkpt lat="45.679292217137935" lon="8.513512896944382"><ele>331.0</ele><time>2026-04-01T11:20:48.999Z</time></trkpt><trkpt lat="45.679189655453605" lon="8.51350718570312"><ele>331.0</ele><time>2026-04-01T11:20:49.999Z</time></trkpt><trkpt lat="45.67909331425451" lon="8.513497856572462"><ele>330.0</ele><time>2026-04-01T11:20:50.999Z</time></trkpt><trkpt lat="45.67901346390982" lon="8.513484358737559"><ele>329.0</ele><time>2026-04-01T11:20:51.999Z</time></trkpt><trkpt lat="45.67893923759892" lon="8.513479731626992"><ele>328.0</ele><time>2026-04-01T11:20:52.999Z</time></trkpt><trkpt lat="45.67883957837022" lon="8.513456179257112"><ele>327.0</ele><time>2026-04-01T11:20:54.999Z</time></trkpt><trkpt lat="45.678763046306834" lon="8.513431497823023"><ele>326.0</ele><time>2026-04-01T11:20:57.999Z</time></trkpt><trkpt lat="45.67869712082442" lon="8.513458581033579"><ele>325.0</ele><time>2026-04-01T11:20:59.999Z</time></trkpt><trkpt lat="45.678633809901505" lon="8.513468885621494"><ele>324.2</ele><time>2026-04-01T11:21:00.999Z</time></trkpt><trkpt lat="45.678569489962385" lon="8.5134695741777"><ele>323.4</ele><time>2026-04-01T11:21:01.999Z</time></trkpt><trkpt lat="45.678487166835794" lon="8.513451375033618"><ele>322.6</ele><time>2026-04-01T11:21:02.999Z</time></trkpt><trkpt lat="45.67833838973876" lon="8.513476988845865"><ele>321.8</ele><time>2026-04-01T11:21:04.999Z</time></trkpt><trkpt lat="45.67823925554266" lon="8.513462520090732"><ele>321.0</ele><time>2026-04-01T11:21:05.999Z</time></trkpt><trkpt lat="45.678135670760156" lon="8.513451367945601"><ele>321.0</ele><time>2026-04-01T11:21:06.999Z</time></trkpt><trkpt lat="45.67803601789987" lon="8.513428723372652"><ele>321.0</ele><time>2026-04-01T11:21:07.999Z</time></trkpt><trkpt lat="45.677935335706515" lon="8.513415716942495"><ele>321.0</ele><time>2026-04-01T11:21:08.999Z</time></trkpt><trkpt lat="45.67782975804211" lon="8.513393530326942"><ele>321.0</ele><time>2026-04-01T11:21:09.999Z</time></trkpt><trkpt lat="45.677733666545834" lon="8.513362714779523"><ele>321.0</ele><time>2026-04-01T11:21:10.999Z</time></trkpt><trkpt lat="45.67763241993858" lon="8.51333970351596"><ele>320.0</ele><time>2026-04-01T11:21:11.999Z</time></trkpt><trkpt lat="45.67754021844122" lon="8.51332462532057"><ele>319.0</ele><time>2026-04-01T11:21:12.999Z</time></trkpt><trkpt lat="45.677447334094865" lon="8.513305903146618"><ele>318.0</ele><time>2026-04-01T11:21:13.999Z</time></trkpt><trkpt lat="45.6773585123632" lon="8.513281717203059"><ele>317.0</ele><time>2026-04-01T11:21:15.001Z</time></trkpt><trkpt lat="45.67725930341792" lon="8.513264309566784"><ele>316.0</ele><time>2026-04-01T11:21:16Z</time></trkpt><trkpt lat="45.677167215511616" lon="8.513238893542876"><ele>316.0</ele><time>2026-04-01T11:21:17Z</time></trkpt><trkpt lat="45.67707153757582" lon="8.51321577158075"><ele>316.0</ele><time>2026-04-01T11:21:18.001Z</time></trkpt><trkpt lat="45.6769741156545" lon="8.513187202001125"><ele>316.0</ele><time>2026-04-01T11:21:19Z</time></trkpt><trkpt lat="45.67687870014039" lon="8.51315531329658"><ele>316.0</ele><time>2026-04-01T11:21:20Z</time></trkpt><trkpt lat="45.67677999764747" lon="8.513134704381107"><ele>316.0</ele><time>2026-04-01T11:21:21.001Z</time></trkpt><trkpt lat="45.676693880656316" lon="8.513112365164694"><ele>315.40000000000003</ele><time>2026-04-01T11:21:22Z</time></trkpt><trkpt lat="45.67661730984238" lon="8.513097497663784"><ele>314.8</ele><time>2026-04-01T11:21:23Z</time></trkpt><trkpt lat="45.676504410599684" lon="8.513069872851359"><ele>314.20000000000005</ele><time>2026-04-01T11:21:25Z</time></trkpt><trkpt lat="45.67642925074365" lon="8.512989037909366"><ele>313.6</ele><time>2026-04-01T11:21:27.001Z</time></trkpt><trkpt lat="45.676395361867186" lon="8.51289626659931"><ele>313.0</ele><time>2026-04-01T11:21:29Z</time></trkpt><trkpt lat="45.67619815223317" lon="8.512899155527043"><ele>311.85714285714283</ele><time>2026-04-01T11:22:01Z</time></trkpt><trkpt lat="45.67611672292607" lon="8.512916332219989"><ele>310.7142857142857</ele><time>2026-04-01T11:22:02Z</time></trkpt><trkpt lat="45.676025643072954" lon="8.512915092417325"><ele>309.57142857142856</ele><time>2026-04-01T11:22:03Z</time></trkpt><trkpt lat="45.67595998738954" lon="8.51292706118301"><ele>308.42857142857144</ele><time>2026-04-01T11:22:04Z</time></trkpt><trkpt lat="45.67589078133992" lon="8.512941379659626"><ele>307.2857142857143</ele><time>2026-04-01T11:22:05Z</time></trkpt><trkpt lat="45.67582041723792" lon="8.512943034067131"><ele>306.14285714285717</ele><time>2026-04-01T11:22:06Z</time></trkpt><trkpt lat="45.675752729678884" lon="8.512944747064463"><ele>305.0</ele><time>2026-04-01T11:22:07Z</time></trkpt><trkpt lat="45.675686077575584" lon="8.512936051589108"><ele>304.5</ele><time>2026-04-01T11:22:08Z</time></trkpt><trkpt lat="45.675611616182" lon="8.51293655745669"><ele>304.0</ele><time>2026-04-01T11:22:09Z</time></trkpt><trkpt lat="45.67553578467657" lon="8.512941477322967"><ele>303.5</ele><time>2026-04-01T11:22:10Z</time></trkpt><trkpt lat="45.675470523330844" lon="8.512948343528544"><ele>303.0</ele><time>2026-04-01T11:22:11Z</time></trkpt><trkpt lat="45.6753939443761" lon="8.512960554352603"><ele>302.5</ele><time>2026-04-01T11:22:12Z</time></trkpt><trkpt lat="45.675310808187334" lon="8.512980387235874"><ele>302.0</ele><time>2026-04-01T11:22:13Z</time></trkpt><trkpt lat="45.6752377301126" lon="8.512985807559922"><ele>301.5714285714286</ele><time>2026-04-01T11:22:14Z</time></trkpt><trkpt lat="45.675156987828366" lon="8.513005882780469"><ele>301.14285714285717</ele><time>2026-04-01T11:22:15Z</time></trkpt><trkpt lat="45.67508685042183" lon="8.513015620327224"><ele>300.7142857142857</ele><time>2026-04-01T11:22:16Z</time></trkpt><trkpt lat="45.67501424307144" lon="8.513036874833837"><ele>300.28571428571433</ele><time>2026-04-01T11:22:17Z</time></trkpt><trkpt lat="45.674950072504394" lon="8.513054559768397"><ele>299.8571428571429</ele><time>2026-04-01T11:22:18Z</time></trkpt><trkpt lat="45.674886453161044" lon="8.513075796594581"><ele>299.42857142857144</ele><time>2026-04-01T11:22:19Z</time></trkpt><trkpt lat="45.674822847074736" lon="8.513091035211687"><ele>299.0</ele><time>2026-04-01T11:22:20Z</time></trkpt><trkpt lat="45.67470398958852" lon="8.51313139397365"><ele>299.0</ele><time>2026-04-01T11:22:22Z</time></trkpt><trkpt lat="45.67464219610171" lon="8.513180270944016"><ele>299.0</ele><time>2026-04-01T11:22:23Z</time></trkpt><trkpt lat="45.674582075532086" lon="8.513249242984157"><ele>299.0</ele><time>2026-04-01T11:22:24Z</time></trkpt><trkpt lat="45.67451097518297" lon="8.513301262954325"><ele>299.0</ele><time>2026-04-01T11:22:25Z</time></trkpt><trkpt lat="45.67441960767875" lon="8.513328866946337"><ele>299.0</ele><time>2026-04-01T11:22:26Z</time></trkpt><trkpt lat="45.674329968344644" lon="8.51334080136508"><ele>299.0</ele><time>2026-04-01T11:22:27Z</time></trkpt><trkpt lat="45.67423091503137" lon="8.513346650231133"><ele>298.6666666666667</ele><time>2026-04-01T11:22:28Z</time></trkpt><trkpt lat="45.67413604822055" lon="8.51335543167493"><ele>298.33333333333337</ele><time>2026-04-01T11:22:29Z</time></trkpt><trkpt lat="45.67404563903753" lon="8.513364835571293"><ele>298.0</ele><time>2026-04-01T11:22:30Z</time></trkpt><trkpt lat="45.673958041725946" lon="8.51336672741172"><ele>297.6666666666667</ele><time>2026-04-01T11:22:31Z</time></trkpt><trkpt lat="45.6738753383088" lon="8.513372659355523"><ele>297.3333333333333</ele><time>2026-04-01T11:22:31.999Z</time></trkpt><trkpt lat="45.67379729947082" lon="8.513389561164413"><ele>297.0</ele><time>2026-04-01T11:22:32.999Z</time></trkpt><trkpt lat="45.673714975312535" lon="8.513399778959954"><ele>297.0</ele><time>2026-04-01T11:22:33.999Z</time></trkpt><trkpt lat="45.673638402860355" lon="8.513405767235293"><ele>297.0</ele><time>2026-04-01T11:22:34.999Z</time></trkpt><trkpt lat="45.67356251831971" lon="8.513393732289"><ele>297.0</ele><time>2026-04-01T11:22:35.999Z</time></trkpt><trkpt lat="45.67349417691138" lon="8.51338774621525"><ele>297.0</ele><time>2026-04-01T11:22:36.999Z</time></trkpt><trkpt lat="45.673421739664114" lon="8.513360091572467"><ele>297.0</ele><time>2026-04-01T11:22:37.999Z</time></trkpt><trkpt lat="45.67334675211516" lon="8.513346533768926"><ele>297.0</ele><time>2026-04-01T11:22:38.999Z</time></trkpt><trkpt lat="45.673273859673564" lon="8.513372537897707"><ele>297.0</ele><time>2026-04-01T11:22:39.999Z</time></trkpt><trkpt lat="45.67320319172925" lon="8.513404108930134"><ele>296.7142857142857</ele><time>2026-04-01T11:22:40.999Z</time></trkpt><trkpt lat="45.673130029852416" lon="8.513426871340071"><ele>296.42857142857144</ele><time>2026-04-01T11:22:41.999Z</time></trkpt><trkpt lat="45.673056540497186" lon="8.513441767802076"><ele>296.14285714285717</ele><time>2026-04-01T11:22:42.999Z</time></trkpt><trkpt lat="45.67298021933647" lon="8.51345535570709"><ele>295.8571428571429</ele><time>2026-04-01T11:22:43.999Z</time></trkpt><trkpt lat="45.67290420719378" lon="8.513446635181555"><ele>295.57142857142856</ele><time>2026-04-01T11:22:44.999Z</time></trkpt><trkpt lat="45.672833660078254" lon="8.513447238138967"><ele>295.28571428571433</ele><time>2026-04-01T11:22:45.999Z</time></trkpt><trkpt lat="45.67275870339545" lon="8.513433241540598"><ele>295.0</ele><time>2026-04-01T11:22:46.999Z</time></trkpt><trkpt lat="45.67268826547861" lon="8.513418893556437"><ele>294.8333333333333</ele><time>2026-04-01T11:22:47.999Z</time></trkpt><trkpt lat="45.67257531586885" lon="8.5133768497578"><ele>294.66666666666663</ele><time>2026-04-01T11:22:49.999Z</time></trkpt><trkpt lat="45.672512291184866" lon="8.51335148887093"><ele>294.5</ele><time>2026-04-01T11:22:50.999Z</time></trkpt><trkpt lat="45.672449305039514" lon="8.513329387000216"><ele>294.3333333333333</ele><time>2026-04-01T11:22:51.999Z</time></trkpt><trkpt lat="45.672368741700794" lon="8.513279511000858"><ele>294.1666666666667</ele><time>2026-04-01T11:22:53.999Z</time></trkpt><trkpt lat="45.67229680493166" lon="8.513260149589687"><ele>294.0</ele><time>2026-04-01T11:22:56.999Z</time></trkpt><trkpt lat="45.67217266153974" lon="8.513193014446898"><ele>294.0</ele><time>2026-04-01T11:22:58.999Z</time></trkpt><trkpt lat="45.672082411957646" lon="8.513131422637594"><ele>294.0</ele><time>2026-04-01T11:22:59.999Z</time></trkpt><trkpt lat="45.67199627166665" lon="8.513076878481586"><ele>294.0</ele><time>2026-04-01T11:23:00.999Z</time></trkpt><trkpt lat="45.67192678703343" lon="8.513029256476475"><ele>294.0</ele><time>2026-04-01T11:23:01.999Z</time></trkpt><trkpt lat="45.671857242898014" lon="8.51298081746067"><ele>294.0</ele><time>2026-04-01T11:23:03.999Z</time></trkpt><trkpt lat="45.671857588161025" lon="8.512812015751887"><ele>294.0</ele><time>2026-04-01T11:23:06.999Z</time></trkpt><trkpt lat="45.67187502142808" lon="8.512710036246888"><ele>294.0</ele><time>2026-04-01T11:23:07.999Z</time></trkpt><trkpt lat="45.67188559004194" lon="8.512587959272256"><ele>294.0</ele><time>2026-04-01T11:23:08.999Z</time></trkpt><trkpt lat="45.67189607053171" lon="8.512454763256022"><ele>294.0</ele><time>2026-04-01T11:23:09.999Z</time></trkpt><trkpt lat="45.67189714489833" lon="8.512354809804465"><ele>294.0</ele><time>2026-04-01T11:23:10.999Z</time></trkpt><trkpt lat="45.67193035337505" lon="8.512177720701501"><ele>294.0</ele><time>2026-04-01T11:23:12.999Z</time></trkpt><trkpt lat="45.67194780780133" lon="8.512080522290349"><ele>294.0</ele><time>2026-04-01T11:23:13.999Z</time></trkpt><trkpt lat="45.67196485012293" lon="8.511976093263577"><ele>294.0</ele><time>2026-04-01T11:23:14.999Z</time></trkpt><trkpt lat="45.67197760197532" lon="8.511882156928968"><ele>294.0</ele><time>2026-04-01T11:23:15.999Z</time></trkpt><trkpt lat="45.67199153258092" lon="8.51178576058534"><ele>294.0</ele><time>2026-04-01T11:23:16.999Z</time></trkpt><trkpt lat="45.67199793612764" lon="8.51168403884602"><ele>294.0</ele><time>2026-04-01T11:23:17.999Z</time></trkpt><trkpt lat="45.6720157970945" lon="8.511574616755594"><ele>294.0</ele><time>2026-04-01T11:23:18.999Z</time></trkpt><trkpt lat="45.67202421325139" lon="8.511476707256858"><ele>294.5</ele><time>2026-04-01T11:23:19.999Z</time></trkpt><trkpt lat="45.672029978289274" lon="8.511378875465828"><ele>295.0</ele><time>2026-04-01T11:23:21.001Z</time></trkpt><trkpt lat="45.672031509893976" lon="8.511260234380781"><ele>295.5</ele><time>2026-04-01T11:23:22Z</time></trkpt><trkpt lat="45.672043203169196" lon="8.51114715638286"><ele>296.0</ele><time>2026-04-01T11:23:23Z</time></trkpt><trkpt lat="45.67205428540283" lon="8.511034527467393"><ele>296.5</ele><time>2026-04-01T11:23:24.001Z</time></trkpt><trkpt lat="45.672065838161814" lon="8.510933586301373"><ele>297.0</ele><time>2026-04-01T11:23:25Z</time></trkpt><trkpt lat="45.67207962371753" lon="8.510828248130219"><ele>297.8333333333333</ele><time>2026-04-01T11:23:26Z</time></trkpt><trkpt lat="45.672103401886105" lon="8.510723044488426"><ele>298.6666666666667</ele><time>2026-04-01T11:23:27.001Z</time></trkpt><trkpt lat="45.672132344537154" lon="8.510612496758133"><ele>299.5</ele><time>2026-04-01T11:23:28.001Z</time></trkpt><trkpt lat="45.67214897919408" lon="8.510504832678983"><ele>300.33333333333337</ele><time>2026-04-01T11:23:29.001Z</time></trkpt><trkpt lat="45.67217575188789" lon="8.510402955014683"><ele>301.1666666666667</ele><time>2026-04-01T11:23:30.001Z</time></trkpt><trkpt lat="45.672218519741804" lon="8.510330444107801"><ele>302.0</ele><time>2026-04-01T11:23:31Z</time></trkpt><trkpt lat="45.67229135204474" lon="8.510210565073802"><ele>304.0</ele><time>2026-04-01T11:23:33Z</time></trkpt><trkpt lat="45.67235598243616" lon="8.510064486308252"><ele>306.0</ele><time>2026-04-01T11:23:35Z</time></trkpt><trkpt lat="45.67239337408437" lon="8.509893845126104"><ele>308.0</ele><time>2026-04-01T11:23:37Z</time></trkpt><trkpt lat="45.67239638028872" lon="8.509734866140377"><ele>310.0</ele><time>2026-04-01T11:23:39Z</time></trkpt><trkpt lat="45.67244364620978" lon="8.509631782101678"><ele>312.0</ele><time>2026-04-01T11:23:40Z</time></trkpt><trkpt lat="45.67248930671515" lon="8.50950467089041"><ele>312.6666666666667</ele><time>2026-04-01T11:23:41Z</time></trkpt><trkpt lat="45.67252469836378" lon="8.509391729528007"><ele>313.3333333333333</ele><time>2026-04-01T11:23:42Z</time></trkpt><trkpt lat="45.67255967524958" lon="8.509286177245412"><ele>314.0</ele><time>2026-04-01T11:23:43Z</time></trkpt><trkpt lat="45.67259328268182" lon="8.509195278767677"><ele>314.66666666666663</ele><time>2026-04-01T11:23:44Z</time></trkpt><trkpt lat="45.672645908994774" lon="8.509048060375783"><ele>315.3333333333333</ele><time>2026-04-01T11:23:46Z</time></trkpt><trkpt lat="45.672636729989655" lon="8.508953543233147"><ele>316.0</ele><time>2026-04-01T11:23:49Z</time></trkpt><trkpt lat="45.672784486547734" lon="8.508692319209572"><ele>316.3333333333333</ele><time>2026-04-01T11:24:19Z</time></trkpt><trkpt lat="45.67285509832936" lon="8.50864045210399"><ele>316.66666666666663</ele><time>2026-04-01T11:24:20Z</time></trkpt><trkpt lat="45.67292806964957" lon="8.508597290641005"><ele>317.0</ele><time>2026-04-01T11:24:21Z</time></trkpt><trkpt lat="45.67301673183384" lon="8.508585068726756"><ele>317.3333333333333</ele><time>2026-04-01T11:24:22Z</time></trkpt><trkpt lat="45.67311015465701" lon="8.508587094368561"><ele>317.6666666666667</ele><time>2026-04-01T11:24:23Z</time></trkpt><trkpt lat="45.673204945851325" lon="8.508570429863024"><ele>318.0</ele><time>2026-04-01T11:24:24Z</time></trkpt><trkpt lat="45.67330801053706" lon="8.508550131749457"><ele>318.0</ele><time>2026-04-01T11:24:25Z</time></trkpt><trkpt lat="45.67340443728945" lon="8.508517619277315"><ele>318.0</ele><time>2026-04-01T11:24:26Z</time></trkpt><trkpt lat="45.67350742889816" lon="8.508482603798"><ele>318.0</ele><time>2026-04-01T11:24:27Z</time></trkpt><trkpt lat="45.673604547383064" lon="8.508445778929685"><ele>318.0</ele><time>2026-04-01T11:24:28Z</time></trkpt><trkpt lat="45.673710341365314" lon="8.50841036304386"><ele>318.0</ele><time>2026-04-01T11:24:29Z</time></trkpt><trkpt lat="45.67380889976489" lon="8.5083737334197"><ele>319.0</ele><time>2026-04-01T11:24:30Z</time></trkpt><trkpt lat="45.67390709359012" lon="8.508350056208785"><ele>320.0</ele><time>2026-04-01T11:24:30.999Z</time></trkpt><trkpt lat="45.67400751630318" lon="8.50832900057274"><ele>321.0</ele><time>2026-04-01T11:24:31.999Z</time></trkpt><trkpt lat="45.67410471697452" lon="8.508302738863732"><ele>322.0</ele><time>2026-04-01T11:24:32.999Z</time></trkpt><trkpt lat="45.6741940188024" lon="8.5082645743066"><ele>323.0</ele><time>2026-04-01T11:24:33.999Z</time></trkpt><trkpt lat="45.6742798503509" lon="8.508242760086443"><ele>323.0</ele><time>2026-04-01T11:24:34.999Z</time></trkpt><trkpt lat="45.67434674662086" lon="8.508230947536953"><ele>323.0</ele><time>2026-04-01T11:24:35.999Z</time></trkpt><trkpt lat="45.674431665945335" lon="8.508203505233496"><ele>323.0</ele><time>2026-04-01T11:24:37.999Z</time></trkpt><trkpt lat="45.67440002661077" lon="8.508090502233575"><ele>323.0</ele><time>2026-04-01T11:24:39.999Z</time></trkpt><trkpt lat="45.67435475566832" lon="8.507990661870235"><ele>323.0</ele><time>2026-04-01T11:24:40.999Z</time></trkpt><trkpt lat="45.674334695093606" lon="8.507880738871728"><ele>323.0</ele><time>2026-04-01T11:24:41.999Z</time></trkpt><trkpt lat="45.67431680683912" lon="8.50776013627037"><ele>323.2</ele><time>2026-04-01T11:24:42.999Z</time></trkpt><trkpt lat="45.674300837332616" lon="8.50762845982238"><ele>323.4</ele><time>2026-04-01T11:24:43.999Z</time></trkpt><trkpt lat="45.67427896901194" lon="8.507488500491766"><ele>323.59999999999997</ele><time>2026-04-01T11:24:44.999Z</time></trkpt><trkpt lat="45.67425864809091" lon="8.507355606530306"><ele>323.79999999999995</ele><time>2026-04-01T11:24:45.999Z</time></trkpt><trkpt lat="45.674240950908526" lon="8.507220276612227"><ele>324.0</ele><time>2026-04-01T11:24:46.999Z</time></trkpt><trkpt lat="45.674215213076025" lon="8.507076757469056"><ele>324.3333333333333</ele><time>2026-04-01T11:24:47.999Z</time></trkpt><trkpt lat="45.6741888980682" lon="8.506949954496402"><ele>324.6666666666667</ele><time>2026-04-01T11:24:48.999Z</time></trkpt><trkpt lat="45.67416920854819" lon="8.506833231545798"><ele>325.0</ele><time>2026-04-01T11:24:49.999Z</time></trkpt><trkpt lat="45.67413546695591" lon="8.506712196507717"><ele>325.33333333333337</ele><time>2026-04-01T11:24:50.999Z</time></trkpt><trkpt lat="45.67408677328459" lon="8.506603365823223"><ele>325.6666666666667</ele><time>2026-04-01T11:24:51.999Z</time></trkpt><trkpt lat="45.67403482150644" lon="8.50651400583595"><ele>326.0</ele><time>2026-04-01T11:24:52.999Z</time></trkpt><trkpt lat="45.67398449618404" lon="8.50642720911061"><ele>326.0</ele><time>2026-04-01T11:24:53.999Z</time></trkpt><trkpt lat="45.67392241341189" lon="8.506354476461473"><ele>326.0</ele><time>2026-04-01T11:24:54.999Z</time></trkpt><trkpt lat="45.67386881579165" lon="8.506259838045052"><ele>326.0</ele><time>2026-04-01T11:24:55.999Z</time></trkpt><trkpt lat="45.67380618840711" lon="8.506166181261518"><ele>326.0</ele><time>2026-04-01T11:24:56.999Z</time></trkpt><trkpt lat="45.67374302519619" lon="8.50606425977879"><ele>326.0</ele><time>2026-04-01T11:24:57.999Z</time></trkpt><trkpt lat="45.67369490091227" lon="8.505964282595686"><ele>326.0</ele><time>2026-04-01T11:24:58.999Z</time></trkpt><trkpt lat="45.67366144199204" lon="8.505862277642326"><ele>326.0</ele><time>2026-04-01T11:24:59.999Z</time></trkpt><trkpt lat="45.67362809909635" lon="8.505749048981452"><ele>326.0</ele><time>2026-04-01T11:25:00.999Z</time></trkpt><trkpt lat="45.6736021241862" lon="8.505624526102242"><ele>326.0</ele><time>2026-04-01T11:25:01.999Z</time></trkpt><trkpt lat="45.67357907076765" lon="8.505499812254774"><ele>326.0</ele><time>2026-04-01T11:25:02.999Z</time></trkpt><trkpt lat="45.67355430033903" lon="8.505378439975686"><ele>326.0</ele><time>2026-04-01T11:25:03.999Z</time></trkpt><trkpt lat="45.67350868199731" lon="8.50527128142824"><ele>326.0</ele><time>2026-04-01T11:25:04.999Z</time></trkpt><trkpt lat="45.67346666001737" lon="8.505185846440671"><ele>326.8</ele><time>2026-04-01T11:25:05.999Z</time></trkpt><trkpt lat="45.67345418386396" lon="8.505084384126633"><ele>327.6</ele><time>2026-04-01T11:25:06.999Z</time></trkpt><trkpt lat="45.67341910488511" lon="8.504938226100434"><ele>328.4</ele><time>2026-04-01T11:25:08.999Z</time></trkpt><trkpt lat="45.67344707657317" lon="8.504845792594496"><ele>329.2</ele><time>2026-04-01T11:25:09.999Z</time></trkpt><trkpt lat="45.67346871884145" lon="8.504659931075311"><ele>330.0</ele><time>2026-04-01T11:25:11.999Z</time></trkpt><trkpt lat="45.673493615377005" lon="8.504536181287156"><ele>331.0</ele><time>2026-04-01T11:25:12.999Z</time></trkpt><trkpt lat="45.67351207539433" lon="8.50441496707123"><ele>332.0</ele><time>2026-04-01T11:25:13.999Z</time></trkpt><trkpt lat="45.673543137010086" lon="8.504297844206572"><ele>333.0</ele><time>2026-04-01T11:25:14.999Z</time></trkpt><trkpt lat="45.67359055895775" lon="8.50419167888116"><ele>334.0</ele><time>2026-04-01T11:25:15.999Z</time></trkpt><trkpt lat="45.673646714213746" lon="8.5040747238771"><ele>335.0</ele><time>2026-04-01T11:25:16.999Z</time></trkpt><trkpt lat="45.67370377946138" lon="8.503976455794636"><ele>335.0</ele><time>2026-04-01T11:25:17.999Z</time></trkpt><trkpt lat="45.673755957904554" lon="8.503876140620735"><ele>335.0</ele><time>2026-04-01T11:25:18.999Z</time></trkpt><trkpt lat="45.67381129218765" lon="8.503802746087525"><ele>335.0</ele><time>2026-04-01T11:25:19.999Z</time></trkpt><trkpt lat="45.67385859619936" lon="8.50373656816141"><ele>335.0</ele><time>2026-04-01T11:25:20.999Z</time></trkpt><trkpt lat="45.67393855405382" lon="8.503666794853174"><ele>335.0</ele><time>2026-04-01T11:25:21.999Z</time></trkpt><trkpt lat="45.67401376977893" lon="8.503599136331873"><ele>335.0</ele><time>2026-04-01T11:25:22.999Z</time></trkpt><trkpt lat="45.67407861094042" lon="8.5035378551839"><ele>333.8</ele><time>2026-04-01T11:25:23.999Z</time></trkpt><trkpt lat="45.67412518651371" lon="8.50345987690233"><ele>332.6</ele><time>2026-04-01T11:25:24.999Z</time></trkpt><trkpt lat="45.67416081979253" lon="8.503379403322286"><ele>331.4</ele><time>2026-04-01T11:25:25.999Z</time></trkpt><trkpt lat="45.67421439196707" lon="8.503167085225854"><ele>330.2</ele><time>2026-04-01T11:25:28Z</time></trkpt><trkpt lat="45.674253430878544" lon="8.503040513225558"><ele>329.0</ele><time>2026-04-01T11:25:29Z</time></trkpt><trkpt lat="45.6742991628106" lon="8.50292085271657"><ele>327.79999999999995</ele><time>2026-04-01T11:25:30.001Z</time></trkpt><trkpt lat="45.67434494601598" lon="8.502827581938318"><ele>326.59999999999997</ele><time>2026-04-01T11:25:31Z</time></trkpt><trkpt lat="45.674380780083126" lon="8.502748017121291"><ele>325.4</ele><time>2026-04-01T11:25:32Z</time></trkpt><trkpt lat="45.67437337278472" lon="8.50260161363477"><ele>324.2</ele><time>2026-04-01T11:25:34Z</time></trkpt><trkpt lat="45.674310278898794" lon="8.50245270709275"><ele>323.0</ele><time>2026-04-01T11:25:36.001Z</time></trkpt><trkpt lat="45.674272654972825" lon="8.502320901413627"><ele>323.0</ele><time>2026-04-01T11:25:38Z</time></trkpt><trkpt lat="45.67421876805341" lon="8.502154387749657"><ele>323.0</ele><time>2026-04-01T11:25:40Z</time></trkpt><trkpt lat="45.67419757364262" lon="8.502028754973825"><ele>323.0</ele><time>2026-04-01T11:25:41Z</time></trkpt><trkpt lat="45.674160806533216" lon="8.501928568191554"><ele>323.0</ele><time>2026-04-01T11:25:42Z</time></trkpt><trkpt lat="45.674134712102955" lon="8.501812698809447"><ele>323.0</ele><time>2026-04-01T11:25:43Z</time></trkpt><trkpt lat="45.67409499705042" lon="8.50168742845161"><ele>321.1666666666667</ele><time>2026-04-01T11:25:44Z</time></trkpt><trkpt lat="45.674076245464065" lon="8.501563532949898"><ele>319.33333333333337</ele><time>2026-04-01T11:25:45Z</time></trkpt><trkpt lat="45.674045639251645" lon="8.501439174863359"><ele>317.5</ele><time>2026-04-01T11:25:46Z</time></trkpt><trkpt lat="45.6740243355144" lon="8.501317864000221"><ele>315.6666666666667</ele><time>2026-04-01T11:25:47Z</time></trkpt><trkpt lat="45.67399569648692" lon="8.501206221199826"><ele>313.8333333333333</ele><time>2026-04-01T11:25:48Z</time></trkpt><trkpt lat="45.67394748363606" lon="8.501125010298846"><ele>312.0</ele><time>2026-04-01T11:25:49Z</time></trkpt><trkpt lat="45.67390362325711" lon="8.500975300276671"><ele>311.1666666666667</ele><time>2026-04-01T11:25:51Z</time></trkpt><trkpt lat="45.67385339787817" lon="8.500847747436474"><ele>310.3333333333333</ele><time>2026-04-01T11:25:53Z</time></trkpt><trkpt lat="45.67380600491022" lon="8.50076831580712"><ele>309.5</ele><time>2026-04-01T11:25:55Z</time></trkpt><trkpt lat="45.67376511601334" lon="8.500667050698084"><ele>308.66666666666663</ele><time>2026-04-01T11:25:57Z</time></trkpt><trkpt lat="45.67371233530002" lon="8.500582565808635"><ele>307.8333333333333</ele><time>2026-04-01T11:26:01Z</time></trkpt><trkpt lat="45.67360273984048" lon="8.500564899374702"><ele>307.0</ele><time>2026-04-01T11:26:03Z</time></trkpt><trkpt lat="45.673537621770066" lon="8.500562426901327"><ele>307.0</ele><time>2026-04-01T11:26:04Z</time></trkpt><trkpt lat="45.67346065522376" lon="8.500566162931134"><ele>307.0</ele><time>2026-04-01T11:26:05Z</time></trkpt><trkpt lat="45.673365488753646" lon="8.500572339736614"><ele>307.0</ele><time>2026-04-01T11:26:06Z</time></trkpt><trkpt lat="45.67326336227305" lon="8.500576574425926"><ele>307.0</ele><time>2026-04-01T11:26:07Z</time></trkpt><trkpt lat="45.67314943232883" lon="8.500580101626408"><ele>307.0</ele><time>2026-04-01T11:26:08Z</time></trkpt><trkpt lat="45.673024934167465" lon="8.500575191505996"><ele>307.0</ele><time>2026-04-01T11:26:09Z</time></trkpt><trkpt lat="45.67289689179882" lon="8.500569192391167"><ele>307.0</ele><time>2026-04-01T11:26:10Z</time></trkpt><trkpt lat="45.672759402189456" lon="8.500561993909248"><ele>307.0</ele><time>2026-04-01T11:26:11Z</time></trkpt><trkpt lat="45.67262494191163" lon="8.500545107392355"><ele>307.0</ele><time>2026-04-01T11:26:12Z</time></trkpt><trkpt lat="45.67247644226613" lon="8.500519251170774"><ele>307.0</ele><time>2026-04-01T11:26:13Z</time></trkpt><trkpt lat="45.67233701350598" lon="8.50046468732893"><ele>307.0</ele><time>2026-04-01T11:26:14Z</time></trkpt><trkpt lat="45.67219237319743" lon="8.500408908574782"><ele>307.0</ele><time>2026-04-01T11:26:15Z</time></trkpt><trkpt lat="45.67202896689647" lon="8.500339560082637"><ele>305.0</ele><time>2026-04-01T11:26:16Z</time></trkpt><trkpt lat="45.67187303295584" lon="8.500282499037251"><ele>303.0</ele><time>2026-04-01T11:26:17Z</time></trkpt><trkpt lat="45.67172818222875" lon="8.500244522775068"><ele>301.0</ele><time>2026-04-01T11:26:18Z</time></trkpt><trkpt lat="45.671583389848486" lon="8.500178115771563"><ele>301.0</ele><time>2026-04-01T11:26:19Z</time></trkpt><trkpt lat="45.6714453903483" lon="8.500117640043287"><ele>301.0</ele><time>2026-04-01T11:26:20Z</time></trkpt><trkpt lat="45.67130359959131" lon="8.500076902041338"><ele>301.0</ele><time>2026-04-01T11:26:21Z</time></trkpt><trkpt lat="45.671165836447486" lon="8.500046255317415"><ele>301.0</ele><time>2026-04-01T11:26:22Z</time></trkpt><trkpt lat="45.67102736621734" lon="8.499994781490102"><ele>301.0</ele><time>2026-04-01T11:26:23Z</time></trkpt><trkpt lat="45.67089073810453" lon="8.49994283607837"><ele>301.0</ele><time>2026-04-01T11:26:24Z</time></trkpt><trkpt lat="45.67074971367977" lon="8.499806201224228"><ele>301.0</ele><time>2026-04-01T11:26:25Z</time></trkpt><trkpt lat="45.67058532076678" lon="8.499794699981852"><ele>301.0</ele><time>2026-04-01T11:26:26Z</time></trkpt><trkpt lat="45.67042651533747" lon="8.499813589041382"><ele>301.0</ele><time>2026-04-01T11:26:27Z</time></trkpt><trkpt lat="45.67026468854696" lon="8.499832899186215"><ele>301.0</ele><time>2026-04-01T11:26:28Z</time></trkpt><trkpt lat="45.67009602163318" lon="8.499861304455477"><ele>300.3333333333333</ele><time>2026-04-01T11:26:29Z</time></trkpt><trkpt lat="45.66992272037937" lon="8.4999006899858"><ele>299.6666666666667</ele><time>2026-04-01T11:26:30Z</time></trkpt><trkpt lat="45.669781709122944" lon="8.499935093157552"><ele>299.0</ele><time>2026-04-01T11:26:31Z</time></trkpt><trkpt lat="45.669627404159314" lon="8.49996992814486"><ele>299.0</ele><time>2026-04-01T11:26:32Z</time></trkpt><trkpt lat="45.669470361594584" lon="8.500008450236013"><ele>299.0</ele><time>2026-04-01T11:26:33Z</time></trkpt><trkpt lat="45.66931341162086" lon="8.500048473851546"><ele>299.0</ele><time>2026-04-01T11:26:34Z</time></trkpt><trkpt lat="45.66916171374692" lon="8.500088435954034"><ele>296.0</ele><time>2026-04-01T11:26:35Z</time></trkpt><trkpt lat="45.66899616251983" lon="8.500128463934418"><ele>293.0</ele><time>2026-04-01T11:26:36Z</time></trkpt><trkpt lat="45.668841122246576" lon="8.500165557219209"><ele>290.0</ele><time>2026-04-01T11:26:37Z</time></trkpt><trkpt lat="45.66869151193227" lon="8.50020408328808"><ele>289.0</ele><time>2026-04-01T11:26:38Z</time></trkpt><trkpt lat="45.668548090211075" lon="8.50024249544014"><ele>288.0</ele><time>2026-04-01T11:26:39Z</time></trkpt><trkpt lat="45.668403920803776" lon="8.500281107834128"><ele>287.0</ele><time>2026-04-01T11:26:40Z</time></trkpt><trkpt lat="45.66826871096027" lon="8.500317342618214"><ele>286.0</ele><time>2026-04-01T11:26:41Z</time></trkpt><trkpt lat="45.668126856160114" lon="8.500360610839003"><ele>286.0</ele><time>2026-04-01T11:26:41.999Z</time></trkpt><trkpt lat="45.66799031105741" lon="8.500414442087997"><ele>286.0</ele><time>2026-04-01T11:26:42.999Z</time></trkpt><trkpt lat="45.6678571280803" lon="8.500502726027067"><ele>286.0</ele><time>2026-04-01T11:26:43.999Z</time></trkpt><trkpt lat="45.66770843112851" lon="8.500565603697053"><ele>286.0</ele><time>2026-04-01T11:26:44.999Z</time></trkpt><trkpt lat="45.66760228790599" lon="8.500635630409741"><ele>286.8</ele><time>2026-04-01T11:26:45.999Z</time></trkpt><trkpt lat="45.66750163067772" lon="8.50070114401494"><ele>287.6</ele><time>2026-04-01T11:26:46.999Z</time></trkpt><trkpt lat="45.667395585844915" lon="8.50076853220468"><ele>288.4</ele><time>2026-04-01T11:26:47.999Z</time></trkpt><trkpt lat="45.66729467405962" lon="8.500854153012154"><ele>289.2</ele><time>2026-04-01T11:26:48.999Z</time></trkpt><trkpt lat="45.66719582136095" lon="8.50087960740032"><ele>290.0</ele><time>2026-04-01T11:26:49.999Z</time></trkpt><trkpt lat="45.66712850051964" lon="8.50090894317735"><ele>290.0</ele><time>2026-04-01T11:26:50.999Z</time></trkpt><trkpt lat="45.66708489378668" lon="8.500739276090165"><ele>290.0</ele><time>2026-04-01T11:26:54.999Z</time></trkpt><trkpt lat="45.667046625389176" lon="8.500571998794861"><ele>290.0</ele><time>2026-04-01T11:26:56.999Z</time></trkpt><trkpt lat="45.66705144419657" lon="8.500409832951377"><ele>290.0</ele><time>2026-04-01T11:26:58.999Z</time></trkpt><trkpt lat="45.66704277002092" lon="8.500287208539335"><ele>290.0</ele><time>2026-04-01T11:27:00.999Z</time></trkpt><trkpt lat="45.667021935773725" lon="8.500187989675943"><ele>288.0</ele><time>2026-04-01T11:27:02.999Z</time></trkpt><trkpt lat="45.666880815139294" lon="8.500242519874408"><ele>286.0</ele><time>2026-04-01T11:27:04.999Z</time></trkpt><trkpt lat="45.66677265963297" lon="8.500299591948183"><ele>284.0</ele><time>2026-04-01T11:27:06.999Z</time></trkpt><trkpt lat="45.66669149723576" lon="8.500342422723"><ele>282.0</ele><time>2026-04-01T11:27:08.999Z</time></trkpt><trkpt lat="45.66658720657133" lon="8.500297321450848"><ele>282.0</ele><time>2026-04-01T11:27:10.999Z</time></trkpt><trkpt lat="45.66645985148347" lon="8.500201649101104"><ele>282.0</ele><time>2026-04-01T11:27:11.999Z</time></trkpt><trkpt lat="45.666364978905705" lon="8.500186433518417"><ele>282.0</ele><time>2026-04-01T11:27:12.999Z</time></trkpt><trkpt lat="45.666293084578314" lon="8.500196657125818"><ele>282.0</ele><time>2026-04-01T11:27:13.999Z</time></trkpt><trkpt lat="45.66621770259184" lon="8.500160527789943"><ele>282.0</ele><time>2026-04-01T11:27:14.999Z</time></trkpt><trkpt lat="45.66617176189992" lon="8.500074062088538"><ele>282.0</ele><time>2026-04-01T11:27:15.999Z</time></trkpt><trkpt lat="45.66613292429358" lon="8.499947305406714"><ele>282.0</ele><time>2026-04-01T11:27:16.999Z</time></trkpt><trkpt lat="45.666089879003955" lon="8.49980202833692"><ele>282.0</ele><time>2026-04-01T11:27:17.999Z</time></trkpt><trkpt lat="45.66604954778203" lon="8.499657345552182"><ele>282.0</ele><time>2026-04-01T11:27:18.999Z</time></trkpt><trkpt lat="45.66601048367224" lon="8.499501423273049"><ele>282.0</ele><time>2026-04-01T11:27:19.999Z</time></trkpt><trkpt lat="45.66597107607234" lon="8.49935452420436"><ele>281.8</ele><time>2026-04-01T11:27:20.999Z</time></trkpt><trkpt lat="45.665927674254874" lon="8.49922815966045"><ele>281.6</ele><time>2026-04-01T11:27:21.999Z</time></trkpt><trkpt lat="45.6658912986421" lon="8.49907881978368"><ele>281.40000000000003</ele><time>2026-04-01T11:27:22.999Z</time></trkpt><trkpt lat="45.66586006136194" lon="8.49893418231215"><ele>281.2</ele><time>2026-04-01T11:27:23.999Z</time></trkpt><trkpt lat="45.66585575126215" lon="8.4987908445595"><ele>281.0</ele><time>2026-04-01T11:27:24.999Z</time></trkpt><trkpt lat="45.66586487615448" lon="8.498641317386939"><ele>281.0</ele><time>2026-04-01T11:27:25.999Z</time></trkpt><trkpt lat="45.6658843267609" lon="8.49849436518876"><ele>281.0</ele><time>2026-04-01T11:27:26.999Z</time></trkpt><trkpt lat="45.66591229354105" lon="8.498347007533361"><ele>281.0</ele><time>2026-04-01T11:27:27.999Z</time></trkpt><trkpt lat="45.66594196060023" lon="8.498214853195025"><ele>281.0</ele><time>2026-04-01T11:27:28.999Z</time></trkpt><trkpt lat="45.665975657032504" lon="8.498065635811175"><ele>281.0</ele><time>2026-04-01T11:27:29.999Z</time></trkpt><trkpt lat="45.665997757400504" lon="8.497919056942482"><ele>281.40000000000003</ele><time>2026-04-01T11:27:30.999Z</time></trkpt><trkpt lat="45.66603001968213" lon="8.497777646155797"><ele>281.8</ele><time>2026-04-01T11:27:31.999Z</time></trkpt><trkpt lat="45.66605792697394" lon="8.497640591037614"><ele>282.20000000000005</ele><time>2026-04-01T11:27:33.001Z</time></trkpt><trkpt lat="45.66608337400105" lon="8.497509930164114"><ele>282.6</ele><time>2026-04-01T11:27:34.001Z</time></trkpt><trkpt lat="45.66611139762811" lon="8.497398400131939"><ele>283.0</ele><time>2026-04-01T11:27:35.001Z</time></trkpt><trkpt lat="45.66613089334756" lon="8.497296128864663"><ele>282.4</ele><time>2026-04-01T11:27:36.001Z</time></trkpt><trkpt lat="45.6661421668535" lon="8.497204481573144"><ele>281.8</ele><time>2026-04-01T11:27:37Z</time></trkpt><trkpt lat="45.666168124894426" lon="8.497087189783365"><ele>281.2</ele><time>2026-04-01T11:27:39.001Z</time></trkpt><trkpt lat="45.66597130253507" lon="8.497027267546715"><ele>280.6</ele><time>2026-04-01T11:27:44Z</time></trkpt><trkpt lat="45.665900615738785" lon="8.4970264441543"><ele>280.0</ele><time>2026-04-01T11:27:46Z</time></trkpt><trkpt lat="45.66583165342766" lon="8.497017265695627"><ele>280.0</ele><time>2026-04-01T11:27:48Z</time></trkpt><trkpt lat="45.665724204302855" lon="8.497054677680497"><ele>280.0</ele><time>2026-04-01T11:27:50Z</time></trkpt><trkpt lat="45.66564299337646" lon="8.497061598664823"><ele>280.0</ele><time>2026-04-01T11:27:51Z</time></trkpt><trkpt lat="45.66554941688132" lon="8.497065574321987"><ele>280.0</ele><time>2026-04-01T11:27:52Z</time></trkpt><trkpt lat="45.665465802268585" lon="8.497076072062235"><ele>280.0</ele><time>2026-04-01T11:27:53Z</time></trkpt><trkpt lat="45.6653741714157" lon="8.497087984722748"><ele>280.3333333333333</ele><time>2026-04-01T11:27:54Z</time></trkpt><trkpt lat="45.665293201625424" lon="8.497099118381334"><ele>280.66666666666663</ele><time>2026-04-01T11:27:55Z</time></trkpt><trkpt lat="45.66519746827355" lon="8.497088703440914"><ele>281.0</ele><time>2026-04-01T11:27:56Z</time></trkpt><trkpt lat="45.66511568227271" lon="8.497090932481006"><ele>281.3333333333333</ele><time>2026-04-01T11:27:57Z</time></trkpt><trkpt lat="45.66503505505275" lon="8.497094748076591"><ele>281.6666666666667</ele><time>2026-04-01T11:27:58Z</time></trkpt><trkpt lat="45.66495831073823" lon="8.497122791928058"><ele>282.0</ele><time>2026-04-01T11:27:59Z</time></trkpt><trkpt lat="45.664874247847266" lon="8.497143289265912"><ele>282.0</ele><time>2026-04-01T11:28:00Z</time></trkpt><trkpt lat="45.66478492902156" lon="8.497155859249641"><ele>282.0</ele><time>2026-04-01T11:28:01Z</time></trkpt><trkpt lat="45.664673474184106" lon="8.497155009403883"><ele>282.0</ele><time>2026-04-01T11:28:02Z</time></trkpt><trkpt lat="45.6645669222035" lon="8.497134303782838"><ele>282.0</ele><time>2026-04-01T11:28:03Z</time></trkpt><trkpt lat="45.66446145787997" lon="8.497136296737208"><ele>282.0</ele><time>2026-04-01T11:28:04Z</time></trkpt><trkpt lat="45.664344559860766" lon="8.497146119911655"><ele>282.0</ele><time>2026-04-01T11:28:05Z</time></trkpt><trkpt lat="45.66423369355602" lon="8.497181165716391"><ele>282.0</ele><time>2026-04-01T11:28:06Z</time></trkpt><trkpt lat="45.664114066587636" lon="8.497203509662139"><ele>282.0</ele><time>2026-04-01T11:28:07Z</time></trkpt><trkpt lat="45.66400480735332" lon="8.49720392873219"><ele>282.0</ele><time>2026-04-01T11:28:08Z</time></trkpt><trkpt lat="45.663897337402695" lon="8.497220721676666"><ele>282.0</ele><time>2026-04-01T11:28:09Z</time></trkpt><trkpt lat="45.66378929734551" lon="8.497243454498026"><ele>282.0</ele><time>2026-04-01T11:28:10Z</time></trkpt><trkpt lat="45.66368708909728" lon="8.497247696920645"><ele>282.0</ele><time>2026-04-01T11:28:11Z</time></trkpt><trkpt lat="45.663598834344334" lon="8.49726053615004"><ele>282.0</ele><time>2026-04-01T11:28:12Z</time></trkpt><trkpt lat="45.66350815953392" lon="8.497276576348556"><ele>282.0</ele><time>2026-04-01T11:28:13Z</time></trkpt><trkpt lat="45.663414311953325" lon="8.497290563830488"><ele>282.6</ele><time>2026-04-01T11:28:14Z</time></trkpt><trkpt lat="45.66332942294999" lon="8.497298308868901"><ele>283.2</ele><time>2026-04-01T11:28:15Z</time></trkpt><trkpt lat="45.66324503768022" lon="8.497318401430912"><ele>283.8</ele><time>2026-04-01T11:28:16Z</time></trkpt><trkpt lat="45.663148472935596" lon="8.497336508547722"><ele>284.4</ele><time>2026-04-01T11:28:17Z</time></trkpt><trkpt lat="45.663035918279895" lon="8.497350620018517"><ele>285.0</ele><time>2026-04-01T11:28:18Z</time></trkpt><trkpt lat="45.66293028540572" lon="8.497362052869336"><ele>285.0</ele><time>2026-04-01T11:28:19Z</time></trkpt><trkpt lat="45.662825553894066" lon="8.49736221991263"><ele>285.0</ele><time>2026-04-01T11:28:20Z</time></trkpt><trkpt lat="45.66271057631303" lon="8.497373062491691"><ele>285.0</ele><time>2026-04-01T11:28:21Z</time></trkpt><trkpt lat="45.66260737127049" lon="8.497371472342628"><ele>285.0</ele><time>2026-04-01T11:28:22Z</time></trkpt><trkpt lat="45.66250469377191" lon="8.497374125898315"><ele>285.0</ele><time>2026-04-01T11:28:23Z</time></trkpt><trkpt lat="45.66242087715262" lon="8.497375706991242"><ele>284.2</ele><time>2026-04-01T11:28:24Z</time></trkpt><trkpt lat="45.66233402596218" lon="8.497384962528567"><ele>283.4</ele><time>2026-04-01T11:28:25Z</time></trkpt><trkpt lat="45.6622438046278" lon="8.497373730088439"><ele>282.6</ele><time>2026-04-01T11:28:26Z</time></trkpt><trkpt lat="45.662142485198885" lon="8.497387779979178"><ele>281.8</ele><time>2026-04-01T11:28:27Z</time></trkpt><trkpt lat="45.662039791555905" lon="8.497414450895048"><ele>281.0</ele><time>2026-04-01T11:28:28Z</time></trkpt><trkpt lat="45.66195349850966" lon="8.497433031454744"><ele>280.1666666666667</ele><time>2026-04-01T11:28:29Z</time></trkpt><trkpt lat="45.66187166051034" lon="8.497434980585151"><ele>279.33333333333337</ele><time>2026-04-01T11:28:30Z</time></trkpt><trkpt lat="45.66177949049366" lon="8.497432788133992"><ele>278.5</ele><time>2026-04-01T11:28:31Z</time></trkpt><trkpt lat="45.66169460703219" lon="8.497439761684266"><ele>277.6666666666667</ele><time>2026-04-01T11:28:32Z</time></trkpt><trkpt lat="45.6616208205948" lon="8.49744150419407"><ele>276.8333333333333</ele><time>2026-04-01T11:28:33Z</time></trkpt><trkpt lat="45.66155325437514" lon="8.497456554099333"><ele>276.0</ele><time>2026-04-01T11:28:34Z</time></trkpt><trkpt lat="45.66148802496628" lon="8.497476774848499"><ele>276.0</ele><time>2026-04-01T11:28:35Z</time></trkpt><trkpt lat="45.66142070795064" lon="8.497465122207819"><ele>276.0</ele><time>2026-04-01T11:28:37Z</time></trkpt><trkpt lat="45.66134201169578" lon="8.497386147731017"><ele>276.0</ele><time>2026-04-01T11:32:47Z</time></trkpt><trkpt lat="45.661315894728034" lon="8.49730382282183"><ele>276.0</ele><time>2026-04-01T11:32:48Z</time></trkpt><trkpt lat="45.66128716641026" lon="8.497147615177964"><ele>276.0</ele><time>2026-04-01T11:32:50Z</time></trkpt><trkpt lat="45.66122187612386" lon="8.496955952163402"><ele>275.8</ele><time>2026-04-01T11:32:52Z</time></trkpt><trkpt lat="45.6611725368835" lon="8.496821740317756"><ele>275.6</ele><time>2026-04-01T11:32:52.999Z</time></trkpt><trkpt lat="45.661134000794604" lon="8.496657857528728"><ele>275.4</ele><time>2026-04-01T11:32:53.999Z</time></trkpt><trkpt lat="45.661104364717254" lon="8.496511441524307"><ele>275.2</ele><time>2026-04-01T11:32:54.999Z</time></trkpt><trkpt lat="45.66106215001292" lon="8.496386979866303"><ele>275.0</ele><time>2026-04-01T11:32:55.999Z</time></trkpt><trkpt lat="45.661015858676116" lon="8.49630114760828"><ele>275.0</ele><time>2026-04-01T11:32:56.999Z</time></trkpt><trkpt lat="45.66095816214559" lon="8.49623612121485"><ele>275.0</ele><time>2026-04-01T11:32:57.999Z</time></trkpt><trkpt lat="45.66089787688297" lon="8.496187860890135"><ele>275.0</ele><time>2026-04-01T11:32:58.999Z</time></trkpt><trkpt lat="45.660785930415614" lon="8.496284032761665"><ele>275.0</ele><time>2026-04-01T11:33:00.999Z</time></trkpt><trkpt lat="45.66068048425017" lon="8.496273293689505"><ele>275.0</ele><time>2026-04-01T11:33:01.999Z</time></trkpt><trkpt lat="45.660654533660676" lon="8.49641412552931"><ele>275.0</ele><time>2026-04-01T11:33:02.999Z</time></trkpt><trkpt lat="45.66049810820011" lon="8.496381382461893"><ele>275.0</ele><time>2026-04-01T11:33:04.999Z</time></trkpt><trkpt lat="45.66044108756997" lon="8.496267193417966"><ele>275.0</ele><time>2026-04-01T11:33:05.999Z</time></trkpt><trkpt lat="45.660399068812296" lon="8.496118396228873"><ele>275.0</ele><time>2026-04-01T11:33:06.999Z</time></trkpt><trkpt lat="45.66035894670337" lon="8.495960308588284"><ele>275.0</ele><time>2026-04-01T11:33:07.999Z</time></trkpt><trkpt lat="45.66031675414916" lon="8.495815501988169"><ele>275.0</ele><time>2026-04-01T11:33:08.999Z</time></trkpt><trkpt lat="45.660260888900325" lon="8.49566058161716"><ele>275.0</ele><time>2026-04-01T11:33:09.999Z</time></trkpt><trkpt lat="45.660215065493745" lon="8.495465443976341"><ele>275.0</ele><time>2026-04-01T11:33:10.999Z</time></trkpt><trkpt lat="45.66018116369024" lon="8.495252955433944"><ele>275.25</ele><time>2026-04-01T11:33:11.999Z</time></trkpt><trkpt lat="45.66014269597084" lon="8.4950674342843"><ele>275.5</ele><time>2026-04-01T11:33:12.999Z</time></trkpt><trkpt lat="45.660119518723" lon="8.49484239485511"><ele>275.75</ele><time>2026-04-01T11:33:13.999Z</time></trkpt><trkpt lat="45.660099674137946" lon="8.494627945479314"><ele>276.0</ele><time>2026-04-01T11:33:14.999Z</time></trkpt><trkpt lat="45.66008671178191" lon="8.494456770058648"><ele>276.0</ele><time>2026-04-01T11:33:15.999Z</time></trkpt><trkpt lat="45.66006700632889" lon="8.49429480544059"><ele>276.0</ele><time>2026-04-01T11:33:16.999Z</time></trkpt><trkpt lat="45.660055503292796" lon="8.494149138490965"><ele>276.0</ele><time>2026-04-01T11:33:17.999Z</time></trkpt><trkpt lat="45.660044896962496" lon="8.494021125263158"><ele>276.0</ele><time>2026-04-01T11:33:18.999Z</time></trkpt><trkpt lat="45.660059486652486" lon="8.493904150505955"><ele>276.0</ele><time>2026-04-01T11:33:19.999Z</time></trkpt><trkpt lat="45.66009152766929" lon="8.493823875963274"><ele>276.0</ele><time>2026-04-01T11:33:20.999Z</time></trkpt><trkpt lat="45.660174415988145" lon="8.493768104785131"><ele>276.0</ele><time>2026-04-01T11:33:22.999Z</time></trkpt><trkpt lat="45.66023913727795" lon="8.49374162610328"><ele>276.0</ele><time>2026-04-01T11:33:26.999Z</time></trkpt><trkpt lat="45.66034683112041" lon="8.493676082920597"><ele>276.0</ele><time>2026-04-01T11:33:28.999Z</time></trkpt><trkpt lat="45.6604397787532" lon="8.493629235621556"><ele>276.0</ele><time>2026-04-01T11:33:29.999Z</time></trkpt><trkpt lat="45.66054405493625" lon="8.493588637359528"><ele>276.0</ele><time>2026-04-01T11:33:30.999Z</time></trkpt><trkpt lat="45.660651846342155" lon="8.493541253186816"><ele>276.0</ele><time>2026-04-01T11:33:31.999Z</time></trkpt><trkpt lat="45.66076108700758" lon="8.493505365632272"><ele>276.0</ele><time>2026-04-01T11:33:32.999Z</time></trkpt><trkpt lat="45.660886621237346" lon="8.493465541772855"><ele>276.0</ele><time>2026-04-01T11:33:33.999Z</time></trkpt><trkpt lat="45.6610131189016" lon="8.493427420707032"><ele>275.75</ele><time>2026-04-01T11:33:34.999Z</time></trkpt><trkpt lat="45.66114722141944" lon="8.493378437131016"><ele>275.5</ele><time>2026-04-01T11:33:35.999Z</time></trkpt><trkpt lat="45.66128384400151" lon="8.493332807329471"><ele>275.25</ele><time>2026-04-01T11:33:36.999Z</time></trkpt><trkpt lat="45.6614328943471" lon="8.493293387659145"><ele>275.0</ele><time>2026-04-01T11:33:37.999Z</time></trkpt><trkpt lat="45.661582794158086" lon="8.493248099097812"><ele>275.0</ele><time>2026-04-01T11:33:38.999Z</time></trkpt><trkpt lat="45.661731866948635" lon="8.49319361860986"><ele>275.0</ele><time>2026-04-01T11:33:39.999Z</time></trkpt><trkpt lat="45.66189334752838" lon="8.49313972486075"><ele>275.0</ele><time>2026-04-01T11:33:40.999Z</time></trkpt><trkpt lat="45.66207638673935" lon="8.4931064772614"><ele>276.33333333333337</ele><time>2026-04-01T11:33:41.999Z</time></trkpt><trkpt lat="45.66222707439348" lon="8.49305362551347"><ele>277.6666666666667</ele><time>2026-04-01T11:33:42.999Z</time></trkpt><trkpt lat="45.66238805994797" lon="8.493006102877642"><ele>279.0</ele><time>2026-04-01T11:33:43.999Z</time></trkpt><trkpt lat="45.66255036802396" lon="8.492942994768821"><ele>278.6666666666667</ele><time>2026-04-01T11:33:44.999Z</time></trkpt><trkpt lat="45.66272107393444" lon="8.492894895369306"><ele>278.33333333333337</ele><time>2026-04-01T11:33:45.999Z</time></trkpt><trkpt lat="45.662873289123226" lon="8.492859769919471"><ele>278.0</ele><time>2026-04-01T11:33:46.999Z</time></trkpt><trkpt lat="45.663039021965155" lon="8.492806639588641"><ele>279.0</ele><time>2026-04-01T11:33:47.999Z</time></trkpt><trkpt lat="45.663199864646096" lon="8.492750665288607"><ele>280.0</ele><time>2026-04-01T11:33:48.999Z</time></trkpt><trkpt lat="45.663363375822804" lon="8.492687564799168"><ele>281.0</ele><time>2026-04-01T11:33:49.999Z</time></trkpt><trkpt lat="45.663538016704415" lon="8.492629500041287"><ele>280.6666666666667</ele><time>2026-04-01T11:33:51Z</time></trkpt><trkpt lat="45.663704648801755" lon="8.492553450820399"><ele>280.3333333333333</ele><time>2026-04-01T11:33:52Z</time></trkpt><trkpt lat="45.663873967782486" lon="8.492454072800506"><ele>280.0</ele><time>2026-04-01T11:33:53Z</time></trkpt><trkpt lat="45.66402070242531" lon="8.492325314149982"><ele>280.0</ele><time>2026-04-01T11:33:54Z</time></trkpt><trkpt lat="45.66418507303749" lon="8.492194197199609"><ele>280.0</ele><time>2026-04-01T11:33:55Z</time></trkpt><trkpt lat="45.6643440679789" lon="8.492083998261366"><ele>280.0</ele><time>2026-04-01T11:33:56Z</time></trkpt><trkpt lat="45.66449896774248" lon="8.49194569803091"><ele>280.3333333333333</ele><time>2026-04-01T11:33:57Z</time></trkpt><trkpt lat="45.66465815496981" lon="8.491822589739341"><ele>280.6666666666667</ele><time>2026-04-01T11:33:58Z</time></trkpt><trkpt lat="45.66480577025919" lon="8.491693203863178"><ele>281.0</ele><time>2026-04-01T11:33:59Z</time></trkpt><trkpt lat="45.66496038401503" lon="8.491567036048613"><ele>281.0</ele><time>2026-04-01T11:34:00Z</time></trkpt><trkpt lat="45.6651288513143" lon="8.491456383745348"><ele>281.0</ele><time>2026-04-01T11:34:01Z</time></trkpt><trkpt lat="45.665292847142354" lon="8.491351540906766"><ele>281.0</ele><time>2026-04-01T11:34:02Z</time></trkpt><trkpt lat="45.66545387852807" lon="8.491255043900814"><ele>280.6666666666667</ele><time>2026-04-01T11:34:03Z</time></trkpt><trkpt lat="45.66563377750867" lon="8.491201577987924"><ele>280.3333333333333</ele><time>2026-04-01T11:34:04Z</time></trkpt><trkpt lat="45.665807848371095" lon="8.491123947382157"><ele>280.0</ele><time>2026-04-01T11:34:05Z</time></trkpt><trkpt lat="45.66597878123881" lon="8.491077392463644"><ele>280.66666666666663</ele><time>2026-04-01T11:34:06Z</time></trkpt><trkpt lat="45.66615458256317" lon="8.491034473111633"><ele>281.3333333333333</ele><time>2026-04-01T11:34:07Z</time></trkpt><trkpt lat="45.666322455652605" lon="8.490990326190751"><ele>282.0</ele><time>2026-04-01T11:34:08Z</time></trkpt><trkpt lat="45.666490920923266" lon="8.490939510700752"><ele>282.0</ele><time>2026-04-01T11:34:09Z</time></trkpt><trkpt lat="45.66666197598585" lon="8.490889054413502"><ele>282.0</ele><time>2026-04-01T11:34:10Z</time></trkpt><trkpt lat="45.6668361461035" lon="8.4908433459191"><ele>282.0</ele><time>2026-04-01T11:34:11Z</time></trkpt><trkpt lat="45.66701585298033" lon="8.49079746532287"><ele>282.6666666666667</ele><time>2026-04-01T11:34:12Z</time></trkpt><trkpt lat="45.66719202369466" lon="8.490750680761318"><ele>283.33333333333337</ele><time>2026-04-01T11:34:13Z</time></trkpt><trkpt lat="45.66736982827759" lon="8.490707862843795"><ele>284.0</ele><time>2026-04-01T11:34:14Z</time></trkpt><trkpt lat="45.667538858296886" lon="8.490655079800481"><ele>284.0</ele><time>2026-04-01T11:34:15Z</time></trkpt><trkpt lat="45.66770609501639" lon="8.490590849845018"><ele>284.0</ele><time>2026-04-01T11:34:16Z</time></trkpt><trkpt lat="45.667878970995005" lon="8.49052724348727"><ele>284.0</ele><time>2026-04-01T11:34:17Z</time></trkpt><trkpt lat="45.668051378785506" lon="8.490460651564948"><ele>283.33333333333337</ele><time>2026-04-01T11:34:18Z</time></trkpt><trkpt lat="45.668231984189184" lon="8.490390464434308"><ele>282.6666666666667</ele><time>2026-04-01T11:34:19Z</time></trkpt><trkpt lat="45.66840449237454" lon="8.490311388649715"><ele>282.0</ele><time>2026-04-01T11:34:20Z</time></trkpt><trkpt lat="45.66857307438477" lon="8.490233705204291"><ele>282.3333333333333</ele><time>2026-04-01T11:34:21Z</time></trkpt><trkpt lat="45.66873622252294" lon="8.490160750738442"><ele>282.66666666666663</ele><time>2026-04-01T11:34:22Z</time></trkpt><trkpt lat="45.6688900536182" lon="8.490075698609752"><ele>283.0</ele><time>2026-04-01T11:34:23Z</time></trkpt><trkpt lat="45.66905538958391" lon="8.489996569875252"><ele>283.0</ele><time>2026-04-01T11:34:24Z</time></trkpt><trkpt lat="45.66922272310566" lon="8.489924100448361"><ele>283.0</ele><time>2026-04-01T11:34:25Z</time></trkpt><trkpt lat="45.669390282033106" lon="8.489835534276768"><ele>283.0</ele><time>2026-04-01T11:34:26Z</time></trkpt><trkpt lat="45.66955326730241" lon="8.489767371257322"><ele>283.0</ele><time>2026-04-01T11:34:27Z</time></trkpt><trkpt lat="45.66969060349749" lon="8.489691673247261"><ele>283.0</ele><time>2026-04-01T11:34:28Z</time></trkpt><trkpt lat="45.669814558597686" lon="8.489606566453244"><ele>283.0</ele><time>2026-04-01T11:34:29Z</time></trkpt><trkpt lat="45.66993699092989" lon="8.489528852002714"><ele>283.0</ele><time>2026-04-01T11:34:30Z</time></trkpt><trkpt lat="45.67004537977666" lon="8.489453428791398"><ele>283.0</ele><time>2026-04-01T11:34:31Z</time></trkpt><trkpt lat="45.67014309240171" lon="8.48940255009669"><ele>283.0</ele><time>2026-04-01T11:34:32Z</time></trkpt><trkpt lat="45.67023057005194" lon="8.489360853229478"><ele>283.0</ele><time>2026-04-01T11:34:33Z</time></trkpt><trkpt lat="45.670323462887474" lon="8.489310970580132"><ele>283.0</ele><time>2026-04-01T11:34:34Z</time></trkpt><trkpt lat="45.67040026520768" lon="8.48926801502664"><ele>283.0</ele><time>2026-04-01T11:34:35Z</time></trkpt><trkpt lat="45.67046297988913" lon="8.489233873745013"><ele>283.0</ele><time>2026-04-01T11:34:36Z</time></trkpt><trkpt lat="45.67054198337604" lon="8.489159120566589"><ele>283.5</ele><time>2026-04-01T11:34:38Z</time></trkpt><trkpt lat="45.67064576815368" lon="8.489502572890741"><ele>284.0</ele><time>2026-04-01T11:34:43Z</time></trkpt><trkpt lat="45.670674275020865" lon="8.489587775070625"><ele>284.5</ele><time>2026-04-01T11:34:44Z</time></trkpt><trkpt lat="45.67070936777962" lon="8.489677710121313"><ele>285.0</ele><time>2026-04-01T11:34:45Z</time></trkpt><trkpt lat="45.67077957429124" lon="8.489865523582983"><ele>285.2</ele><time>2026-04-01T11:34:47Z</time></trkpt><trkpt lat="45.67083489241018" lon="8.489986435265635"><ele>285.4</ele><time>2026-04-01T11:34:48Z</time></trkpt><trkpt lat="45.670882254177585" lon="8.490116665849538"><ele>285.6</ele><time>2026-04-01T11:34:49Z</time></trkpt><trkpt lat="45.67092918568033" lon="8.490251446480375"><ele>285.8</ele><time>2026-04-01T11:34:50Z</time></trkpt><trkpt lat="45.67097347087269" lon="8.490377551115996"><ele>286.0</ele><time>2026-04-01T11:34:51Z</time></trkpt><trkpt lat="45.671021207155334" lon="8.49049127665351"><ele>286.16666666666663</ele><time>2026-04-01T11:34:52Z</time></trkpt><trkpt lat="45.67106780673653" lon="8.490587445291366"><ele>286.3333333333333</ele><time>2026-04-01T11:34:53Z</time></trkpt><trkpt lat="45.67110738285633" lon="8.490672136243523"><ele>286.5</ele><time>2026-04-01T11:34:54Z</time></trkpt><trkpt lat="45.67114031690837" lon="8.490755406792518"><ele>286.6666666666667</ele><time>2026-04-01T11:34:55Z</time></trkpt><trkpt lat="45.67119469815353" lon="8.49089454623353"><ele>286.83333333333337</ele><time>2026-04-01T11:34:57Z</time></trkpt><trkpt lat="45.671229915647565" lon="8.490995309310344"><ele>287.0</ele><time>2026-04-01T11:34:59Z</time></trkpt><trkpt lat="45.67135059935647" lon="8.491017961777217"><ele>287.33333333333337</ele><time>2026-04-01T11:35:03Z</time></trkpt><trkpt lat="45.67141162132173" lon="8.490897685674362"><ele>287.6666666666667</ele><time>2026-04-01T11:35:05Z</time></trkpt><trkpt lat="45.67148024305886" lon="8.490823367120676"><ele>288.0</ele><time>2026-04-01T11:35:07Z</time></trkpt><trkpt lat="45.67156254206413" lon="8.490759974004076"><ele>288.3333333333333</ele><time>2026-04-01T11:35:09Z</time></trkpt><trkpt lat="45.67162674089944" lon="8.490706345822822"><ele>288.66666666666663</ele><time>2026-04-01T11:35:10Z</time></trkpt><trkpt lat="45.67168886665547" lon="8.490646595796747"><ele>289.0</ele><time>2026-04-01T11:35:11Z</time></trkpt><trkpt lat="45.67175257501894" lon="8.490610974923277"><ele>289.0</ele><time>2026-04-01T11:35:12Z</time></trkpt><trkpt lat="45.671814487393895" lon="8.49055685261063"><ele>289.0</ele><time>2026-04-01T11:35:13Z</time></trkpt><trkpt lat="45.671878987015795" lon="8.490490467992197"><ele>289.0</ele><time>2026-04-01T11:35:14Z</time></trkpt><trkpt lat="45.67201388669858" lon="8.49035579065258"><ele>289.0</ele><time>2026-04-01T11:35:15.999Z</time></trkpt><trkpt lat="45.672106338306385" lon="8.490305374556234"><ele>289.0</ele><time>2026-04-01T11:35:16.999Z</time></trkpt><trkpt lat="45.67220316856336" lon="8.49025824286968"><ele>289.8</ele><time>2026-04-01T11:35:17.999Z</time></trkpt><trkpt lat="45.67228946787945" lon="8.490199015519169"><ele>290.59999999999997</ele><time>2026-04-01T11:35:18.999Z</time></trkpt><trkpt lat="45.67237792609332" lon="8.490139648154551"><ele>291.4</ele><time>2026-04-01T11:35:19.999Z</time></trkpt><trkpt lat="45.67246252231317" lon="8.49007928324681"><ele>292.2</ele><time>2026-04-01T11:35:20.999Z</time></trkpt><trkpt lat="45.672535831579935" lon="8.4900294767285"><ele>293.0</ele><time>2026-04-01T11:35:21.999Z</time></trkpt><trkpt lat="45.67260684995942" lon="8.489966549403949"><ele>293.0</ele><time>2026-04-01T11:35:22.999Z</time></trkpt><trkpt lat="45.67269434324056" lon="8.489901913051394"><ele>293.0</ele><time>2026-04-01T11:35:23.999Z</time></trkpt><trkpt lat="45.67277108123329" lon="8.48983651685615"><ele>293.0</ele><time>2026-04-01T11:35:24.999Z</time></trkpt><trkpt lat="45.67284997930013" lon="8.489756778627937"><ele>293.0</ele><time>2026-04-01T11:35:25.999Z</time></trkpt><trkpt lat="45.67293013998603" lon="8.489695560340321"><ele>293.0</ele><time>2026-04-01T11:35:26.999Z</time></trkpt><trkpt lat="45.673010228809126" lon="8.489617448510051"><ele>292.8</ele><time>2026-04-01T11:35:27.999Z</time></trkpt><trkpt lat="45.67309862282738" lon="8.489551212725221"><ele>292.6</ele><time>2026-04-01T11:35:28.999Z</time></trkpt><trkpt lat="45.67318826220726" lon="8.489500160994679"><ele>292.4</ele><time>2026-04-01T11:35:29.999Z</time></trkpt><trkpt lat="45.67327416947727" lon="8.48944873485001"><ele>292.2</ele><time>2026-04-01T11:35:30.999Z</time></trkpt><trkpt lat="45.6733666176887" lon="8.489376691375847"><ele>292.0</ele><time>2026-04-01T11:35:31.999Z</time></trkpt><trkpt lat="45.67345902683267" lon="8.489313348845325"><ele>292.0</ele><time>2026-04-01T11:35:32.999Z</time></trkpt><trkpt lat="45.67354432880337" lon="8.489251728139433"><ele>292.0</ele><time>2026-04-01T11:35:33.999Z</time></trkpt><trkpt lat="45.673634474995616" lon="8.48920491766338"><ele>292.0</ele><time>2026-04-01T11:35:34.999Z</time></trkpt><trkpt lat="45.67371048109865" lon="8.489155568319012"><ele>292.0</ele><time>2026-04-01T11:35:35.999Z</time></trkpt><trkpt lat="45.673785700311726" lon="8.489091532408642"><ele>292.0</ele><time>2026-04-01T11:35:36.999Z</time></trkpt><trkpt lat="45.67386956749621" lon="8.489015357948926"><ele>291.5</ele><time>2026-04-01T11:35:37.999Z</time></trkpt><trkpt lat="45.67397167861868" lon="8.488956492632054"><ele>291.0</ele><time>2026-04-01T11:35:38.999Z</time></trkpt><trkpt lat="45.674077049584824" lon="8.48890957976482"><ele>290.5</ele><time>2026-04-01T11:35:39.999Z</time></trkpt><trkpt lat="45.67419249014741" lon="8.488856469394026"><ele>290.0</ele><time>2026-04-01T11:35:40.999Z</time></trkpt><trkpt lat="45.67429975050594" lon="8.488811049272163"><ele>289.75</ele><time>2026-04-01T11:35:41.999Z</time></trkpt><trkpt lat="45.6744035600632" lon="8.48875443503288"><ele>289.5</ele><time>2026-04-01T11:35:42.999Z</time></trkpt><trkpt lat="45.67450468030251" lon="8.48870256150898"><ele>289.25</ele><time>2026-04-01T11:35:43.999Z</time></trkpt><trkpt lat="45.674609864441074" lon="8.488636745898273"><ele>289.0</ele><time>2026-04-01T11:35:44.999Z</time></trkpt><trkpt lat="45.67472554483959" lon="8.488578553620219"><ele>288.25</ele><time>2026-04-01T11:35:45.999Z</time></trkpt><trkpt lat="45.67484015703565" lon="8.48851354283856"><ele>287.5</ele><time>2026-04-01T11:35:46.999Z</time></trkpt><trkpt lat="45.67495366371162" lon="8.4884724736356"><ele>286.75</ele><time>2026-04-01T11:35:47.999Z</time></trkpt><trkpt lat="45.67507841700895" lon="8.488417346425107"><ele>286.0</ele><time>2026-04-01T11:35:48.999Z</time></trkpt><trkpt lat="45.67519287146587" lon="8.488359739171996"><ele>286.0</ele><time>2026-04-01T11:35:49.999Z</time></trkpt><trkpt lat="45.6753034799126" lon="8.488309678573197"><ele>286.0</ele><time>2026-04-01T11:35:50.999Z</time></trkpt><trkpt lat="45.67542004645855" lon="8.488266605648743"><ele>286.0</ele><time>2026-04-01T11:35:51.999Z</time></trkpt><trkpt lat="45.675527554485605" lon="8.488206505675103"><ele>286.0</ele><time>2026-04-01T11:35:52.999Z</time></trkpt><trkpt lat="45.6756329942539" lon="8.488160440804451"><ele>286.0</ele><time>2026-04-01T11:35:53.999Z</time></trkpt><trkpt lat="45.67575128025719" lon="8.488092068398617"><ele>286.0</ele><time>2026-04-01T11:35:54.999Z</time></trkpt><trkpt lat="45.6758647410621" lon="8.488036675089957"><ele>286.0</ele><time>2026-04-01T11:35:55.999Z</time></trkpt><trkpt lat="45.675969314501465" lon="8.487976339397886"><ele>286.0</ele><time>2026-04-01T11:35:57Z</time></trkpt><trkpt lat="45.67608121045555" lon="8.487918582151641"><ele>287.0</ele><time>2026-04-01T11:35:58Z</time></trkpt><trkpt lat="45.67619564960415" lon="8.487866361167741"><ele>288.0</ele><time>2026-04-01T11:35:59Z</time></trkpt><trkpt lat="45.676319618933704" lon="8.487825900089934"><ele>289.0</ele><time>2026-04-01T11:36:00Z</time></trkpt><trkpt lat="45.67644408632458" lon="8.487760593288042"><ele>290.0</ele><time>2026-04-01T11:36:01Z</time></trkpt><trkpt lat="45.67656021630891" lon="8.487697896727747"><ele>290.0</ele><time>2026-04-01T11:36:02Z</time></trkpt><trkpt lat="45.67668131630588" lon="8.48762981675617"><ele>290.0</ele><time>2026-04-01T11:36:03Z</time></trkpt><trkpt lat="45.67681182925105" lon="8.48758257717742"><ele>290.0</ele><time>2026-04-01T11:36:04Z</time></trkpt><trkpt lat="45.676931804034815" lon="8.487528464443761"><ele>290.0</ele><time>2026-04-01T11:36:05Z</time></trkpt><trkpt lat="45.6770499941263" lon="8.48748384596633"><ele>290.2</ele><time>2026-04-01T11:36:06Z</time></trkpt><trkpt lat="45.67714799715388" lon="8.487439015375573"><ele>290.4</ele><time>2026-04-01T11:36:07Z</time></trkpt><trkpt lat="45.67723669734042" lon="8.487385060653189"><ele>290.6</ele><time>2026-04-01T11:36:08Z</time></trkpt><trkpt lat="45.677318992079506" lon="8.487337678316909"><ele>290.8</ele><time>2026-04-01T11:36:09Z</time></trkpt><trkpt lat="45.67739691583755" lon="8.487300878631014"><ele>291.0</ele><time>2026-04-01T11:36:10Z</time></trkpt><trkpt lat="45.67748207372997" lon="8.4872630151651"><ele>291.0</ele><time>2026-04-01T11:36:11Z</time></trkpt><trkpt lat="45.67759576446358" lon="8.487206942064484"><ele>291.0</ele><time>2026-04-01T11:36:12Z</time></trkpt><trkpt lat="45.67769165084529" lon="8.487150713509005"><ele>291.0</ele><time>2026-04-01T11:36:13Z</time></trkpt><trkpt lat="45.67777944763754" lon="8.4871028012248"><ele>291.0</ele><time>2026-04-01T11:36:14Z</time></trkpt><trkpt lat="45.67785520439613" lon="8.487062316955672"><ele>291.0</ele><time>2026-04-01T11:36:15Z</time></trkpt><trkpt lat="45.67794512364219" lon="8.487024202761479"><ele>290.6</ele><time>2026-04-01T11:36:16Z</time></trkpt><trkpt lat="45.67803006181783" lon="8.486967770551807"><ele>290.20000000000005</ele><time>2026-04-01T11:36:17Z</time></trkpt><trkpt lat="45.678117639568526" lon="8.486916702121391"><ele>289.79999999999995</ele><time>2026-04-01T11:36:18Z</time></trkpt><trkpt lat="45.67822199773185" lon="8.486884095218132"><ele>289.4</ele><time>2026-04-01T11:36:19Z</time></trkpt><trkpt lat="45.67831744074018" lon="8.486844589822255"><ele>289.0</ele><time>2026-04-01T11:36:20Z</time></trkpt><trkpt lat="45.678425302305925" lon="8.486793408709953"><ele>289.0</ele><time>2026-04-01T11:36:21Z</time></trkpt><trkpt lat="45.678522794883776" lon="8.486753084489925"><ele>289.0</ele><time>2026-04-01T11:36:22Z</time></trkpt><trkpt lat="45.67862737030144" lon="8.486727892968029"><ele>289.0</ele><time>2026-04-01T11:36:23Z</time></trkpt><trkpt lat="45.678742422890124" lon="8.486686546725627"><ele>289.0</ele><time>2026-04-01T11:36:24Z</time></trkpt><trkpt lat="45.6788700013205" lon="8.486598673792326"><ele>289.3333333333333</ele><time>2026-04-01T11:36:25Z</time></trkpt><trkpt lat="45.67902227102173" lon="8.48651702055692"><ele>289.6666666666667</ele><time>2026-04-01T11:36:26Z</time></trkpt><trkpt lat="45.67917955268641" lon="8.486436592240366"><ele>290.0</ele><time>2026-04-01T11:36:27Z</time></trkpt><trkpt lat="45.67932381289466" lon="8.486349785568606"><ele>290.25</ele><time>2026-04-01T11:36:28Z</time></trkpt><trkpt lat="45.679464516502435" lon="8.486271603879214"><ele>290.5</ele><time>2026-04-01T11:36:29Z</time></trkpt><trkpt lat="45.679589051606094" lon="8.486196932098121"><ele>290.75</ele><time>2026-04-01T11:36:30Z</time></trkpt><trkpt lat="45.67971368834229" lon="8.486146978938741"><ele>291.0</ele><time>2026-04-01T11:36:31Z</time></trkpt><trkpt lat="45.67982613462994" lon="8.48609886801753"><ele>291.1666666666667</ele><time>2026-04-01T11:36:32Z</time></trkpt><trkpt lat="45.67991791829623" lon="8.486054489572712"><ele>291.3333333333333</ele><time>2026-04-01T11:36:33Z</time></trkpt><trkpt lat="45.67998230572839" lon="8.486022822930197"><ele>291.5</ele><time>2026-04-01T11:36:34Z</time></trkpt><trkpt lat="45.680033741439644" lon="8.485938502098767"><ele>291.66666666666663</ele><time>2026-04-01T11:36:37Z</time></trkpt><trkpt lat="45.68001935552244" lon="8.485843005914969"><ele>291.8333333333333</ele><time>2026-04-01T11:36:38Z</time></trkpt><trkpt lat="45.67996812376562" lon="8.485743851173188"><ele>292.0</ele><time>2026-04-01T11:36:39Z</time></trkpt><trkpt lat="45.67992879595298" lon="8.485627261136758"><ele>292.0</ele><time>2026-04-01T11:36:40Z</time></trkpt><trkpt lat="45.67989973910822" lon="8.485481797467184"><ele>292.0</ele><time>2026-04-01T11:36:41Z</time></trkpt><trkpt lat="45.67986470824064" lon="8.485328260502053"><ele>292.0</ele><time>2026-04-01T11:36:42Z</time></trkpt><trkpt lat="45.67982979659985" lon="8.485179684569342"><ele>292.0</ele><time>2026-04-01T11:36:43Z</time></trkpt><trkpt lat="45.67979257625538" lon="8.485027902828383"><ele>292.0</ele><time>2026-04-01T11:36:44Z</time></trkpt><trkpt lat="45.67974606941146" lon="8.484859529449066"><ele>292.25</ele><time>2026-04-01T11:36:45Z</time></trkpt><trkpt lat="45.67969244623378" lon="8.484677727381007"><ele>292.5</ele><time>2026-04-01T11:36:46Z</time></trkpt><trkpt lat="45.67963946041016" lon="8.48449538463477"><ele>292.75</ele><time>2026-04-01T11:36:47Z</time></trkpt><trkpt lat="45.679587661692736" lon="8.484294135020162"><ele>293.0</ele><time>2026-04-01T11:36:48Z</time></trkpt><trkpt lat="45.6795394926274" lon="8.48410019624666"><ele>293.0</ele><time>2026-04-01T11:36:48.999Z</time></trkpt><trkpt lat="45.679495241498344" lon="8.483900293151352"><ele>293.0</ele><time>2026-04-01T11:36:49.999Z</time></trkpt><trkpt lat="45.679444761615954" lon="8.48369455037842"><ele>293.0</ele><time>2026-04-01T11:36:50.999Z</time></trkpt><trkpt lat="45.67939827332684" lon="8.483504434461226"><ele>293.0</ele><time>2026-04-01T11:36:51.999Z</time></trkpt><trkpt lat="45.679357149341755" lon="8.483323553936014"><ele>292.8</ele><time>2026-04-01T11:36:52.999Z</time></trkpt><trkpt lat="45.679315638027255" lon="8.483157835263114"><ele>292.6</ele><time>2026-04-01T11:36:53.999Z</time></trkpt><trkpt lat="45.679279752252626" lon="8.483004188395554"><ele>292.4</ele><time>2026-04-01T11:36:54.999Z</time></trkpt><trkpt lat="45.67925240093759" lon="8.48286592482635"><ele>292.2</ele><time>2026-04-01T11:36:55.999Z</time></trkpt><trkpt lat="45.67922750384831" lon="8.48274765346239"><ele>292.0</ele><time>2026-04-01T11:36:56.999Z</time></trkpt><trkpt lat="45.67918653143489" lon="8.482622322696093"><ele>291.8333333333333</ele><time>2026-04-01T11:36:58.999Z</time></trkpt><trkpt lat="45.67917975130244" lon="8.482520168888106"><ele>291.66666666666663</ele><time>2026-04-01T11:37:00.999Z</time></trkpt><trkpt lat="45.67924516496861" lon="8.48239989448548"><ele>291.5</ele><time>2026-04-01T11:37:02.999Z</time></trkpt><trkpt lat="45.67931522537426" lon="8.482357138899117"><ele>291.3333333333333</ele><time>2026-04-01T11:37:03.999Z</time></trkpt><trkpt lat="45.67939586923885" lon="8.482316645541278"><ele>291.1666666666667</ele><time>2026-04-01T11:37:04.999Z</time></trkpt><trkpt lat="45.67947909085181" lon="8.482260217655206"><ele>291.0</ele><time>2026-04-01T11:37:05.999Z</time></trkpt><trkpt lat="45.67956232941575" lon="8.482199828332794"><ele>291.1666666666667</ele><time>2026-04-01T11:37:06.999Z</time></trkpt><trkpt lat="45.67965380786434" lon="8.482131345326438"><ele>291.3333333333333</ele><time>2026-04-01T11:37:07.999Z</time></trkpt><trkpt lat="45.679740183252335" lon="8.482073826433338"><ele>291.5</ele><time>2026-04-01T11:37:08.999Z</time></trkpt><trkpt lat="45.67981470098064" lon="8.482008251950269"><ele>291.66666666666663</ele><time>2026-04-01T11:37:09.999Z</time></trkpt><trkpt lat="45.67989174987815" lon="8.48195073356671"><ele>291.8333333333333</ele><time>2026-04-01T11:37:10.999Z</time></trkpt><trkpt lat="45.67995113069127" lon="8.481887179752135"><ele>292.0</ele><time>2026-04-01T11:37:11.999Z</time></trkpt><trkpt lat="45.680006477812796" lon="8.481835736974796"><ele>292.0</ele><time>2026-04-01T11:37:12.999Z</time></trkpt><trkpt lat="45.68011163042989" lon="8.48175451696037"><ele>292.0</ele><time>2026-04-01T11:37:14.999Z</time></trkpt><trkpt lat="45.68017400850445" lon="8.481700922892797"><ele>292.0</ele><time>2026-04-01T11:37:15.999Z</time></trkpt><trkpt lat="45.68023809427209" lon="8.481651339865671"><ele>292.0</ele><time>2026-04-01T11:37:16.999Z</time></trkpt><trkpt lat="45.68031455799806" lon="8.48160069347012"><ele>292.0</ele><time>2026-04-01T11:37:17.999Z</time></trkpt><trkpt lat="45.680387106000474" lon="8.481552526600465"><ele>292.0</ele><time>2026-04-01T11:37:18.999Z</time></trkpt><trkpt lat="45.68046465725025" lon="8.481502041772137"><ele>292.4</ele><time>2026-04-01T11:37:19.999Z</time></trkpt><trkpt lat="45.68053134377441" lon="8.48143994002028"><ele>292.79999999999995</ele><time>2026-04-01T11:37:20.999Z</time></trkpt><trkpt lat="45.68061716906757" lon="8.481376077370122"><ele>293.2</ele><time>2026-04-01T11:37:21.999Z</time></trkpt><trkpt lat="45.680694377559064" lon="8.481312264532932"><ele>293.59999999999997</ele><time>2026-04-01T11:37:22.999Z</time></trkpt><trkpt lat="45.68078157075648" lon="8.481232943574303"><ele>294.0</ele><time>2026-04-01T11:37:23.999Z</time></trkpt><trkpt lat="45.680893624668286" lon="8.481163165645162"><ele>294.0</ele><time>2026-04-01T11:37:24.999Z</time></trkpt><trkpt lat="45.681001951128955" lon="8.48107939946204"><ele>294.0</ele><time>2026-04-01T11:37:25.999Z</time></trkpt><trkpt lat="45.68111311560733" lon="8.480996942455723"><ele>294.0</ele><time>2026-04-01T11:37:26.999Z</time></trkpt><trkpt lat="45.68125248636871" lon="8.480933927044397"><ele>294.0</ele><time>2026-04-01T11:37:27.999Z</time></trkpt><trkpt lat="45.681354409465825" lon="8.48084811920243"><ele>294.0</ele><time>2026-04-01T11:37:28.999Z</time></trkpt><trkpt lat="45.68146385610455" lon="8.480780085290165"><ele>294.0</ele><time>2026-04-01T11:37:29.999Z</time></trkpt><trkpt lat="45.6815617679391" lon="8.48071914938069"><ele>294.0</ele><time>2026-04-01T11:37:30.999Z</time></trkpt><trkpt lat="45.68165971950698" lon="8.480644970916453"><ele>294.0</ele><time>2026-04-01T11:37:31.999Z</time></trkpt><trkpt lat="45.68176860392224" lon="8.480574928410748"><ele>294.0</ele><time>2026-04-01T11:37:32.999Z</time></trkpt><trkpt lat="45.68187246605357" lon="8.480499393026305"><ele>294.0</ele><time>2026-04-01T11:37:33.999Z</time></trkpt><trkpt lat="45.68196723979478" lon="8.480434344882802"><ele>294.0</ele><time>2026-04-01T11:37:34.999Z</time></trkpt><trkpt lat="45.68206081945931" lon="8.480370489836567"><ele>294.0</ele><time>2026-04-01T11:37:35.999Z</time></trkpt><trkpt lat="45.682149748093934" lon="8.480306383050047"><ele>294.0</ele><time>2026-04-01T11:37:36.999Z</time></trkpt><trkpt lat="45.68224654155995" lon="8.480249418461083"><ele>294.25</ele><time>2026-04-01T11:37:37.999Z</time></trkpt><trkpt lat="45.68234769336767" lon="8.480188188467379"><ele>294.5</ele><time>2026-04-01T11:37:38.999Z</time></trkpt><trkpt lat="45.6824485683004" lon="8.480113134113367"><ele>294.75</ele><time>2026-04-01T11:37:39.999Z</time></trkpt><trkpt lat="45.682555489313046" lon="8.480031436982708"><ele>295.0</ele><time>2026-04-01T11:37:40.999Z</time></trkpt><trkpt lat="45.68267552368948" lon="8.479950546256699"><ele>295.0</ele><time>2026-04-01T11:37:41.999Z</time></trkpt><trkpt lat="45.682792854275576" lon="8.479855296121505"><ele>295.0</ele><time>2026-04-01T11:37:42.999Z</time></trkpt><trkpt lat="45.68291312723097" lon="8.479779024184625"><ele>295.0</ele><time>2026-04-01T11:37:43.999Z</time></trkpt><trkpt lat="45.68304475705426" lon="8.47969204262433"><ele>295.0</ele><time>2026-04-01T11:37:44.999Z</time></trkpt><trkpt lat="45.68315689713218" lon="8.47960730392287"><ele>295.3333333333333</ele><time>2026-04-01T11:37:45.999Z</time></trkpt><trkpt lat="45.683295397314545" lon="8.47949984204874"><ele>295.6666666666667</ele><time>2026-04-01T11:37:46.999Z</time></trkpt><trkpt lat="45.68344396803724" lon="8.479405330801749"><ele>296.0</ele><time>2026-04-01T11:37:47.999Z</time></trkpt><trkpt lat="45.68358674237057" lon="8.479305051973961"><ele>296.33333333333337</ele><time>2026-04-01T11:37:48.999Z</time></trkpt><trkpt lat="45.683724606507155" lon="8.479185688573143"><ele>296.6666666666667</ele><time>2026-04-01T11:37:49.999Z</time></trkpt><trkpt lat="45.68388365070688" lon="8.479066821385976"><ele>297.0</ele><time>2026-04-01T11:37:50.999Z</time></trkpt><trkpt lat="45.68403824251575" lon="8.478958945470438"><ele>297.0</ele><time>2026-04-01T11:37:51.999Z</time></trkpt><trkpt lat="45.68418271559541" lon="8.478850983329005"><ele>297.0</ele><time>2026-04-01T11:37:52.999Z</time></trkpt><trkpt lat="45.68432424043446" lon="8.478747653879969"><ele>297.0</ele><time>2026-04-01T11:37:53.999Z</time></trkpt><trkpt lat="45.68445587069953" lon="8.478624632955464"><ele>297.3333333333333</ele><time>2026-04-01T11:37:54.999Z</time></trkpt><trkpt lat="45.6846172509399" lon="8.478542558716931"><ele>297.66666666666663</ele><time>2026-04-01T11:37:55.999Z</time></trkpt><trkpt lat="45.684767182617676" lon="8.47841311885221"><ele>298.0</ele><time>2026-04-01T11:37:56.999Z</time></trkpt><trkpt lat="45.684903757220965" lon="8.478300865436324"><ele>298.0</ele><time>2026-04-01T11:37:57.999Z</time></trkpt><trkpt lat="45.68503730578502" lon="8.478182491912484"><ele>298.0</ele><time>2026-04-01T11:37:58.999Z</time></trkpt><trkpt lat="45.68517327366903" lon="8.478080264401225"><ele>298.0</ele><time>2026-04-01T11:37:59.999Z</time></trkpt><trkpt lat="45.68529493870727" lon="8.477971645951847"><ele>298.25</ele><time>2026-04-01T11:38:00.999Z</time></trkpt><trkpt lat="45.68541004816177" lon="8.4778598349567"><ele>298.5</ele><time>2026-04-01T11:38:01.999Z</time></trkpt><trkpt lat="45.68551785494167" lon="8.477764136069771"><ele>298.75</ele><time>2026-04-01T11:38:03Z</time></trkpt><trkpt lat="45.68562432020847" lon="8.47766175168017"><ele>299.0</ele><time>2026-04-01T11:38:04Z</time></trkpt><trkpt lat="45.68573202336737" lon="8.477563092734556"><ele>299.0</ele><time>2026-04-01T11:38:05Z</time></trkpt><trkpt lat="45.68584637411501" lon="8.477456498283672"><ele>299.0</ele><time>2026-04-01T11:38:06Z</time></trkpt><trkpt lat="45.685962284347774" lon="8.47733859603927"><ele>299.0</ele><time>2026-04-01T11:38:07Z</time></trkpt><trkpt lat="45.68608287162273" lon="8.477222070611584"><ele>299.0</ele><time>2026-04-01T11:38:08Z</time></trkpt><trkpt lat="45.68620282752809" lon="8.477109084344654"><ele>299.0</ele><time>2026-04-01T11:38:09Z</time></trkpt><trkpt lat="45.68633284732152" lon="8.47699094352751"><ele>299.0</ele><time>2026-04-01T11:38:10Z</time></trkpt><trkpt lat="45.68646467632719" lon="8.47688443895608"><ele>299.0</ele><time>2026-04-01T11:38:11Z</time></trkpt><trkpt lat="45.68660767806177" lon="8.476772606941482"><ele>299.0</ele><time>2026-04-01T11:38:12Z</time></trkpt><trkpt lat="45.68672625335075" lon="8.476664067475975"><ele>299.0</ele><time>2026-04-01T11:38:13Z</time></trkpt><trkpt lat="45.686852965267356" lon="8.476542407285137"><ele>299.0</ele><time>2026-04-01T11:38:14Z</time></trkpt><trkpt lat="45.68698304476928" lon="8.476433125362226"><ele>299.0</ele><time>2026-04-01T11:38:15Z</time></trkpt><trkpt lat="45.687116810771435" lon="8.476330590354983"><ele>299.0</ele><time>2026-04-01T11:38:16Z</time></trkpt><trkpt lat="45.68725214920592" lon="8.476218149978562"><ele>299.0</ele><time>2026-04-01T11:38:17Z</time></trkpt><trkpt lat="45.68737809963772" lon="8.476096761460072"><ele>299.0</ele><time>2026-04-01T11:38:18Z</time></trkpt><trkpt lat="45.687509217577315" lon="8.475982650101924"><ele>299.0</ele><time>2026-04-01T11:38:19Z</time></trkpt><trkpt lat="45.68764377200871" lon="8.475866127931992"><ele>299.0</ele><time>2026-04-01T11:38:20Z</time></trkpt><trkpt lat="45.68777322015438" lon="8.475747555864634"><ele>299.0</ele><time>2026-04-01T11:38:21Z</time></trkpt><trkpt lat="45.68791554484339" lon="8.475625709197026"><ele>299.33333333333337</ele><time>2026-04-01T11:38:22Z</time></trkpt><trkpt lat="45.68804963477934" lon="8.475503897679177"><ele>299.6666666666667</ele><time>2026-04-01T11:38:23Z</time></trkpt><trkpt lat="45.688183394754894" lon="8.475386441366782"><ele>300.0</ele><time>2026-04-01T11:38:24Z</time></trkpt><trkpt lat="45.688319549119775" lon="8.475270872918626"><ele>300.0</ele><time>2026-04-01T11:38:25Z</time></trkpt><trkpt lat="45.68844422793618" lon="8.475160311625492"><ele>300.0</ele><time>2026-04-01T11:38:26Z</time></trkpt><trkpt lat="45.68857198948396" lon="8.475048913871042"><ele>300.0</ele><time>2026-04-01T11:38:27Z</time></trkpt><trkpt lat="45.68871048472439" lon="8.474938597614138"><ele>300.6666666666667</ele><time>2026-04-01T11:38:28Z</time></trkpt><trkpt lat="45.68883389682135" lon="8.474824106241897"><ele>301.33333333333337</ele><time>2026-04-01T11:38:29Z</time></trkpt><trkpt lat="45.688962513087354" lon="8.474709188379522"><ele>302.0</ele><time>2026-04-01T11:38:30Z</time></trkpt><trkpt lat="45.689095975421615" lon="8.47459391137214"><ele>302.0</ele><time>2026-04-01T11:38:31Z</time></trkpt><trkpt lat="45.68922290513265" lon="8.474480184374151"><ele>302.0</ele><time>2026-04-01T11:38:32Z</time></trkpt><trkpt lat="45.68935457461342" lon="8.47437277114802"><ele>302.0</ele><time>2026-04-01T11:38:33Z</time></trkpt><trkpt lat="45.68947893024161" lon="8.474263013874275"><ele>302.0</ele><time>2026-04-01T11:38:34Z</time></trkpt><trkpt lat="45.689604862657355" lon="8.474162137553012"><ele>301.75</ele><time>2026-04-01T11:38:35Z</time></trkpt><trkpt lat="45.689736007674384" lon="8.474055933344667"><ele>301.5</ele><time>2026-04-01T11:38:36Z</time></trkpt><trkpt lat="45.68984895490939" lon="8.473947308230834"><ele>301.25</ele><time>2026-04-01T11:38:37Z</time></trkpt><trkpt lat="45.689973957281694" lon="8.473825401237608"><ele>301.0</ele><time>2026-04-01T11:38:38Z</time></trkpt><trkpt lat="45.690108451686555" lon="8.473720078154347"><ele>301.0</ele><time>2026-04-01T11:38:39Z</time></trkpt><trkpt lat="45.69023531159368" lon="8.473578113345608"><ele>301.0</ele><time>2026-04-01T11:38:40Z</time></trkpt><trkpt lat="45.69034830328995" lon="8.473422300183334"><ele>301.0</ele><time>2026-04-01T11:38:41Z</time></trkpt><trkpt lat="45.690459170199595" lon="8.47326055571239"><ele>301.0</ele><time>2026-04-01T11:38:42Z</time></trkpt><trkpt lat="45.690562472084956" lon="8.473080644859285"><ele>301.0</ele><time>2026-04-01T11:38:43Z</time></trkpt><trkpt lat="45.69067142006034" lon="8.472930488168746"><ele>301.0</ele><time>2026-04-01T11:38:44Z</time></trkpt><trkpt lat="45.69077276080547" lon="8.472790644361423"><ele>301.0</ele><time>2026-04-01T11:38:45Z</time></trkpt><trkpt lat="45.69086290962531" lon="8.472651488543072"><ele>301.0</ele><time>2026-04-01T11:38:46Z</time></trkpt><trkpt lat="45.690952866513335" lon="8.472517014519939"><ele>301.0</ele><time>2026-04-01T11:38:47Z</time></trkpt><trkpt lat="45.69105669923224" lon="8.472377938839296"><ele>301.0</ele><time>2026-04-01T11:38:48Z</time></trkpt><trkpt lat="45.6911556355505" lon="8.472231416467105"><ele>301.0</ele><time>2026-04-01T11:38:49Z</time></trkpt><trkpt lat="45.69125927734207" lon="8.472075597806782"><ele>301.0</ele><time>2026-04-01T11:38:50Z</time></trkpt><trkpt lat="45.691354833313014" lon="8.471926643592903"><ele>301.0</ele><time>2026-04-01T11:38:51Z</time></trkpt><trkpt lat="45.69146063943727" lon="8.471773434486833"><ele>301.0</ele><time>2026-04-01T11:38:52Z</time></trkpt><trkpt lat="45.69155546179383" lon="8.47163612671539"><ele>301.0</ele><time>2026-04-01T11:38:53Z</time></trkpt><trkpt lat="45.691665880628406" lon="8.471510849441769"><ele>301.0</ele><time>2026-04-01T11:38:54Z</time></trkpt><trkpt lat="45.691744939219305" lon="8.471354692552929"><ele>301.0</ele><time>2026-04-01T11:38:55Z</time></trkpt><trkpt lat="45.69183426069983" lon="8.47122943102787"><ele>301.0</ele><time>2026-04-01T11:38:56Z</time></trkpt><trkpt lat="45.69191899377872" lon="8.471094547335348"><ele>301.25</ele><time>2026-04-01T11:38:57Z</time></trkpt><trkpt lat="45.69200317137068" lon="8.470960043642558"><ele>301.5</ele><time>2026-04-01T11:38:58Z</time></trkpt><trkpt lat="45.692096241708825" lon="8.470822055531205"><ele>301.75</ele><time>2026-04-01T11:38:59Z</time></trkpt><trkpt lat="45.69220899731355" lon="8.470712832788385"><ele>302.0</ele><time>2026-04-01T11:39:00Z</time></trkpt><trkpt lat="45.692306098403165" lon="8.470572344652261"><ele>302.0</ele><time>2026-04-01T11:39:01Z</time></trkpt><trkpt lat="45.6924049384016" lon="8.470426575466147"><ele>302.0</ele><time>2026-04-01T11:39:02Z</time></trkpt><trkpt lat="45.69249912593877" lon="8.470286799740188"><ele>302.0</ele><time>2026-04-01T11:39:03Z</time></trkpt><trkpt lat="45.692594948906155" lon="8.470144645597689"><ele>302.0</ele><time>2026-04-01T11:39:04Z</time></trkpt><trkpt lat="45.69267593207304" lon="8.46999456254194"><ele>302.4</ele><time>2026-04-01T11:39:05Z</time></trkpt><trkpt lat="45.69276486921713" lon="8.46987490352665"><ele>302.79999999999995</ele><time>2026-04-01T11:39:06Z</time></trkpt><trkpt lat="45.692851393706704" lon="8.469765392097413"><ele>303.2</ele><time>2026-04-01T11:39:07Z</time></trkpt><trkpt lat="45.692929778386734" lon="8.469656924831671"><ele>303.59999999999997</ele><time>2026-04-01T11:39:08Z</time></trkpt><trkpt lat="45.69299678469405" lon="8.469556941982896"><ele>304.0</ele><time>2026-04-01T11:39:09Z</time></trkpt><trkpt lat="45.693056915314976" lon="8.469481075856681"><ele>304.0</ele><time>2026-04-01T11:39:10Z</time></trkpt><trkpt lat="45.69312130977015" lon="8.469412924653032"><ele>304.0</ele><time>2026-04-01T11:39:11Z</time></trkpt><trkpt lat="45.693159782295254" lon="8.469336659280765"><ele>304.0</ele><time>2026-04-01T11:39:12Z</time></trkpt><trkpt lat="45.69323918393813" lon="8.46930098679779"><ele>304.0</ele><time>2026-04-01T11:39:13Z</time></trkpt><trkpt lat="45.69319301847079" lon="8.469157211772679"><ele>304.0</ele><time>2026-04-01T11:39:14Z</time></trkpt><trkpt lat="45.693112773079285" lon="8.469010275568458"><ele>304.0</ele><time>2026-04-01T11:39:16Z</time></trkpt><trkpt lat="45.69306441948032" lon="8.468908427822717"><ele>304.0</ele><time>2026-04-01T11:39:17Z</time></trkpt><trkpt lat="45.6930190373685" lon="8.468798555195344"><ele>304.0</ele><time>2026-04-01T11:39:18Z</time></trkpt><trkpt lat="45.69296734125719" lon="8.468700520118684"><ele>304.0</ele><time>2026-04-01T11:39:19Z</time></trkpt><trkpt lat="45.692914413900255" lon="8.468581920793293"><ele>304.0</ele><time>2026-04-01T11:39:20Z</time></trkpt><trkpt lat="45.692861104887385" lon="8.468437933349465"><ele>304.25</ele><time>2026-04-01T11:39:20.999Z</time></trkpt><trkpt lat="45.69280852735094" lon="8.468288570207132"><ele>304.5</ele><time>2026-04-01T11:39:21.999Z</time></trkpt><trkpt lat="45.69275353046047" lon="8.46814085821452"><ele>304.75</ele><time>2026-04-01T11:39:22.999Z</time></trkpt><trkpt lat="45.69270387617688" lon="8.46799690690809"><ele>305.0</ele><time>2026-04-01T11:39:23.999Z</time></trkpt><trkpt lat="45.692655661579956" lon="8.46785850185451"><ele>305.0</ele><time>2026-04-01T11:39:24.999Z</time></trkpt><trkpt lat="45.69258613308843" lon="8.46773975382967"><ele>305.0</ele><time>2026-04-01T11:39:25.999Z</time></trkpt><trkpt lat="45.69252827927543" lon="8.467606657990444"><ele>305.0</ele><time>2026-04-01T11:39:26.999Z</time></trkpt><trkpt lat="45.69247246975947" lon="8.467478263309571"><ele>305.0</ele><time>2026-04-01T11:39:27.999Z</time></trkpt><trkpt lat="45.692416353361104" lon="8.467351057787136"><ele>305.0</ele><time>2026-04-01T11:39:28.999Z</time></trkpt><trkpt lat="45.69236023703763" lon="8.467223602380539"><ele>304.8</ele><time>2026-04-01T11:39:29.999Z</time></trkpt><trkpt lat="45.692304708708015" lon="8.467097483041838"><ele>304.6</ele><time>2026-04-01T11:39:30.999Z</time></trkpt><trkpt lat="45.692247703544766" lon="8.466968008802812"><ele>304.4</ele><time>2026-04-01T11:39:31.999Z</time></trkpt><trkpt lat="45.69218846305631" lon="8.466833457595788"><ele>304.2</ele><time>2026-04-01T11:39:32.999Z</time></trkpt><trkpt lat="45.69214187527284" lon="8.466685507530698"><ele>304.0</ele><time>2026-04-01T11:39:33.999Z</time></trkpt><trkpt lat="45.69207824601825" lon="8.466568347431103"><ele>304.0</ele><time>2026-04-01T11:39:34.999Z</time></trkpt><trkpt lat="45.69201862081617" lon="8.46644152021506"><ele>304.0</ele><time>2026-04-01T11:39:35.999Z</time></trkpt><trkpt lat="45.691962924458124" lon="8.466315422486518"><ele>304.0</ele><time>2026-04-01T11:39:36.999Z</time></trkpt><trkpt lat="45.69191047583208" lon="8.466187603133559"><ele>304.0</ele><time>2026-04-01T11:39:37.999Z</time></trkpt><trkpt lat="45.69186171513436" lon="8.466049559001004"><ele>304.0</ele><time>2026-04-01T11:39:38.999Z</time></trkpt><trkpt lat="45.69182560566787" lon="8.465898926797594"><ele>303.8333333333333</ele><time>2026-04-01T11:39:39.999Z</time></trkpt><trkpt lat="45.69180824212742" lon="8.465760113496376"><ele>303.66666666666663</ele><time>2026-04-01T11:39:40.999Z</time></trkpt><trkpt lat="45.69180670231375" lon="8.465621536816919"><ele>303.5</ele><time>2026-04-01T11:39:41.999Z</time></trkpt><trkpt lat="45.69180966752211" lon="8.465494092863077"><ele>303.3333333333333</ele><time>2026-04-01T11:39:42.999Z</time></trkpt><trkpt lat="45.691814982144344" lon="8.465374763719495"><ele>303.1666666666667</ele><time>2026-04-01T11:39:43.999Z</time></trkpt><trkpt lat="45.69182458384758" lon="8.46526510042949"><ele>303.0</ele><time>2026-04-01T11:39:44.999Z</time></trkpt><trkpt lat="45.69184356600068" lon="8.465174612249386"><ele>303.0</ele><time>2026-04-01T11:39:45.999Z</time></trkpt><trkpt lat="45.69186701023191" lon="8.465076014937997"><ele>303.0</ele><time>2026-04-01T11:39:48.999Z</time></trkpt><trkpt lat="45.691900538915" lon="8.464945217489422"><ele>303.0</ele><time>2026-04-01T11:39:50.999Z</time></trkpt><trkpt lat="45.69188532497556" lon="8.464739863717355"><ele>303.0</ele><time>2026-04-01T11:39:52.999Z</time></trkpt><trkpt lat="45.69179347941802" lon="8.464727313081012"><ele>303.0</ele><time>2026-04-01T11:39:53.999Z</time></trkpt><trkpt lat="45.691709156213" lon="8.464706111238723"><ele>303.0</ele><time>2026-04-01T11:39:54.999Z</time></trkpt><trkpt lat="45.691616980416796" lon="8.464650302584053"><ele>303.0</ele><time>2026-04-01T11:39:55.999Z</time></trkpt><trkpt lat="45.691520717297585" lon="8.464583610929612"><ele>303.0</ele><time>2026-04-01T11:39:56.999Z</time></trkpt><trkpt lat="45.69144011490333" lon="8.46446551344811"><ele>303.0</ele><time>2026-04-01T11:39:57.999Z</time></trkpt><trkpt lat="45.69134043095974" lon="8.464378975274801"><ele>303.0</ele><time>2026-04-01T11:39:58.999Z</time></trkpt><trkpt lat="45.691249288424785" lon="8.464259191478472"><ele>303.0</ele><time>2026-04-01T11:39:59.999Z</time></trkpt><trkpt lat="45.69115669220805" lon="8.464145868537472"><ele>303.0</ele><time>2026-04-01T11:40:00.999Z</time></trkpt><trkpt lat="45.6910630046053" lon="8.464019239551948"><ele>303.0</ele><time>2026-04-01T11:40:01.999Z</time></trkpt><trkpt lat="45.690973673035735" lon="8.463888753219997"><ele>303.0</ele><time>2026-04-01T11:40:02.999Z</time></trkpt><trkpt lat="45.690875709451646" lon="8.463764959177412"><ele>302.75</ele><time>2026-04-01T11:40:03.999Z</time></trkpt><trkpt lat="45.69077979758353" lon="8.463640993752374"><ele>302.5</ele><time>2026-04-01T11:40:04.999Z</time></trkpt><trkpt lat="45.69067865331711" lon="8.463505889911348"><ele>302.25</ele><time>2026-04-01T11:40:05.999Z</time></trkpt><trkpt lat="45.69057838205971" lon="8.463359229738774"><ele>302.0</ele><time>2026-04-01T11:40:06.999Z</time></trkpt><trkpt lat="45.690476893928256" lon="8.463206485619347"><ele>302.0</ele><time>2026-04-01T11:40:07.999Z</time></trkpt><trkpt lat="45.69036366725908" lon="8.463081513742468"><ele>302.0</ele><time>2026-04-01T11:40:09Z</time></trkpt><trkpt lat="45.690266375747655" lon="8.462910071933935"><ele>302.0</ele><time>2026-04-01T11:40:10Z</time></trkpt><trkpt lat="45.69018172359511" lon="8.462737634708978"><ele>302.0</ele><time>2026-04-01T11:40:11Z</time></trkpt><trkpt lat="45.69010652358553" lon="8.462541656924847"><ele>301.75</ele><time>2026-04-01T11:40:12Z</time></trkpt><trkpt lat="45.69004002735864" lon="8.462349842391784"><ele>301.5</ele><time>2026-04-01T11:40:13Z</time></trkpt><trkpt lat="45.68998711455493" lon="8.46215465611541"><ele>301.25</ele><time>2026-04-01T11:40:14Z</time></trkpt><trkpt lat="45.689936121009914" lon="8.461951538668973"><ele>301.0</ele><time>2026-04-01T11:40:15Z</time></trkpt><trkpt lat="45.68989699510438" lon="8.461740094293148"><ele>300.75</ele><time>2026-04-01T11:40:16Z</time></trkpt><trkpt lat="45.68986651531653" lon="8.461535378935714"><ele>300.5</ele><time>2026-04-01T11:40:17Z</time></trkpt><trkpt lat="45.68984663551127" lon="8.461316011388979"><ele>300.25</ele><time>2026-04-01T11:40:18Z</time></trkpt><trkpt lat="45.689820696472125" lon="8.46110820341162"><ele>300.0</ele><time>2026-04-01T11:40:19Z</time></trkpt><trkpt lat="45.68980097768264" lon="8.46090289387274"><ele>300.5</ele><time>2026-04-01T11:40:20Z</time></trkpt><trkpt lat="45.689780074715735" lon="8.460700336970199"><ele>301.0</ele><time>2026-04-01T11:40:21Z</time></trkpt><trkpt lat="45.6897524937447" lon="8.460517104170528"><ele>301.5</ele><time>2026-04-01T11:40:22Z</time></trkpt><trkpt lat="45.6897246586359" lon="8.460332671246661"><ele>302.0</ele><time>2026-04-01T11:40:23Z</time></trkpt><trkpt lat="45.68969667946287" lon="8.460141064012905"><ele>302.0</ele><time>2026-04-01T11:40:24Z</time></trkpt><trkpt lat="45.68967468125712" lon="8.459939757828957"><ele>302.0</ele><time>2026-04-01T11:40:25Z</time></trkpt><trkpt lat="45.6896519537333" lon="8.459735950462957"><ele>302.0</ele><time>2026-04-01T11:40:26Z</time></trkpt><trkpt lat="45.68963153308123" lon="8.459517820395519"><ele>302.0</ele><time>2026-04-01T11:40:27Z</time></trkpt><trkpt lat="45.68960034564258" lon="8.459312058680458"><ele>302.0</ele><time>2026-04-01T11:40:28Z</time></trkpt><trkpt lat="45.689563832840214" lon="8.459116376194551"><ele>302.0</ele><time>2026-04-01T11:40:29Z</time></trkpt><trkpt lat="45.689514696628486" lon="8.458924011627646"><ele>302.0</ele><time>2026-04-01T11:40:30Z</time></trkpt><trkpt lat="45.689461965190254" lon="8.45873576845935"><ele>302.0</ele><time>2026-04-01T11:40:31Z</time></trkpt><trkpt lat="45.689412233677274" lon="8.458567992129984"><ele>302.0</ele><time>2026-04-01T11:40:32Z</time></trkpt><trkpt lat="45.68937066276557" lon="8.458413643233909"><ele>302.0</ele><time>2026-04-01T11:40:33Z</time></trkpt><trkpt lat="45.689329151308016" lon="8.458261458553268"><ele>302.0</ele><time>2026-04-01T11:40:34Z</time></trkpt><trkpt lat="45.68927607529345" lon="8.45812173621909"><ele>302.0</ele><time>2026-04-01T11:40:35Z</time></trkpt><trkpt lat="45.68924133107985" lon="8.457991737964077"><ele>302.0</ele><time>2026-04-01T11:40:36Z</time></trkpt><trkpt lat="45.68922177013479" lon="8.457872376514878"><ele>302.2</ele><time>2026-04-01T11:40:37Z</time></trkpt><trkpt lat="45.68918361897069" lon="8.457782399159314"><ele>302.4</ele><time>2026-04-01T11:40:38Z</time></trkpt><trkpt lat="45.68909261349831" lon="8.457664768160122"><ele>302.6</ele><time>2026-04-01T11:40:40Z</time></trkpt><trkpt lat="45.68905905006298" lon="8.457583647790926"><ele>302.8</ele><time>2026-04-01T11:40:41Z</time></trkpt><trkpt lat="45.68903060009601" lon="8.457424380199345"><ele>303.0</ele><time>2026-04-01T11:40:43Z</time></trkpt><trkpt lat="45.68909698925814" lon="8.457315668457365"><ele>303.0</ele><time>2026-04-01T11:40:44Z</time></trkpt><trkpt lat="45.68912095527084" lon="8.45717591797457"><ele>303.0</ele><time>2026-04-01T11:40:46Z</time></trkpt><trkpt lat="45.68913065456132" lon="8.457077033817297"><ele>303.0</ele><time>2026-04-01T11:40:48Z</time></trkpt><trkpt lat="45.68912333575662" lon="8.45696843765283"><ele>303.0</ele><time>2026-04-01T11:40:51Z</time></trkpt><trkpt lat="45.68913178313566" lon="8.456821491960945"><ele>303.0</ele><time>2026-04-01T11:40:53Z</time></trkpt><trkpt lat="45.68920552607173" lon="8.456682599939867"><ele>303.4</ele><time>2026-04-01T11:40:55Z</time></trkpt><trkpt lat="45.689285797246" lon="8.456628027721463"><ele>303.8</ele><time>2026-04-01T11:40:56Z</time></trkpt><trkpt lat="45.68937309910189" lon="8.456586279333653"><ele>304.2</ele><time>2026-04-01T11:40:57Z</time></trkpt><trkpt lat="45.68946411830032" lon="8.456538433884566"><ele>304.6</ele><time>2026-04-01T11:40:58Z</time></trkpt><trkpt lat="45.689566904334185" lon="8.456483942975561"><ele>305.0</ele><time>2026-04-01T11:40:59Z</time></trkpt><trkpt lat="45.68966717603297" lon="8.456371649033079"><ele>305.0</ele><time>2026-04-01T11:41:00Z</time></trkpt><trkpt lat="45.68979078700244" lon="8.45631141525669"><ele>305.0</ele><time>2026-04-01T11:41:01Z</time></trkpt><trkpt lat="45.689934134325256" lon="8.456264910222494"><ele>305.0</ele><time>2026-04-01T11:41:02Z</time></trkpt><trkpt lat="45.690065990768815" lon="8.45616360822953"><ele>305.0</ele><time>2026-04-01T11:41:03Z</time></trkpt><trkpt lat="45.69020031947807" lon="8.45609179258988"><ele>305.25</ele><time>2026-04-01T11:41:04Z</time></trkpt><trkpt lat="45.69033695491526" lon="8.456022516479651"><ele>305.5</ele><time>2026-04-01T11:41:05Z</time></trkpt><trkpt lat="45.690473954233745" lon="8.455951670983174"><ele>305.75</ele><time>2026-04-01T11:41:06Z</time></trkpt><trkpt lat="45.69061580842252" lon="8.455877508173197"><ele>306.0</ele><time>2026-04-01T11:41:07Z</time></trkpt><trkpt lat="45.69076806232132" lon="8.455800415203058"><ele>306.0</ele><time>2026-04-01T11:41:08Z</time></trkpt><trkpt lat="45.690924167972874" lon="8.455732301520925"><ele>306.0</ele><time>2026-04-01T11:41:09Z</time></trkpt><trkpt lat="45.691075055525936" lon="8.455658746729773"><ele>306.0</ele><time>2026-04-01T11:41:10Z</time></trkpt><trkpt lat="45.69122133950619" lon="8.455581711508946"><ele>305.0</ele><time>2026-04-01T11:41:11Z</time></trkpt><trkpt lat="45.69137327275863" lon="8.455508225833535"><ele>304.0</ele><time>2026-04-01T11:41:12Z</time></trkpt><trkpt lat="45.69152936277421" lon="8.455431954946503"><ele>303.0</ele><time>2026-04-01T11:41:12.999Z</time></trkpt><trkpt lat="45.69167452291033" lon="8.455361262568143"><ele>304.3333333333333</ele><time>2026-04-01T11:41:13.999Z</time></trkpt><trkpt lat="45.69182962606586" lon="8.455281271075512"><ele>305.66666666666663</ele><time>2026-04-01T11:41:14.999Z</time></trkpt><trkpt lat="45.69197771226034" lon="8.455202095430428"><ele>307.0</ele><time>2026-04-01T11:41:15.999Z</time></trkpt><trkpt lat="45.69212424546961" lon="8.455132905519749"><ele>307.0</ele><time>2026-04-01T11:41:16.999Z</time></trkpt><trkpt lat="45.692269853278155" lon="8.455063009544666"><ele>307.0</ele><time>2026-04-01T11:41:17.999Z</time></trkpt><trkpt lat="45.6924123095627" lon="8.454989083178821"><ele>307.0</ele><time>2026-04-01T11:41:18.999Z</time></trkpt><trkpt lat="45.692553355206456" lon="8.454924048378306"><ele>307.0</ele><time>2026-04-01T11:41:19.999Z</time></trkpt><trkpt lat="45.69269102965301" lon="8.454856445042184"><ele>307.0</ele><time>2026-04-01T11:41:20.999Z</time></trkpt><trkpt lat="45.69282714830005" lon="8.454782816222691"><ele>307.0</ele><time>2026-04-01T11:41:21.999Z</time></trkpt><trkpt lat="45.69296303507741" lon="8.454710485616118"><ele>307.0</ele><time>2026-04-01T11:41:22.999Z</time></trkpt><trkpt lat="45.69308714428039" lon="8.454651424128782"><ele>307.5</ele><time>2026-04-01T11:41:23.999Z</time></trkpt><trkpt lat="45.69319840114814" lon="8.454595413951344"><ele>308.0</ele><time>2026-04-01T11:41:24.999Z</time></trkpt><trkpt lat="45.69329726644354" lon="8.454530428971838"><ele>308.5</ele><time>2026-04-01T11:41:25.999Z</time></trkpt><trkpt lat="45.69340356364387" lon="8.454465208140288"><ele>309.0</ele><time>2026-04-01T11:41:26.999Z</time></trkpt><trkpt lat="45.69352103629708" lon="8.45441027107209"><ele>308.75</ele><time>2026-04-01T11:41:27.999Z</time></trkpt><trkpt lat="45.69363801758149" lon="8.454354223420408"><ele>308.5</ele><time>2026-04-01T11:41:28.999Z</time></trkpt><trkpt lat="45.693761327477624" lon="8.454286269373874"><ele>308.25</ele><time>2026-04-01T11:41:29.999Z</time></trkpt><trkpt lat="45.693881464954615" lon="8.454215364234988"><ele>308.0</ele><time>2026-04-01T11:41:30.999Z</time></trkpt><trkpt lat="45.69400650844731" lon="8.454144227053275"><ele>308.0</ele><time>2026-04-01T11:41:31.999Z</time></trkpt><trkpt lat="45.69413288425548" lon="8.45407120901333"><ele>308.0</ele><time>2026-04-01T11:41:32.999Z</time></trkpt><trkpt lat="45.69425905477076" lon="8.45400095015345"><ele>308.0</ele><time>2026-04-01T11:41:33.999Z</time></trkpt><trkpt lat="45.69438640556219" lon="8.453946670026461"><ele>308.0</ele><time>2026-04-01T11:41:34.999Z</time></trkpt><trkpt lat="45.6945139138745" lon="8.45389328434278"><ele>308.25</ele><time>2026-04-01T11:41:35.999Z</time></trkpt><trkpt lat="45.6946418236825" lon="8.453812672371699"><ele>308.5</ele><time>2026-04-01T11:41:36.999Z</time></trkpt><trkpt lat="45.694764709375" lon="8.453718498736587"><ele>308.75</ele><time>2026-04-01T11:41:37.999Z</time></trkpt><trkpt lat="45.69487302794546" lon="8.453612879874942"><ele>309.0</ele><time>2026-04-01T11:41:38.999Z</time></trkpt><trkpt lat="45.694967906356055" lon="8.453493078055594"><ele>309.25</ele><time>2026-04-01T11:41:39.999Z</time></trkpt><trkpt lat="45.69506614417422" lon="8.453383367010945"><ele>309.5</ele><time>2026-04-01T11:41:40.999Z</time></trkpt><trkpt lat="45.695166936810054" lon="8.453282847643422"><ele>309.75</ele><time>2026-04-01T11:41:41.999Z</time></trkpt><trkpt lat="45.695256524648606" lon="8.453179220665817"><ele>310.0</ele><time>2026-04-01T11:41:42.999Z</time></trkpt><trkpt lat="45.695345961506256" lon="8.453089954809663"><ele>310.2</ele><time>2026-04-01T11:41:43.999Z</time></trkpt><trkpt lat="45.69543410928276" lon="8.452997658456306"><ele>310.4</ele><time>2026-04-01T11:41:44.999Z</time></trkpt><trkpt lat="45.69551429277336" lon="8.45289371268783"><ele>310.6</ele><time>2026-04-01T11:41:45.999Z</time></trkpt><trkpt lat="45.695607165385695" lon="8.45279147751593"><ele>310.8</ele><time>2026-04-01T11:41:46.999Z</time></trkpt><trkpt lat="45.695692453600934" lon="8.452691310272082"><ele>311.0</ele><time>2026-04-01T11:41:47.999Z</time></trkpt><trkpt lat="45.695769880080256" lon="8.452594499863503"><ele>310.8</ele><time>2026-04-01T11:41:48.999Z</time></trkpt><trkpt lat="45.69584375715444" lon="8.452507853554518"><ele>310.6</ele><time>2026-04-01T11:41:49.999Z</time></trkpt><trkpt lat="45.69592335022039" lon="8.452420686711635"><ele>310.4</ele><time>2026-04-01T11:41:50.999Z</time></trkpt><trkpt lat="45.69600345794847" lon="8.452340555109568"><ele>310.2</ele><time>2026-04-01T11:41:51.999Z</time></trkpt><trkpt lat="45.6960775463902" lon="8.452245888520238"><ele>310.0</ele><time>2026-04-01T11:41:52.999Z</time></trkpt><trkpt lat="45.69616856007386" lon="8.452167036162123"><ele>310.2</ele><time>2026-04-01T11:41:53.999Z</time></trkpt><trkpt lat="45.69625398720922" lon="8.452071304252275"><ele>310.4</ele><time>2026-04-01T11:41:54.999Z</time></trkpt><trkpt lat="45.696328889620126" lon="8.45195763929072"><ele>310.6</ele><time>2026-04-01T11:41:55.999Z</time></trkpt><trkpt lat="45.69643391800098" lon="8.451886290001312"><ele>310.8</ele><time>2026-04-01T11:41:56.999Z</time></trkpt><trkpt lat="45.69651953328624" lon="8.451804750119289"><ele>311.0</ele><time>2026-04-01T11:41:57.999Z</time></trkpt><trkpt lat="45.69659893677538" lon="8.451728638015055"><ele>311.0</ele><time>2026-04-01T11:41:58.999Z</time></trkpt><trkpt lat="45.69666855481359" lon="8.45166162543323"><ele>311.0</ele><time>2026-04-01T11:41:59.999Z</time></trkpt><trkpt lat="45.69675015949378" lon="8.451560411171384"><ele>311.0</ele><time>2026-04-01T11:42:01.999Z</time></trkpt><trkpt lat="45.69684984020398" lon="8.451449828548661"><ele>311.0</ele><time>2026-04-01T11:42:03.999Z</time></trkpt><trkpt lat="45.69695516199228" lon="8.451330807943823"><ele>311.0</ele><time>2026-04-01T11:42:05.999Z</time></trkpt><trkpt lat="45.69703174811981" lon="8.451257491532655"><ele>311.0</ele><time>2026-04-01T11:42:06.999Z</time></trkpt><trkpt lat="45.69711185963102" lon="8.451174175451579"><ele>311.0</ele><time>2026-04-01T11:42:07.999Z</time></trkpt><trkpt lat="45.69719514793027" lon="8.451082985634606"><ele>311.0</ele><time>2026-04-01T11:42:08.999Z</time></trkpt><trkpt lat="45.69728387649302" lon="8.450988148917881"><ele>311.0</ele><time>2026-04-01T11:42:09.999Z</time></trkpt><trkpt lat="45.69735658192866" lon="8.450889827082431"><ele>311.0</ele><time>2026-04-01T11:42:10.999Z</time></trkpt><trkpt lat="45.69743747579751" lon="8.450781205187926"><ele>311.0</ele><time>2026-04-01T11:42:11.999Z</time></trkpt><trkpt lat="45.69753504071694" lon="8.450671589022914"><ele>311.0</ele><time>2026-04-01T11:42:12.999Z</time></trkpt><trkpt lat="45.69762588531188" lon="8.45056134226141"><ele>311.0</ele><time>2026-04-01T11:42:13.999Z</time></trkpt><trkpt lat="45.697724917241146" lon="8.450437667596015"><ele>311.0</ele><time>2026-04-01T11:42:15Z</time></trkpt><trkpt lat="45.697837223799944" lon="8.450313326339762"><ele>311.0</ele><time>2026-04-01T11:42:16Z</time></trkpt><trkpt lat="45.69794084597052" lon="8.450188794742793"><ele>311.0</ele><time>2026-04-01T11:42:17Z</time></trkpt><trkpt lat="45.69804953026531" lon="8.450068299961282"><ele>311.0</ele><time>2026-04-01T11:42:18Z</time></trkpt><trkpt lat="45.69814922581543" lon="8.449951164505272"><ele>311.0</ele><time>2026-04-01T11:42:19Z</time></trkpt><trkpt lat="45.69826039929284" lon="8.449832728051776"><ele>311.0</ele><time>2026-04-01T11:42:20Z</time></trkpt><trkpt lat="45.69836400145066" lon="8.4497143408454"><ele>311.0</ele><time>2026-04-01T11:42:21Z</time></trkpt><trkpt lat="45.698466826814034" lon="8.449595687519766"><ele>311.0</ele><time>2026-04-01T11:42:22Z</time></trkpt><trkpt lat="45.698566537366176" lon="8.449484252603876"><ele>311.5</ele><time>2026-04-01T11:42:23Z</time></trkpt><trkpt lat="45.6986745637417" lon="8.449376474117859"><ele>312.0</ele><time>2026-04-01T11:42:24Z</time></trkpt><trkpt lat="45.698783394446984" lon="8.449281221491125"><ele>312.5</ele><time>2026-04-01T11:42:25Z</time></trkpt><trkpt lat="45.6989156827525" lon="8.449202252312178"><ele>313.0</ele><time>2026-04-01T11:42:26Z</time></trkpt><trkpt lat="45.6990333235909" lon="8.449124243904606"><ele>313.0</ele><time>2026-04-01T11:42:27Z</time></trkpt><trkpt lat="45.69915379189737" lon="8.449053087447691"><ele>313.0</ele><time>2026-04-01T11:42:28Z</time></trkpt><trkpt lat="45.69926059612937" lon="8.44897637645584"><ele>313.0</ele><time>2026-04-01T11:42:29Z</time></trkpt><trkpt lat="45.699368509986336" lon="8.448893771826853"><ele>313.0</ele><time>2026-04-01T11:42:30Z</time></trkpt><trkpt lat="45.69946985260143" lon="8.448807979930157"><ele>313.0</ele><time>2026-04-01T11:42:31Z</time></trkpt><trkpt lat="45.69956867608626" lon="8.448730053001496"><ele>313.0</ele><time>2026-04-01T11:42:32Z</time></trkpt><trkpt lat="45.699656006619044" lon="8.44865064561164"><ele>313.0</ele><time>2026-04-01T11:42:33Z</time></trkpt><trkpt lat="45.699728995528076" lon="8.44857587674696"><ele>313.0</ele><time>2026-04-01T11:42:34Z</time></trkpt><trkpt lat="45.69979007353967" lon="8.448521337151028"><ele>313.0</ele><time>2026-04-01T11:42:35Z</time></trkpt><trkpt lat="45.69986271439636" lon="8.448485198212035"><ele>313.0</ele><time>2026-04-01T11:42:36Z</time></trkpt><trkpt lat="45.69995832244567" lon="8.448436270742786"><ele>313.0</ele><time>2026-04-01T11:42:38Z</time></trkpt><trkpt lat="45.700019327989665" lon="8.448389224164162"><ele>313.0</ele><time>2026-04-01T11:42:40Z</time></trkpt><trkpt lat="45.70011537668292" lon="8.448301982922944"><ele>313.0</ele><time>2026-04-01T11:42:42Z</time></trkpt><trkpt lat="45.70019096812121" lon="8.448245709898128"><ele>313.0</ele><time>2026-04-01T11:42:43Z</time></trkpt><trkpt lat="45.70028546954306" lon="8.448211797286985"><ele>313.0</ele><time>2026-04-01T11:42:44Z</time></trkpt><trkpt lat="45.70039009108408" lon="8.448162455642656"><ele>313.0</ele><time>2026-04-01T11:42:45Z</time></trkpt><trkpt lat="45.700472307132976" lon="8.448150571833558"><ele>313.0</ele><time>2026-04-01T11:42:46Z</time></trkpt><trkpt lat="45.70059569713851" lon="8.44809999791257"><ele>313.0</ele><time>2026-04-01T11:42:47Z</time></trkpt><trkpt lat="45.700732552893086" lon="8.448043905668765"><ele>313.0</ele><time>2026-04-01T11:42:48Z</time></trkpt><trkpt lat="45.70086088564332" lon="8.447990492646626"><ele>313.0</ele><time>2026-04-01T11:42:49Z</time></trkpt><trkpt lat="45.700990142243235" lon="8.447936970905962"><ele>313.0</ele><time>2026-04-01T11:42:50Z</time></trkpt><trkpt lat="45.70112255371674" lon="8.447882142763584"><ele>313.0</ele><time>2026-04-01T11:42:51Z</time></trkpt><trkpt lat="45.70125522427104" lon="8.447827207402433"><ele>313.5</ele><time>2026-04-01T11:42:52Z</time></trkpt><trkpt lat="45.701387760140356" lon="8.447750893377531"><ele>314.0</ele><time>2026-04-01T11:42:53Z</time></trkpt><trkpt lat="45.70151698936484" lon="8.447728035384712"><ele>314.5</ele><time>2026-04-01T11:42:54Z</time></trkpt><trkpt lat="45.70163904560327" lon="8.447685080562119"><ele>315.0</ele><time>2026-04-01T11:42:55Z</time></trkpt><trkpt lat="45.70173811699181" lon="8.447644088213744"><ele>315.0</ele><time>2026-04-01T11:42:56Z</time></trkpt><trkpt lat="45.701838846366556" lon="8.447597887325273"><ele>315.0</ele><time>2026-04-01T11:42:57Z</time></trkpt><trkpt lat="45.70193184228241" lon="8.447558340998926"><ele>315.0</ele><time>2026-04-01T11:42:58Z</time></trkpt><trkpt lat="45.702017784749096" lon="8.447513728691499"><ele>315.0</ele><time>2026-04-01T11:42:59Z</time></trkpt><trkpt lat="45.702093802445596" lon="8.447479389309139"><ele>315.0</ele><time>2026-04-01T11:43:00Z</time></trkpt><trkpt lat="45.7021671133846" lon="8.447458926956427"><ele>315.0</ele><time>2026-04-01T11:43:01Z</time></trkpt><trkpt lat="45.70223157686041" lon="8.44743553580656"><ele>315.1666666666667</ele><time>2026-04-01T11:43:02Z</time></trkpt><trkpt lat="45.70234227857479" lon="8.447404288464803"><ele>315.3333333333333</ele><time>2026-04-01T11:43:04Z</time></trkpt><trkpt lat="45.70242254895511" lon="8.447351157382833"><ele>315.5</ele><time>2026-04-01T11:43:06Z</time></trkpt><trkpt lat="45.702484818918705" lon="8.447335707139194"><ele>315.66666666666663</ele><time>2026-04-01T11:43:08Z</time></trkpt><trkpt lat="45.70257975753078" lon="8.447298784675422"><ele>315.8333333333333</ele><time>2026-04-01T11:43:11Z</time></trkpt><trkpt lat="45.702653207178685" lon="8.447285171219088"><ele>316.0</ele><time>2026-04-01T11:43:13Z</time></trkpt><trkpt lat="45.70270452625923" lon="8.447209559117509"><ele>316.0</ele><time>2026-04-01T11:43:15Z</time></trkpt><trkpt lat="45.70268367571198" lon="8.447103102603807"><ele>316.0</ele><time>2026-04-01T11:43:17Z</time></trkpt><trkpt lat="45.702626773123654" lon="8.44702320487203"><ele>316.0</ele><time>2026-04-01T11:43:18Z</time></trkpt><trkpt lat="45.70258997297176" lon="8.446931209664601"><ele>316.0</ele><time>2026-04-01T11:43:19Z</time></trkpt><trkpt lat="45.702569259095505" lon="8.446828779956038"><ele>316.0</ele><time>2026-04-01T11:43:20Z</time></trkpt><trkpt lat="45.702546075285476" lon="8.446720005351441"><ele>316.0</ele><time>2026-04-01T11:43:21Z</time></trkpt><trkpt lat="45.70252336557207" lon="8.446590548625341"><ele>316.0</ele><time>2026-04-01T11:43:21.999Z</time></trkpt><trkpt lat="45.70252655724162" lon="8.44644393409519"><ele>316.0</ele><time>2026-04-01T11:43:22.999Z</time></trkpt><trkpt lat="45.70250231138764" lon="8.446291337035586"><ele>316.0</ele><time>2026-04-01T11:43:23.999Z</time></trkpt><trkpt lat="45.70247036942835" lon="8.446134212990328"><ele>316.0</ele><time>2026-04-01T11:43:24.999Z</time></trkpt><trkpt lat="45.70245306497108" lon="8.445968594699133"><ele>316.0</ele><time>2026-04-01T11:43:25.999Z</time></trkpt><trkpt lat="45.702449667178115" lon="8.44578813663072"><ele>316.75</ele><time>2026-04-01T11:43:26.999Z</time></trkpt><trkpt lat="45.70244975253929" lon="8.445608646800284"><ele>317.5</ele><time>2026-04-01T11:43:27.999Z</time></trkpt><trkpt lat="45.7024520020736" lon="8.445423642286285"><ele>318.25</ele><time>2026-04-01T11:43:28.999Z</time></trkpt><trkpt lat="45.702463436944456" lon="8.44523331269166"><ele>319.0</ele><time>2026-04-01T11:43:29.999Z</time></trkpt><trkpt lat="45.70248008841893" lon="8.445051339945932"><ele>319.25</ele><time>2026-04-01T11:43:30.999Z</time></trkpt><trkpt lat="45.7024892299897" lon="8.444864632464597"><ele>319.5</ele><time>2026-04-01T11:43:31.999Z</time></trkpt><trkpt lat="45.702484875489525" lon="8.444681636847745"><ele>319.75</ele><time>2026-04-01T11:43:32.999Z</time></trkpt><trkpt lat="45.70247894749156" lon="8.44449116518585"><ele>320.0</ele><time>2026-04-01T11:43:33.999Z</time></trkpt><trkpt lat="45.70247564287514" lon="8.444307342364146"><ele>320.75</ele><time>2026-04-01T11:43:34.999Z</time></trkpt><trkpt lat="45.70247531307691" lon="8.444108589810746"><ele>321.5</ele><time>2026-04-01T11:43:35.999Z</time></trkpt><trkpt lat="45.70247853467834" lon="8.443915014374362"><ele>322.25</ele><time>2026-04-01T11:43:36.999Z</time></trkpt><trkpt lat="45.70248252230804" lon="8.443719074940072"><ele>323.0</ele><time>2026-04-01T11:43:37.999Z</time></trkpt><trkpt lat="45.70248854310037" lon="8.443541463826932"><ele>325.0</ele><time>2026-04-01T11:43:38.999Z</time></trkpt><trkpt lat="45.70248508424908" lon="8.443358442682936"><ele>327.0</ele><time>2026-04-01T11:43:39.999Z</time></trkpt><trkpt lat="45.702478672935406" lon="8.443183409917099"><ele>329.0</ele><time>2026-04-01T11:43:40.999Z</time></trkpt><trkpt lat="45.70246272069338" lon="8.443018310308146"><ele>331.0</ele><time>2026-04-01T11:43:41.999Z</time></trkpt><trkpt lat="45.70241391896902" lon="8.442871768849228"><ele>333.25</ele><time>2026-04-01T11:43:42.999Z</time></trkpt><trkpt lat="45.70234831959511" lon="8.442761116199987"><ele>335.5</ele><time>2026-04-01T11:43:43.999Z</time></trkpt><trkpt lat="45.70225128308664" lon="8.442643562700283"><ele>337.75</ele><time>2026-04-01T11:43:44.999Z</time></trkpt><trkpt lat="45.702146121407395" lon="8.442549172465142"><ele>340.0</ele><time>2026-04-01T11:43:45.999Z</time></trkpt><trkpt lat="45.70203526065191" lon="8.442441986271275"><ele>340.0</ele><time>2026-04-01T11:43:46.999Z</time></trkpt><trkpt lat="45.70193363466876" lon="8.442301553325418"><ele>340.0</ele><time>2026-04-01T11:43:47.999Z</time></trkpt><trkpt lat="45.70182974878144" lon="8.442196684449668"><ele>340.0</ele><time>2026-04-01T11:43:48.999Z</time></trkpt><trkpt lat="45.70172521397768" lon="8.442085076504993"><ele>340.0</ele><time>2026-04-01T11:43:49.999Z</time></trkpt><trkpt lat="45.70162424226272" lon="8.441964285537715"><ele>340.5</ele><time>2026-04-01T11:43:50.999Z</time></trkpt><trkpt lat="45.70152691421655" lon="8.44184214982684"><ele>341.0</ele><time>2026-04-01T11:43:51.999Z</time></trkpt><trkpt lat="45.701437255368965" lon="8.441717867598888"><ele>341.5</ele><time>2026-04-01T11:43:52.999Z</time></trkpt><trkpt lat="45.70135405658313" lon="8.441612543410761"><ele>342.0</ele><time>2026-04-01T11:43:53.999Z</time></trkpt><trkpt lat="45.70127726290091" lon="8.44151630274748"><ele>342.0</ele><time>2026-04-01T11:43:54.999Z</time></trkpt><trkpt lat="45.7012107445824" lon="8.441406513801326"><ele>342.0</ele><time>2026-04-01T11:43:55.999Z</time></trkpt><trkpt lat="45.701165924933406" lon="8.441285771739425"><ele>342.0</ele><time>2026-04-01T11:43:56.999Z</time></trkpt><trkpt lat="45.701137955076106" lon="8.441152883778475"><ele>342.0</ele><time>2026-04-01T11:43:57.999Z</time></trkpt><trkpt lat="45.70113540450399" lon="8.4410130882242"><ele>342.0</ele><time>2026-04-01T11:43:58.999Z</time></trkpt><trkpt lat="45.70114879675276" lon="8.440875058215164"><ele>342.0</ele><time>2026-04-01T11:43:59.999Z</time></trkpt><trkpt lat="45.701166883177" lon="8.440746228163965"><ele>342.0</ele><time>2026-04-01T11:44:00.999Z</time></trkpt><trkpt lat="45.7011791608471" lon="8.440621710857451"><ele>342.0</ele><time>2026-04-01T11:44:01.999Z</time></trkpt><trkpt lat="45.7011939902977" lon="8.440485789526587"><ele>342.0</ele><time>2026-04-01T11:44:02.999Z</time></trkpt><trkpt lat="45.70118386828314" lon="8.440341388781837"><ele>342.0</ele><time>2026-04-01T11:44:03.999Z</time></trkpt><trkpt lat="45.70117855263612" lon="8.440176009932504"><ele>340.5</ele><time>2026-04-01T11:44:04.999Z</time></trkpt><trkpt lat="45.70118058407619" lon="8.439993175738586"><ele>339.0</ele><time>2026-04-01T11:44:05.999Z</time></trkpt><trkpt lat="45.701198058772825" lon="8.439807724729045"><ele>337.5</ele><time>2026-04-01T11:44:06.999Z</time></trkpt><trkpt lat="45.70127494533726" lon="8.439628183985612"><ele>336.0</ele><time>2026-04-01T11:44:07.999Z</time></trkpt><trkpt lat="45.70128916530112" lon="8.43944571111006"><ele>335.75</ele><time>2026-04-01T11:44:08.999Z</time></trkpt><trkpt lat="45.701309194120924" lon="8.439265973259248"><ele>335.5</ele><time>2026-04-01T11:44:09.999Z</time></trkpt><trkpt lat="45.70133568008663" lon="8.43910027469348"><ele>335.25</ele><time>2026-04-01T11:44:10.999Z</time></trkpt><trkpt lat="45.70135134351824" lon="8.43894079104341"><ele>335.0</ele><time>2026-04-01T11:44:11.999Z</time></trkpt><trkpt lat="45.701341768516606" lon="8.438801108290475"><ele>334.8</ele><time>2026-04-01T11:44:12.999Z</time></trkpt><trkpt lat="45.70132451130013" lon="8.438666748882063"><ele>334.6</ele><time>2026-04-01T11:44:13.999Z</time></trkpt><trkpt lat="45.701282939374174" lon="8.438553979660986"><ele>334.4</ele><time>2026-04-01T11:44:14.999Z</time></trkpt><trkpt lat="45.701245202834535" lon="8.438433883763041"><ele>334.2</ele><time>2026-04-01T11:44:15.999Z</time></trkpt><trkpt lat="45.70124085085287" lon="8.4383140487147"><ele>334.0</ele><time>2026-04-01T11:44:16.999Z</time></trkpt><trkpt lat="45.701277227317156" lon="8.43819529985699"><ele>334.0</ele><time>2026-04-01T11:44:17.999Z</time></trkpt><trkpt lat="45.70130181368124" lon="8.438067118272937"><ele>334.0</ele><time>2026-04-01T11:44:18.999Z</time></trkpt><trkpt lat="45.701329245085155" lon="8.437924103675911"><ele>334.0</ele><time>2026-04-01T11:44:19.999Z</time></trkpt><trkpt lat="45.7013592451213" lon="8.437767695769459"><ele>334.0</ele><time>2026-04-01T11:44:21.001Z</time></trkpt><trkpt lat="45.70139148929873" lon="8.437594000988543"><ele>334.0</ele><time>2026-04-01T11:44:22Z</time></trkpt><trkpt lat="45.70142444332682" lon="8.437420361394773"><ele>334.75</ele><time>2026-04-01T11:44:23Z</time></trkpt><trkpt lat="45.70145711972105" lon="8.437248631880866"><ele>335.5</ele><time>2026-04-01T11:44:24Z</time></trkpt><trkpt lat="45.701495327692754" lon="8.437087545049057"><ele>336.25</ele><time>2026-04-01T11:44:25Z</time></trkpt><trkpt lat="45.701557184413765" lon="8.43695055698821"><ele>337.0</ele><time>2026-04-01T11:44:26Z</time></trkpt><trkpt lat="45.701642840679845" lon="8.43685416284294"><ele>341.25</ele><time>2026-04-01T11:44:27Z</time></trkpt><trkpt lat="45.70174935726234" lon="8.436746983599607"><ele>345.5</ele><time>2026-04-01T11:44:28Z</time></trkpt><trkpt lat="45.70185550542996" lon="8.43663277930035"><ele>349.75</ele><time>2026-04-01T11:44:29Z</time></trkpt><trkpt lat="45.701966294322496" lon="8.436544544696583"><ele>354.0</ele><time>2026-04-01T11:44:30Z</time></trkpt><trkpt lat="45.702076797589555" lon="8.436456005199247"><ele>354.0</ele><time>2026-04-01T11:44:31Z</time></trkpt><trkpt lat="45.70216814508969" lon="8.436334909981289"><ele>354.0</ele><time>2026-04-01T11:44:32Z</time></trkpt><trkpt lat="45.70223042557011" lon="8.43618985842124"><ele>354.0</ele><time>2026-04-01T11:44:33Z</time></trkpt><trkpt lat="45.70228916228426" lon="8.436042029243024"><ele>354.0</ele><time>2026-04-01T11:44:34Z</time></trkpt><trkpt lat="45.70234411467227" lon="8.435875680497844"><ele>357.5</ele><time>2026-04-01T11:44:35Z</time></trkpt><trkpt lat="45.70241320792689" lon="8.435693453158944"><ele>361.0</ele><time>2026-04-01T11:44:36Z</time></trkpt><trkpt lat="45.702473261857946" lon="8.435526337520864"><ele>364.5</ele><time>2026-04-01T11:44:37Z</time></trkpt><trkpt lat="45.70252697440793" lon="8.435361606275547"><ele>368.0</ele><time>2026-04-01T11:44:38Z</time></trkpt><trkpt lat="45.702587289057384" lon="8.435186842207093"><ele>368.25</ele><time>2026-04-01T11:44:39Z</time></trkpt><trkpt lat="45.70265035901081" lon="8.435014107777038"><ele>368.5</ele><time>2026-04-01T11:44:40Z</time></trkpt><trkpt lat="45.702706968288275" lon="8.434849621762373"><ele>368.75</ele><time>2026-04-01T11:44:41Z</time></trkpt><trkpt lat="45.70276318699569" lon="8.43467759719677"><ele>369.0</ele><time>2026-04-01T11:44:42Z</time></trkpt><trkpt lat="45.70282826320042" lon="8.434513898261224"><ele>371.5</ele><time>2026-04-01T11:44:43Z</time></trkpt><trkpt lat="45.7028894296508" lon="8.434358240244201"><ele>374.0</ele><time>2026-04-01T11:44:44Z</time></trkpt><trkpt lat="45.70297346159036" lon="8.434212577871048"><ele>376.5</ele><time>2026-04-01T11:44:45Z</time></trkpt><trkpt lat="45.703062902810764" lon="8.434061650980295"><ele>379.0</ele><time>2026-04-01T11:44:46Z</time></trkpt><trkpt lat="45.7031738456414" lon="8.433948437274198"><ele>379.0</ele><time>2026-04-01T11:44:47Z</time></trkpt><trkpt lat="45.703293928019576" lon="8.433842340547903"><ele>379.0</ele><time>2026-04-01T11:44:48Z</time></trkpt><trkpt lat="45.703406712698" lon="8.433724397647328"><ele>379.0</ele><time>2026-04-01T11:44:49Z</time></trkpt><trkpt lat="45.70350884102216" lon="8.433584991025223"><ele>379.0</ele><time>2026-04-01T11:44:50Z</time></trkpt><trkpt lat="45.703594907149615" lon="8.433437829277201"><ele>380.0</ele><time>2026-04-01T11:44:51Z</time></trkpt><trkpt lat="45.703677251146615" lon="8.433290490537699"><ele>381.0</ele><time>2026-04-01T11:44:52Z</time></trkpt><trkpt lat="45.70375831178287" lon="8.433137589297349"><ele>382.0</ele><time>2026-04-01T11:44:53Z</time></trkpt><trkpt lat="45.70383680777951" lon="8.433016398309533"><ele>383.0</ele><time>2026-04-01T11:44:54Z</time></trkpt><trkpt lat="45.703901829326014" lon="8.432900231979678"><ele>385.4</ele><time>2026-04-01T11:44:55Z</time></trkpt><trkpt lat="45.703953460144156" lon="8.432777470026647"><ele>387.79999999999995</ele><time>2026-04-01T11:44:56Z</time></trkpt><trkpt lat="45.70398614831757" lon="8.432626828645715"><ele>390.2</ele><time>2026-04-01T11:44:57Z</time></trkpt><trkpt lat="45.704004926887826" lon="8.43248095809302"><ele>392.6</ele><time>2026-04-01T11:44:58Z</time></trkpt><trkpt lat="45.70402077275682" lon="8.432308842971828"><ele>395.0</ele><time>2026-04-01T11:44:59Z</time></trkpt><trkpt lat="45.704035377967365" lon="8.432134552570355"><ele>396.0</ele><time>2026-04-01T11:45:00Z</time></trkpt><trkpt lat="45.70403520020729" lon="8.431953564232817"><ele>397.0</ele><time>2026-04-01T11:45:01Z</time></trkpt><trkpt lat="45.70406270438011" lon="8.431794478892591"><ele>398.0</ele><time>2026-04-01T11:45:02Z</time></trkpt><trkpt lat="45.704081818467124" lon="8.431631811756665"><ele>399.0</ele><time>2026-04-01T11:45:03Z</time></trkpt><trkpt lat="45.70410909935732" lon="8.43149314387247"><ele>399.0</ele><time>2026-04-01T11:45:04Z</time></trkpt><trkpt lat="45.704142731162" lon="8.431362247553649"><ele>399.0</ele><time>2026-04-01T11:45:05Z</time></trkpt><trkpt lat="45.70419054199804" lon="8.431250899523208"><ele>399.0</ele><time>2026-04-01T11:45:06Z</time></trkpt><trkpt lat="45.70425592838016" lon="8.431143947441681"><ele>399.0</ele><time>2026-04-01T11:45:07Z</time></trkpt><trkpt lat="45.70433609257488" lon="8.431040358476109"><ele>399.0</ele><time>2026-04-01T11:45:08Z</time></trkpt><trkpt lat="45.704420898305436" lon="8.430948243333376"><ele>399.0</ele><time>2026-04-01T11:45:09Z</time></trkpt><trkpt lat="45.70450186744823" lon="8.430853062852913"><ele>399.0</ele><time>2026-04-01T11:45:10Z</time></trkpt><trkpt lat="45.704571290045784" lon="8.430731314720667"><ele>399.0</ele><time>2026-04-01T11:45:11Z</time></trkpt><trkpt lat="45.70464098989692" lon="8.430600129198371"><ele>399.0</ele><time>2026-04-01T11:45:12Z</time></trkpt><trkpt lat="45.704710033821684" lon="8.430457192681802"><ele>399.25</ele><time>2026-04-01T11:45:13Z</time></trkpt><trkpt lat="45.70477807642676" lon="8.430313612728654"><ele>399.5</ele><time>2026-04-01T11:45:14Z</time></trkpt><trkpt lat="45.70485200798391" lon="8.430162921579509"><ele>399.75</ele><time>2026-04-01T11:45:15Z</time></trkpt><trkpt lat="45.704915752738565" lon="8.430016634720268"><ele>400.0</ele><time>2026-04-01T11:45:16Z</time></trkpt><trkpt lat="45.70498647516158" lon="8.429857737550856"><ele>400.0</ele><time>2026-04-01T11:45:17Z</time></trkpt><trkpt lat="45.70505258289842" lon="8.429703616076054"><ele>400.0</ele><time>2026-04-01T11:45:18Z</time></trkpt><trkpt lat="45.705111578826575" lon="8.429553206688679"><ele>400.0</ele><time>2026-04-01T11:45:19Z</time></trkpt><trkpt lat="45.70518375239759" lon="8.429428552567556"><ele>400.0</ele><time>2026-04-01T11:45:20Z</time></trkpt><trkpt lat="45.705241695208166" lon="8.42929438371843"><ele>400.75</ele><time>2026-04-01T11:45:21Z</time></trkpt><trkpt lat="45.705299419968334" lon="8.429159520925138"><ele>401.5</ele><time>2026-04-01T11:45:22Z</time></trkpt><trkpt lat="45.70536067151" lon="8.42900764205536"><ele>402.25</ele><time>2026-04-01T11:45:23Z</time></trkpt><trkpt lat="45.70542277639829" lon="8.428850918845468"><ele>403.0</ele><time>2026-04-01T11:45:24Z</time></trkpt><trkpt lat="45.70549152291205" lon="8.42867201394858"><ele>403.5</ele><time>2026-04-01T11:45:24.999Z</time></trkpt><trkpt lat="45.705543566778566" lon="8.428484963504127"><ele>404.0</ele><time>2026-04-01T11:45:25.999Z</time></trkpt><trkpt lat="45.705608933712334" lon="8.428314921086033"><ele>404.5</ele><time>2026-04-01T11:45:26.999Z</time></trkpt><trkpt lat="45.70567055534335" lon="8.42814874038719"><ele>405.0</ele><time>2026-04-01T11:45:27.999Z</time></trkpt><trkpt lat="45.70573324527162" lon="8.427965104710923"><ele>405.0</ele><time>2026-04-01T11:45:28.999Z</time></trkpt><trkpt lat="45.705791787648664" lon="8.427795281627455"><ele>405.0</ele><time>2026-04-01T11:45:29.999Z</time></trkpt><trkpt lat="45.70584405892197" lon="8.42761822968093"><ele>405.0</ele><time>2026-04-01T11:45:30.999Z</time></trkpt><trkpt lat="45.70589228473664" lon="8.427439116353101"><ele>405.0</ele><time>2026-04-01T11:45:31.999Z</time></trkpt><trkpt lat="45.70594023435917" lon="8.427250076386898"><ele>404.5</ele><time>2026-04-01T11:45:32.999Z</time></trkpt><trkpt lat="45.70600285077795" lon="8.427085039039492"><ele>404.0</ele><time>2026-04-01T11:45:33.999Z</time></trkpt><trkpt lat="45.706057595084005" lon="8.426918607059516"><ele>403.5</ele><time>2026-04-01T11:45:34.999Z</time></trkpt><trkpt lat="45.706114116324756" lon="8.426762129037197"><ele>403.0</ele><time>2026-04-01T11:45:35.999Z</time></trkpt><trkpt lat="45.70616572658017" lon="8.426619968287216"><ele>404.0</ele><time>2026-04-01T11:45:36.999Z</time></trkpt><trkpt lat="45.70621551775976" lon="8.426482818682393"><ele>405.0</ele><time>2026-04-01T11:45:37.999Z</time></trkpt><trkpt lat="45.706194123842295" lon="8.426292812801"><ele>406.0</ele><time>2026-04-01T11:45:38.999Z</time></trkpt><trkpt lat="45.706227161221705" lon="8.426153727468797"><ele>407.0</ele><time>2026-04-01T11:45:39.999Z</time></trkpt><trkpt lat="45.70625545484739" lon="8.426010901107693"><ele>408.0</ele><time>2026-04-01T11:45:40.999Z</time></trkpt><trkpt lat="45.706288257261676" lon="8.425889159760876"><ele>408.4</ele><time>2026-04-01T11:45:41.999Z</time></trkpt><trkpt lat="45.70633039522916" lon="8.425782908971081"><ele>408.79999999999995</ele><time>2026-04-01T11:45:42.999Z</time></trkpt><trkpt lat="45.706375614813496" lon="8.425671312471545"><ele>409.2</ele><time>2026-04-01T11:45:43.999Z</time></trkpt><trkpt lat="45.7064295822532" lon="8.425538246859446"><ele>409.6</ele><time>2026-04-01T11:45:44.999Z</time></trkpt><trkpt lat="45.70649804636616" lon="8.425398355267804"><ele>410.0</ele><time>2026-04-01T11:45:45.999Z</time></trkpt><trkpt lat="45.70657341839461" lon="8.425278192317109"><ele>411.0</ele><time>2026-04-01T11:45:46.999Z</time></trkpt><trkpt lat="45.70663022046914" lon="8.42515262604789"><ele>412.0</ele><time>2026-04-01T11:45:47.999Z</time></trkpt><trkpt lat="45.70669440181369" lon="8.425024844968323"><ele>413.0</ele><time>2026-04-01T11:45:48.999Z</time></trkpt><trkpt lat="45.70675290218693" lon="8.4248789898934"><ele>414.0</ele><time>2026-04-01T11:45:49.999Z</time></trkpt><trkpt lat="45.70681852607891" lon="8.424745688471937"><ele>415.0</ele><time>2026-04-01T11:45:50.999Z</time></trkpt><trkpt lat="45.70690052027581" lon="8.42461050191719"><ele>418.5</ele><time>2026-04-01T11:45:51.999Z</time></trkpt><trkpt lat="45.706975723546364" lon="8.424489010549195"><ele>422.0</ele><time>2026-04-01T11:45:52.999Z</time></trkpt><trkpt lat="45.707053209703545" lon="8.424355324684818"><ele>425.5</ele><time>2026-04-01T11:45:53.999Z</time></trkpt><trkpt lat="45.70714437283486" lon="8.424233743731252"><ele>429.0</ele><time>2026-04-01T11:45:54.999Z</time></trkpt><trkpt lat="45.70723657793359" lon="8.424103714586558"><ele>429.0</ele><time>2026-04-01T11:45:55.999Z</time></trkpt><trkpt lat="45.70733348623115" lon="8.423990166321676"><ele>429.0</ele><time>2026-04-01T11:45:56.999Z</time></trkpt><trkpt lat="45.70741626035067" lon="8.423893858682815"><ele>429.0</ele><time>2026-04-01T11:45:57.999Z</time></trkpt><trkpt lat="45.70750051035335" lon="8.423784422595318"><ele>429.0</ele><time>2026-04-01T11:45:58.999Z</time></trkpt><trkpt lat="45.70756800845908" lon="8.423667116730009"><ele>429.6666666666667</ele><time>2026-04-01T11:45:59.999Z</time></trkpt><trkpt lat="45.70766152633318" lon="8.423589276940717"><ele>430.33333333333337</ele><time>2026-04-01T11:46:00.999Z</time></trkpt><trkpt lat="45.707733101890256" lon="8.423511357317672"><ele>431.0</ele><time>2026-04-01T11:46:01.999Z</time></trkpt><trkpt lat="45.707799737161686" lon="8.423444412113783"><ele>431.6666666666667</ele><time>2026-04-01T11:46:02.999Z</time></trkpt><trkpt lat="45.70785145057771" lon="8.423380958534626"><ele>432.33333333333337</ele><time>2026-04-01T11:46:03.999Z</time></trkpt><trkpt lat="45.70787528105755" lon="8.423287569786094"><ele>433.0</ele><time>2026-04-01T11:46:04.999Z</time></trkpt><trkpt lat="45.707886397937266" lon="8.423096294959931"><ele>433.0</ele><time>2026-04-01T11:46:06.999Z</time></trkpt><trkpt lat="45.707908146480364" lon="8.422999480197042"><ele>432.99999999999994</ele><time>2026-04-01T11:46:07.999Z</time></trkpt><trkpt lat="45.70793211615407" lon="8.422858458272469"><ele>432.99999999999994</ele><time>2026-04-01T11:46:09.999Z</time></trkpt><trkpt lat="45.70797888389187" lon="8.422765796828806"><ele>433.0</ele><time>2026-04-01T11:46:12.999Z</time></trkpt><trkpt lat="45.70800404640384" lon="8.422654372389855"><ele>433.0</ele><time>2026-04-01T11:47:02Z</time></trkpt><trkpt lat="45.70803073976664" lon="8.422491367030622"><ele>433.0</ele><time>2026-04-01T11:47:05Z</time></trkpt><trkpt lat="45.70803260640097" lon="8.4223604557212"><ele>432.99999999999994</ele><time>2026-04-01T11:47:06Z</time></trkpt><trkpt lat="45.708071485312324" lon="8.422209905397692"><ele>432.99999999999994</ele><time>2026-04-01T11:47:08Z</time></trkpt><trkpt lat="45.70816997405841" lon="8.422098101969446"><ele>433.0</ele><time>2026-04-01T11:47:10Z</time></trkpt><trkpt lat="45.70823067713357" lon="8.422035901698134"><ele>433.0</ele><time>2026-04-01T11:47:11Z</time></trkpt><trkpt lat="45.70832008886238" lon="8.42197723736783"><ele>433.00000000000006</ele><time>2026-04-01T11:47:12Z</time></trkpt><trkpt lat="45.70840324851082" lon="8.421918833100243"><ele>433.0</ele><time>2026-04-01T11:47:13Z</time></trkpt><trkpt lat="45.70849800078833" lon="8.42182892323378"><ele>433.0</ele><time>2026-04-01T11:47:14Z</time></trkpt><trkpt lat="45.70855999182414" lon="8.421762078230122"><ele>433.0</ele><time>2026-04-01T11:47:15Z</time></trkpt><trkpt lat="45.708618431785325" lon="8.421718407081762"><ele>433.00000000000006</ele><time>2026-04-01T11:47:16Z</time></trkpt><trkpt lat="45.70868357060168" lon="8.421694698563444"><ele>433.0</ele><time>2026-04-01T11:47:17Z</time></trkpt><trkpt lat="45.70876220816154" lon="8.421657552466899"><ele>434.2</ele><time>2026-04-01T11:47:18Z</time></trkpt><trkpt lat="45.708854640653854" lon="8.42163236831385"><ele>435.4</ele><time>2026-04-01T11:47:19Z</time></trkpt><trkpt lat="45.708953442018746" lon="8.421608542484073"><ele>436.59999999999997</ele><time>2026-04-01T11:47:20Z</time></trkpt><trkpt lat="45.70903832910031" lon="8.421567003205617"><ele>437.79999999999995</ele><time>2026-04-01T11:47:21Z</time></trkpt><trkpt lat="45.7091067092853" lon="8.421537814724275"><ele>439.0</ele><time>2026-04-01T11:47:22Z</time></trkpt><trkpt lat="45.709239334231384" lon="8.421502798202027"><ele>439.00000000000006</ele><time>2026-04-01T11:47:24Z</time></trkpt><trkpt lat="45.70931591053186" lon="8.421478587037877"><ele>439.0</ele><time>2026-04-01T11:47:25Z</time></trkpt><trkpt lat="45.70940073581338" lon="8.421352096762329"><ele>439.0</ele><time>2026-04-01T11:47:26.999Z</time></trkpt><trkpt lat="45.70943176853763" lon="8.421263847015506"><ele>439.0</ele><time>2026-04-01T11:47:27.999Z</time></trkpt><trkpt lat="45.70943433895609" lon="8.42116840094782"><ele>439.00000000000006</ele><time>2026-04-01T11:47:28.999Z</time></trkpt><trkpt lat="45.709442553145585" lon="8.42106639725311"><ele>439.0</ele><time>2026-04-01T11:47:29.999Z</time></trkpt><trkpt lat="45.709445251198375" lon="8.420964264878348"><ele>437.79999999999995</ele><time>2026-04-01T11:47:30.999Z</time></trkpt><trkpt lat="45.709443661621435" lon="8.420838209759124"><ele>436.59999999999997</ele><time>2026-04-01T11:47:31.999Z</time></trkpt><trkpt lat="45.70946398289547" lon="8.42071177082482"><ele>435.4</ele><time>2026-04-01T11:47:32.999Z</time></trkpt><trkpt lat="45.709495333018474" lon="8.420580124394602"><ele>434.2</ele><time>2026-04-01T11:47:33.999Z</time></trkpt><trkpt lat="45.70953866212657" lon="8.42045744867085"><ele>433.0</ele><time>2026-04-01T11:47:34.999Z</time></trkpt><trkpt lat="45.70959461551573" lon="8.42035806781775"><ele>433.0</ele><time>2026-04-01T11:47:35.999Z</time></trkpt><trkpt lat="45.70964923061299" lon="8.42028296574957"><ele>432.99999999999994</ele><time>2026-04-01T11:47:36.999Z</time></trkpt><trkpt lat="45.70971226524881" lon="8.420215832468672"><ele>432.99999999999994</ele><time>2026-04-01T11:47:37.999Z</time></trkpt><trkpt lat="45.709785420179266" lon="8.4201158507962"><ele>433.0</ele><time>2026-04-01T11:47:38.999Z</time></trkpt><trkpt lat="45.70986034789449" lon="8.420018083669543"><ele>433.0</ele><time>2026-04-01T11:47:39.999Z</time></trkpt><trkpt lat="45.70994198331888" lon="8.41993465527945"><ele>433.00000000000006</ele><time>2026-04-01T11:47:40.999Z</time></trkpt><trkpt lat="45.7100202836523" lon="8.419867556148912"><ele>433.0</ele><time>2026-04-01T11:47:41.999Z</time></trkpt><trkpt lat="45.71008368589981" lon="8.419801657259425"><ele>433.0</ele><time>2026-04-01T11:47:42.999Z</time></trkpt><trkpt lat="45.710126004927645" lon="8.419715471729779"><ele>433.0</ele><time>2026-04-01T11:47:43.999Z</time></trkpt><trkpt lat="45.71017712877643" lon="8.419593870509363"><ele>433.00000000000006</ele><time>2026-04-01T11:47:44.999Z</time></trkpt><trkpt lat="45.710227901261234" lon="8.419465005746664"><ele>433.0</ele><time>2026-04-01T11:47:45.999Z</time></trkpt><trkpt lat="45.71029208258993" lon="8.419357732954543"><ele>434.33333333333337</ele><time>2026-04-01T11:47:46.999Z</time></trkpt><trkpt lat="45.7103635367856" lon="8.419280820926973"><ele>435.6666666666667</ele><time>2026-04-01T11:47:47.999Z</time></trkpt><trkpt lat="45.71043699245966" lon="8.419229653616755"><ele>437.0</ele><time>2026-04-01T11:47:48.999Z</time></trkpt><trkpt lat="45.71050723160767" lon="8.419158591610474"><ele>438.33333333333337</ele><time>2026-04-01T11:47:49.999Z</time></trkpt><trkpt lat="45.710573641407194" lon="8.419085237897436"><ele>439.6666666666667</ele><time>2026-04-01T11:47:50.999Z</time></trkpt><trkpt lat="45.71064086182655" lon="8.419026315196435"><ele>441.0</ele><time>2026-04-01T11:47:51.999Z</time></trkpt><trkpt lat="45.7107274739657" lon="8.418975358129803"><ele>441.0</ele><time>2026-04-01T11:47:52.999Z</time></trkpt><trkpt lat="45.710818978869504" lon="8.418902384586344"><ele>441.0</ele><time>2026-04-01T11:47:53.999Z</time></trkpt><trkpt lat="45.7109178200721" lon="8.418804574739154"><ele>441.0</ele><time>2026-04-01T11:47:54.999Z</time></trkpt><trkpt lat="45.71100707597048" lon="8.41872753123069"><ele>441.0</ele><time>2026-04-01T11:47:55.999Z</time></trkpt><trkpt lat="45.71109912174232" lon="8.41865273186499"><ele>441.0</ele><time>2026-04-01T11:47:56.999Z</time></trkpt><trkpt lat="45.71117594474305" lon="8.418572332450733"><ele>442.20000000000005</ele><time>2026-04-01T11:47:57.999Z</time></trkpt><trkpt lat="45.71122445033692" lon="8.418496439682789"><ele>443.40000000000003</ele><time>2026-04-01T11:47:58.999Z</time></trkpt><trkpt lat="45.71126998618898" lon="8.41839729684111"><ele>444.6</ele><time>2026-04-01T11:47:59.999Z</time></trkpt><trkpt lat="45.71130839872204" lon="8.418311476968892"><ele>445.8</ele><time>2026-04-01T11:48:00.999Z</time></trkpt><trkpt lat="45.71140274306655" lon="8.418162445803818"><ele>447.0</ele><time>2026-04-01T11:48:02.999Z</time></trkpt><trkpt lat="45.71147492798728" lon="8.418103118285792"><ele>447.0</ele><time>2026-04-01T11:48:03.999Z</time></trkpt><trkpt lat="45.711550839180326" lon="8.418065432383386"><ele>447.00000000000006</ele><time>2026-04-01T11:48:04.999Z</time></trkpt><trkpt lat="45.71162693116446" lon="8.418043911084172"><ele>447.00000000000006</ele><time>2026-04-01T11:48:05.999Z</time></trkpt><trkpt lat="45.7116968265322" lon="8.417997785426987"><ele>447.0</ele><time>2026-04-01T11:48:06.999Z</time></trkpt><trkpt lat="45.71179203925247" lon="8.41793028628384"><ele>447.0</ele><time>2026-04-01T11:48:07.999Z</time></trkpt><trkpt lat="45.71188438028849" lon="8.417841151279886"><ele>447.75</ele><time>2026-04-01T11:48:08.999Z</time></trkpt><trkpt lat="45.711973791453445" lon="8.417737792347912"><ele>448.5</ele><time>2026-04-01T11:48:09.999Z</time></trkpt><trkpt lat="45.71205398082033" lon="8.417644725165696"><ele>449.25</ele><time>2026-04-01T11:48:10.999Z</time></trkpt><trkpt lat="45.7121411302937" lon="8.417534713446464"><ele>450.0</ele><time>2026-04-01T11:48:11.999Z</time></trkpt><trkpt lat="45.71224847440577" lon="8.417415309791934"><ele>450.0</ele><time>2026-04-01T11:48:12.999Z</time></trkpt><trkpt lat="45.7123399503453" lon="8.417314871790943"><ele>450.0</ele><time>2026-04-01T11:48:13.999Z</time></trkpt><trkpt lat="45.71243135957271" lon="8.417220957730805"><ele>450.0</ele><time>2026-04-01T11:48:14.999Z</time></trkpt><trkpt lat="45.71253948311921" lon="8.417139387191419"><ele>450.0</ele><time>2026-04-01T11:48:15.999Z</time></trkpt><trkpt lat="45.71264618989254" lon="8.417054133302571"><ele>450.3333333333333</ele><time>2026-04-01T11:48:16.999Z</time></trkpt><trkpt lat="45.71273984803052" lon="8.416976098527662"><ele>450.66666666666663</ele><time>2026-04-01T11:48:17.999Z</time></trkpt><trkpt lat="45.712801649327616" lon="8.416908101924651"><ele>451.0</ele><time>2026-04-01T11:48:18.999Z</time></trkpt><trkpt lat="45.712869958705944" lon="8.416871380210031"><ele>451.3333333333333</ele><time>2026-04-01T11:48:19.999Z</time></trkpt><trkpt lat="45.71294594522214" lon="8.41680711052759"><ele>451.66666666666663</ele><time>2026-04-01T11:48:20.999Z</time></trkpt><trkpt lat="45.71301449756324" lon="8.416748183741557"><ele>452.0</ele><time>2026-04-01T11:48:21.999Z</time></trkpt><trkpt lat="45.71307239513778" lon="8.416697252630447"><ele>452.0</ele><time>2026-04-01T11:48:22.999Z</time></trkpt><trkpt lat="45.71312668024805" lon="8.416644687929258"><ele>452.00000000000006</ele><time>2026-04-01T11:48:23.999Z</time></trkpt><trkpt lat="45.713199216732264" lon="8.41659070927426"><ele>452.00000000000006</ele><time>2026-04-01T11:48:24.999Z</time></trkpt><trkpt lat="45.713275300852104" lon="8.416500714251118"><ele>452.0</ele><time>2026-04-01T11:48:25.999Z</time></trkpt><trkpt lat="45.71336252154862" lon="8.416414411571248"><ele>452.0</ele><time>2026-04-01T11:48:26.999Z</time></trkpt><trkpt lat="45.71343457197281" lon="8.416318879044415"><ele>451.49999999999994</ele><time>2026-04-01T11:48:27.999Z</time></trkpt><trkpt lat="45.71350121660867" lon="8.416230932162597"><ele>451.0</ele><time>2026-04-01T11:48:28.999Z</time></trkpt><trkpt lat="45.71356338229944" lon="8.41613568031298"><ele>450.5</ele><time>2026-04-01T11:48:29.999Z</time></trkpt><trkpt lat="45.713618616567665" lon="8.416055396669439"><ele>450.0</ele><time>2026-04-01T11:48:30.999Z</time></trkpt><trkpt lat="45.71366697267915" lon="8.415965777137224"><ele>449.49999999999994</ele><time>2026-04-01T11:48:31.999Z</time></trkpt><trkpt lat="45.713710232445614" lon="8.415887600045998"><ele>449.0</ele><time>2026-04-01T11:48:33Z</time></trkpt><trkpt lat="45.71375331459001" lon="8.415793983837055"><ele>449.8333333333333</ele><time>2026-04-01T11:48:34Z</time></trkpt><trkpt lat="45.71379013635912" lon="8.415712791893148"><ele>450.66666666666663</ele><time>2026-04-01T11:48:35Z</time></trkpt><trkpt lat="45.71383182781441" lon="8.415617957384573"><ele>451.5</ele><time>2026-04-01T11:48:36Z</time></trkpt><trkpt lat="45.71388122349874" lon="8.415522766223582"><ele>452.33333333333337</ele><time>2026-04-01T11:48:37Z</time></trkpt><trkpt lat="45.71396097054906" lon="8.415426979384709"><ele>453.1666666666667</ele><time>2026-04-01T11:48:38Z</time></trkpt><trkpt lat="45.714037990023776" lon="8.415358534267318"><ele>454.0</ele><time>2026-04-01T11:48:39Z</time></trkpt><trkpt lat="45.71411315241916" lon="8.41528429958605"><ele>454.0</ele><time>2026-04-01T11:48:40Z</time></trkpt><trkpt lat="45.71419480128011" lon="8.415215210231676"><ele>454.0</ele><time>2026-04-01T11:48:41Z</time></trkpt><trkpt lat="45.71428937884457" lon="8.41514010087798"><ele>454.0</ele><time>2026-04-01T11:48:42Z</time></trkpt><trkpt lat="45.7143850094456" lon="8.415056851972865"><ele>454.0</ele><time>2026-04-01T11:48:43Z</time></trkpt><trkpt lat="45.71446310944687" lon="8.414980153505017"><ele>454.0</ele><time>2026-04-01T11:48:44Z</time></trkpt><trkpt lat="45.7145375761082" lon="8.414938521426246"><ele>454.33333333333337</ele><time>2026-04-01T11:48:45Z</time></trkpt><trkpt lat="45.71460247421857" lon="8.414897974460253"><ele>454.6666666666667</ele><time>2026-04-01T11:48:46Z</time></trkpt><trkpt lat="45.71466799494748" lon="8.414875427326463"><ele>455.0</ele><time>2026-04-01T11:48:47Z</time></trkpt><trkpt lat="45.71474864645436" lon="8.414850838150517"><ele>455.33333333333337</ele><time>2026-04-01T11:48:49Z</time></trkpt><trkpt lat="45.71481638545293" lon="8.414827654490225"><ele>455.6666666666667</ele><time>2026-04-01T11:48:50Z</time></trkpt><trkpt lat="45.71490723681452" lon="8.41478049941676"><ele>456.0</ele><time>2026-04-01T11:48:51Z</time></trkpt><trkpt lat="45.715002630827975" lon="8.414695897637158"><ele>455.6</ele><time>2026-04-01T11:48:52Z</time></trkpt><trkpt lat="45.7150795431182" lon="8.414631858340378"><ele>455.20000000000005</ele><time>2026-04-01T11:48:53Z</time></trkpt><trkpt lat="45.71516344456492" lon="8.414538848367714"><ele>454.79999999999995</ele><time>2026-04-01T11:48:54Z</time></trkpt><trkpt lat="45.7152367661364" lon="8.414442662160178"><ele>454.4</ele><time>2026-04-01T11:48:55Z</time></trkpt><trkpt lat="45.71529224429479" lon="8.414341208405965"><ele>454.0</ele><time>2026-04-01T11:48:56Z</time></trkpt><trkpt lat="45.71533746518027" lon="8.414223483280514"><ele>455.33333333333337</ele><time>2026-04-01T11:48:57Z</time></trkpt><trkpt lat="45.71539961216941" lon="8.41411918069214"><ele>456.6666666666667</ele><time>2026-04-01T11:48:58Z</time></trkpt><trkpt lat="45.71545100942026" lon="8.414017543992852"><ele>458.0</ele><time>2026-04-01T11:48:59Z</time></trkpt><trkpt lat="45.71551777538815" lon="8.41393256750827"><ele>459.33333333333337</ele><time>2026-04-01T11:49:19Z</time></trkpt><trkpt lat="45.715547163739295" lon="8.413837197099387"><ele>460.6666666666667</ele><time>2026-04-01T11:49:21Z</time></trkpt><trkpt lat="45.715570591353476" lon="8.41375339275187"><ele>462.0</ele><time>2026-04-01T11:49:26Z</time></trkpt><trkpt lat="45.71564203607" lon="8.413688461385089"><ele>462.20000000000005</ele><time>2026-04-01T11:49:41Z</time></trkpt><trkpt lat="45.715657227298784" lon="8.413578489941878"><ele>462.40000000000003</ele><time>2026-04-01T11:50:43Z</time></trkpt><trkpt lat="45.71568003027979" lon="8.413470469990946"><ele>462.59999999999997</ele><time>2026-04-01T11:50:45Z</time></trkpt><trkpt lat="45.71569367209131" lon="8.413294976198404"><ele>462.79999999999995</ele><time>2026-04-01T11:50:47Z</time></trkpt><trkpt lat="45.71572133038374" lon="8.413194077682824"><ele>463.0</ele><time>2026-04-01T11:50:48Z</time></trkpt><trkpt lat="45.71576672679308" lon="8.413069716915672"><ele>462.59999999999997</ele><time>2026-04-01T11:50:49Z</time></trkpt><trkpt lat="45.71582344464165" lon="8.412955733230536"><ele>462.19999999999993</ele><time>2026-04-01T11:50:50Z</time></trkpt><trkpt lat="45.71592476359292" lon="8.412838581570641"><ele>461.8</ele><time>2026-04-01T11:50:51Z</time></trkpt><trkpt lat="45.71600207173966" lon="8.412757245643652"><ele>461.4</ele><time>2026-04-01T11:50:52Z</time></trkpt><trkpt lat="45.71606779966288" lon="8.412689203562502"><ele>461.0</ele><time>2026-04-01T11:50:53Z</time></trkpt><trkpt lat="45.716158996220265" lon="8.412604449893232"><ele>460.20000000000005</ele><time>2026-04-01T11:50:54Z</time></trkpt><trkpt lat="45.71623823513689" lon="8.412520882621934"><ele>459.40000000000003</ele><time>2026-04-01T11:50:55Z</time></trkpt><trkpt lat="45.71632364256104" lon="8.412450138407713"><ele>458.6</ele><time>2026-04-01T11:50:56Z</time></trkpt><trkpt lat="45.716431205508364" lon="8.412385054498875"><ele>457.8</ele><time>2026-04-01T11:50:57Z</time></trkpt><trkpt lat="45.71654043885581" lon="8.41231584888307"><ele>457.0</ele><time>2026-04-01T11:50:58Z</time></trkpt><trkpt lat="45.7166452375367" lon="8.412254680652785"><ele>457.0</ele><time>2026-04-01T11:50:59Z</time></trkpt><trkpt lat="45.71673652548862" lon="8.412210273733253"><ele>457.00000000000006</ele><time>2026-04-01T11:51:00Z</time></trkpt><trkpt lat="45.71683471464312" lon="8.412178027984075"><ele>457.00000000000006</ele><time>2026-04-01T11:51:01Z</time></trkpt><trkpt lat="45.71692030472735" lon="8.412147673866738"><ele>457.0</ele><time>2026-04-01T11:51:02Z</time></trkpt><trkpt lat="45.717006722859104" lon="8.412106785208278"><ele>457.0</ele><time>2026-04-01T11:51:03Z</time></trkpt><trkpt lat="45.71708724366618" lon="8.412075405957754"><ele>458.1666666666667</ele><time>2026-04-01T11:51:04Z</time></trkpt><trkpt lat="45.717162151847354" lon="8.412041535475423"><ele>459.33333333333337</ele><time>2026-04-01T11:51:05Z</time></trkpt><trkpt lat="45.717243810109046" lon="8.412003589105245"><ele>460.5</ele><time>2026-04-01T11:51:06Z</time></trkpt><trkpt lat="45.717318038005835" lon="8.411963399150125"><ele>461.66666666666663</ele><time>2026-04-01T11:51:07Z</time></trkpt><trkpt lat="45.717388872171156" lon="8.41194524261661"><ele>462.8333333333333</ele><time>2026-04-01T11:51:08Z</time></trkpt><trkpt lat="45.717449290010414" lon="8.41191156298039"><ele>464.0</ele><time>2026-04-01T11:51:09Z</time></trkpt><trkpt lat="45.71756153054355" lon="8.411855957895492"><ele>464.0</ele><time>2026-04-01T11:51:11Z</time></trkpt><trkpt lat="45.71764267081844" lon="8.411783602126869"><ele>464.0</ele><time>2026-04-01T11:51:12Z</time></trkpt><trkpt lat="45.71770699300531" lon="8.41172683094842"><ele>464.0</ele><time>2026-04-01T11:51:13Z</time></trkpt><trkpt lat="45.71781684785851" lon="8.411679778787118"><ele>464.0</ele><time>2026-04-01T11:51:15Z</time></trkpt><trkpt lat="45.71788007759106" lon="8.411655295013778"><ele>464.0</ele><time>2026-04-01T11:51:16Z</time></trkpt><trkpt lat="45.717953613253144" lon="8.411517665291369"><ele>465.79999999999995</ele><time>2026-04-01T11:51:18Z</time></trkpt><trkpt lat="45.71799814108265" lon="8.411450386621414"><ele>467.59999999999997</ele><time>2026-04-01T11:51:19Z</time></trkpt><trkpt lat="45.718085493232266" lon="8.411328824241464"><ele>469.4</ele><time>2026-04-01T11:51:21Z</time></trkpt><trkpt lat="45.71814360577358" lon="8.411149354448492"><ele>471.2</ele><time>2026-04-01T11:51:23Z</time></trkpt><trkpt lat="45.71818971680371" lon="8.41099304574748"><ele>473.0</ele><time>2026-04-01T11:51:25Z</time></trkpt><trkpt lat="45.718235429788514" lon="8.41086705503464"><ele>474.0</ele><time>2026-04-01T11:51:26Z</time></trkpt><trkpt lat="45.71827529042156" lon="8.410754239243264"><ele>474.99999999999994</ele><time>2026-04-01T11:51:28Z</time></trkpt><trkpt lat="45.71832321860949" lon="8.410648064832749"><ele>475.99999999999994</ele><time>2026-04-01T11:51:30Z</time></trkpt><trkpt lat="45.718393969892745" lon="8.410523836984856"><ele>477.0</ele><time>2026-04-01T11:51:31Z</time></trkpt><trkpt lat="45.718458478223795" lon="8.410416451838453"><ele>478.0</ele><time>2026-04-01T11:51:32Z</time></trkpt><trkpt lat="45.7185175702162" lon="8.41029797751118"><ele>477.6666666666667</ele><time>2026-04-01T11:51:33Z</time></trkpt><trkpt lat="45.718568129153695" lon="8.410179571319139"><ele>477.33333333333337</ele><time>2026-04-01T11:51:34Z</time></trkpt><trkpt lat="45.71861608534542" lon="8.41009196532954"><ele>477.0</ele><time>2026-04-01T11:51:35Z</time></trkpt><trkpt lat="45.71865634624196" lon="8.41001110229418"><ele>476.66666666666663</ele><time>2026-04-01T11:51:36Z</time></trkpt><trkpt lat="45.71867724808306" lon="8.409923623709957"><ele>476.3333333333333</ele><time>2026-04-01T11:51:37Z</time></trkpt><trkpt lat="45.718677776964064" lon="8.409809151479937"><ele>476.0</ele><time>2026-04-01T11:51:38Z</time></trkpt><trkpt lat="45.71871031051445" lon="8.409691033904373"><ele>475.4</ele><time>2026-04-01T11:51:39Z</time></trkpt><trkpt lat="45.71874538783428" lon="8.409552868546005"><ele>474.8</ele><time>2026-04-01T11:51:40Z</time></trkpt><trkpt lat="45.71877049931158" lon="8.409427535600418"><ele>474.19999999999993</ele><time>2026-04-01T11:51:41Z</time></trkpt><trkpt lat="45.718794319178244" lon="8.409287138945976"><ele>473.59999999999997</ele><time>2026-04-01T11:51:42Z</time></trkpt><trkpt lat="45.718825222614825" lon="8.409154996333116"><ele>473.0</ele><time>2026-04-01T11:51:43Z</time></trkpt><trkpt lat="45.71886201469353" lon="8.409048579169852"><ele>472.99999999999994</ele><time>2026-04-01T11:51:44Z</time></trkpt><trkpt lat="45.718893677443994" lon="8.40893570094932"><ele>473.0</ele><time>2026-04-01T11:51:45Z</time></trkpt><trkpt lat="45.718905573479326" lon="8.408817399380728"><ele>473.0</ele><time>2026-04-01T11:51:46Z</time></trkpt><trkpt lat="45.718912451948015" lon="8.408696477149151"><ele>473.0</ele><time>2026-04-01T11:51:47Z</time></trkpt><trkpt lat="45.71889300845999" lon="8.408602077692438"><ele>472.99999999999994</ele><time>2026-04-01T11:51:48Z</time></trkpt><trkpt lat="45.718885130154646" lon="8.408501522930102"><ele>473.0</ele><time>2026-04-01T11:51:49Z</time></trkpt><trkpt lat="45.71889880380938" lon="8.408375433000879"><ele>472.66666666666663</ele><time>2026-04-01T11:51:50Z</time></trkpt><trkpt lat="45.71891396836774" lon="8.408259913611634"><ele>472.3333333333333</ele><time>2026-04-01T11:51:51Z</time></trkpt><trkpt lat="45.71892986555692" lon="8.40815557062525"><ele>472.0</ele><time>2026-04-01T11:51:52Z</time></trkpt><trkpt lat="45.71896613568124" lon="8.40802981826514"><ele>471.66666666666663</ele><time>2026-04-01T11:51:53Z</time></trkpt><trkpt lat="45.71899387280393" lon="8.40789824569235"><ele>471.3333333333333</ele><time>2026-04-01T11:51:54Z</time></trkpt><trkpt lat="45.719021127447" lon="8.407762717005028"><ele>471.0</ele><time>2026-04-01T11:51:55Z</time></trkpt><trkpt lat="45.71905292286363" lon="8.40760982467234"><ele>471.0</ele><time>2026-04-01T11:51:56Z</time></trkpt><trkpt lat="45.719085520089024" lon="8.407479250729509"><ele>471.0</ele><time>2026-04-01T11:51:57Z</time></trkpt><trkpt lat="45.71911477309063" lon="8.40736142317342"><ele>471.0</ele><time>2026-04-01T11:51:58Z</time></trkpt><trkpt lat="45.71915117452597" lon="8.407246336802903"><ele>471.0</ele><time>2026-04-01T11:51:58.999Z</time></trkpt><trkpt lat="45.71919011029821" lon="8.407147422372164"><ele>471.0</ele><time>2026-04-01T11:51:59.999Z</time></trkpt><trkpt lat="45.71923803288173" lon="8.40705221345493"><ele>471.0</ele><time>2026-04-01T11:52:00.999Z</time></trkpt><trkpt lat="45.71929894324311" lon="8.406965844126862"><ele>471.1666666666667</ele><time>2026-04-01T11:52:01.999Z</time></trkpt><trkpt lat="45.71934770087779" lon="8.406871066271838"><ele>471.33333333333337</ele><time>2026-04-01T11:52:02.999Z</time></trkpt><trkpt lat="45.719399606113406" lon="8.4067758904972"><ele>471.5</ele><time>2026-04-01T11:52:03.999Z</time></trkpt><trkpt lat="45.7194313631249" lon="8.406689019102078"><ele>471.6666666666667</ele><time>2026-04-01T11:52:04.999Z</time></trkpt><trkpt lat="45.719459538623894" lon="8.406596625008616"><ele>471.83333333333337</ele><time>2026-04-01T11:52:05.999Z</time></trkpt><trkpt lat="45.719495454063576" lon="8.406488526425466"><ele>472.0</ele><time>2026-04-01T11:52:06.999Z</time></trkpt><trkpt lat="45.71953696081279" lon="8.406364318568565"><ele>471.1666666666667</ele><time>2026-04-01T11:52:07.999Z</time></trkpt><trkpt lat="45.71959120576883" lon="8.406265810131805"><ele>470.33333333333337</ele><time>2026-04-01T11:52:08.999Z</time></trkpt><trkpt lat="45.71963183001471" lon="8.406181505898454"><ele>469.5</ele><time>2026-04-01T11:52:09.999Z</time></trkpt><trkpt lat="45.719659516701185" lon="8.406097261253977"><ele>468.66666666666663</ele><time>2026-04-01T11:52:10.999Z</time></trkpt><trkpt lat="45.7196759848664" lon="8.406001025496414"><ele>467.8333333333333</ele><time>2026-04-01T11:52:11.999Z</time></trkpt><trkpt lat="45.7197056009159" lon="8.405904355698407"><ele>467.0</ele><time>2026-04-01T11:52:12.999Z</time></trkpt><trkpt lat="45.71977110414425" lon="8.405778020677323"><ele>466.99999999999994</ele><time>2026-04-01T11:52:13.999Z</time></trkpt><trkpt lat="45.719820167959696" lon="8.405692030194121"><ele>467.0</ele><time>2026-04-01T11:52:14.999Z</time></trkpt><trkpt lat="45.719884805225284" lon="8.405618458874446"><ele>467.0</ele><time>2026-04-01T11:52:15.999Z</time></trkpt><trkpt lat="45.719960816874114" lon="8.405551051263197"><ele>467.0</ele><time>2026-04-01T11:52:16.999Z</time></trkpt><trkpt lat="45.72003525467981" lon="8.40547754887089"><ele>466.99999999999994</ele><time>2026-04-01T11:52:17.999Z</time></trkpt><trkpt lat="45.720104396167564" lon="8.405380216889654"><ele>467.0</ele><time>2026-04-01T11:52:18.999Z</time></trkpt><trkpt lat="45.720144333637585" lon="8.40528543826208"><ele>466.99999999999994</ele><time>2026-04-01T11:52:19.999Z</time></trkpt><trkpt lat="45.72022258398614" lon="8.405168968420478"><ele>467.0</ele><time>2026-04-01T11:52:21.999Z</time></trkpt><trkpt lat="45.72028284221344" lon="8.405079776212425"><ele>467.0</ele><time>2026-04-01T11:52:22.999Z</time></trkpt><trkpt lat="45.72034173600165" lon="8.405001189245418"><ele>467.0</ele><time>2026-04-01T11:52:23.999Z</time></trkpt><trkpt lat="45.72039749081806" lon="8.404931130292168"><ele>466.99999999999994</ele><time>2026-04-01T11:52:24.999Z</time></trkpt><trkpt lat="45.7204469075599" lon="8.404859266613549"><ele>467.0</ele><time>2026-04-01T11:52:25.999Z</time></trkpt><trkpt lat="45.72048591154234" lon="8.404787359865011"><ele>467.0</ele><time>2026-04-01T11:52:26.999Z</time></trkpt><trkpt lat="45.720550292655794" lon="8.40467186887594"><ele>467.00000000000006</ele><time>2026-04-01T11:52:27.999Z</time></trkpt><trkpt lat="45.720610681482825" lon="8.40453916439695"><ele>467.00000000000006</ele><time>2026-04-01T11:52:28.999Z</time></trkpt><trkpt lat="45.72067334913431" lon="8.404427588418315"><ele>467.0</ele><time>2026-04-01T11:52:29.999Z</time></trkpt><trkpt lat="45.72073613394943" lon="8.404326155454848"><ele>467.0</ele><time>2026-04-01T11:52:30.999Z</time></trkpt><trkpt lat="45.720804189048025" lon="8.404233008934312"><ele>467.8</ele><time>2026-04-01T11:52:31.999Z</time></trkpt><trkpt lat="45.72086193767544" lon="8.404151249243103"><ele>468.6</ele><time>2026-04-01T11:52:32.999Z</time></trkpt><trkpt lat="45.7209101832445" lon="8.404072801668693"><ele>469.40000000000003</ele><time>2026-04-01T11:52:33.999Z</time></trkpt><trkpt lat="45.72097639741747" lon="8.403931255598081"><ele>470.20000000000005</ele><time>2026-04-01T11:52:35.999Z</time></trkpt><trkpt lat="45.72104227890535" lon="8.403833387481217"><ele>471.0</ele><time>2026-04-01T11:52:36.999Z</time></trkpt><trkpt lat="45.721108680237776" lon="8.4037398113473"><ele>472.3333333333333</ele><time>2026-04-01T11:52:37.999Z</time></trkpt><trkpt lat="45.72115694147953" lon="8.403669354598232"><ele>473.66666666666663</ele><time>2026-04-01T11:52:38.999Z</time></trkpt><trkpt lat="45.721217369340415" lon="8.403540044885153"><ele>475.0</ele><time>2026-04-01T11:52:40.999Z</time></trkpt><trkpt lat="45.72123645227064" lon="8.403437924061729"><ele>476.3333333333333</ele><time>2026-04-01T11:52:43.999Z</time></trkpt><trkpt lat="45.721293857903795" lon="8.403370930267114"><ele>477.66666666666663</ele><time>2026-04-01T11:52:47Z</time></trkpt><trkpt lat="45.72136148270105" lon="8.403313490865578"><ele>479.0</ele><time>2026-04-01T11:52:49Z</time></trkpt><trkpt lat="45.72140943440146" lon="8.40323919916538"><ele>479.0</ele><time>2026-04-01T11:52:55Z</time></trkpt><trkpt lat="45.72147189143116" lon="8.403206298271865"><ele>479.0</ele><time>2026-04-01T11:53:18Z</time></trkpt><trkpt lat="45.721539184251775" lon="8.403214819652057"><ele>479.0</ele><time>2026-04-01T11:53:28Z</time></trkpt><trkpt lat="45.72160391369473" lon="8.4032039011073"><ele>479.0</ele><time>2026-04-01T11:53:34Z</time></trkpt><trkpt lat="45.72167109348574" lon="8.403192584292585"><ele>479.0</ele><time>2026-04-01T11:53:40Z</time></trkpt><trkpt lat="45.72160334689185" lon="8.403193760188183"><ele>479.0</ele><time>2026-04-01T11:54:00Z</time></trkpt><trkpt lat="45.72154176076839" lon="8.403213217473807"><ele>479.0</ele><time>2026-04-01T11:54:03.999Z</time></trkpt><trkpt lat="45.72148080197523" lon="8.403264373359757"><ele>479.0</ele><time>2026-04-01T11:54:10.999Z</time></trkpt><trkpt lat="45.72155115058679" lon="8.403192441594877"><ele>479.0</ele><time>2026-04-01T11:54:45.999Z</time></trkpt><trkpt lat="45.72159018962219" lon="8.403275939800308"><ele>479.0</ele><time>2026-04-01T11:54:48.999Z</time></trkpt><trkpt lat="45.721641435777" lon="8.40336019012229"><ele>479.0</ele><time>2026-04-01T11:54:52Z</time></trkpt><trkpt lat="45.72171106224661" lon="8.403369423713066"><ele>479.0</ele><time>2026-04-01T11:54:54Z</time></trkpt><trkpt lat="45.72176902857689" lon="8.403404811964663"><ele>479.0</ele><time>2026-04-01T11:55:01Z</time></trkpt><trkpt lat="45.721794650389086" lon="8.403505147810028"><ele>479.0</ele><time>2026-04-01T11:55:03Z</time></trkpt><trkpt lat="45.72174362780925" lon="8.403560066870371"><ele>479.0</ele><time>2026-04-01T11:55:09Z</time></trkpt><trkpt lat="45.72168376314164" lon="8.403519418696684"><ele>479.0</ele><time>2026-04-01T11:55:15Z</time></trkpt><trkpt lat="45.72166636733709" lon="8.403411823747499"><ele>479.0</ele><time>2026-04-01T11:55:20Z</time></trkpt><trkpt lat="45.72160771872857" lon="8.403349758131322"><ele>479.0</ele><time>2026-04-01T11:55:25Z</time></trkpt><trkpt lat="45.72154151334286" lon="8.403343409923064"><ele>479.0</ele><time>2026-04-01T11:55:29Z</time></trkpt><trkpt lat="45.72148473945445" lon="8.403300513002208"><ele>479.0</ele><time>2026-04-01T11:55:33Z</time></trkpt><trkpt lat="45.72155402073676" lon="8.403214465064499"><ele>479.0</ele><time>2026-04-01T11:55:56Z</time></trkpt><trkpt lat="45.72159123570939" lon="8.403353301744175"><ele>478.99999999999994</ele><time>2026-04-01T11:55:59Z</time></trkpt><trkpt lat="45.721646025932415" lon="8.403416320543094"><ele>479.0</ele><time>2026-04-01T11:56:01Z</time></trkpt><trkpt lat="45.72171781299096" lon="8.403452644422407"><ele>479.0</ele><time>2026-04-01T11:56:03Z</time></trkpt><trkpt lat="45.72179281628847" lon="8.403472360892536"><ele>479.0</ele><time>2026-04-01T11:56:05.999Z</time></trkpt><trkpt lat="45.721842197156214" lon="8.403587300168686"><ele>478.99999999999994</ele><time>2026-04-01T11:56:26.999Z</time></trkpt><trkpt lat="45.7218907315049" lon="8.403710633869789"><ele>479.0</ele><time>2026-04-01T11:57:42Z</time></trkpt><trkpt lat="45.721963744748905" lon="8.4036834764027"><ele>479.3333333333333</ele><time>2026-04-01T11:57:45Z</time></trkpt><trkpt lat="45.72202749094999" lon="8.403766115863034"><ele>479.66666666666663</ele><time>2026-04-01T11:57:48.999Z</time></trkpt><trkpt lat="45.722041245611344" lon="8.40391381946726"><ele>480.0</ele><time>2026-04-01T11:57:50.999Z</time></trkpt><trkpt lat="45.72206213439579" lon="8.404054515940178"><ele>480.33333333333337</ele><time>2026-04-01T11:57:52.999Z</time></trkpt><trkpt lat="45.722094108594305" lon="8.404171120946298"><ele>480.6666666666667</ele><time>2026-04-01T11:57:54.999Z</time></trkpt><trkpt lat="45.722136544645686" lon="8.404241631613976"><ele>481.0</ele><time>2026-04-01T11:57:55.999Z</time></trkpt><trkpt lat="45.72220613176547" lon="8.404298668259754"><ele>481.0</ele><time>2026-04-01T11:57:56.999Z</time></trkpt><trkpt lat="45.72228328451933" lon="8.404343205439801"><ele>481.0</ele><time>2026-04-01T11:57:57.999Z</time></trkpt><trkpt lat="45.722372837158574" lon="8.404371811802216"><ele>481.0</ele><time>2026-04-01T11:57:58.999Z</time></trkpt><trkpt lat="45.722387380733664" lon="8.40459171589272"><ele>481.0</ele><time>2026-04-01T11:57:59.999Z</time></trkpt><trkpt lat="45.72246818176872" lon="8.404672221763466"><ele>481.0</ele><time>2026-04-01T11:58:00.999Z</time></trkpt><trkpt lat="45.72254461035342" lon="8.404748106480254"><ele>480.0</ele><time>2026-04-01T11:58:01.999Z</time></trkpt><trkpt lat="45.72265928871354" lon="8.404863354440268"><ele>479.0</ele><time>2026-04-01T11:58:02.999Z</time></trkpt><trkpt lat="45.722724203775144" lon="8.404928591931712"><ele>478.0</ele><time>2026-04-01T11:58:03.999Z</time></trkpt><trkpt lat="45.72278039820703" lon="8.404985805609252"><ele>477.0</ele><time>2026-04-01T11:58:04.999Z</time></trkpt><trkpt lat="45.72285014235543" lon="8.405057532138676"><ele>476.0</ele><time>2026-04-01T11:58:05.999Z</time></trkpt><trkpt lat="45.72292475593848" lon="8.40513116788011"><ele>474.3333333333333</ele><time>2026-04-01T11:58:06.999Z</time></trkpt><trkpt lat="45.72297948245407" lon="8.405184610365252"><ele>472.66666666666663</ele><time>2026-04-01T11:58:07.999Z</time></trkpt><trkpt lat="45.72303900971652" lon="8.405244582778025"><ele>471.0</ele><time>2026-04-01T11:58:08.999Z</time></trkpt><trkpt lat="45.72309547989323" lon="8.405308471758936"><ele>469.33333333333337</ele><time>2026-04-01T11:58:09.999Z</time></trkpt><trkpt lat="45.7231510055978" lon="8.405384905542052"><ele>467.6666666666667</ele><time>2026-04-01T11:58:10.999Z</time></trkpt><trkpt lat="45.72321057469259" lon="8.40548708257048"><ele>466.0</ele><time>2026-04-01T11:58:11.999Z</time></trkpt><trkpt lat="45.72327656182374" lon="8.405628113204752"><ele>466.00000000000006</ele><time>2026-04-01T11:58:12.999Z</time></trkpt><trkpt lat="45.72332347263867" lon="8.405745562256737"><ele>466.0</ele><time>2026-04-01T11:58:13.999Z</time></trkpt><trkpt lat="45.72335934861157" lon="8.405852712843439"><ele>466.0</ele><time>2026-04-01T11:58:14.999Z</time></trkpt><trkpt lat="45.723389591461846" lon="8.405958872277875"><ele>466.0</ele><time>2026-04-01T11:58:15.999Z</time></trkpt><trkpt lat="45.72341900294615" lon="8.406072239538675"><ele>466.00000000000006</ele><time>2026-04-01T11:58:16.999Z</time></trkpt><trkpt lat="45.72343619396981" lon="8.406174353526511"><ele>466.0</ele><time>2026-04-01T11:58:17.999Z</time></trkpt><trkpt lat="45.72344695731897" lon="8.406264222482289"><ele>466.6</ele><time>2026-04-01T11:58:18.999Z</time></trkpt><trkpt lat="45.7235099031341" lon="8.406395718469954"><ele>467.20000000000005</ele><time>2026-04-01T11:58:19.999Z</time></trkpt><trkpt lat="45.72350285556233" lon="8.406529547697467"><ele>467.79999999999995</ele><time>2026-04-01T11:58:20.999Z</time></trkpt><trkpt lat="45.72348106691078" lon="8.406727865472442"><ele>468.4</ele><time>2026-04-01T11:58:22.999Z</time></trkpt><trkpt lat="45.72349981093752" lon="8.406846689125755"><ele>469.0</ele><time>2026-04-01T11:58:23.999Z</time></trkpt><trkpt lat="45.72352036443739" lon="8.4069569039591"><ele>469.0</ele><time>2026-04-01T11:58:24.999Z</time></trkpt><trkpt lat="45.72354389981766" lon="8.407075793992645"><ele>469.0</ele><time>2026-04-01T11:58:25.999Z</time></trkpt><trkpt lat="45.72351449448414" lon="8.407212752021046"><ele>469.0</ele><time>2026-04-01T11:58:27.999Z</time></trkpt><trkpt lat="45.72343299353218" lon="8.407390038712249"><ele>469.0</ele><time>2026-04-01T11:58:29.999Z</time></trkpt><trkpt lat="45.723405637858015" lon="8.407480543463851"><ele>469.0</ele><time>2026-04-01T11:58:30.999Z</time></trkpt><trkpt lat="45.72340881916651" lon="8.4076062386831"><ele>468.6</ele><time>2026-04-01T11:58:31.999Z</time></trkpt><trkpt lat="45.72341508106075" lon="8.407750119315336"><ele>468.2</ele><time>2026-04-01T11:58:32.999Z</time></trkpt><trkpt lat="45.72342441215612" lon="8.407892749746809"><ele>467.80000000000007</ele><time>2026-04-01T11:58:33.999Z</time></trkpt><trkpt lat="45.72345489080962" lon="8.408052529215324"><ele>467.40000000000003</ele><time>2026-04-01T11:58:34.999Z</time></trkpt><trkpt lat="45.72346494403782" lon="8.408200422065889"><ele>467.0</ele><time>2026-04-01T11:58:35.999Z</time></trkpt><trkpt lat="45.72346284952938" lon="8.408345740670091"><ele>466.20000000000005</ele><time>2026-04-01T11:58:36.999Z</time></trkpt><trkpt lat="45.723450023266146" lon="8.408480620047575"><ele>465.40000000000003</ele><time>2026-04-01T11:58:37.999Z</time></trkpt><trkpt lat="45.723435493679496" lon="8.408615139135755"><ele>464.59999999999997</ele><time>2026-04-01T11:58:38.999Z</time></trkpt><trkpt lat="45.72342485929521" lon="8.40874941598168"><ele>463.79999999999995</ele><time>2026-04-01T11:58:39.999Z</time></trkpt><trkpt lat="45.7234195626464" lon="8.408880562093554"><ele>463.0</ele><time>2026-04-01T11:58:40.999Z</time></trkpt><trkpt lat="45.72344829628512" lon="8.409009985464278"><ele>462.50000000000006</ele><time>2026-04-01T11:58:41.999Z</time></trkpt><trkpt lat="45.723481883897925" lon="8.40912516999254"><ele>462.0</ele><time>2026-04-01T11:58:42.999Z</time></trkpt><trkpt lat="45.723493383886016" lon="8.409230502802295"><ele>461.5</ele><time>2026-04-01T11:58:43.999Z</time></trkpt><trkpt lat="45.72350390771801" lon="8.409325922457864"><ele>461.0</ele><time>2026-04-01T11:58:44.999Z</time></trkpt><trkpt lat="45.72352626020935" lon="8.409450165249282"><ele>460.50000000000006</ele><time>2026-04-01T11:58:45.999Z</time></trkpt><trkpt lat="45.723516239973186" lon="8.409582084154906"><ele>460.0</ele><time>2026-04-01T11:58:46.999Z</time></trkpt><trkpt lat="45.723487442859636" lon="8.409740389118515"><ele>459.0</ele><time>2026-04-01T11:58:47.999Z</time></trkpt><trkpt lat="45.72346017016615" lon="8.409913276873805"><ele>458.0</ele><time>2026-04-01T11:58:48.999Z</time></trkpt><trkpt lat="45.72344921714624" lon="8.4100861203401"><ele>457.0</ele><time>2026-04-01T11:58:49.999Z</time></trkpt><trkpt lat="45.7234446538096" lon="8.410232133011084"><ele>456.0</ele><time>2026-04-01T11:58:50.999Z</time></trkpt><trkpt lat="45.723439955253454" lon="8.410355281304573"><ele>455.0</ele><time>2026-04-01T11:58:51.999Z</time></trkpt><trkpt lat="45.72347167005541" lon="8.410455486476408"><ele>454.8333333333333</ele><time>2026-04-01T11:58:52.999Z</time></trkpt><trkpt lat="45.72349853448088" lon="8.410552691188826"><ele>454.66666666666663</ele><time>2026-04-01T11:58:53.999Z</time></trkpt><trkpt lat="45.7235641309424" lon="8.410626270528885"><ele>454.5</ele><time>2026-04-01T11:58:54.999Z</time></trkpt><trkpt lat="45.723612506241786" lon="8.410739391782284"><ele>454.33333333333337</ele><time>2026-04-01T11:58:55.999Z</time></trkpt><trkpt lat="45.723649298203036" lon="8.410849345259471"><ele>454.1666666666667</ele><time>2026-04-01T11:58:57.999Z</time></trkpt><trkpt lat="45.72366261022632" lon="8.410996774477763"><ele>454.0</ele><time>2026-04-01T11:58:58.999Z</time></trkpt><trkpt lat="45.72365708505476" lon="8.41116988638237"><ele>452.0</ele><time>2026-04-01T11:58:59.999Z</time></trkpt><trkpt lat="45.72364882101752" lon="8.411337336173027"><ele>450.0</ele><time>2026-04-01T11:59:00.999Z</time></trkpt><trkpt lat="45.72363777863462" lon="8.411488464721876"><ele>448.0</ele><time>2026-04-01T11:59:01.999Z</time></trkpt><trkpt lat="45.72362685132085" lon="8.41162317836199"><ele>446.0</ele><time>2026-04-01T11:59:03Z</time></trkpt><trkpt lat="45.723625810871205" lon="8.411746778065877"><ele>444.0</ele><time>2026-04-01T11:59:04Z</time></trkpt><trkpt lat="45.72363129683701" lon="8.41187591319019"><ele>444.0</ele><time>2026-04-01T11:59:05Z</time></trkpt><trkpt lat="45.7236784312119" lon="8.411999682412377"><ele>444.0</ele><time>2026-04-01T11:59:06Z</time></trkpt><trkpt lat="45.723737846393185" lon="8.412120304622292"><ele>444.0</ele><time>2026-04-01T11:59:07Z</time></trkpt><trkpt lat="45.723814728923365" lon="8.412235847005734"><ele>444.0</ele><time>2026-04-01T11:59:08Z</time></trkpt><trkpt lat="45.72389563769958" lon="8.412351072841428"><ele>444.0</ele><time>2026-04-01T11:59:09Z</time></trkpt><trkpt lat="45.723972960987965" lon="8.412462539404908"><ele>444.6</ele><time>2026-04-01T11:59:10Z</time></trkpt><trkpt lat="45.72406378599834" lon="8.412556906849527"><ele>445.2</ele><time>2026-04-01T11:59:11Z</time></trkpt><trkpt lat="45.72414241843947" lon="8.412653015653818"><ele>445.80000000000007</ele><time>2026-04-01T11:59:12Z</time></trkpt><trkpt lat="45.724231207126266" lon="8.412705051261929"><ele>446.40000000000003</ele><time>2026-04-01T11:59:13Z</time></trkpt><trkpt lat="45.724328994736894" lon="8.412742768000527"><ele>447.0</ele><time>2026-04-01T11:59:14Z</time></trkpt><trkpt lat="45.724427196973885" lon="8.412815871703618"><ele>444.0</ele><time>2026-04-01T11:59:15Z</time></trkpt><trkpt lat="45.72451627262213" lon="8.412912168836668"><ele>441.00000000000006</ele><time>2026-04-01T11:59:16Z</time></trkpt><trkpt lat="45.724595191595874" lon="8.413010304673275"><ele>438.00000000000006</ele><time>2026-04-01T11:59:17Z</time></trkpt><trkpt lat="45.724660066287974" lon="8.41310005504315"><ele>435.0</ele><time>2026-04-01T11:59:18Z</time></trkpt><trkpt lat="45.724698739863385" lon="8.413197722527729"><ele>432.0</ele><time>2026-04-01T11:59:19Z</time></trkpt><trkpt lat="45.724731096925275" lon="8.413335534143176"><ele>432.0</ele><time>2026-04-01T11:59:20Z</time></trkpt><trkpt lat="45.72474536685984" lon="8.41348549908737"><ele>432.00000000000006</ele><time>2026-04-01T11:59:21Z</time></trkpt><trkpt lat="45.72474050650739" lon="8.4136246887598"><ele>432.00000000000006</ele><time>2026-04-01T11:59:22Z</time></trkpt><trkpt lat="45.724741735094504" lon="8.413761646859996"><ele>432.0</ele><time>2026-04-01T11:59:23Z</time></trkpt><trkpt lat="45.724739255263756" lon="8.413932756525945"><ele>432.0</ele><time>2026-04-01T11:59:24Z</time></trkpt><trkpt lat="45.7247373907411" lon="8.41411348262146"><ele>428.75</ele><time>2026-04-01T11:59:25Z</time></trkpt><trkpt lat="45.72471695382561" lon="8.41426113870832"><ele>425.5</ele><time>2026-04-01T11:59:26Z</time></trkpt><trkpt lat="45.72467395097903" lon="8.414431889320493"><ele>422.25</ele><time>2026-04-01T11:59:27Z</time></trkpt><trkpt lat="45.72465786639344" lon="8.414580656557602"><ele>419.0</ele><time>2026-04-01T11:59:28Z</time></trkpt><trkpt lat="45.72457560363637" lon="8.414743420357071"><ele>416.75</ele><time>2026-04-01T11:59:29Z</time></trkpt><trkpt lat="45.72447738290865" lon="8.414882473800523"><ele>414.5</ele><time>2026-04-01T11:59:30Z</time></trkpt><trkpt lat="45.72439088744722" lon="8.415012623232332"><ele>412.25</ele><time>2026-04-01T11:59:31Z</time></trkpt><trkpt lat="45.724292048585426" lon="8.415135640483035"><ele>410.0</ele><time>2026-04-01T11:59:32Z</time></trkpt><trkpt lat="45.72417701803181" lon="8.415254817896173"><ele>408.5</ele><time>2026-04-01T11:59:33Z</time></trkpt><trkpt lat="45.724083632192105" lon="8.415375609867915"><ele>407.0</ele><time>2026-04-01T11:59:34Z</time></trkpt><trkpt lat="45.724000879687416" lon="8.415483044753422"><ele>405.5</ele><time>2026-04-01T11:59:35Z</time></trkpt><trkpt lat="45.723889099540344" lon="8.415597605005766"><ele>404.0</ele><time>2026-04-01T11:59:36Z</time></trkpt><trkpt lat="45.72379211571858" lon="8.415704853316793"><ele>404.0</ele><time>2026-04-01T11:59:37Z</time></trkpt><trkpt lat="45.72369697052404" lon="8.415806289218711"><ele>404.0</ele><time>2026-04-01T11:59:38Z</time></trkpt><trkpt lat="45.72365076560239" lon="8.415920053037958"><ele>404.0</ele><time>2026-04-01T11:59:39Z</time></trkpt><trkpt lat="45.72360318827141" lon="8.41606682596495"><ele>404.0</ele><time>2026-04-01T11:59:40Z</time></trkpt><trkpt lat="45.72354558940008" lon="8.41619231055614"><ele>404.0</ele><time>2026-04-01T11:59:41Z</time></trkpt><trkpt lat="45.72350330423587" lon="8.41631361845691"><ele>405.2</ele><time>2026-04-01T11:59:42Z</time></trkpt><trkpt lat="45.72343271253121" lon="8.416411421423748"><ele>406.4</ele><time>2026-04-01T11:59:43Z</time></trkpt><trkpt lat="45.723347173967746" lon="8.416516955939949"><ele>407.6</ele><time>2026-04-01T11:59:44Z</time></trkpt><trkpt lat="45.7232662238182" lon="8.416625274864522"><ele>408.8</ele><time>2026-04-01T11:59:45Z</time></trkpt><trkpt lat="45.72321438200426" lon="8.416729548027082"><ele>410.0</ele><time>2026-04-01T11:59:46Z</time></trkpt><trkpt lat="45.72316748626622" lon="8.416868282288359"><ele>410.0</ele><time>2026-04-01T11:59:47Z</time></trkpt><trkpt lat="45.723124484661" lon="8.417023250815124"><ele>410.0</ele><time>2026-04-01T11:59:48Z</time></trkpt><trkpt lat="45.72307332509677" lon="8.417175922511847"><ele>410.0</ele><time>2026-04-01T11:59:49Z</time></trkpt><trkpt lat="45.72301482476792" lon="8.417312401004784"><ele>410.0</ele><time>2026-04-01T11:59:50Z</time></trkpt><trkpt lat="45.722962028333924" lon="8.417446669337485"><ele>407.16666666666663</ele><time>2026-04-01T11:59:51Z</time></trkpt><trkpt lat="45.7229038936765" lon="8.417574519780556"><ele>404.3333333333333</ele><time>2026-04-01T11:59:52Z</time></trkpt><trkpt lat="45.722866635516226" lon="8.417690756630769"><ele>401.5</ele><time>2026-04-01T11:59:53Z</time></trkpt><trkpt lat="45.722822908831105" lon="8.417807274906094"><ele>398.66666666666663</ele><time>2026-04-01T11:59:54Z</time></trkpt><trkpt lat="45.722793327331125" lon="8.417900456645487"><ele>395.8333333333333</ele><time>2026-04-01T11:59:55Z</time></trkpt><trkpt lat="45.72275325300223" lon="8.417986787315124"><ele>393.0</ele><time>2026-04-01T11:59:55.999Z</time></trkpt><trkpt lat="45.72266761631263" lon="8.418020654257221"><ele>393.0</ele><time>2026-04-01T11:59:56.999Z</time></trkpt><trkpt lat="45.722551294153426" lon="8.41805616257218"><ele>393.0</ele><time>2026-04-01T11:59:57.999Z</time></trkpt><trkpt lat="45.722425700946815" lon="8.418059950120497"><ele>393.0</ele><time>2026-04-01T11:59:58.999Z</time></trkpt><trkpt lat="45.72230106512785" lon="8.418064245993492"><ele>393.0</ele><time>2026-04-01T11:59:59.999Z</time></trkpt><trkpt lat="45.72214856007921" lon="8.418079438056116"><ele>393.0</ele><time>2026-04-01T12:00:00.999Z</time></trkpt><trkpt lat="45.7219869666314" lon="8.418100386614885"><ele>393.0</ele><time>2026-04-01T12:00:01.999Z</time></trkpt><trkpt lat="45.721794010827686" lon="8.418123734353513"><ele>393.0</ele><time>2026-04-01T12:00:02.999Z</time></trkpt><trkpt lat="45.72161053340204" lon="8.418151939898454"><ele>392.59999999999997</ele><time>2026-04-01T12:00:03.999Z</time></trkpt><trkpt lat="45.72146161803653" lon="8.418162835749941"><ele>392.2</ele><time>2026-04-01T12:00:04.999Z</time></trkpt><trkpt lat="45.721351641952815" lon="8.418166940133096"><ele>391.8</ele><time>2026-04-01T12:00:05.999Z</time></trkpt><trkpt lat="45.72126131882304" lon="8.418178319012176"><ele>391.4</ele><time>2026-04-01T12:00:06.999Z</time></trkpt><trkpt lat="45.7211852085271" lon="8.418228137560634"><ele>391.0</ele><time>2026-04-01T12:00:07.999Z</time></trkpt><trkpt lat="45.721126652001814" lon="8.418298080246334"><ele>391.0</ele><time>2026-04-01T12:00:08.999Z</time></trkpt><trkpt lat="45.72106889498696" lon="8.418372118288236"><ele>391.0</ele><time>2026-04-01T12:00:09.999Z</time></trkpt><trkpt lat="45.72104111386438" lon="8.418459696984838"><ele>391.0</ele><time>2026-04-01T12:00:10.999Z</time></trkpt><trkpt lat="45.72106477861072" lon="8.418570808689855"><ele>391.0</ele><time>2026-04-01T12:00:11.999Z</time></trkpt><trkpt lat="45.72108321089666" lon="8.418711750427503"><ele>391.0</ele><time>2026-04-01T12:00:12.999Z</time></trkpt><trkpt lat="45.7210955121317" lon="8.418889170970457"><ele>389.6</ele><time>2026-04-01T12:00:13.999Z</time></trkpt><trkpt lat="45.72109960358656" lon="8.419065567322546"><ele>388.20000000000005</ele><time>2026-04-01T12:00:14.999Z</time></trkpt><trkpt lat="45.72109967952175" lon="8.419234541548391"><ele>386.79999999999995</ele><time>2026-04-01T12:00:15.999Z</time></trkpt><trkpt lat="45.721105734307855" lon="8.419375902846857"><ele>385.4</ele><time>2026-04-01T12:00:16.999Z</time></trkpt><trkpt lat="45.72111613639459" lon="8.419485113534586"><ele>384.0</ele><time>2026-04-01T12:00:17.999Z</time></trkpt><trkpt lat="45.7211349730378" lon="8.419621325669493"><ele>382.3333333333333</ele><time>2026-04-01T12:00:18.999Z</time></trkpt><trkpt lat="45.721159967697965" lon="8.419737739731115"><ele>380.6666666666667</ele><time>2026-04-01T12:00:19.999Z</time></trkpt><trkpt lat="45.721201709833956" lon="8.419848095229682"><ele>379.0</ele><time>2026-04-01T12:00:20.999Z</time></trkpt><trkpt lat="45.721248976384715" lon="8.419938201441635"><ele>377.33333333333337</ele><time>2026-04-01T12:00:21.999Z</time></trkpt><trkpt lat="45.72133852266564" lon="8.420025293307889"><ele>375.6666666666667</ele><time>2026-04-01T12:00:22.999Z</time></trkpt><trkpt lat="45.72140108586475" lon="8.420081317360689"><ele>374.0</ele><time>2026-04-01T12:00:23.999Z</time></trkpt><trkpt lat="45.72145636703298" lon="8.420204127247533"><ele>374.0</ele><time>2026-04-01T12:00:24.999Z</time></trkpt><trkpt lat="45.72150026896265" lon="8.420277166650191"><ele>374.0</ele><time>2026-04-01T12:00:25.999Z</time></trkpt><trkpt lat="45.72159273217882" lon="8.420419421106063"><ele>374.0</ele><time>2026-04-01T12:00:26.999Z</time></trkpt><trkpt lat="45.72167861732341" lon="8.420500703389742"><ele>374.0</ele><time>2026-04-01T12:00:27.999Z</time></trkpt><trkpt lat="45.72174901368194" lon="8.420582810321816"><ele>374.0</ele><time>2026-04-01T12:00:28.999Z</time></trkpt><trkpt lat="45.72185732970544" lon="8.420640562572977"><ele>377.0</ele><time>2026-04-01T12:00:29.999Z</time></trkpt><trkpt lat="45.72199052757785" lon="8.42065254674159"><ele>380.0</ele><time>2026-04-01T12:00:30.999Z</time></trkpt><trkpt lat="45.7221293805332" lon="8.420614681924187"><ele>383.0</ele><time>2026-04-01T12:00:31.999Z</time></trkpt><trkpt lat="45.722271965733796" lon="8.420601848216021"><ele>386.0</ele><time>2026-04-01T12:00:32.999Z</time></trkpt><trkpt lat="45.72243177878082" lon="8.420580378863512"><ele>386.0</ele><time>2026-04-01T12:00:33.999Z</time></trkpt><trkpt lat="45.72259150505203" lon="8.420546573112997"><ele>386.0</ele><time>2026-04-01T12:00:34.999Z</time></trkpt><trkpt lat="45.72273227092369" lon="8.420499176319382"><ele>386.0</ele><time>2026-04-01T12:00:35.999Z</time></trkpt><trkpt lat="45.72289551269783" lon="8.420503221417997"><ele>383.0</ele><time>2026-04-01T12:00:36.999Z</time></trkpt><trkpt lat="45.72307418719689" lon="8.420492885719526"><ele>380.0</ele><time>2026-04-01T12:00:37.999Z</time></trkpt><trkpt lat="45.723221517964284" lon="8.420484629293473"><ele>377.0</ele><time>2026-04-01T12:00:38.999Z</time></trkpt><trkpt lat="45.723398034970224" lon="8.420459272269989"><ele>381.0</ele><time>2026-04-01T12:00:39.999Z</time></trkpt><trkpt lat="45.72357007273692" lon="8.42044672714423"><ele>385.0</ele><time>2026-04-01T12:00:40.999Z</time></trkpt><trkpt lat="45.72372539569771" lon="8.42043359498471"><ele>389.0</ele><time>2026-04-01T12:00:41.999Z</time></trkpt><trkpt lat="45.72387082937675" lon="8.420405671079639"><ele>389.0</ele><time>2026-04-01T12:00:42.999Z</time></trkpt><trkpt lat="45.724017521796604" lon="8.420385122084454"><ele>389.0</ele><time>2026-04-01T12:00:43.999Z</time></trkpt><trkpt lat="45.724155032202134" lon="8.420318743351732"><ele>389.0</ele><time>2026-04-01T12:00:44.999Z</time></trkpt><trkpt lat="45.72429520089016" lon="8.420249032092327"><ele>389.0</ele><time>2026-04-01T12:00:45.999Z</time></trkpt><trkpt lat="45.72441914313774" lon="8.420199362676456"><ele>392.6</ele><time>2026-04-01T12:00:46.999Z</time></trkpt><trkpt lat="45.72451882925083" lon="8.420157392263098"><ele>396.2</ele><time>2026-04-01T12:00:47.999Z</time></trkpt><trkpt lat="45.724611745283845" lon="8.420143386858888"><ele>399.8</ele><time>2026-04-01T12:00:48.999Z</time></trkpt><trkpt lat="45.724716958173346" lon="8.420143273012505"><ele>403.40000000000003</ele><time>2026-04-01T12:00:49.999Z</time></trkpt><trkpt lat="45.72484271766066" lon="8.42017992281813"><ele>407.0</ele><time>2026-04-01T12:00:50.999Z</time></trkpt><trkpt lat="45.72496640545947" lon="8.420217779742988"><ele>407.0</ele><time>2026-04-01T12:00:51.999Z</time></trkpt><trkpt lat="45.72507172039347" lon="8.420250574958033"><ele>407.0</ele><time>2026-04-01T12:00:52.999Z</time></trkpt><trkpt lat="45.725157343873484" lon="8.420290969380888"><ele>407.0</ele><time>2026-04-01T12:00:53.999Z</time></trkpt><trkpt lat="45.72523147837014" lon="8.420371933897872"><ele>407.0</ele><time>2026-04-01T12:00:54.999Z</time></trkpt><trkpt lat="45.725280259389436" lon="8.420455260465628"><ele>407.0</ele><time>2026-04-01T12:00:56.999Z</time></trkpt><trkpt lat="45.72532055406842" lon="8.420559436909448"><ele>409.25</ele><time>2026-04-01T12:00:57.999Z</time></trkpt><trkpt lat="45.7253685950011" lon="8.420689754721383"><ele>411.5</ele><time>2026-04-01T12:00:58.999Z</time></trkpt><trkpt lat="45.725391219539645" lon="8.420841301762172"><ele>413.75</ele><time>2026-04-01T12:00:59.999Z</time></trkpt><trkpt lat="45.725415421847494" lon="8.421020427840709"><ele>416.0</ele><time>2026-04-01T12:01:00.999Z</time></trkpt><trkpt lat="45.725423224945736" lon="8.42120168447914"><ele>413.75</ele><time>2026-04-01T12:01:01.999Z</time></trkpt><trkpt lat="45.72542234381253" lon="8.4213578994119"><ele>411.5</ele><time>2026-04-01T12:01:02.999Z</time></trkpt><trkpt lat="45.72547683674669" lon="8.421522157491575"><ele>409.25</ele><time>2026-04-01T12:01:03.999Z</time></trkpt><trkpt lat="45.72551026982051" lon="8.421674661122404"><ele>407.0</ele><time>2026-04-01T12:01:04.999Z</time></trkpt><trkpt lat="45.72558283263714" lon="8.421851787303721"><ele>407.0</ele><time>2026-04-01T12:01:05.999Z</time></trkpt><trkpt lat="45.725683952099" lon="8.421945434078955"><ele>407.0</ele><time>2026-04-01T12:01:06.999Z</time></trkpt><trkpt lat="45.7257608668799" lon="8.422069059963166"><ele>407.0</ele><time>2026-04-01T12:01:07.999Z</time></trkpt><trkpt lat="45.725827630803686" lon="8.422189961085168"><ele>407.0</ele><time>2026-04-01T12:01:09Z</time></trkpt><trkpt lat="45.72588993396401" lon="8.422324624093383"><ele>405.0</ele><time>2026-04-01T12:01:10Z</time></trkpt><trkpt lat="45.725951110160985" lon="8.42248275610441"><ele>403.0</ele><time>2026-04-01T12:01:11Z</time></trkpt><trkpt lat="45.7260022088384" lon="8.422600574964745"><ele>401.0</ele><time>2026-04-01T12:01:12Z</time></trkpt><trkpt lat="45.72604501863009" lon="8.422694430725963"><ele>399.0</ele><time>2026-04-01T12:01:13Z</time></trkpt><trkpt lat="45.72609674140831" lon="8.422807536449351"><ele>397.0</ele><time>2026-04-01T12:01:15Z</time></trkpt><trkpt lat="45.72618662895574" lon="8.422740271035694"><ele>396.40000000000003</ele><time>2026-04-01T12:01:18Z</time></trkpt><trkpt lat="45.726223674823935" lon="8.422659479974484"><ele>395.8</ele><time>2026-04-01T12:01:19Z</time></trkpt><trkpt lat="45.72630393338024" lon="8.422590066753612"><ele>395.2</ele><time>2026-04-01T12:01:20Z</time></trkpt><trkpt lat="45.72639838631449" lon="8.422488850655853"><ele>394.6</ele><time>2026-04-01T12:01:21Z</time></trkpt><trkpt lat="45.726511278662116" lon="8.422421351437295"><ele>394.0</ele><time>2026-04-01T12:01:22Z</time></trkpt><trkpt lat="45.72662224179814" lon="8.422355430377305"><ele>394.0</ele><time>2026-04-01T12:01:23Z</time></trkpt><trkpt lat="45.72674736332054" lon="8.422272649145475"><ele>394.0</ele><time>2026-04-01T12:01:24Z</time></trkpt><trkpt lat="45.72687483679776" lon="8.42220100138044"><ele>394.0</ele><time>2026-04-01T12:01:25Z</time></trkpt><trkpt lat="45.7270024105817" lon="8.422133253453902"><ele>394.0</ele><time>2026-04-01T12:01:26Z</time></trkpt><trkpt lat="45.72713141498834" lon="8.422052669441195"><ele>395.0</ele><time>2026-04-01T12:01:27Z</time></trkpt><trkpt lat="45.727266714260104" lon="8.421963772673024"><ele>396.0</ele><time>2026-04-01T12:01:28Z</time></trkpt><trkpt lat="45.727407856891865" lon="8.421871316307055"><ele>397.0</ele><time>2026-04-01T12:01:29Z</time></trkpt><trkpt lat="45.72755425383201" lon="8.421783291393055"><ele>397.0</ele><time>2026-04-01T12:01:30Z</time></trkpt><trkpt lat="45.72768921624397" lon="8.42168263802224"><ele>397.0</ele><time>2026-04-01T12:01:31Z</time></trkpt><trkpt lat="45.72782941049387" lon="8.421577586295381"><ele>397.0</ele><time>2026-04-01T12:01:32Z</time></trkpt><trkpt lat="45.72796124559762" lon="8.42147048765355"><ele>396.0</ele><time>2026-04-01T12:01:33Z</time></trkpt><trkpt lat="45.72809631981672" lon="8.42137705390831"><ele>395.0</ele><time>2026-04-01T12:01:34Z</time></trkpt><trkpt lat="45.72824679341548" lon="8.421314928213649"><ele>394.0</ele><time>2026-04-01T12:01:35Z</time></trkpt><trkpt lat="45.72838706848855" lon="8.42126714283845"><ele>393.5</ele><time>2026-04-01T12:01:36Z</time></trkpt><trkpt lat="45.728519323776645" lon="8.421220104146206"><ele>393.0</ele><time>2026-04-01T12:01:37Z</time></trkpt><trkpt lat="45.728634803696416" lon="8.421174220681197"><ele>392.5</ele><time>2026-04-01T12:01:38Z</time></trkpt><trkpt lat="45.72874721967142" lon="8.421113518371076"><ele>392.0</ele><time>2026-04-01T12:01:39Z</time></trkpt><trkpt lat="45.72884589425615" lon="8.421054402443433"><ele>391.99999999999994</ele><time>2026-04-01T12:01:40Z</time></trkpt><trkpt lat="45.72895350464916" lon="8.421003427926015"><ele>392.0</ele><time>2026-04-01T12:01:41Z</time></trkpt><trkpt lat="45.729037912700576" lon="8.421006888540798"><ele>392.0</ele><time>2026-04-01T12:01:42Z</time></trkpt><trkpt lat="45.72910324705177" lon="8.421042544559713"><ele>392.0</ele><time>2026-04-01T12:01:43Z</time></trkpt><trkpt lat="45.729174705266836" lon="8.421118611072519"><ele>391.99999999999994</ele><time>2026-04-01T12:01:44Z</time></trkpt><trkpt lat="45.7292324712475" lon="8.42118272529127"><ele>392.0</ele><time>2026-04-01T12:01:45Z</time></trkpt><trkpt lat="45.729298669795156" lon="8.421235629821133"><ele>392.40000000000003</ele><time>2026-04-01T12:01:46Z</time></trkpt><trkpt lat="45.729354169928705" lon="8.421327111984816"><ele>392.8</ele><time>2026-04-01T12:01:48Z</time></trkpt><trkpt lat="45.72941388982844" lon="8.421365035515828"><ele>393.2</ele><time>2026-04-01T12:01:50Z</time></trkpt><trkpt lat="45.72955595689884" lon="8.421304531149067"><ele>393.6</ele><time>2026-04-01T12:01:52Z</time></trkpt><trkpt lat="45.729654988233676" lon="8.421253236219068"><ele>394.0</ele><time>2026-04-01T12:01:53Z</time></trkpt><trkpt lat="45.72976769091753" lon="8.421193249762219"><ele>392.2</ele><time>2026-04-01T12:01:54Z</time></trkpt><trkpt lat="45.72985245140319" lon="8.421132950053835"><ele>390.4</ele><time>2026-04-01T12:01:55Z</time></trkpt><trkpt lat="45.72995355803381" lon="8.421066680825916"><ele>388.6</ele><time>2026-04-01T12:01:56Z</time></trkpt><trkpt lat="45.730058656597585" lon="8.420972465910076"><ele>386.8</ele><time>2026-04-01T12:01:57Z</time></trkpt><trkpt lat="45.73015075297248" lon="8.42086491151865"><ele>385.0</ele><time>2026-04-01T12:01:58Z</time></trkpt><trkpt lat="45.73022090038398" lon="8.420761589950684"><ele>385.1666666666667</ele><time>2026-04-01T12:01:59Z</time></trkpt><trkpt lat="45.73027546423079" lon="8.420662764317829"><ele>385.33333333333337</ele><time>2026-04-01T12:02:00Z</time></trkpt><trkpt lat="45.730310188676896" lon="8.420572533918207"><ele>385.5</ele><time>2026-04-01T12:02:01Z</time></trkpt><trkpt lat="45.73035155470368" lon="8.420463817272141"><ele>385.66666666666663</ele><time>2026-04-01T12:02:02Z</time></trkpt><trkpt lat="45.73041606868147" lon="8.420429478548117"><ele>385.8333333333333</ele><time>2026-04-01T12:02:03Z</time></trkpt><trkpt lat="45.730494942977884" lon="8.420417769446997"><ele>386.0</ele><time>2026-04-01T12:02:04Z</time></trkpt><trkpt lat="45.73058711107584" lon="8.420446686530227"><ele>387.20000000000005</ele><time>2026-04-01T12:02:05Z</time></trkpt><trkpt lat="45.73067659982532" lon="8.420488356315646"><ele>388.40000000000003</ele><time>2026-04-01T12:02:06Z</time></trkpt><trkpt lat="45.73077314769858" lon="8.420531418760303"><ele>389.6</ele><time>2026-04-01T12:02:07Z</time></trkpt><trkpt lat="45.73086430498019" lon="8.420572966153244"><ele>390.8</ele><time>2026-04-01T12:02:08Z</time></trkpt><trkpt lat="45.73095960682191" lon="8.420587240760865"><ele>392.0</ele><time>2026-04-01T12:02:09Z</time></trkpt><trkpt lat="45.73106947763752" lon="8.420603653223461"><ele>392.8333333333333</ele><time>2026-04-01T12:02:09.999Z</time></trkpt><trkpt lat="45.731160031209036" lon="8.420633364302436"><ele>393.66666666666663</ele><time>2026-04-01T12:02:10.999Z</time></trkpt><trkpt lat="45.73123333168893" lon="8.420671503241257"><ele>394.5</ele><time>2026-04-01T12:02:11.999Z</time></trkpt><trkpt lat="45.73124335763726" lon="8.42083252799164"><ele>395.33333333333337</ele><time>2026-04-01T12:02:13.999Z</time></trkpt><trkpt lat="45.73121705026397" lon="8.420965294243848"><ele>396.1666666666667</ele><time>2026-04-01T12:02:15.999Z</time></trkpt><trkpt lat="45.731187243256564" lon="8.421052894447582"><ele>397.0</ele><time>2026-04-01T12:02:16.999Z</time></trkpt><trkpt lat="45.73110359885726" lon="8.421168388201522"><ele>397.75</ele><time>2026-04-01T12:02:17.999Z</time></trkpt><trkpt lat="45.73101904486601" lon="8.421302331922874"><ele>398.5</ele><time>2026-04-01T12:02:18.999Z</time></trkpt><trkpt lat="45.73095755722743" lon="8.421457697054976"><ele>399.25</ele><time>2026-04-01T12:02:19.999Z</time></trkpt><trkpt lat="45.73092859116311" lon="8.421620897741034"><ele>400.0</ele><time>2026-04-01T12:02:20.999Z</time></trkpt><trkpt lat="45.73091628829012" lon="8.421777311547023"><ele>400.0</ele><time>2026-04-01T12:02:21.999Z</time></trkpt><trkpt lat="45.730981779326" lon="8.421886208458213"><ele>400.0</ele><time>2026-04-01T12:02:22.999Z</time></trkpt><trkpt lat="45.73103819346441" lon="8.421975970045017"><ele>400.0</ele><time>2026-04-01T12:02:23.999Z</time></trkpt><trkpt lat="45.73115142105128" lon="8.42205138438406"><ele>400.0</ele><time>2026-04-01T12:02:24.999Z</time></trkpt><trkpt lat="45.731239186322235" lon="8.422114541423753"><ele>400.0</ele><time>2026-04-01T12:02:25.999Z</time></trkpt><trkpt lat="45.731305237945975" lon="8.422202524890048"><ele>400.75</ele><time>2026-04-01T12:02:26.999Z</time></trkpt><trkpt lat="45.73134217049363" lon="8.42233294512819"><ele>401.5</ele><time>2026-04-01T12:02:27.999Z</time></trkpt><trkpt lat="45.73138514668055" lon="8.422507520332054"><ele>402.25</ele><time>2026-04-01T12:02:28.999Z</time></trkpt><trkpt lat="45.73143219877545" lon="8.422692640726206"><ele>403.0</ele><time>2026-04-01T12:02:29.999Z</time></trkpt><trkpt lat="45.73148863257274" lon="8.422835554062527"><ele>403.0</ele><time>2026-04-01T12:02:30.999Z</time></trkpt><trkpt lat="45.73156825087742" lon="8.422993032871233"><ele>403.0</ele><time>2026-04-01T12:02:31.999Z</time></trkpt><trkpt lat="45.73162928069752" lon="8.423113918581336"><ele>403.0</ele><time>2026-04-01T12:02:32.999Z</time></trkpt><trkpt lat="45.73168480484654" lon="8.42323023800246"><ele>403.0</ele><time>2026-04-01T12:02:33.999Z</time></trkpt><trkpt lat="45.73175054193353" lon="8.423348695123632"><ele>403.0</ele><time>2026-04-01T12:02:34.999Z</time></trkpt><trkpt lat="45.73181959309186" lon="8.423462611367556"><ele>403.1666666666667</ele><time>2026-04-01T12:02:35.999Z</time></trkpt><trkpt lat="45.73189415626048" lon="8.423544817025393"><ele>403.33333333333337</ele><time>2026-04-01T12:02:36.999Z</time></trkpt><trkpt lat="45.73196302292009" lon="8.423613033885937"><ele>403.5</ele><time>2026-04-01T12:02:37.999Z</time></trkpt><trkpt lat="45.73201792093397" lon="8.42367772922136"><ele>403.66666666666663</ele><time>2026-04-01T12:02:38.999Z</time></trkpt><trkpt lat="45.73207626575022" lon="8.423768733591018"><ele>403.8333333333333</ele><time>2026-04-01T12:02:40.999Z</time></trkpt><trkpt lat="45.73216519945233" lon="8.42372488055006"><ele>404.0</ele><time>2026-04-01T12:02:42.999Z</time></trkpt><trkpt lat="45.73220983669609" lon="8.423653290594386"><ele>404.0</ele><time>2026-04-01T12:02:43.999Z</time></trkpt><trkpt lat="45.73226511559965" lon="8.423557336429678"><ele>404.0</ele><time>2026-04-01T12:02:44.999Z</time></trkpt><trkpt lat="45.73234599156498" lon="8.423475850248458"><ele>404.0</ele><time>2026-04-01T12:02:45.999Z</time></trkpt><trkpt lat="45.73244081711356" lon="8.423389699283439"><ele>404.0</ele><time>2026-04-01T12:02:46.999Z</time></trkpt><trkpt lat="45.73254616988844" lon="8.423291960906798"><ele>404.0</ele><time>2026-04-01T12:02:47.999Z</time></trkpt><trkpt lat="45.73264489320194" lon="8.423192663109095"><ele>404.75</ele><time>2026-04-01T12:02:48.999Z</time></trkpt><trkpt lat="45.732769970811916" lon="8.423096589658972"><ele>405.5</ele><time>2026-04-01T12:02:49.999Z</time></trkpt><trkpt lat="45.7328933500295" lon="8.422987764931646"><ele>406.25</ele><time>2026-04-01T12:02:50.999Z</time></trkpt><trkpt lat="45.73301573488991" lon="8.422862808114212"><ele>407.0</ele><time>2026-04-01T12:02:51.999Z</time></trkpt><trkpt lat="45.73312083664036" lon="8.42271271071652"><ele>407.0</ele><time>2026-04-01T12:02:52.999Z</time></trkpt><trkpt lat="45.73320527309746" lon="8.422546327846518"><ele>407.0</ele><time>2026-04-01T12:02:53.999Z</time></trkpt><trkpt lat="45.73326863816725" lon="8.422339474895995"><ele>407.0</ele><time>2026-04-01T12:02:54.999Z</time></trkpt><trkpt lat="45.73334869257075" lon="8.422167359773285"><ele>407.0</ele><time>2026-04-01T12:02:55.999Z</time></trkpt><trkpt lat="45.733437980825165" lon="8.422034862368664"><ele>406.75</ele><time>2026-04-01T12:02:56.999Z</time></trkpt><trkpt lat="45.733539363846646" lon="8.421927371972032"><ele>406.5</ele><time>2026-04-01T12:02:57.999Z</time></trkpt><trkpt lat="45.73365321757831" lon="8.421844108251078"><ele>406.25</ele><time>2026-04-01T12:02:58.999Z</time></trkpt><trkpt lat="45.73378020831028" lon="8.421778702660957"><ele>406.0</ele><time>2026-04-01T12:02:59.999Z</time></trkpt><trkpt lat="45.733899958618366" lon="8.42173933309642"><ele>405.75</ele><time>2026-04-01T12:03:00.999Z</time></trkpt><trkpt lat="45.73402569749353" lon="8.421734482920783"><ele>405.5</ele><time>2026-04-01T12:03:01.999Z</time></trkpt><trkpt lat="45.734169096448824" lon="8.421787834192036"><ele>405.25</ele><time>2026-04-01T12:03:02.999Z</time></trkpt><trkpt lat="45.73432078147574" lon="8.421824120448553"><ele>405.0</ele><time>2026-04-01T12:03:03.999Z</time></trkpt><trkpt lat="45.73449631206873" lon="8.421871311093273"><ele>405.0</ele><time>2026-04-01T12:03:04.999Z</time></trkpt><trkpt lat="45.73467045902674" lon="8.421892532083932"><ele>405.0</ele><time>2026-04-01T12:03:05.999Z</time></trkpt><trkpt lat="45.73485363927069" lon="8.421905257432467"><ele>405.0</ele><time>2026-04-01T12:03:06.999Z</time></trkpt><trkpt lat="45.73501721370524" lon="8.421928573798073"><ele>405.0</ele><time>2026-04-01T12:03:07.999Z</time></trkpt><trkpt lat="45.73517364679216" lon="8.421942820339673"><ele>405.0</ele><time>2026-04-01T12:03:08.999Z</time></trkpt><trkpt lat="45.73531510977532" lon="8.421964930838437"><ele>405.0</ele><time>2026-04-01T12:03:09.999Z</time></trkpt><trkpt lat="45.73545380560759" lon="8.421967074663991"><ele>405.0</ele><time>2026-04-01T12:03:10.999Z</time></trkpt><trkpt lat="45.735582951655836" lon="8.42192778258656"><ele>403.75</ele><time>2026-04-01T12:03:11.999Z</time></trkpt><trkpt lat="45.735699964375044" lon="8.421872743077447"><ele>402.5</ele><time>2026-04-01T12:03:12.999Z</time></trkpt><trkpt lat="45.73579820334014" lon="8.421731017775548"><ele>401.25</ele><time>2026-04-01T12:03:13.999Z</time></trkpt><trkpt lat="45.73587032873694" lon="8.421614401050679"><ele>400.0</ele><time>2026-04-01T12:03:15Z</time></trkpt><trkpt lat="45.73590031624741" lon="8.421501579494583"><ele>400.0</ele><time>2026-04-01T12:03:16Z</time></trkpt><trkpt lat="45.7359229411406" lon="8.421358576368334"><ele>400.0</ele><time>2026-04-01T12:03:17Z</time></trkpt><trkpt lat="45.7360118422841" lon="8.421311134423805"><ele>400.0</ele><time>2026-04-01T12:03:19Z</time></trkpt><trkpt lat="45.736053803788856" lon="8.421447959002906"><ele>400.0</ele><time>2026-04-01T12:03:21Z</time></trkpt><trkpt lat="45.736062177170055" lon="8.421637413668769"><ele>400.0</ele><time>2026-04-01T12:03:22Z</time></trkpt><trkpt lat="45.73604696329519" lon="8.421815892539803"><ele>400.0</ele><time>2026-04-01T12:03:23Z</time></trkpt><trkpt lat="45.7360220280049" lon="8.422004425016103"><ele>400.0</ele><time>2026-04-01T12:03:24Z</time></trkpt><trkpt lat="45.73598390992848" lon="8.422202081708424"><ele>400.0</ele><time>2026-04-01T12:03:25Z</time></trkpt><trkpt lat="45.735910783383744" lon="8.422400694628402"><ele>400.0</ele><time>2026-04-01T12:03:26Z</time></trkpt><trkpt lat="45.73581721743473" lon="8.422624378692705"><ele>398.33333333333337</ele><time>2026-04-01T12:03:27Z</time></trkpt><trkpt lat="45.7357100642339" lon="8.42284298192026"><ele>396.66666666666663</ele><time>2026-04-01T12:03:28Z</time></trkpt><trkpt lat="45.735595880704324" lon="8.423077504785724"><ele>395.0</ele><time>2026-04-01T12:03:29Z</time></trkpt><trkpt lat="45.73549692259318" lon="8.42331138530242"><ele>392.3333333333333</ele><time>2026-04-01T12:03:30Z</time></trkpt><trkpt lat="45.73539727723634" lon="8.423543443621806"><ele>389.66666666666663</ele><time>2026-04-01T12:03:31Z</time></trkpt><trkpt lat="45.73518548121371" lon="8.423721176860708"><ele>387.0</ele><time>2026-04-01T12:03:32Z</time></trkpt><trkpt lat="45.73507111182454" lon="8.423975163132747"><ele>387.0</ele><time>2026-04-01T12:03:33Z</time></trkpt><trkpt lat="45.73495437467667" lon="8.424232689588095"><ele>387.0</ele><time>2026-04-01T12:03:34Z</time></trkpt><trkpt lat="45.734851586645746" lon="8.424457101177476"><ele>387.0</ele><time>2026-04-01T12:03:35Z</time></trkpt><trkpt lat="45.73475254153212" lon="8.424679032062604"><ele>381.0</ele><time>2026-04-01T12:03:36Z</time></trkpt><trkpt lat="45.73464613091114" lon="8.424972227267435"><ele>375.0</ele><time>2026-04-01T12:03:37Z</time></trkpt><trkpt lat="45.73456426987953" lon="8.425240529063203"><ele>369.0</ele><time>2026-04-01T12:03:38Z</time></trkpt><trkpt lat="45.73447933288037" lon="8.425518912382213"><ele>365.3333333333333</ele><time>2026-04-01T12:03:39Z</time></trkpt><trkpt lat="45.73440065709256" lon="8.425775474207398"><ele>361.66666666666663</ele><time>2026-04-01T12:03:40Z</time></trkpt><trkpt lat="45.73432414066568" lon="8.426018846076571"><ele>358.0</ele><time>2026-04-01T12:03:41Z</time></trkpt><trkpt lat="45.73424449283292" lon="8.426272177802225"><ele>362.0</ele><time>2026-04-01T12:03:42Z</time></trkpt><trkpt lat="45.73417470610607" lon="8.42649689973485"><ele>366.0</ele><time>2026-04-01T12:03:43Z</time></trkpt><trkpt lat="45.73409868054349" lon="8.426746376799702"><ele>370.0</ele><time>2026-04-01T12:03:44Z</time></trkpt><trkpt lat="45.734031764334695" lon="8.426964977101992"><ele>366.66666666666663</ele><time>2026-04-01T12:03:45Z</time></trkpt><trkpt lat="45.73396712376167" lon="8.427180988388086"><ele>363.3333333333333</ele><time>2026-04-01T12:03:46Z</time></trkpt><trkpt lat="45.733903454402274" lon="8.427395043452458"><ele>360.0</ele><time>2026-04-01T12:03:47Z</time></trkpt><trkpt lat="45.73386356161118" lon="8.427592643431893"><ele>360.0</ele><time>2026-04-01T12:03:48Z</time></trkpt><trkpt lat="45.73382431648576" lon="8.427754401607187"><ele>360.0</ele><time>2026-04-01T12:03:49Z</time></trkpt><trkpt lat="45.733811990537035" lon="8.42790523534831"><ele>360.0</ele><time>2026-04-01T12:03:50Z</time></trkpt><trkpt lat="45.733838908984936" lon="8.428016131618737"><ele>360.0</ele><time>2026-04-01T12:03:51Z</time></trkpt><trkpt lat="45.7338882123192" lon="8.428126756735168"><ele>360.0</ele><time>2026-04-01T12:03:52Z</time></trkpt><trkpt lat="45.7339578578364" lon="8.428250614217738"><ele>358.0</ele><time>2026-04-01T12:03:53Z</time></trkpt><trkpt lat="45.734043032660445" lon="8.428398170289086"><ele>356.0</ele><time>2026-04-01T12:03:54Z</time></trkpt><trkpt lat="45.73413778523975" lon="8.428561543530908"><ele>354.0</ele><time>2026-04-01T12:03:55Z</time></trkpt><trkpt lat="45.734227253686925" lon="8.428716745615992"><ele>352.0</ele><time>2026-04-01T12:03:56Z</time></trkpt><trkpt lat="45.73431167601351" lon="8.428890625469283"><ele>353.66666666666663</ele><time>2026-04-01T12:03:57Z</time></trkpt><trkpt lat="45.73442038822745" lon="8.429050305954954"><ele>355.3333333333333</ele><time>2026-04-01T12:03:58Z</time></trkpt><trkpt lat="45.734550543496624" lon="8.429209881828823"><ele>357.0</ele><time>2026-04-01T12:03:59Z</time></trkpt><trkpt lat="45.73468762565431" lon="8.429369388903856"><ele>357.0</ele><time>2026-04-01T12:04:00Z</time></trkpt><trkpt lat="45.73482713717461" lon="8.429517124569736"><ele>357.0</ele><time>2026-04-01T12:04:01Z</time></trkpt><trkpt lat="45.734966248662815" lon="8.429656792239175"><ele>357.0</ele><time>2026-04-01T12:04:02Z</time></trkpt><trkpt lat="45.73512255335226" lon="8.42977364669441"><ele>357.3333333333333</ele><time>2026-04-01T12:04:03Z</time></trkpt><trkpt lat="45.735293346053545" lon="8.429879044969113"><ele>357.66666666666663</ele><time>2026-04-01T12:04:04Z</time></trkpt><trkpt lat="45.73545933342413" lon="8.429960235666258"><ele>358.0</ele><time>2026-04-01T12:04:05Z</time></trkpt><trkpt lat="45.73562814454958" lon="8.430024658104305"><ele>358.0</ele><time>2026-04-01T12:04:06Z</time></trkpt><trkpt lat="45.735797782049026" lon="8.430093383302928"><ele>358.0</ele><time>2026-04-01T12:04:07Z</time></trkpt><trkpt lat="45.73597920280807" lon="8.430161079687583"><ele>358.0</ele><time>2026-04-01T12:04:07.999Z</time></trkpt><trkpt lat="45.73615172710608" lon="8.430248234377304"><ele>357.0</ele><time>2026-04-01T12:04:08.999Z</time></trkpt><trkpt lat="45.736321160415656" lon="8.430365838219462"><ele>356.0</ele><time>2026-04-01T12:04:09.999Z</time></trkpt><trkpt lat="45.736488387531985" lon="8.430492883338665"><ele>355.0</ele><time>2026-04-01T12:04:10.999Z</time></trkpt><trkpt lat="45.736655160268604" lon="8.430615899242092"><ele>355.0</ele><time>2026-04-01T12:04:11.999Z</time></trkpt><trkpt lat="45.73682329939811" lon="8.430729247998595"><ele>355.0</ele><time>2026-04-01T12:04:12.999Z</time></trkpt><trkpt lat="45.73699147809481" lon="8.430846177797838"><ele>355.0</ele><time>2026-04-01T12:04:13.999Z</time></trkpt><trkpt lat="45.737143016609444" lon="8.430931250544253"><ele>358.0</ele><time>2026-04-01T12:04:14.999Z</time></trkpt><trkpt lat="45.73729152873073" lon="8.431019356329783"><ele>361.0</ele><time>2026-04-01T12:04:15.999Z</time></trkpt><trkpt lat="45.73742388092907" lon="8.431093397940806"><ele>364.0</ele><time>2026-04-01T12:04:16.999Z</time></trkpt><trkpt lat="45.73755567383231" lon="8.431182718141848"><ele>367.0</ele><time>2026-04-01T12:04:17.999Z</time></trkpt><trkpt lat="45.73767625194576" lon="8.431247781537325"><ele>367.20000000000005</ele><time>2026-04-01T12:04:18.999Z</time></trkpt><trkpt lat="45.737789114225464" lon="8.43129722468138"><ele>367.4</ele><time>2026-04-01T12:04:19.999Z</time></trkpt><trkpt lat="45.7378940352054" lon="8.431355606509202"><ele>367.6</ele><time>2026-04-01T12:04:20.999Z</time></trkpt><trkpt lat="45.73799371220455" lon="8.431422524273481"><ele>367.79999999999995</ele><time>2026-04-01T12:04:21.999Z</time></trkpt><trkpt lat="45.73805378617191" lon="8.431477968967618"><ele>368.0</ele><time>2026-04-01T12:04:22.999Z</time></trkpt><trkpt lat="45.738134691346936" lon="8.431511885490133"><ele>365.0</ele><time>2026-04-01T12:04:25.999Z</time></trkpt><trkpt lat="45.73809031258751" lon="8.431641693959687"><ele>362.0</ele><time>2026-04-01T12:04:26.999Z</time></trkpt><trkpt lat="45.73812529183009" lon="8.431868558075823"><ele>359.0</ele><time>2026-04-01T12:04:28.999Z</time></trkpt><trkpt lat="45.73810814436486" lon="8.432007417460433"><ele>356.0</ele><time>2026-04-01T12:04:29.999Z</time></trkpt><trkpt lat="45.73804792013251" lon="8.432124650721011"><ele>354.5</ele><time>2026-04-01T12:04:30.999Z</time></trkpt><trkpt lat="45.73798568163847" lon="8.432242303735801"><ele>353.0</ele><time>2026-04-01T12:04:31.999Z</time></trkpt><trkpt lat="45.737911044427726" lon="8.43238563556358"><ele>351.5</ele><time>2026-04-01T12:04:32.999Z</time></trkpt><trkpt lat="45.737830370457075" lon="8.432540560261023"><ele>350.0</ele><time>2026-04-01T12:04:33.999Z</time></trkpt><trkpt lat="45.73774030282338" lon="8.432713524366784"><ele>350.0</ele><time>2026-04-01T12:04:34.999Z</time></trkpt><trkpt lat="45.73765814119802" lon="8.432908536895564"><ele>350.0</ele><time>2026-04-01T12:04:35.999Z</time></trkpt><trkpt lat="45.73754572549118" lon="8.433088744610249"><ele>350.0</ele><time>2026-04-01T12:04:36.999Z</time></trkpt><trkpt lat="45.73743441807886" lon="8.433270233202832"><ele>350.0</ele><time>2026-04-01T12:04:37.999Z</time></trkpt><trkpt lat="45.73731643841693" lon="8.433470705235237"><ele>350.0</ele><time>2026-04-01T12:04:38.999Z</time></trkpt><trkpt lat="45.73719097057623" lon="8.433661369949105"><ele>350.0</ele><time>2026-04-01T12:04:39.999Z</time></trkpt><trkpt lat="45.73706531864528" lon="8.433867459472957"><ele>349.33333333333337</ele><time>2026-04-01T12:04:40.999Z</time></trkpt><trkpt lat="45.73694564609884" lon="8.434059207808312"><ele>348.6666666666667</ele><time>2026-04-01T12:04:41.999Z</time></trkpt><trkpt lat="45.736824981387464" lon="8.434251262359957"><ele>348.0</ele><time>2026-04-01T12:04:42.999Z</time></trkpt><trkpt lat="45.73671248983491" lon="8.434445073440347"><ele>347.6666666666667</ele><time>2026-04-01T12:04:43.999Z</time></trkpt><trkpt lat="45.73660806661087" lon="8.434618342738638"><ele>347.33333333333337</ele><time>2026-04-01T12:04:44.999Z</time></trkpt><trkpt lat="45.736507700753" lon="8.434791021134279"><ele>347.0</ele><time>2026-04-01T12:04:45.999Z</time></trkpt><trkpt lat="45.73643110835882" lon="8.434948183605096"><ele>346.75</ele><time>2026-04-01T12:04:46.999Z</time></trkpt><trkpt lat="45.7363697294765" lon="8.435122273975445"><ele>346.5</ele><time>2026-04-01T12:04:47.999Z</time></trkpt><trkpt lat="45.73631773191266" lon="8.435316779965094"><ele>346.25</ele><time>2026-04-01T12:04:48.999Z</time></trkpt><trkpt lat="45.73628289703475" lon="8.435516440450881"><ele>346.0</ele><time>2026-04-01T12:04:49.999Z</time></trkpt><trkpt lat="45.736254285952676" lon="8.43572721893328"><ele>345.75</ele><time>2026-04-01T12:04:50.999Z</time></trkpt><trkpt lat="45.73621943793188" lon="8.43593736804273"><ele>345.5</ele><time>2026-04-01T12:04:51.999Z</time></trkpt><trkpt lat="45.73619146319879" lon="8.436145602093758"><ele>345.25</ele><time>2026-04-01T12:04:52.999Z</time></trkpt><trkpt lat="45.73616846488774" lon="8.4363412866783"><ele>345.0</ele><time>2026-04-01T12:04:53.999Z</time></trkpt><trkpt lat="45.73613912972415" lon="8.436524832698815"><ele>345.0</ele><time>2026-04-01T12:04:54.999Z</time></trkpt><trkpt lat="45.736085549244095" lon="8.43668603932651"><ele>345.0</ele><time>2026-04-01T12:04:55.999Z</time></trkpt><trkpt lat="45.73607293143448" lon="8.436862127725222"><ele>345.0</ele><time>2026-04-01T12:04:56.999Z</time></trkpt><trkpt lat="45.73603880973856" lon="8.437003905132102"><ele>345.0</ele><time>2026-04-01T12:04:57.999Z</time></trkpt><trkpt lat="45.73601105187958" lon="8.43712777123482"><ele>345.0</ele><time>2026-04-01T12:04:58.999Z</time></trkpt><trkpt lat="45.73601200258309" lon="8.437223738438751"><ele>345.0</ele><time>2026-04-01T12:04:59.999Z</time></trkpt><trkpt lat="45.73591718421015" lon="8.437304692877476"><ele>345.0</ele><time>2026-04-01T12:05:00.999Z</time></trkpt><trkpt lat="45.73586278130081" lon="8.437407631737338"><ele>345.0</ele><time>2026-04-01T12:05:01.999Z</time></trkpt><trkpt lat="45.735840395739864" lon="8.437518007771303"><ele>345.0</ele><time>2026-04-01T12:05:02.999Z</time></trkpt><trkpt lat="45.73585028385621" lon="8.437641624707148"><ele>345.0</ele><time>2026-04-01T12:05:03.999Z</time></trkpt><trkpt lat="45.735868162166284" lon="8.437769035816423"><ele>345.0</ele><time>2026-04-01T12:05:04.999Z</time></trkpt><trkpt lat="45.735872286028574" lon="8.437887342930686"><ele>345.0</ele><time>2026-04-01T12:05:05.999Z</time></trkpt><trkpt lat="45.73585081085842" lon="8.43801651377243"><ele>345.0</ele><time>2026-04-01T12:05:06.999Z</time></trkpt><trkpt lat="45.73582427643497" lon="8.438152834475733"><ele>345.0</ele><time>2026-04-01T12:05:07.999Z</time></trkpt><trkpt lat="45.73580622121605" lon="8.438295436260093"><ele>345.0</ele><time>2026-04-01T12:05:08.999Z</time></trkpt><trkpt lat="45.73579358097032" lon="8.438446901566234"><ele>345.25</ele><time>2026-04-01T12:05:09.999Z</time></trkpt><trkpt lat="45.735782353790704" lon="8.438600445206001"><ele>345.5</ele><time>2026-04-01T12:05:10.999Z</time></trkpt><trkpt lat="45.73575092811711" lon="8.43876658913031"><ele>345.75</ele><time>2026-04-01T12:05:11.999Z</time></trkpt><trkpt lat="45.73576231426841" lon="8.438954358709726"><ele>346.0</ele><time>2026-04-01T12:05:12.999Z</time></trkpt><trkpt lat="45.735748170616446" lon="8.439140468733763"><ele>346.0</ele><time>2026-04-01T12:05:13.999Z</time></trkpt><trkpt lat="45.73573170555788" lon="8.439315105294058"><ele>346.0</ele><time>2026-04-01T12:05:14.999Z</time></trkpt><trkpt lat="45.735722399019906" lon="8.439473358595285"><ele>346.0</ele><time>2026-04-01T12:05:15.999Z</time></trkpt><trkpt lat="45.73568568525004" lon="8.439608475277902"><ele>346.0</ele><time>2026-04-01T12:05:16.999Z</time></trkpt><trkpt lat="45.735677880889156" lon="8.439733695399873"><ele>346.0</ele><time>2026-04-01T12:05:17.999Z</time></trkpt><trkpt lat="45.7356728178195" lon="8.439830581967865"><ele>345.8333333333333</ele><time>2026-04-01T12:05:18.999Z</time></trkpt><trkpt lat="45.73567871655582" lon="8.439960506229083"><ele>345.66666666666663</ele><time>2026-04-01T12:05:21Z</time></trkpt><trkpt lat="45.735628812098206" lon="8.440049257033248"><ele>345.5</ele><time>2026-04-01T12:05:23Z</time></trkpt><trkpt lat="45.735563007724245" lon="8.440059140361324"><ele>345.3333333333333</ele><time>2026-04-01T12:05:24Z</time></trkpt><trkpt lat="45.73550962601205" lon="8.440113087078874"><ele>345.1666666666667</ele><time>2026-04-01T12:05:25Z</time></trkpt><trkpt lat="45.73546737210537" lon="8.440214243795808"><ele>345.0</ele><time>2026-04-01T12:05:26Z</time></trkpt><trkpt lat="45.73546526576886" lon="8.440329163568906"><ele>345.0</ele><time>2026-04-01T12:05:27Z</time></trkpt><trkpt lat="45.73549159121865" lon="8.440415215052026"><ele>345.0</ele><time>2026-04-01T12:05:28Z</time></trkpt><trkpt lat="45.735548266161274" lon="8.440459525578369"><ele>345.0</ele><time>2026-04-01T12:05:29Z</time></trkpt><trkpt lat="45.73561082887041" lon="8.44048476388716"><ele>345.0</ele><time>2026-04-01T12:05:30Z</time></trkpt><trkpt lat="45.7356800746615" lon="8.440476918160595"><ele>345.0</ele><time>2026-04-01T12:05:31Z</time></trkpt><trkpt lat="45.735747527263875" lon="8.44042131847463"><ele>345.0</ele><time>2026-04-01T12:05:32Z</time></trkpt><trkpt lat="45.73581239701447" lon="8.440338222151922"><ele>345.0</ele><time>2026-04-01T12:05:33Z</time></trkpt><trkpt lat="45.73586559836561" lon="8.440222913246249"><ele>345.0</ele><time>2026-04-01T12:05:34Z</time></trkpt><trkpt lat="45.73597841769905" lon="8.440150159365903"><ele>345.0</ele><time>2026-04-01T12:05:35Z</time></trkpt><trkpt lat="45.736082485185364" lon="8.440081642935784"><ele>345.0</ele><time>2026-04-01T12:05:36Z</time></trkpt><trkpt lat="45.73619675511522" lon="8.440034694984979"><ele>345.0</ele><time>2026-04-01T12:05:37Z</time></trkpt><trkpt lat="45.73631140884344" lon="8.439978494337531"><ele>345.0</ele><time>2026-04-01T12:05:38Z</time></trkpt><trkpt lat="45.73642696179294" lon="8.439932504112063"><ele>345.0</ele><time>2026-04-01T12:05:39Z</time></trkpt><trkpt lat="45.73655026464596" lon="8.439903215384874"><ele>345.0</ele><time>2026-04-01T12:05:40Z</time></trkpt><trkpt lat="45.73666471013632" lon="8.439835838045635"><ele>345.0</ele><time>2026-04-01T12:05:41Z</time></trkpt><trkpt lat="45.73678723264286" lon="8.439814468062625"><ele>345.0</ele><time>2026-04-01T12:05:42Z</time></trkpt><trkpt lat="45.73690843084786" lon="8.439769115684292"><ele>345.0</ele><time>2026-04-01T12:05:43Z</time></trkpt><trkpt lat="45.737028400096854" lon="8.439723478627286"><ele>345.0</ele><time>2026-04-01T12:05:44Z</time></trkpt><trkpt lat="45.737148985717205" lon="8.439645350354164"><ele>345.0</ele><time>2026-04-01T12:05:45Z</time></trkpt><trkpt lat="45.73727701637079" lon="8.439594510401177"><ele>345.2</ele><time>2026-04-01T12:05:46Z</time></trkpt><trkpt lat="45.73739574498129" lon="8.439560246684454"><ele>345.4</ele><time>2026-04-01T12:05:47Z</time></trkpt><trkpt lat="45.73750048672003" lon="8.439517226554758"><ele>345.6</ele><time>2026-04-01T12:05:48Z</time></trkpt><trkpt lat="45.73758370010174" lon="8.439467891327975"><ele>345.8</ele><time>2026-04-01T12:05:49Z</time></trkpt><trkpt lat="45.73765873081053" lon="8.439428528022066"><ele>346.0</ele><time>2026-04-01T12:05:50Z</time></trkpt><trkpt lat="45.73772790825033" lon="8.439402307693694"><ele>346.0</ele><time>2026-04-01T12:05:51Z</time></trkpt><trkpt lat="45.73778813674943" lon="8.43933149694021"><ele>346.0</ele><time>2026-04-01T12:05:53Z</time></trkpt><trkpt lat="45.737716719556296" lon="8.439274590219684"><ele>346.0</ele><time>2026-04-01T12:05:56Z</time></trkpt><trkpt lat="45.73762837611944" lon="8.439315858818746"><ele>346.0</ele><time>2026-04-01T12:06:19.999Z</time></trkpt><trkpt lat="45.73770643144567" lon="8.439229713134806"><ele>346.0</ele><time>2026-04-01T12:06:23.999Z</time></trkpt><trkpt lat="45.73762432047506" lon="8.43929263390293"><ele>346.0</ele><time>2026-04-01T12:06:54.999Z</time></trkpt><trkpt lat="45.737694791149245" lon="8.43920927357603"><ele>346.0</ele><time>2026-04-01T12:07:02.999Z</time></trkpt><trkpt lat="45.73758986953976" lon="8.439397902328883"><ele>346.0</ele><time>2026-04-01T12:07:40Z</time></trkpt><trkpt lat="45.73755694191864" lon="8.439313124718986"><ele>346.0</ele><time>2026-04-01T12:09:01.999Z</time></trkpt><trkpt lat="45.73757581438072" lon="8.439400712084872"><ele>346.0</ele><time>2026-04-01T12:09:08.999Z</time></trkpt><trkpt lat="45.73751546629539" lon="8.439486703961617"><ele>346.0</ele><time>2026-04-01T12:09:21.999Z</time></trkpt><trkpt lat="45.73743186437408" lon="8.43952093252334"><ele>346.0</ele><time>2026-04-01T12:09:22.999Z</time></trkpt><trkpt lat="45.73732346708706" lon="8.43956531259456"><ele>346.0</ele><time>2026-04-01T12:09:23.999Z</time></trkpt><trkpt lat="45.73720778174936" lon="8.439607839777238"><ele>346.0</ele><time>2026-04-01T12:09:24.999Z</time></trkpt><trkpt lat="45.73710475332631" lon="8.439646111347203"><ele>346.0</ele><time>2026-04-01T12:09:25.999Z</time></trkpt><trkpt lat="45.73697721598748" lon="8.439693316714607"><ele>345.75</ele><time>2026-04-01T12:09:26.999Z</time></trkpt><trkpt lat="45.73685049621399" lon="8.439740219416077"><ele>345.5</ele><time>2026-04-01T12:09:27.999Z</time></trkpt><trkpt lat="45.73671751229101" lon="8.439793718464806"><ele>345.25</ele><time>2026-04-01T12:09:28.999Z</time></trkpt><trkpt lat="45.736598851531305" lon="8.439835819825866"><ele>345.0</ele><time>2026-04-01T12:09:29.999Z</time></trkpt><trkpt lat="45.73649292272848" lon="8.439875458589746"><ele>345.0</ele><time>2026-04-01T12:09:30.999Z</time></trkpt><trkpt lat="45.73640025357265" lon="8.43990993263545"><ele>345.0</ele><time>2026-04-01T12:09:31.999Z</time></trkpt><trkpt lat="45.736318945998846" lon="8.439940199494425"><ele>345.0</ele><time>2026-04-01T12:09:33.001Z</time></trkpt><trkpt lat="45.73624611074056" lon="8.439967312374012"><ele>345.0</ele><time>2026-04-01T12:09:34.001Z</time></trkpt><trkpt lat="45.736156821429816" lon="8.440004513424142"><ele>345.0</ele><time>2026-04-01T12:09:35Z</time></trkpt><trkpt lat="45.736086332168284" lon="8.44003328388784"><ele>345.0</ele><time>2026-04-01T12:09:36Z</time></trkpt><trkpt lat="45.736025531371624" lon="8.44005840411237"><ele>345.0</ele><time>2026-04-01T12:09:37Z</time></trkpt><trkpt lat="45.73597815766842" lon="8.440142668538586"><ele>345.0</ele><time>2026-04-01T12:09:39Z</time></trkpt><trkpt lat="45.73590351801142" lon="8.440165646396837"><ele>345.0</ele><time>2026-04-01T12:09:41Z</time></trkpt><trkpt lat="45.73579888003439" lon="8.440158080323652"><ele>345.0</ele><time>2026-04-01T12:09:43Z</time></trkpt><trkpt lat="45.735733957806545" lon="8.440141549956667"><ele>345.0</ele><time>2026-04-01T12:09:44Z</time></trkpt><trkpt lat="45.73561173650017" lon="8.440134924906802"><ele>345.0</ele><time>2026-04-01T12:09:46Z</time></trkpt><trkpt lat="45.73554770683097" lon="8.440152438169669"><ele>345.0</ele><time>2026-04-01T12:09:47Z</time></trkpt><trkpt lat="45.735487987840884" lon="8.44020170081524"><ele>345.0</ele><time>2026-04-01T12:09:48Z</time></trkpt><trkpt lat="45.735432474061" lon="8.440298772699316"><ele>345.0</ele><time>2026-04-01T12:09:49Z</time></trkpt><trkpt lat="45.73535754933741" lon="8.440384447343842"><ele>345.0</ele><time>2026-04-01T12:09:50Z</time></trkpt><trkpt lat="45.73525425183446" lon="8.44043649374244"><ele>345.0</ele><time>2026-04-01T12:09:51Z</time></trkpt><trkpt lat="45.73513761858306" lon="8.44049529376769"><ele>345.0</ele><time>2026-04-01T12:09:52Z</time></trkpt><trkpt lat="45.73500907879341" lon="8.440560248569946"><ele>345.0</ele><time>2026-04-01T12:09:53Z</time></trkpt><trkpt lat="45.73487074029376" lon="8.440630154930789"><ele>345.0</ele><time>2026-04-01T12:09:54Z</time></trkpt><trkpt lat="45.73472171866983" lon="8.440707141796892"><ele>345.0</ele><time>2026-04-01T12:09:55Z</time></trkpt><trkpt lat="45.73457262816798" lon="8.440791679536634"><ele>345.0</ele><time>2026-04-01T12:09:56Z</time></trkpt><trkpt lat="45.73443266714671" lon="8.440901563739349"><ele>345.0</ele><time>2026-04-01T12:09:57Z</time></trkpt><trkpt lat="45.73427541835348" lon="8.440992945232695"><ele>345.0</ele><time>2026-04-01T12:09:58Z</time></trkpt><trkpt lat="45.73412555926208" lon="8.441078773762428"><ele>345.25</ele><time>2026-04-01T12:09:59Z</time></trkpt><trkpt lat="45.73399740836887" lon="8.441161428285914"><ele>345.5</ele><time>2026-04-01T12:10:00Z</time></trkpt><trkpt lat="45.73387328537765" lon="8.441239652931634"><ele>345.75</ele><time>2026-04-01T12:10:01Z</time></trkpt><trkpt lat="45.7337505225042" lon="8.441321525581472"><ele>346.0</ele><time>2026-04-01T12:10:02Z</time></trkpt><trkpt lat="45.733627995359704" lon="8.441406571557332"><ele>345.25</ele><time>2026-04-01T12:10:03Z</time></trkpt><trkpt lat="45.733505138323444" lon="8.441504806994384"><ele>344.5</ele><time>2026-04-01T12:10:04Z</time></trkpt><trkpt lat="45.73338550373253" lon="8.441598680734796"><ele>343.75</ele><time>2026-04-01T12:10:05Z</time></trkpt><trkpt lat="45.73326544016342" lon="8.441695474924838"><ele>343.0</ele><time>2026-04-01T12:10:06Z</time></trkpt><trkpt lat="45.73314594182219" lon="8.44178443136764"><ele>343.0</ele><time>2026-04-01T12:10:07Z</time></trkpt><trkpt lat="45.733037604204476" lon="8.44186050814168"><ele>343.0</ele><time>2026-04-01T12:10:08Z</time></trkpt><trkpt lat="45.73291974889258" lon="8.441912986727807"><ele>343.0</ele><time>2026-04-01T12:10:09Z</time></trkpt><trkpt lat="45.73282830648412" lon="8.441978939352119"><ele>343.0</ele><time>2026-04-01T12:10:10Z</time></trkpt><trkpt lat="45.73275172821202" lon="8.44203970087608"><ele>343.0</ele><time>2026-04-01T12:10:11Z</time></trkpt><trkpt lat="45.73266602204177" lon="8.44210807448429"><ele>343.2</ele><time>2026-04-01T12:10:12Z</time></trkpt><trkpt lat="45.7325744407849" lon="8.442172600896145"><ele>343.4</ele><time>2026-04-01T12:10:13Z</time></trkpt><trkpt lat="45.73248416274312" lon="8.44223646951581"><ele>343.59999999999997</ele><time>2026-04-01T12:10:14Z</time></trkpt><trkpt lat="45.73240149324419" lon="8.442303524784657"><ele>343.79999999999995</ele><time>2026-04-01T12:10:15Z</time></trkpt><trkpt lat="45.7323167915992" lon="8.44236177033683"><ele>344.0</ele><time>2026-04-01T12:10:16Z</time></trkpt><trkpt lat="45.73223068463945" lon="8.442434196257164"><ele>344.0</ele><time>2026-04-01T12:10:17Z</time></trkpt><trkpt lat="45.73212607268348" lon="8.442477741826368"><ele>344.0</ele><time>2026-04-01T12:10:18Z</time></trkpt><trkpt lat="45.732024453391425" lon="8.442548403382961"><ele>344.0</ele><time>2026-04-01T12:10:19Z</time></trkpt><trkpt lat="45.73190952981994" lon="8.442628316128872"><ele>344.0</ele><time>2026-04-01T12:10:20Z</time></trkpt><trkpt lat="45.731820004702676" lon="8.442727689277943"><ele>343.83333333333337</ele><time>2026-04-01T12:10:21Z</time></trkpt><trkpt lat="45.73171747859911" lon="8.442794646884488"><ele>343.6666666666667</ele><time>2026-04-01T12:10:22Z</time></trkpt><trkpt lat="45.73163133988865" lon="8.442847465900227"><ele>343.5</ele><time>2026-04-01T12:10:23Z</time></trkpt><trkpt lat="45.73155720612375" lon="8.442902077390483"><ele>343.3333333333333</ele><time>2026-04-01T12:10:24Z</time></trkpt><trkpt lat="45.73148224058246" lon="8.442926478748953"><ele>343.16666666666663</ele><time>2026-04-01T12:10:25Z</time></trkpt><trkpt lat="45.73142234254306" lon="8.442968340646583"><ele>343.0</ele><time>2026-04-01T12:10:26Z</time></trkpt><trkpt lat="45.73135621601211" lon="8.44301410815414"><ele>343.0</ele><time>2026-04-01T12:10:27Z</time></trkpt><trkpt lat="45.7312991780085" lon="8.443053585273171"><ele>343.0</ele><time>2026-04-01T12:10:28Z</time></trkpt><trkpt lat="45.73118665480415" lon="8.443131464862793"><ele>343.0</ele><time>2026-04-01T12:10:30Z</time></trkpt><trkpt lat="45.7311107789658" lon="8.443187330405948"><ele>343.0</ele><time>2026-04-01T12:10:32Z</time></trkpt><trkpt lat="45.73102394426196" lon="8.443238636837211"><ele>343.0</ele><time>2026-04-01T12:10:35Z</time></trkpt><trkpt lat="45.73096222880486" lon="8.443274198386577"><ele>343.0</ele><time>2026-04-01T12:10:35.999Z</time></trkpt><trkpt lat="45.73088744688182" lon="8.443335477071184"><ele>342.79999999999995</ele><time>2026-04-01T12:10:36.999Z</time></trkpt><trkpt lat="45.730811071407665" lon="8.443413916449964"><ele>342.6</ele><time>2026-04-01T12:10:37.999Z</time></trkpt><trkpt lat="45.73071381170201" lon="8.44346358512313"><ele>342.4</ele><time>2026-04-01T12:10:38.999Z</time></trkpt><trkpt lat="45.73059731463878" lon="8.443506965782532"><ele>342.20000000000005</ele><time>2026-04-01T12:10:39.999Z</time></trkpt><trkpt lat="45.73048128939343" lon="8.443549521917216"><ele>342.0</ele><time>2026-04-01T12:10:40.999Z</time></trkpt><trkpt lat="45.73034025573309" lon="8.443593708273697"><ele>341.75</ele><time>2026-04-01T12:10:41.999Z</time></trkpt><trkpt lat="45.73020798825884" lon="8.443643626327635"><ele>341.5</ele><time>2026-04-01T12:10:42.999Z</time></trkpt><trkpt lat="45.730062682601016" lon="8.443653030939164"><ele>341.25</ele><time>2026-04-01T12:10:43.999Z</time></trkpt><trkpt lat="45.72992205951068" lon="8.443704517425106"><ele>341.0</ele><time>2026-04-01T12:10:44.999Z</time></trkpt><trkpt lat="45.72978625601341" lon="8.4437542578356"><ele>341.25</ele><time>2026-04-01T12:10:45.999Z</time></trkpt><trkpt lat="45.729641873956744" lon="8.443808761689976"><ele>341.5</ele><time>2026-04-01T12:10:46.999Z</time></trkpt><trkpt lat="45.72949523827766" lon="8.443862820109748"><ele>341.75</ele><time>2026-04-01T12:10:47.999Z</time></trkpt><trkpt lat="45.72935480957704" lon="8.443929108213363"><ele>342.0</ele><time>2026-04-01T12:10:48.999Z</time></trkpt><trkpt lat="45.72921229650721" lon="8.443983772685643"><ele>342.0</ele><time>2026-04-01T12:10:49.999Z</time></trkpt><trkpt lat="45.72907074529054" lon="8.444033497423483"><ele>342.0</ele><time>2026-04-01T12:10:50.999Z</time></trkpt><trkpt lat="45.72893606513165" lon="8.444088753733292"><ele>342.0</ele><time>2026-04-01T12:10:51.999Z</time></trkpt><trkpt lat="45.728795225533645" lon="8.444118877425547"><ele>342.0</ele><time>2026-04-01T12:10:52.999Z</time></trkpt><trkpt lat="45.72865183168595" lon="8.444169241054706"><ele>341.3333333333333</ele><time>2026-04-01T12:10:53.999Z</time></trkpt><trkpt lat="45.728511846311086" lon="8.44423821630172"><ele>340.66666666666663</ele><time>2026-04-01T12:10:54.999Z</time></trkpt><trkpt lat="45.72835690980934" lon="8.44427682188272"><ele>340.0</ele><time>2026-04-01T12:10:55.999Z</time></trkpt><trkpt lat="45.728187356521346" lon="8.444360103902675"><ele>340.0</ele><time>2026-04-01T12:10:56.999Z</time></trkpt><trkpt lat="45.7280074214207" lon="8.444404801725899"><ele>340.0</ele><time>2026-04-01T12:10:57.999Z</time></trkpt><trkpt lat="45.72783956731517" lon="8.444473865435297"><ele>340.0</ele><time>2026-04-01T12:10:58.999Z</time></trkpt><trkpt lat="45.72765897298261" lon="8.444551639393234"><ele>340.3333333333333</ele><time>2026-04-01T12:10:59.999Z</time></trkpt><trkpt lat="45.72750135512408" lon="8.444621196313255"><ele>340.6666666666667</ele><time>2026-04-01T12:11:00.999Z</time></trkpt><trkpt lat="45.727347812987865" lon="8.444688954608441"><ele>341.0</ele><time>2026-04-01T12:11:01.999Z</time></trkpt><trkpt lat="45.72715531405775" lon="8.444773904494992"><ele>341.0</ele><time>2026-04-01T12:11:02.999Z</time></trkpt><trkpt lat="45.72699423295857" lon="8.444921147574675"><ele>341.0</ele><time>2026-04-01T12:11:03.999Z</time></trkpt><trkpt lat="45.726824380353634" lon="8.444985433793954"><ele>341.0</ele><time>2026-04-01T12:11:04.999Z</time></trkpt><trkpt lat="45.72667611328187" lon="8.445045415892768"><ele>341.33333333333337</ele><time>2026-04-01T12:11:05.999Z</time></trkpt><trkpt lat="45.7264995767905" lon="8.445106463356629"><ele>341.6666666666667</ele><time>2026-04-01T12:11:06.999Z</time></trkpt><trkpt lat="45.726319441166794" lon="8.44514190057402"><ele>342.0</ele><time>2026-04-01T12:11:07.999Z</time></trkpt><trkpt lat="45.726139806968135" lon="8.445221518009443"><ele>341.0</ele><time>2026-04-01T12:11:08.999Z</time></trkpt><trkpt lat="45.72595289986751" lon="8.445305618886273"><ele>340.0</ele><time>2026-04-01T12:11:09.999Z</time></trkpt><trkpt lat="45.72576922060422" lon="8.44541543725727"><ele>339.0</ele><time>2026-04-01T12:11:10.999Z</time></trkpt><trkpt lat="45.7255840195567" lon="8.445515748451212"><ele>338.3333333333333</ele><time>2026-04-01T12:11:11.999Z</time></trkpt><trkpt lat="45.725399880989" lon="8.445630449041824"><ele>337.66666666666663</ele><time>2026-04-01T12:11:12.999Z</time></trkpt><trkpt lat="45.72521365995185" lon="8.445755849463211"><ele>337.0</ele><time>2026-04-01T12:11:13.999Z</time></trkpt><trkpt lat="45.72500831430448" lon="8.445832305904624"><ele>336.66666666666663</ele><time>2026-04-01T12:11:14.999Z</time></trkpt><trkpt lat="45.724829494218945" lon="8.445962311527115"><ele>336.3333333333333</ele><time>2026-04-01T12:11:15.999Z</time></trkpt><trkpt lat="45.724663650548266" lon="8.44608288304223"><ele>336.0</ele><time>2026-04-01T12:11:16.999Z</time></trkpt><trkpt lat="45.72450574679258" lon="8.446197682089132"><ele>335.3333333333333</ele><time>2026-04-01T12:11:17.999Z</time></trkpt><trkpt lat="45.724358638557774" lon="8.446304632585228"><ele>334.66666666666663</ele><time>2026-04-01T12:11:18.999Z</time></trkpt><trkpt lat="45.72421433689727" lon="8.446409500318381"><ele>334.0</ele><time>2026-04-01T12:11:19.999Z</time></trkpt><trkpt lat="45.72410169285133" lon="8.44649134628651"><ele>334.0</ele><time>2026-04-01T12:11:20.999Z</time></trkpt><trkpt lat="45.724014604125465" lon="8.446554624030645"><ele>334.0</ele><time>2026-04-01T12:11:21.999Z</time></trkpt><trkpt lat="45.72393875003679" lon="8.4466095538005"><ele>334.0</ele><time>2026-04-01T12:11:22.999Z</time></trkpt><trkpt lat="45.72388260290275" lon="8.446728830169233"><ele>334.0</ele><time>2026-04-01T12:11:23.999Z</time></trkpt><trkpt lat="45.72380969083124" lon="8.446784909859304"><ele>334.0</ele><time>2026-04-01T12:11:24.999Z</time></trkpt><trkpt lat="45.723733570765084" lon="8.446840013717523"><ele>334.0</ele><time>2026-04-01T12:11:25.999Z</time></trkpt><trkpt lat="45.723648484209384" lon="8.446899543977239"><ele>334.0</ele><time>2026-04-01T12:11:27.999Z</time></trkpt><trkpt lat="45.72357759529132" lon="8.446870759915573"><ele>334.0</ele><time>2026-04-01T12:11:29.999Z</time></trkpt><trkpt lat="45.72349573029294" lon="8.446929974193887"><ele>334.0</ele><time>2026-04-01T12:11:31.999Z</time></trkpt><trkpt lat="45.723393420315325" lon="8.447010365696837"><ele>334.0</ele><time>2026-04-01T12:11:33.999Z</time></trkpt><trkpt lat="45.72328549233888" lon="8.44703950036755"><ele>333.6</ele><time>2026-04-01T12:11:35.999Z</time></trkpt><trkpt lat="45.723207398645144" lon="8.447028973748312"><ele>333.2</ele><time>2026-04-01T12:11:36.999Z</time></trkpt><trkpt lat="45.72312613422915" lon="8.446974145569309"><ele>332.8</ele><time>2026-04-01T12:11:37.999Z</time></trkpt><trkpt lat="45.723020869242134" lon="8.446937615475177"><ele>332.40000000000003</ele><time>2026-04-01T12:11:39Z</time></trkpt><trkpt lat="45.72292011858723" lon="8.446949344580673"><ele>332.0</ele><time>2026-04-01T12:11:40Z</time></trkpt><trkpt lat="45.7228359243096" lon="8.447019569682537"><ele>332.0</ele><time>2026-04-01T12:11:41Z</time></trkpt><trkpt lat="45.72277217346612" lon="8.4471127436266"><ele>332.0</ele><time>2026-04-01T12:11:42Z</time></trkpt><trkpt lat="45.72274826897357" lon="8.447251538364169"><ele>332.0</ele><time>2026-04-01T12:11:43Z</time></trkpt><trkpt lat="45.72272835783461" lon="8.447378023606538"><ele>332.0</ele><time>2026-04-01T12:11:44Z</time></trkpt><trkpt lat="45.72273404099099" lon="8.447494429386353"><ele>332.0</ele><time>2026-04-01T12:11:45Z</time></trkpt><trkpt lat="45.72275493189689" lon="8.44759522790908"><ele>332.0</ele><time>2026-04-01T12:11:46Z</time></trkpt><trkpt lat="45.722819189899226" lon="8.447718676068622"><ele>332.20000000000005</ele><time>2026-04-01T12:11:48Z</time></trkpt><trkpt lat="45.72288552545712" lon="8.447762096329482"><ele>332.4</ele><time>2026-04-01T12:11:49Z</time></trkpt><trkpt lat="45.72293493659627" lon="8.447879215578807"><ele>332.6</ele><time>2026-04-01T12:11:50Z</time></trkpt><trkpt lat="45.722968998960994" lon="8.447978892205777"><ele>332.79999999999995</ele><time>2026-04-01T12:11:51Z</time></trkpt><trkpt lat="45.7230049522359" lon="8.448088156450062"><ele>333.0</ele><time>2026-04-01T12:11:52Z</time></trkpt><trkpt lat="45.72296118944822" lon="8.448261820643499"><ele>333.0</ele><time>2026-04-01T12:11:53Z</time></trkpt><trkpt lat="45.722959789869805" lon="8.448403989345591"><ele>333.0</ele><time>2026-04-01T12:11:54Z</time></trkpt><trkpt lat="45.72296917119154" lon="8.44855156614643"><ele>333.0</ele><time>2026-04-01T12:11:55Z</time></trkpt><trkpt lat="45.72298272106091" lon="8.448694873796562"><ele>333.0</ele><time>2026-04-01T12:11:56Z</time></trkpt><trkpt lat="45.72299825212206" lon="8.44886246186817"><ele>333.0</ele><time>2026-04-01T12:11:57Z</time></trkpt><trkpt lat="45.72301892032546" lon="8.44904067967502"><ele>333.5</ele><time>2026-04-01T12:11:58Z</time></trkpt><trkpt lat="45.72303722304607" lon="8.449217689329094"><ele>334.0</ele><time>2026-04-01T12:11:59Z</time></trkpt><trkpt lat="45.7230530197036" lon="8.449402156457236"><ele>334.5</ele><time>2026-04-01T12:12:00Z</time></trkpt><trkpt lat="45.723073561522405" lon="8.449602428679597"><ele>335.0</ele><time>2026-04-01T12:12:01Z</time></trkpt><trkpt lat="45.7230944913869" lon="8.449814297116829"><ele>335.0</ele><time>2026-04-01T12:12:02Z</time></trkpt><trkpt lat="45.72309302083722" lon="8.450041054456046"><ele>335.0</ele><time>2026-04-01T12:12:03Z</time></trkpt><trkpt lat="45.72312556096927" lon="8.450292116817801"><ele>335.0</ele><time>2026-04-01T12:12:04Z</time></trkpt><trkpt lat="45.72314890147806" lon="8.45055883771115"><ele>334.0</ele><time>2026-04-01T12:12:05Z</time></trkpt><trkpt lat="45.72317096739771" lon="8.450843670864701"><ele>333.0</ele><time>2026-04-01T12:12:06Z</time></trkpt><trkpt lat="45.723192588012715" lon="8.451140838850295"><ele>332.0</ele><time>2026-04-01T12:12:07Z</time></trkpt><trkpt lat="45.72321598620847" lon="8.4514265716965"><ele>332.0</ele><time>2026-04-01T12:12:08Z</time></trkpt><trkpt lat="45.72324219355102" lon="8.45172297136663"><ele>332.0</ele><time>2026-04-01T12:12:09Z</time></trkpt><trkpt lat="45.72326971073895" lon="8.452016039115367"><ele>332.0</ele><time>2026-04-01T12:12:10Z</time></trkpt><trkpt lat="45.723297268661675" lon="8.45229160765278"><ele>332.0</ele><time>2026-04-01T12:12:11Z</time></trkpt><trkpt lat="45.723322412940846" lon="8.452553660802737"><ele>332.0</ele><time>2026-04-01T12:12:12Z</time></trkpt><trkpt lat="45.723345586246296" lon="8.452807141080994"><ele>332.0</ele><time>2026-04-01T12:12:13Z</time></trkpt><trkpt lat="45.72336514574841" lon="8.453057420235545"><ele>332.6666666666667</ele><time>2026-04-01T12:12:14Z</time></trkpt><trkpt lat="45.72338316081457" lon="8.45330652994435"><ele>333.3333333333333</ele><time>2026-04-01T12:12:15Z</time></trkpt><trkpt lat="45.7234029443376" lon="8.453546174651503"><ele>334.0</ele><time>2026-04-01T12:12:16Z</time></trkpt><trkpt lat="45.72342530716915" lon="8.45377414205814"><ele>334.0</ele><time>2026-04-01T12:12:17Z</time></trkpt><trkpt lat="45.723445431152975" lon="8.454008020924782"><ele>334.0</ele><time>2026-04-01T12:12:18Z</time></trkpt><trkpt lat="45.72344860357581" lon="8.454230104537155"><ele>334.0</ele><time>2026-04-01T12:12:19Z</time></trkpt><trkpt lat="45.72346699502889" lon="8.454460819062431"><ele>334.66666666666663</ele><time>2026-04-01T12:12:20Z</time></trkpt><trkpt lat="45.72348601038355" lon="8.454692127998152"><ele>335.3333333333333</ele><time>2026-04-01T12:12:21Z</time></trkpt><trkpt lat="45.72350403247839" lon="8.454910737087793"><ele>336.0</ele><time>2026-04-01T12:12:22Z</time></trkpt><trkpt lat="45.72352261985144" lon="8.455136203041526"><ele>336.0</ele><time>2026-04-01T12:12:23Z</time></trkpt><trkpt lat="45.72354070295227" lon="8.455355552166706"><ele>336.0</ele><time>2026-04-01T12:12:24Z</time></trkpt><trkpt lat="45.723558579516485" lon="8.455572395946954"><ele>336.0</ele><time>2026-04-01T12:12:25Z</time></trkpt><trkpt lat="45.723577196660074" lon="8.45579822307325"><ele>336.0</ele><time>2026-04-01T12:12:26Z</time></trkpt><trkpt lat="45.723595115597156" lon="8.456022598569783"><ele>336.0</ele><time>2026-04-01T12:12:27Z</time></trkpt><trkpt lat="45.72361347293783" lon="8.456245082204925"><ele>336.0</ele><time>2026-04-01T12:12:28Z</time></trkpt><trkpt lat="45.72363259675944" lon="8.4564746553593"><ele>336.0</ele><time>2026-04-01T12:12:29Z</time></trkpt><trkpt lat="45.72365155542987" lon="8.456702245922285"><ele>336.0</ele><time>2026-04-01T12:12:30Z</time></trkpt><trkpt lat="45.72367045245731" lon="8.456929096488123"><ele>336.0</ele><time>2026-04-01T12:12:31Z</time></trkpt><trkpt lat="45.723687721187396" lon="8.457136400057223"><ele>335.6666666666667</ele><time>2026-04-01T12:12:32Z</time></trkpt><trkpt lat="45.72370537143678" lon="8.457348283577035"><ele>335.33333333333337</ele><time>2026-04-01T12:12:33Z</time></trkpt><trkpt lat="45.72372267785786" lon="8.457555941819864"><ele>335.0</ele><time>2026-04-01T12:12:34Z</time></trkpt><trkpt lat="45.72374136166209" lon="8.457784021591713"><ele>334.33333333333337</ele><time>2026-04-01T12:12:34.999Z</time></trkpt><trkpt lat="45.72376006671556" lon="8.458016594820032"><ele>333.6666666666667</ele><time>2026-04-01T12:12:35.999Z</time></trkpt><trkpt lat="45.72379335443265" lon="8.458264220471388"><ele>333.0</ele><time>2026-04-01T12:12:36.999Z</time></trkpt><trkpt lat="45.72379612061821" lon="8.458518687264064"><ele>333.0</ele><time>2026-04-01T12:12:37.999Z</time></trkpt><trkpt lat="45.72380149755319" lon="8.458762626976025"><ele>333.0</ele><time>2026-04-01T12:12:38.999Z</time></trkpt><trkpt lat="45.72381958357672" lon="8.4589958436418"><ele>333.0</ele><time>2026-04-01T12:12:39.999Z</time></trkpt><trkpt lat="45.72383795966499" lon="8.459225914948526"><ele>334.3333333333333</ele><time>2026-04-01T12:12:40.999Z</time></trkpt><trkpt lat="45.7238448855015" lon="8.459460072087623"><ele>335.66666666666663</ele><time>2026-04-01T12:12:41.999Z</time></trkpt><trkpt lat="45.72385516301919" lon="8.459706810584809"><ele>337.0</ele><time>2026-04-01T12:12:42.999Z</time></trkpt><trkpt lat="45.723856334574464" lon="8.459947895744563"><ele>337.3333333333333</ele><time>2026-04-01T12:12:43.999Z</time></trkpt><trkpt lat="45.723849380089355" lon="8.460197358646406"><ele>337.6666666666667</ele><time>2026-04-01T12:12:44.999Z</time></trkpt><trkpt lat="45.72384046494678" lon="8.460430793038352"><ele>338.0</ele><time>2026-04-01T12:12:45.999Z</time></trkpt><trkpt lat="45.72381965944481" lon="8.46067119952486"><ele>336.33333333333337</ele><time>2026-04-01T12:12:46.999Z</time></trkpt><trkpt lat="45.72380127036108" lon="8.46088982263974"><ele>334.6666666666667</ele><time>2026-04-01T12:12:47.999Z</time></trkpt><trkpt lat="45.72376379487265" lon="8.461101529093328"><ele>333.0</ele><time>2026-04-01T12:12:48.999Z</time></trkpt><trkpt lat="45.72372599509938" lon="8.461323229188345"><ele>331.3333333333333</ele><time>2026-04-01T12:12:49.999Z</time></trkpt><trkpt lat="45.7236845945336" lon="8.461544545818267"><ele>329.66666666666663</ele><time>2026-04-01T12:12:50.999Z</time></trkpt><trkpt lat="45.72363919527777" lon="8.461768354115275"><ele>328.0</ele><time>2026-04-01T12:12:51.999Z</time></trkpt><trkpt lat="45.723591423404876" lon="8.461986722946348"><ele>327.3333333333333</ele><time>2026-04-01T12:12:52.999Z</time></trkpt><trkpt lat="45.72354125855479" lon="8.462205034625665"><ele>326.6666666666667</ele><time>2026-04-01T12:12:53.999Z</time></trkpt><trkpt lat="45.72349338370126" lon="8.462411733473436"><ele>326.0</ele><time>2026-04-01T12:12:54.999Z</time></trkpt><trkpt lat="45.723443148983954" lon="8.462633588836997"><ele>326.0</ele><time>2026-04-01T12:12:55.999Z</time></trkpt><trkpt lat="45.72339318046219" lon="8.462854377351176"><ele>326.0</ele><time>2026-04-01T12:12:56.999Z</time></trkpt><trkpt lat="45.723341951250354" lon="8.463080736292516"><ele>326.0</ele><time>2026-04-01T12:12:57.999Z</time></trkpt><trkpt lat="45.72328597465117" lon="8.463328071822211"><ele>326.0</ele><time>2026-04-01T12:12:58.999Z</time></trkpt><trkpt lat="45.723227408560646" lon="8.463586087728537"><ele>326.0</ele><time>2026-04-01T12:12:59.999Z</time></trkpt><trkpt lat="45.72316359394899" lon="8.463863029782157"><ele>326.0</ele><time>2026-04-01T12:13:00.999Z</time></trkpt><trkpt lat="45.7230981011281" lon="8.464147254920787"><ele>326.0</ele><time>2026-04-01T12:13:01.999Z</time></trkpt><trkpt lat="45.72303347749894" lon="8.46442859489516"><ele>326.0</ele><time>2026-04-01T12:13:02.999Z</time></trkpt><trkpt lat="45.722970080478206" lon="8.464708187416308"><ele>326.0</ele><time>2026-04-01T12:13:03.999Z</time></trkpt><trkpt lat="45.7229116905031" lon="8.464965697927452"><ele>326.33333333333337</ele><time>2026-04-01T12:13:04.999Z</time></trkpt><trkpt lat="45.72286039175402" lon="8.465192389536947"><ele>326.6666666666667</ele><time>2026-04-01T12:13:05.999Z</time></trkpt><trkpt lat="45.72281248608686" lon="8.46540415434796"><ele>327.0</ele><time>2026-04-01T12:13:06.999Z</time></trkpt><trkpt lat="45.7227594570052" lon="8.46558056743812"><ele>326.75</ele><time>2026-04-01T12:13:07.999Z</time></trkpt><trkpt lat="45.722678415662216" lon="8.465744442830543"><ele>326.5</ele><time>2026-04-01T12:13:08.999Z</time></trkpt><trkpt lat="45.72258469410275" lon="8.465881601637445"><ele>326.25</ele><time>2026-04-01T12:13:09.999Z</time></trkpt><trkpt lat="45.722478760721884" lon="8.466004540852976"><ele>326.0</ele><time>2026-04-01T12:13:10.999Z</time></trkpt><trkpt lat="45.72234277816764" lon="8.466081591171863"><ele>326.0</ele><time>2026-04-01T12:13:11.999Z</time></trkpt><trkpt lat="45.72224463410228" lon="8.466229000133163"><ele>326.0</ele><time>2026-04-01T12:13:12.999Z</time></trkpt><trkpt lat="45.72220065974856" lon="8.466437341111861"><ele>326.0</ele><time>2026-04-01T12:13:13.999Z</time></trkpt><trkpt lat="45.72222692825679" lon="8.466625666436038"><ele>326.0</ele><time>2026-04-01T12:13:14.999Z</time></trkpt><trkpt lat="45.72225616237567" lon="8.466814881809464"><ele>326.0</ele><time>2026-04-01T12:13:15.999Z</time></trkpt><trkpt lat="45.722302835265836" lon="8.467007450478263"><ele>326.0</ele><time>2026-04-01T12:13:16.999Z</time></trkpt><trkpt lat="45.72232720906484" lon="8.467204176723424"><ele>326.0</ele><time>2026-04-01T12:13:17.999Z</time></trkpt><trkpt lat="45.72232365761418" lon="8.46740563821217"><ele>326.0</ele><time>2026-04-01T12:13:18.999Z</time></trkpt><trkpt lat="45.72230765071793" lon="8.467590337746179"><ele>326.0</ele><time>2026-04-01T12:13:19.999Z</time></trkpt><trkpt lat="45.72227536563013" lon="8.467757662821311"><ele>326.0</ele><time>2026-04-01T12:13:20.999Z</time></trkpt><trkpt lat="45.72223757747464" lon="8.467904108104385"><ele>326.0</ele><time>2026-04-01T12:13:21.999Z</time></trkpt><trkpt lat="45.72220601205001" lon="8.468047188898563"><ele>326.0</ele><time>2026-04-01T12:13:22.999Z</time></trkpt><trkpt lat="45.72217132360256" lon="8.4681861551403"><ele>326.0</ele><time>2026-04-01T12:13:23.999Z</time></trkpt><trkpt lat="45.72213967911731" lon="8.468321501983752"><ele>326.6</ele><time>2026-04-01T12:13:24.999Z</time></trkpt><trkpt lat="45.722104938990974" lon="8.468451292106408"><ele>327.20000000000005</ele><time>2026-04-01T12:13:25.999Z</time></trkpt><trkpt lat="45.722073849538255" lon="8.468580157608843"><ele>327.79999999999995</ele><time>2026-04-01T12:13:26.999Z</time></trkpt><trkpt lat="45.722023696999074" lon="8.468724190475383"><ele>328.4</ele><time>2026-04-01T12:13:27.999Z</time></trkpt><trkpt lat="45.72198577885531" lon="8.468877418861782"><ele>329.0</ele><time>2026-04-01T12:13:28.999Z</time></trkpt><trkpt lat="45.72195237886199" lon="8.469028261860053"><ele>329.25</ele><time>2026-04-01T12:13:29.999Z</time></trkpt><trkpt lat="45.721920919821294" lon="8.46917890210797"><ele>329.5</ele><time>2026-04-01T12:13:30.999Z</time></trkpt><trkpt lat="45.72188376570759" lon="8.469332466239461"><ele>329.75</ele><time>2026-04-01T12:13:31.999Z</time></trkpt><trkpt lat="45.72184259887733" lon="8.469480954182723"><ele>330.0</ele><time>2026-04-01T12:13:32.999Z</time></trkpt><trkpt lat="45.72179572207984" lon="8.469635181039362"><ele>329.5</ele><time>2026-04-01T12:13:33.999Z</time></trkpt><trkpt lat="45.72174833961595" lon="8.469785866674798"><ele>329.0</ele><time>2026-04-01T12:13:34.999Z</time></trkpt><trkpt lat="45.72170233273883" lon="8.469940001413402"><ele>328.5</ele><time>2026-04-01T12:13:35.999Z</time></trkpt><trkpt lat="45.72165629256671" lon="8.47009529685983"><ele>328.0</ele><time>2026-04-01T12:13:36.999Z</time></trkpt><trkpt lat="45.72160293421269" lon="8.470243663981469"><ele>328.0</ele><time>2026-04-01T12:13:37.999Z</time></trkpt><trkpt lat="45.72154819057881" lon="8.470387418063682"><ele>328.0</ele><time>2026-04-01T12:13:38.999Z</time></trkpt><trkpt lat="45.72148856758043" lon="8.47053744188389"><ele>328.0</ele><time>2026-04-01T12:13:39.999Z</time></trkpt><trkpt lat="45.72139260868375" lon="8.47068253513554"><ele>328.0</ele><time>2026-04-01T12:13:40.999Z</time></trkpt><trkpt lat="45.72132233147472" lon="8.470837849882548"><ele>329.5</ele><time>2026-04-01T12:13:41.999Z</time></trkpt><trkpt lat="45.7212455343894" lon="8.470989629941402"><ele>331.0</ele><time>2026-04-01T12:13:42.999Z</time></trkpt><trkpt lat="45.72115128429516" lon="8.471149314459364"><ele>332.5</ele><time>2026-04-01T12:13:43.999Z</time></trkpt><trkpt lat="45.72104619862627" lon="8.471325722932352"><ele>334.0</ele><time>2026-04-01T12:13:45Z</time></trkpt><trkpt lat="45.72092318516106" lon="8.47151025135523"><ele>335.3333333333333</ele><time>2026-04-01T12:13:46Z</time></trkpt><trkpt lat="45.72078064344501" lon="8.471676530388448"><ele>336.6666666666667</ele><time>2026-04-01T12:13:47Z</time></trkpt><trkpt lat="45.720638821795376" lon="8.471862302813287"><ele>338.0</ele><time>2026-04-01T12:13:48Z</time></trkpt><trkpt lat="45.720486129683415" lon="8.472053404356327"><ele>340.0</ele><time>2026-04-01T12:13:49Z</time></trkpt><trkpt lat="45.720338991052266" lon="8.472236305856423"><ele>342.0</ele><time>2026-04-01T12:13:50Z</time></trkpt><trkpt lat="45.72018192913075" lon="8.472432221739385"><ele>344.0</ele><time>2026-04-01T12:13:51Z</time></trkpt><trkpt lat="45.720019301818894" lon="8.472635079780883"><ele>344.0</ele><time>2026-04-01T12:13:52Z</time></trkpt><trkpt lat="45.71985489696645" lon="8.472840229569004"><ele>344.0</ele><time>2026-04-01T12:13:53Z</time></trkpt><trkpt lat="45.719685352846824" lon="8.473051868596158"><ele>344.0</ele><time>2026-04-01T12:13:54Z</time></trkpt><trkpt lat="45.71952383999587" lon="8.47325348234251"><ele>343.33333333333337</ele><time>2026-04-01T12:13:55Z</time></trkpt><trkpt lat="45.719359336326946" lon="8.473458829468642"><ele>342.6666666666667</ele><time>2026-04-01T12:13:56Z</time></trkpt><trkpt lat="45.719191222100704" lon="8.473668683603886"><ele>342.0</ele><time>2026-04-01T12:13:57Z</time></trkpt><trkpt lat="45.719025458190025" lon="8.473875415711538"><ele>341.0</ele><time>2026-04-01T12:13:58Z</time></trkpt><trkpt lat="45.718857500513344" lon="8.474084249265752"><ele>340.0</ele><time>2026-04-01T12:13:59Z</time></trkpt><trkpt lat="45.71868970829414" lon="8.47429287709837"><ele>339.0</ele><time>2026-04-01T12:14:00Z</time></trkpt><trkpt lat="45.718518987840405" lon="8.47450674308637"><ele>338.0</ele><time>2026-04-01T12:14:01Z</time></trkpt><trkpt lat="45.71835447968047" lon="8.474739106165238"><ele>337.0</ele><time>2026-04-01T12:14:02Z</time></trkpt><trkpt lat="45.718187227497154" lon="8.474923710258336"><ele>336.0</ele><time>2026-04-01T12:14:03Z</time></trkpt><trkpt lat="45.718032648652404" lon="8.475117995694099"><ele>336.0</ele><time>2026-04-01T12:14:04Z</time></trkpt><trkpt lat="45.717865423238166" lon="8.475328230458889"><ele>336.0</ele><time>2026-04-01T12:14:05Z</time></trkpt><trkpt lat="45.71770791611592" lon="8.475556071906285"><ele>336.0</ele><time>2026-04-01T12:14:06Z</time></trkpt><trkpt lat="45.717548543335006" lon="8.475767680758116"><ele>336.6666666666667</ele><time>2026-04-01T12:14:07Z</time></trkpt><trkpt lat="45.71739280721687" lon="8.47599663893398"><ele>337.33333333333337</ele><time>2026-04-01T12:14:08Z</time></trkpt><trkpt lat="45.71724839189453" lon="8.47623338133254"><ele>338.0</ele><time>2026-04-01T12:14:09Z</time></trkpt><trkpt lat="45.71710536803578" lon="8.476484393736353"><ele>338.6666666666667</ele><time>2026-04-01T12:14:10Z</time></trkpt><trkpt lat="45.71697751683497" lon="8.476730186813066"><ele>339.3333333333333</ele><time>2026-04-01T12:14:11Z</time></trkpt><trkpt lat="45.716853104686244" lon="8.476989440705903"><ele>340.0</ele><time>2026-04-01T12:14:12Z</time></trkpt><trkpt lat="45.716761283731195" lon="8.47726433239187"><ele>340.3333333333333</ele><time>2026-04-01T12:14:13Z</time></trkpt><trkpt lat="45.716670983389875" lon="8.477530889009708"><ele>340.6666666666667</ele><time>2026-04-01T12:14:14Z</time></trkpt><trkpt lat="45.71658223789559" lon="8.477820368002615"><ele>341.0</ele><time>2026-04-01T12:14:15Z</time></trkpt><trkpt lat="45.71649376804032" lon="8.478109004016506"><ele>341.33333333333337</ele><time>2026-04-01T12:14:16Z</time></trkpt><trkpt lat="45.7163959803647" lon="8.478384559770593"><ele>341.6666666666667</ele><time>2026-04-01T12:14:17Z</time></trkpt><trkpt lat="45.71628964262811" lon="8.478648697976075"><ele>342.0</ele><time>2026-04-01T12:14:18Z</time></trkpt><trkpt lat="45.71617185525259" lon="8.478906857149024"><ele>341.3333333333333</ele><time>2026-04-01T12:14:19Z</time></trkpt><trkpt lat="45.716042702806945" lon="8.479159244127844"><ele>340.66666666666663</ele><time>2026-04-01T12:14:20Z</time></trkpt><trkpt lat="45.71589514733411" lon="8.47940853975109"><ele>340.0</ele><time>2026-04-01T12:14:21Z</time></trkpt><trkpt lat="45.715748422811515" lon="8.479622229796684"><ele>341.66666666666663</ele><time>2026-04-01T12:14:22Z</time></trkpt><trkpt lat="45.715583080878964" lon="8.479841591218719"><ele>343.3333333333333</ele><time>2026-04-01T12:14:23Z</time></trkpt><trkpt lat="45.71542094303284" lon="8.48002781560139"><ele>345.0</ele><time>2026-04-01T12:14:24Z</time></trkpt><trkpt lat="45.71526994076454" lon="8.480186005049703"><ele>344.25</ele><time>2026-04-01T12:14:25Z</time></trkpt><trkpt lat="45.7151352474651" lon="8.480310954692818"><ele>343.5</ele><time>2026-04-01T12:14:26Z</time></trkpt><trkpt lat="45.715007880665226" lon="8.480417546591946"><ele>342.75</ele><time>2026-04-01T12:14:27Z</time></trkpt><trkpt lat="45.71488839321964" lon="8.480509798203489"><ele>342.0</ele><time>2026-04-01T12:14:28Z</time></trkpt><trkpt lat="45.714797400829724" lon="8.480575835685306"><ele>341.0</ele><time>2026-04-01T12:14:29Z</time></trkpt><trkpt lat="45.714729883740816" lon="8.480622490720707"><ele>340.0</ele><time>2026-04-01T12:14:30Z</time></trkpt><trkpt lat="45.71462120807395" lon="8.480697587397932"><ele>339.0</ele><time>2026-04-01T12:14:32Z</time></trkpt><trkpt lat="45.714552638837255" lon="8.48073753118415"><ele>338.0</ele><time>2026-04-01T12:14:33Z</time></trkpt><trkpt lat="45.714472430625676" lon="8.480748709128667"><ele>337.0</ele><time>2026-04-01T12:14:34Z</time></trkpt><trkpt lat="45.71439644553488" lon="8.480744750544648"><ele>336.0</ele><time>2026-04-01T12:14:35Z</time></trkpt><trkpt lat="45.7143087737565" lon="8.480741746640948"><ele>335.6</ele><time>2026-04-01T12:14:36Z</time></trkpt><trkpt lat="45.714204500748906" lon="8.48069724459204"><ele>335.20000000000005</ele><time>2026-04-01T12:14:37Z</time></trkpt><trkpt lat="45.71411384546927" lon="8.480632532955243"><ele>334.79999999999995</ele><time>2026-04-01T12:14:38Z</time></trkpt><trkpt lat="45.71402776317351" lon="8.48056930216421"><ele>334.4</ele><time>2026-04-01T12:14:39Z</time></trkpt><trkpt lat="45.71393824288965" lon="8.480517759115795"><ele>334.0</ele><time>2026-04-01T12:14:40Z</time></trkpt><trkpt lat="45.71382083068706" lon="8.48048166845496"><ele>334.0</ele><time>2026-04-01T12:14:41Z</time></trkpt><trkpt lat="45.713697649102414" lon="8.480495590741334"><ele>334.0</ele><time>2026-04-01T12:14:42Z</time></trkpt><trkpt lat="45.71357194793939" lon="8.480549042663498"><ele>334.0</ele><time>2026-04-01T12:14:43Z</time></trkpt><trkpt lat="45.713470305104664" lon="8.48064217981451"><ele>334.0</ele><time>2026-04-01T12:14:44Z</time></trkpt><trkpt lat="45.71338780067329" lon="8.480769611002437"><ele>333.5</ele><time>2026-04-01T12:14:45Z</time></trkpt><trkpt lat="45.71331993389956" lon="8.480920732831287"><ele>333.0</ele><time>2026-04-01T12:14:46Z</time></trkpt><trkpt lat="45.7132796821717" lon="8.481090769744874"><ele>332.5</ele><time>2026-04-01T12:14:47Z</time></trkpt><trkpt lat="45.71327139373997" lon="8.481273638249732"><ele>332.0</ele><time>2026-04-01T12:14:48Z</time></trkpt><trkpt lat="45.713270938973714" lon="8.481448274513"><ele>332.0</ele><time>2026-04-01T12:14:49Z</time></trkpt><trkpt lat="45.71329335603975" lon="8.481590331222307"><ele>332.0</ele><time>2026-04-01T12:14:50Z</time></trkpt><trkpt lat="45.71334285139603" lon="8.48172201542514"><ele>332.0</ele><time>2026-04-01T12:14:51Z</time></trkpt><trkpt lat="45.71340678971808" lon="8.481842544046524"><ele>332.0</ele><time>2026-04-01T12:14:52Z</time></trkpt><trkpt lat="45.71348831784665" lon="8.481940636168915"><ele>332.0</ele><time>2026-04-01T12:14:53Z</time></trkpt><trkpt lat="45.713600057070536" lon="8.482027598125018"><ele>331.25</ele><time>2026-04-01T12:14:54Z</time></trkpt><trkpt lat="45.71370628216048" lon="8.482102021892873"><ele>330.5</ele><time>2026-04-01T12:14:55Z</time></trkpt><trkpt lat="45.7138127773734" lon="8.482158935446298"><ele>329.75</ele><time>2026-04-01T12:14:56Z</time></trkpt><trkpt lat="45.71391046291641" lon="8.482249134800655"><ele>329.0</ele><time>2026-04-01T12:14:57Z</time></trkpt><trkpt lat="45.71399493790334" lon="8.482388963941041"><ele>329.0</ele><time>2026-04-01T12:14:58Z</time></trkpt><trkpt lat="45.71406215512981" lon="8.482527771452858"><ele>329.0</ele><time>2026-04-01T12:14:59Z</time></trkpt><trkpt lat="45.714128243365046" lon="8.482683629896021"><ele>329.0</ele><time>2026-04-01T12:15:00Z</time></trkpt><trkpt lat="45.714192717045016" lon="8.482841439996882"><ele>329.0</ele><time>2026-04-01T12:15:01Z</time></trkpt><trkpt lat="45.714264143142586" lon="8.483005408932648"><ele>329.5</ele><time>2026-04-01T12:15:02Z</time></trkpt><trkpt lat="45.71434154264744" lon="8.483144414054573"><ele>330.0</ele><time>2026-04-01T12:15:03Z</time></trkpt><trkpt lat="45.71443300860706" lon="8.483296261643053"><ele>330.5</ele><time>2026-04-01T12:15:04Z</time></trkpt><trkpt lat="45.71452957997862" lon="8.483465276263093"><ele>331.0</ele><time>2026-04-01T12:15:05Z</time></trkpt><trkpt lat="45.71463614227947" lon="8.483622690151599"><ele>331.3333333333333</ele><time>2026-04-01T12:15:05.999Z</time></trkpt><trkpt lat="45.71474599879048" lon="8.483754530371034"><ele>331.6666666666667</ele><time>2026-04-01T12:15:06.999Z</time></trkpt><trkpt lat="45.714874872627355" lon="8.483890747110449"><ele>332.0</ele><time>2026-04-01T12:15:07.999Z</time></trkpt><trkpt lat="45.715003677865" lon="8.484014602314222"><ele>332.0</ele><time>2026-04-01T12:15:08.999Z</time></trkpt><trkpt lat="45.715140685469656" lon="8.484131365720174"><ele>332.0</ele><time>2026-04-01T12:15:09.999Z</time></trkpt><trkpt lat="45.71527358426687" lon="8.484269200399542"><ele>332.0</ele><time>2026-04-01T12:15:10.999Z</time></trkpt><trkpt lat="45.71540907413898" lon="8.484397631082478"><ele>332.6666666666667</ele><time>2026-04-01T12:15:11.999Z</time></trkpt><trkpt lat="45.7155517487503" lon="8.484540065165785"><ele>333.3333333333333</ele><time>2026-04-01T12:15:12.999Z</time></trkpt><trkpt lat="45.71569340124031" lon="8.484677169513306"><ele>334.0</ele><time>2026-04-01T12:15:13.999Z</time></trkpt><trkpt lat="45.7158421179651" lon="8.484809999767979"><ele>334.0</ele><time>2026-04-01T12:15:14.999Z</time></trkpt><trkpt lat="45.71602334336927" lon="8.484979022193212"><ele>334.0</ele><time>2026-04-01T12:15:15.999Z</time></trkpt><trkpt lat="45.7161933073396" lon="8.485150402557148"><ele>334.0</ele><time>2026-04-01T12:15:16.999Z</time></trkpt><trkpt lat="45.71637520685519" lon="8.485323956622397"><ele>333.3333333333333</ele><time>2026-04-01T12:15:17.999Z</time></trkpt><trkpt lat="45.71654905230875" lon="8.48550599754077"><ele>332.6666666666667</ele><time>2026-04-01T12:15:18.999Z</time></trkpt><trkpt lat="45.716710631714584" lon="8.485659625375341"><ele>332.0</ele><time>2026-04-01T12:15:19.999Z</time></trkpt><trkpt lat="45.71686710636476" lon="8.485821345519096"><ele>333.0</ele><time>2026-04-01T12:15:20.999Z</time></trkpt><trkpt lat="45.717025571459665" lon="8.485990305742865"><ele>334.0</ele><time>2026-04-01T12:15:21.999Z</time></trkpt><trkpt lat="45.717180672334074" lon="8.486150487483235"><ele>335.0</ele><time>2026-04-01T12:15:22.999Z</time></trkpt><trkpt lat="45.717335146025626" lon="8.486325678495804"><ele>335.0</ele><time>2026-04-01T12:15:23.999Z</time></trkpt><trkpt lat="45.71748864179733" lon="8.486492265042498"><ele>335.0</ele><time>2026-04-01T12:15:24.999Z</time></trkpt><trkpt lat="45.717646313321346" lon="8.48665371050021"><ele>335.0</ele><time>2026-04-01T12:15:25.999Z</time></trkpt><trkpt lat="45.717803163795935" lon="8.486815543048127"><ele>336.0</ele><time>2026-04-01T12:15:26.999Z</time></trkpt><trkpt lat="45.717955553489595" lon="8.486974522814489"><ele>337.0</ele><time>2026-04-01T12:15:27.999Z</time></trkpt><trkpt lat="45.71811297460148" lon="8.48713458585405"><ele>338.0</ele><time>2026-04-01T12:15:28.999Z</time></trkpt><trkpt lat="45.71826705371211" lon="8.48729857064403"><ele>338.0</ele><time>2026-04-01T12:15:29.999Z</time></trkpt><trkpt lat="45.71842164052793" lon="8.487446387719483"><ele>338.0</ele><time>2026-04-01T12:15:30.999Z</time></trkpt><trkpt lat="45.71857018794522" lon="8.487594367479456"><ele>338.0</ele><time>2026-04-01T12:15:31.999Z</time></trkpt><trkpt lat="45.71871622702941" lon="8.487749227600453"><ele>338.0</ele><time>2026-04-01T12:15:32.999Z</time></trkpt><trkpt lat="45.71884653184748" lon="8.487884126853105"><ele>338.0</ele><time>2026-04-01T12:15:33.999Z</time></trkpt><trkpt lat="45.71897700513702" lon="8.488007506690366"><ele>338.0</ele><time>2026-04-01T12:15:34.999Z</time></trkpt><trkpt lat="45.719106324144754" lon="8.488135741032567"><ele>338.0</ele><time>2026-04-01T12:15:35.999Z</time></trkpt><trkpt lat="45.719232064761" lon="8.488247356675881"><ele>338.0</ele><time>2026-04-01T12:15:36.999Z</time></trkpt><trkpt lat="45.719347716448844" lon="8.488348563113185"><ele>338.0</ele><time>2026-04-01T12:15:37.999Z</time></trkpt><trkpt lat="45.719461599567076" lon="8.4884587223109"><ele>338.0</ele><time>2026-04-01T12:15:38.999Z</time></trkpt><trkpt lat="45.719568292788615" lon="8.48856135371893"><ele>337.79999999999995</ele><time>2026-04-01T12:15:39.999Z</time></trkpt><trkpt lat="45.719673083914515" lon="8.488667478393117"><ele>337.6</ele><time>2026-04-01T12:15:40.999Z</time></trkpt><trkpt lat="45.71976623582099" lon="8.488756097160639"><ele>337.4</ele><time>2026-04-01T12:15:41.999Z</time></trkpt><trkpt lat="45.71984939433114" lon="8.488833568986317"><ele>337.20000000000005</ele><time>2026-04-01T12:15:42.999Z</time></trkpt><trkpt lat="45.719928183895384" lon="8.488911442204616"><ele>337.0</ele><time>2026-04-01T12:15:43.999Z</time></trkpt><trkpt lat="45.71999554748328" lon="8.488991188855953"><ele>337.0</ele><time>2026-04-01T12:15:44.999Z</time></trkpt><trkpt lat="45.72006261244579" lon="8.48907993064633"><ele>337.0</ele><time>2026-04-01T12:15:45.999Z</time></trkpt><trkpt lat="45.720119689090346" lon="8.489161017622044"><ele>337.0</ele><time>2026-04-01T12:15:46.999Z</time></trkpt><trkpt lat="45.72015857687001" lon="8.489242870782457"><ele>337.0</ele><time>2026-04-01T12:15:47.999Z</time></trkpt><trkpt lat="45.72026942870227" lon="8.489286770810628"><ele>337.0</ele><time>2026-04-01T12:15:49.999Z</time></trkpt><trkpt lat="45.72033695357398" lon="8.48911397526438"><ele>337.0</ele><time>2026-04-01T12:15:52Z</time></trkpt><trkpt lat="45.72032401367829" lon="8.489011566183786"><ele>337.0</ele><time>2026-04-01T12:15:53Z</time></trkpt><trkpt lat="45.72025291022314" lon="8.488881060310648"><ele>337.0</ele><time>2026-04-01T12:15:55Z</time></trkpt><trkpt lat="45.72017896363255" lon="8.488909604875348"><ele>337.0</ele><time>2026-04-01T12:15:58Z</time></trkpt><trkpt lat="45.7200062568042" lon="8.488847061630876"><ele>337.0</ele><time>2026-04-01T12:16:01Z</time></trkpt><trkpt lat="45.719911225136144" lon="8.488800936368644"><ele>336.75</ele><time>2026-04-01T12:16:04Z</time></trkpt><trkpt lat="45.71984980477273" lon="8.488668957042437"><ele>336.5</ele><time>2026-04-01T12:16:05Z</time></trkpt><trkpt lat="45.71989255881088" lon="8.48846968667189"><ele>336.25</ele><time>2026-04-01T12:16:06Z</time></trkpt><trkpt lat="45.71983008139168" lon="8.488412718002566"><ele>336.0</ele><time>2026-04-01T12:16:08Z</time></trkpt><trkpt lat="45.719738254789895" lon="8.488563675612742"><ele>336.0</ele><time>2026-04-01T12:16:24Z</time></trkpt><trkpt lat="45.71985199322084" lon="8.488325277324403"><ele>336.0</ele><time>2026-04-01T12:16:34Z</time></trkpt><trkpt lat="45.71992475777269" lon="8.488373351624436"><ele>336.0</ele><time>2026-04-01T12:16:57.999Z</time></trkpt><trkpt lat="45.71998397172368" lon="8.488327696740416"><ele>336.0</ele><time>2026-04-01T12:17:06.999Z</time></trkpt><trkpt lat="45.71990735314111" lon="8.488411138296566"><ele>336.0</ele><time>2026-04-01T12:18:30Z</time></trkpt><trkpt lat="45.71993629228996" lon="8.488539809309204"><ele>336.0</ele><time>2026-04-01T12:19:09.539Z</time></trkpt><trkpt lat="45.71993877262769" lon="8.48864136017648"><ele>336.0</ele><time>2026-04-01T12:19:16.7Z</time></trkpt><trkpt lat="45.71992239136006" lon="8.488346475841999"><ele>336.0</ele><time>2026-04-01T12:19:28.999Z</time></trkpt><trkpt lat="45.719996291793954" lon="8.488370970721203"><ele>336.0</ele><time>2026-04-01T12:20:49Z</time></trkpt><trkpt lat="45.7199621312906" lon="8.488481141804053"><ele>336.0</ele><time>2026-04-01T12:21:31.999Z</time></trkpt><trkpt lat="45.71993094740984" lon="8.48865528786016"><ele>336.0</ele><time>2026-04-01T12:21:49.999Z</time></trkpt><trkpt lat="45.71997521591351" lon="8.488546309267123"><ele>336.0</ele><time>2026-04-01T12:22:42Z</time></trkpt><trkpt lat="45.71995144465874" lon="8.488641260472129"><ele>336.0</ele><time>2026-04-01T12:27:24.999Z</time></trkpt><trkpt lat="45.71995069925238" lon="8.488543968533412"><ele>336.0</ele><time>2026-04-01T12:27:36.999Z</time></trkpt><trkpt lat="45.719925018199966" lon="8.488437179578158"><ele>336.0</ele><time>2026-04-01T12:27:48.999Z</time></trkpt><trkpt lat="45.71999531711803" lon="8.488434323837506"><ele>336.0</ele><time>2026-04-01T12:27:55.999Z</time></trkpt><trkpt lat="45.71996769121447" lon="8.488568914832017"><ele>336.0</ele><time>2026-04-01T12:31:35.999Z</time></trkpt><trkpt lat="45.719918917154494" lon="8.488506260615672"><ele>336.0</ele><time>2026-04-01T12:43:23Z</time></trkpt><trkpt lat="45.71986363801716" lon="8.488443937340431"><ele>336.0</ele><time>2026-04-01T12:43:29Z</time></trkpt><trkpt lat="45.71992795801528" lon="8.488402838399415"><ele>336.0</ele><time>2026-04-01T12:43:33Z</time></trkpt><trkpt lat="45.71991029943824" lon="8.48850102096079"><ele>336.0</ele><time>2026-04-01T12:44:06.999Z</time></trkpt><trkpt lat="45.719903446962654" lon="8.488390918138629"><ele>336.0</ele><time>2026-04-01T12:44:24.999Z</time></trkpt><trkpt lat="45.71995323412834" lon="8.488321972580358"><ele>336.0</ele><time>2026-04-01T12:44:44.999Z</time></trkpt><trkpt lat="45.720031095817134" lon="8.488201529500138"><ele>336.0</ele><time>2026-04-01T12:44:53.999Z</time></trkpt><trkpt lat="45.71999075245162" lon="8.488278941334595"><ele>336.0</ele><time>2026-04-01T12:45:16Z</time></trkpt><trkpt lat="45.71998214554319" lon="8.488371559626891"><ele>336.0</ele><time>2026-04-01T12:45:34Z</time></trkpt><trkpt lat="45.719940687622255" lon="8.488469101858014"><ele>336.0</ele><time>2026-04-01T12:46:10.999Z</time></trkpt><trkpt lat="45.71988357741023" lon="8.488406370284014"><ele>336.0</ele><time>2026-04-01T12:46:14.999Z</time></trkpt><trkpt lat="45.71981481671886" lon="8.48839215273654"><ele>336.0</ele><time>2026-04-01T12:46:19.999Z</time></trkpt><trkpt lat="45.719834558707866" lon="8.488304888606978"><ele>336.0</ele><time>2026-04-01T12:47:11.999Z</time></trkpt><trkpt lat="45.71988616011057" lon="8.488378205071957"><ele>336.0</ele><time>2026-04-01T12:47:36Z</time></trkpt><trkpt lat="45.71994859728879" lon="8.488426655572628"><ele>336.0</ele><time>2026-04-01T12:47:38Z</time></trkpt><trkpt lat="45.72001212092566" lon="8.488458402868364"><ele>336.0</ele><time>2026-04-01T12:47:42Z</time></trkpt><trkpt lat="45.720076114971306" lon="8.488427155599743"><ele>336.0</ele><time>2026-04-01T12:47:46Z</time></trkpt><trkpt lat="45.72014022636677" lon="8.48849830078228"><ele>336.0</ele><time>2026-04-01T12:47:48Z</time></trkpt><trkpt lat="45.720185788230495" lon="8.488588336959408"><ele>336.0</ele><time>2026-04-01T12:47:51Z</time></trkpt><trkpt lat="45.7201783580808" lon="8.48869809144671"><ele>336.0</ele><time>2026-04-01T12:47:53Z</time></trkpt><trkpt lat="45.72023304067293" lon="8.48889520470191"><ele>336.20000000000005</ele><time>2026-04-01T12:48:06Z</time></trkpt><trkpt lat="45.72018644927532" lon="8.489014185654515"><ele>336.40000000000003</ele><time>2026-04-01T12:48:08Z</time></trkpt><trkpt lat="45.720144102796276" lon="8.489172304637641"><ele>336.6</ele><time>2026-04-01T12:48:10Z</time></trkpt><trkpt lat="45.72024561412894" lon="8.48930203291408"><ele>336.8</ele><time>2026-04-01T12:48:11.999Z</time></trkpt><trkpt lat="45.72032646874811" lon="8.489344502930113"><ele>337.0</ele><time>2026-04-01T12:48:12.999Z</time></trkpt><trkpt lat="45.720435332948625" lon="8.489392185970667"><ele>337.0</ele><time>2026-04-01T12:48:13.999Z</time></trkpt><trkpt lat="45.72053536666471" lon="8.4894727188494"><ele>337.0</ele><time>2026-04-01T12:48:14.999Z</time></trkpt><trkpt lat="45.720634692990224" lon="8.489558914227516"><ele>337.0</ele><time>2026-04-01T12:48:15.999Z</time></trkpt><trkpt lat="45.72072340352025" lon="8.489702916511485"><ele>337.0</ele><time>2026-04-01T12:48:16.999Z</time></trkpt><trkpt lat="45.72081674751414" lon="8.489794595602849"><ele>337.25</ele><time>2026-04-01T12:48:17.999Z</time></trkpt><trkpt lat="45.720915175177026" lon="8.489891267711263"><ele>337.5</ele><time>2026-04-01T12:48:18.999Z</time></trkpt><trkpt lat="45.720998942741005" lon="8.48997354117795"><ele>337.75</ele><time>2026-04-01T12:48:19.999Z</time></trkpt><trkpt lat="45.721103951370665" lon="8.490019637446576"><ele>338.0</ele><time>2026-04-01T12:48:20.999Z</time></trkpt><trkpt lat="45.72120858600601" lon="8.490123803983916"><ele>338.0</ele><time>2026-04-01T12:48:21.999Z</time></trkpt><trkpt lat="45.72133591217602" lon="8.490232121142494"><ele>338.0</ele><time>2026-04-01T12:48:22.999Z</time></trkpt><trkpt lat="45.721474341651394" lon="8.490366326067688"><ele>338.0</ele><time>2026-04-01T12:48:23.999Z</time></trkpt><trkpt lat="45.72161458706989" lon="8.490527376043156"><ele>338.33333333333337</ele><time>2026-04-01T12:48:24.999Z</time></trkpt><trkpt lat="45.72175114489559" lon="8.490679409983004"><ele>338.6666666666667</ele><time>2026-04-01T12:48:25.999Z</time></trkpt><trkpt lat="45.721903117550966" lon="8.49082284034446"><ele>339.0</ele><time>2026-04-01T12:48:26.999Z</time></trkpt><trkpt lat="45.72204228336404" lon="8.491002699914405"><ele>339.6666666666667</ele><time>2026-04-01T12:48:27.999Z</time></trkpt><trkpt lat="45.72219516867729" lon="8.49115469902678"><ele>340.33333333333337</ele><time>2026-04-01T12:48:28.999Z</time></trkpt><trkpt lat="45.722349575347494" lon="8.49127984222824"><ele>341.0</ele><time>2026-04-01T12:48:29.999Z</time></trkpt><trkpt lat="45.72247584961495" lon="8.491434398076866"><ele>341.33333333333337</ele><time>2026-04-01T12:48:30.999Z</time></trkpt><trkpt lat="45.72261404458021" lon="8.491577248147493"><ele>341.6666666666667</ele><time>2026-04-01T12:48:31.999Z</time></trkpt><trkpt lat="45.722747327517645" lon="8.491701405976583"><ele>342.0</ele><time>2026-04-01T12:48:32.999Z</time></trkpt><trkpt lat="45.72288115701679" lon="8.491835214257245"><ele>342.5</ele><time>2026-04-01T12:48:33.999Z</time></trkpt><trkpt lat="45.723003223479694" lon="8.491949557504805"><ele>343.0</ele><time>2026-04-01T12:48:34.999Z</time></trkpt><trkpt lat="45.72311782446932" lon="8.49206844563829"><ele>343.5</ele><time>2026-04-01T12:48:35.999Z</time></trkpt><trkpt lat="45.72323575477351" lon="8.492183514145502"><ele>344.0</ele><time>2026-04-01T12:48:36.999Z</time></trkpt><trkpt lat="45.72334384980162" lon="8.492300861767832"><ele>344.0</ele><time>2026-04-01T12:48:37.999Z</time></trkpt><trkpt lat="45.72343752143102" lon="8.492410954764377"><ele>344.0</ele><time>2026-04-01T12:48:38.999Z</time></trkpt><trkpt lat="45.723522338371545" lon="8.492494020171659"><ele>344.0</ele><time>2026-04-01T12:48:39.999Z</time></trkpt><trkpt lat="45.72360622944966" lon="8.492549096472862"><ele>344.0</ele><time>2026-04-01T12:48:40.999Z</time></trkpt><trkpt lat="45.72368201065094" lon="8.49263451914558"><ele>344.0</ele><time>2026-04-01T12:48:41.999Z</time></trkpt><trkpt lat="45.723763076757194" lon="8.492713270631143"><ele>344.25</ele><time>2026-04-01T12:48:42.999Z</time></trkpt><trkpt lat="45.72386122384107" lon="8.492829923678823"><ele>344.5</ele><time>2026-04-01T12:48:43.999Z</time></trkpt><trkpt lat="45.7239666215025" lon="8.492956246708863"><ele>344.75</ele><time>2026-04-01T12:48:44.999Z</time></trkpt><trkpt lat="45.72407114778332" lon="8.493055231803698"><ele>345.0</ele><time>2026-04-01T12:48:45.999Z</time></trkpt><trkpt lat="45.72417594191904" lon="8.493144070392454"><ele>345.5</ele><time>2026-04-01T12:48:46.999Z</time></trkpt><trkpt lat="45.72427864949549" lon="8.493232737918953"><ele>346.0</ele><time>2026-04-01T12:48:47.999Z</time></trkpt><trkpt lat="45.72437293224358" lon="8.49332910492479"><ele>346.5</ele><time>2026-04-01T12:48:48.999Z</time></trkpt><trkpt lat="45.72447344987577" lon="8.493426707278402"><ele>347.0</ele><time>2026-04-01T12:48:49.999Z</time></trkpt><trkpt lat="45.72457764191512" lon="8.49352307194275"><ele>347.5</ele><time>2026-04-01T12:48:50.999Z</time></trkpt><trkpt lat="45.724689042526336" lon="8.493623837342787"><ele>348.0</ele><time>2026-04-01T12:48:51.999Z</time></trkpt><trkpt lat="45.724798724973894" lon="8.49374174836973"><ele>348.5</ele><time>2026-04-01T12:48:52.999Z</time></trkpt><trkpt lat="45.72491599272272" lon="8.493851058219631"><ele>349.0</ele><time>2026-04-01T12:48:53.999Z</time></trkpt><trkpt lat="45.72503503650218" lon="8.49397312033828"><ele>349.0</ele><time>2026-04-01T12:48:54.999Z</time></trkpt><trkpt lat="45.725154622811345" lon="8.494090953321045"><ele>349.0</ele><time>2026-04-01T12:48:55.999Z</time></trkpt><trkpt lat="45.72527957664908" lon="8.494214537688075"><ele>349.0</ele><time>2026-04-01T12:48:56.999Z</time></trkpt><trkpt lat="45.72540125703572" lon="8.494334853384958"><ele>349.0</ele><time>2026-04-01T12:48:57.999Z</time></trkpt><trkpt lat="45.725527581374614" lon="8.49446316899448"><ele>349.0</ele><time>2026-04-01T12:48:58.999Z</time></trkpt><trkpt lat="45.725659533335374" lon="8.494593486946236"><ele>349.0</ele><time>2026-04-01T12:48:59.999Z</time></trkpt><trkpt lat="45.72579045581046" lon="8.494727622416391"><ele>349.0</ele><time>2026-04-01T12:49:00.999Z</time></trkpt><trkpt lat="45.725933655767776" lon="8.494874725699546"><ele>348.66666666666663</ele><time>2026-04-01T12:49:01.999Z</time></trkpt><trkpt lat="45.726070183211014" lon="8.495015148039796"><ele>348.3333333333333</ele><time>2026-04-01T12:49:02.999Z</time></trkpt><trkpt lat="45.726209960694156" lon="8.495154932882686"><ele>348.0</ele><time>2026-04-01T12:49:03.999Z</time></trkpt><trkpt lat="45.72635317301218" lon="8.495297426562564"><ele>346.6666666666667</ele><time>2026-04-01T12:49:04.999Z</time></trkpt><trkpt lat="45.72650067048492" lon="8.495439750833551"><ele>345.33333333333337</ele><time>2026-04-01T12:49:05.999Z</time></trkpt><trkpt lat="45.72664071369168" lon="8.49557791907478"><ele>344.0</ele><time>2026-04-01T12:49:06.999Z</time></trkpt><trkpt lat="45.72677758528845" lon="8.495716330116384"><ele>344.0</ele><time>2026-04-01T12:49:07.999Z</time></trkpt><trkpt lat="45.726914020828566" lon="8.495836927995589"><ele>344.0</ele><time>2026-04-01T12:49:08.999Z</time></trkpt><trkpt lat="45.727030588439916" lon="8.49595846763688"><ele>344.0</ele><time>2026-04-01T12:49:09.999Z</time></trkpt><trkpt lat="45.72713363466924" lon="8.49604249319287"><ele>344.0</ele><time>2026-04-01T12:49:10.999Z</time></trkpt><trkpt lat="45.727233304216355" lon="8.496149362938946"><ele>344.0</ele><time>2026-04-01T12:49:11.999Z</time></trkpt><trkpt lat="45.72733618530927" lon="8.496251400646818"><ele>344.0</ele><time>2026-04-01T12:49:12.999Z</time></trkpt><trkpt lat="45.727443931801446" lon="8.496369615090142"><ele>344.0</ele><time>2026-04-01T12:49:13.999Z</time></trkpt><trkpt lat="45.72756189978976" lon="8.496482243934999"><ele>344.0</ele><time>2026-04-01T12:49:14.999Z</time></trkpt><trkpt lat="45.72768438433851" lon="8.496588496413441"><ele>344.0</ele><time>2026-04-01T12:49:15.999Z</time></trkpt><trkpt lat="45.72780766681856" lon="8.496704738162316"><ele>344.0</ele><time>2026-04-01T12:49:16.999Z</time></trkpt><trkpt lat="45.727918878183594" lon="8.496799259710553"><ele>344.0</ele><time>2026-04-01T12:49:17.999Z</time></trkpt><trkpt lat="45.72803121268484" lon="8.496903619086028"><ele>344.0</ele><time>2026-04-01T12:49:18.999Z</time></trkpt><trkpt lat="45.728145992396676" lon="8.497011760427496"><ele>344.25</ele><time>2026-04-01T12:49:19.999Z</time></trkpt><trkpt lat="45.72826154456983" lon="8.497128212335767"><ele>344.5</ele><time>2026-04-01T12:49:20.999Z</time></trkpt><trkpt lat="45.728376188943635" lon="8.497237731236755"><ele>344.75</ele><time>2026-04-01T12:49:21.999Z</time></trkpt><trkpt lat="45.728493720457884" lon="8.497352053323917"><ele>345.0</ele><time>2026-04-01T12:49:22.999Z</time></trkpt><trkpt lat="45.72860485685157" lon="8.497462541401601"><ele>345.0</ele><time>2026-04-01T12:49:23.999Z</time></trkpt><trkpt lat="45.728727976622146" lon="8.497577454377053"><ele>345.0</ele><time>2026-04-01T12:49:24.999Z</time></trkpt><trkpt lat="45.72885892510174" lon="8.497705169081561"><ele>345.0</ele><time>2026-04-01T12:49:25.999Z</time></trkpt><trkpt lat="45.72898463717111" lon="8.497855894272005"><ele>345.3333333333333</ele><time>2026-04-01T12:49:27Z</time></trkpt><trkpt lat="45.72912362397606" lon="8.497992591702998"><ele>345.66666666666663</ele><time>2026-04-01T12:49:28Z</time></trkpt><trkpt lat="45.72927935656212" lon="8.498145364852865"><ele>346.0</ele><time>2026-04-01T12:49:29Z</time></trkpt><trkpt lat="45.72944477878585" lon="8.498307394676296"><ele>346.66666666666663</ele><time>2026-04-01T12:49:30Z</time></trkpt><trkpt lat="45.729621463766655" lon="8.498458455265176"><ele>347.3333333333333</ele><time>2026-04-01T12:49:31Z</time></trkpt><trkpt lat="45.729783707483456" lon="8.498617523570212"><ele>348.0</ele><time>2026-04-01T12:49:32Z</time></trkpt><trkpt lat="45.72995014112715" lon="8.498776619576216"><ele>348.3333333333333</ele><time>2026-04-01T12:49:33Z</time></trkpt><trkpt lat="45.73011542859491" lon="8.498939036401108"><ele>348.66666666666663</ele><time>2026-04-01T12:49:34Z</time></trkpt><trkpt lat="45.73028677576161" lon="8.499106509268124"><ele>349.0</ele><time>2026-04-01T12:49:35Z</time></trkpt><trkpt lat="45.73043908955931" lon="8.499279805156014"><ele>348.66666666666663</ele><time>2026-04-01T12:49:36Z</time></trkpt><trkpt lat="45.730597544352676" lon="8.49943412382444"><ele>348.3333333333333</ele><time>2026-04-01T12:49:37Z</time></trkpt><trkpt lat="45.73075848819053" lon="8.499590866537181"><ele>348.0</ele><time>2026-04-01T12:49:38Z</time></trkpt><trkpt lat="45.73091848820481" lon="8.499746690082222"><ele>348.0</ele><time>2026-04-01T12:49:39Z</time></trkpt><trkpt lat="45.73107949460597" lon="8.499903640748776"><ele>348.0</ele><time>2026-04-01T12:49:40Z</time></trkpt><trkpt lat="45.731234879940914" lon="8.50005513360619"><ele>348.0</ele><time>2026-04-01T12:49:41Z</time></trkpt><trkpt lat="45.73139199461648" lon="8.500209352439228"><ele>348.0</ele><time>2026-04-01T12:49:42Z</time></trkpt><trkpt lat="45.73155168500957" lon="8.50036609952832"><ele>348.0</ele><time>2026-04-01T12:49:43Z</time></trkpt><trkpt lat="45.73171523558541" lon="8.500526635644443"><ele>348.0</ele><time>2026-04-01T12:49:44Z</time></trkpt><trkpt lat="45.73188525007419" lon="8.500693516540762"><ele>350.0</ele><time>2026-04-01T12:49:45Z</time></trkpt><trkpt lat="45.7320547541256" lon="8.50086161419695"><ele>352.0</ele><time>2026-04-01T12:49:46Z</time></trkpt><trkpt lat="45.73222859163134" lon="8.501034781955095"><ele>354.0</ele><time>2026-04-01T12:49:47Z</time></trkpt><trkpt lat="45.73240407978704" lon="8.501209606430688"><ele>354.3333333333333</ele><time>2026-04-01T12:49:48Z</time></trkpt><trkpt lat="45.73258948025496" lon="8.501379047851563"><ele>354.66666666666663</ele><time>2026-04-01T12:49:49Z</time></trkpt><trkpt lat="45.732750116800474" lon="8.501585193071966"><ele>355.0</ele><time>2026-04-01T12:49:50Z</time></trkpt><trkpt lat="45.732903326695975" lon="8.501785173016893"><ele>355.0</ele><time>2026-04-01T12:49:51Z</time></trkpt><trkpt lat="45.7330499898009" lon="8.501997467833712"><ele>355.0</ele><time>2026-04-01T12:49:52Z</time></trkpt><trkpt lat="45.73318953106989" lon="8.502206386239559"><ele>355.0</ele><time>2026-04-01T12:49:53Z</time></trkpt><trkpt lat="45.733328735673716" lon="8.502414160145793"><ele>355.66666666666663</ele><time>2026-04-01T12:49:54Z</time></trkpt><trkpt lat="45.73345898754787" lon="8.502617778557944"><ele>356.3333333333333</ele><time>2026-04-01T12:49:55Z</time></trkpt><trkpt lat="45.73358059310991" lon="8.502840659806791"><ele>357.0</ele><time>2026-04-01T12:49:56Z</time></trkpt><trkpt lat="45.73372190691604" lon="8.503043076445191"><ele>359.3333333333333</ele><time>2026-04-01T12:49:57Z</time></trkpt><trkpt lat="45.73384950311876" lon="8.503252671614232"><ele>361.66666666666663</ele><time>2026-04-01T12:49:58Z</time></trkpt><trkpt lat="45.73397576391307" lon="8.503469610780314"><ele>364.0</ele><time>2026-04-01T12:49:59Z</time></trkpt><trkpt lat="45.73410491748088" lon="8.50367040926899"><ele>364.66666666666663</ele><time>2026-04-01T12:50:00Z</time></trkpt><trkpt lat="45.734236570200444" lon="8.50386707048433"><ele>365.3333333333333</ele><time>2026-04-01T12:50:01Z</time></trkpt><trkpt lat="45.73436902504718" lon="8.504080170998641"><ele>366.0</ele><time>2026-04-01T12:50:02Z</time></trkpt><trkpt lat="45.734503475173575" lon="8.50428851137921"><ele>367.0</ele><time>2026-04-01T12:50:03Z</time></trkpt><trkpt lat="45.73464074245115" lon="8.5044922389441"><ele>368.0</ele><time>2026-04-01T12:50:04Z</time></trkpt><trkpt lat="45.734780551137455" lon="8.504702206446781"><ele>369.0</ele><time>2026-04-01T12:50:05Z</time></trkpt><trkpt lat="45.73492728727897" lon="8.504928982258262"><ele>369.0</ele><time>2026-04-01T12:50:06Z</time></trkpt><trkpt lat="45.73507447485122" lon="8.505157780170691"><ele>369.0</ele><time>2026-04-01T12:50:07Z</time></trkpt><trkpt lat="45.73522470290988" lon="8.50538894160463"><ele>369.0</ele><time>2026-04-01T12:50:08Z</time></trkpt><trkpt lat="45.73537992899952" lon="8.505620616993971"><ele>370.0</ele><time>2026-04-01T12:50:09Z</time></trkpt><trkpt lat="45.73553498384022" lon="8.505851333865943"><ele>371.0</ele><time>2026-04-01T12:50:10Z</time></trkpt><trkpt lat="45.73569187238264" lon="8.506075195269142"><ele>372.0</ele><time>2026-04-01T12:50:10.999Z</time></trkpt><trkpt lat="45.735844737082424" lon="8.506311931024017"><ele>372.0</ele><time>2026-04-01T12:50:11.999Z</time></trkpt><trkpt lat="45.73599527380341" lon="8.506542272880548"><ele>372.0</ele><time>2026-04-01T12:50:12.999Z</time></trkpt><trkpt lat="45.736150199411455" lon="8.506776739769553"><ele>372.0</ele><time>2026-04-01T12:50:13.999Z</time></trkpt><trkpt lat="45.73630690419268" lon="8.50701115829995"><ele>369.0</ele><time>2026-04-01T12:50:14.999Z</time></trkpt><trkpt lat="45.73646862243816" lon="8.507245653239845"><ele>366.0</ele><time>2026-04-01T12:50:15.999Z</time></trkpt><trkpt lat="45.73661100670379" lon="8.507495807540096"><ele>366.0</ele><time>2026-04-01T12:50:16.999Z</time></trkpt><trkpt lat="45.736757060976736" lon="8.507720278802699"><ele>366.0</ele><time>2026-04-01T12:50:17.999Z</time></trkpt><trkpt lat="45.736908164833146" lon="8.507948305282492"><ele>366.0</ele><time>2026-04-01T12:50:18.999Z</time></trkpt><trkpt lat="45.73706579958932" lon="8.50817965809565"><ele>361.6666666666667</ele><time>2026-04-01T12:50:19.999Z</time></trkpt><trkpt lat="45.73722033657713" lon="8.508403699137705"><ele>357.33333333333337</ele><time>2026-04-01T12:50:20.999Z</time></trkpt><trkpt lat="45.737372774396434" lon="8.508624465028678"><ele>353.0</ele><time>2026-04-01T12:50:21.999Z</time></trkpt><trkpt lat="45.737540680109234" lon="8.508823920183278"><ele>352.0</ele><time>2026-04-01T12:50:22.999Z</time></trkpt><trkpt lat="45.73769907840971" lon="8.509053401018997"><ele>351.0</ele><time>2026-04-01T12:50:23.999Z</time></trkpt><trkpt lat="45.737849292633044" lon="8.509270928103616"><ele>350.0</ele><time>2026-04-01T12:50:24.999Z</time></trkpt><trkpt lat="45.73800026884239" lon="8.509494124833264"><ele>348.6666666666667</ele><time>2026-04-01T12:50:25.999Z</time></trkpt><trkpt lat="45.738150660825184" lon="8.509717537721563"><ele>347.3333333333333</ele><time>2026-04-01T12:50:26.999Z</time></trkpt><trkpt lat="45.7382978177034" lon="8.509934998405718"><ele>346.0</ele><time>2026-04-01T12:50:27.999Z</time></trkpt><trkpt lat="45.738435619058926" lon="8.51016687885901"><ele>345.0</ele><time>2026-04-01T12:50:28.999Z</time></trkpt><trkpt lat="45.73859506174122" lon="8.510356286543692"><ele>344.0</ele><time>2026-04-01T12:50:29.999Z</time></trkpt><trkpt lat="45.73873411855784" lon="8.510560066778078"><ele>343.0</ele><time>2026-04-01T12:50:30.999Z</time></trkpt><trkpt lat="45.73887040748938" lon="8.510761725834493"><ele>341.3333333333333</ele><time>2026-04-01T12:50:31.999Z</time></trkpt><trkpt lat="45.73900464579006" lon="8.510948090358985"><ele>339.6666666666667</ele><time>2026-04-01T12:50:32.999Z</time></trkpt><trkpt lat="45.73912007591194" lon="8.511141627701829"><ele>338.0</ele><time>2026-04-01T12:50:33.999Z</time></trkpt><trkpt lat="45.73925022101999" lon="8.51130743766139"><ele>336.33333333333337</ele><time>2026-04-01T12:50:34.999Z</time></trkpt><trkpt lat="45.73939121945894" lon="8.511449588235095"><ele>334.6666666666667</ele><time>2026-04-01T12:50:35.999Z</time></trkpt><trkpt lat="45.739513456456365" lon="8.511624989186261"><ele>333.0</ele><time>2026-04-01T12:50:36.999Z</time></trkpt><trkpt lat="45.739653203027906" lon="8.511757660122015"><ele>333.0</ele><time>2026-04-01T12:50:37.999Z</time></trkpt><trkpt lat="45.739802115202274" lon="8.511881745807198"><ele>333.0</ele><time>2026-04-01T12:50:38.999Z</time></trkpt><trkpt lat="45.73995902964632" lon="8.511991730527429"><ele>333.0</ele><time>2026-04-01T12:50:39.999Z</time></trkpt><trkpt lat="45.740119778315844" lon="8.512096160026665"><ele>331.0</ele><time>2026-04-01T12:50:40.999Z</time></trkpt><trkpt lat="45.74027524452516" lon="8.512186841820148"><ele>329.0</ele><time>2026-04-01T12:50:41.999Z</time></trkpt><trkpt lat="45.740423733725045" lon="8.512266084010232"><ele>327.0</ele><time>2026-04-01T12:50:42.999Z</time></trkpt><trkpt lat="45.74057154478286" lon="8.51235081537379"><ele>327.0</ele><time>2026-04-01T12:50:43.999Z</time></trkpt><trkpt lat="45.74071569269728" lon="8.512432779165175"><ele>327.0</ele><time>2026-04-01T12:50:44.999Z</time></trkpt><trkpt lat="45.74086645741303" lon="8.512525920893049"><ele>327.0</ele><time>2026-04-01T12:50:45.999Z</time></trkpt><trkpt lat="45.74101672724512" lon="8.512638362985486"><ele>325.6666666666667</ele><time>2026-04-01T12:50:46.999Z</time></trkpt><trkpt lat="45.741162192964175" lon="8.512767871389023"><ele>324.33333333333337</ele><time>2026-04-01T12:50:47.999Z</time></trkpt><trkpt lat="45.74129547034064" lon="8.512911926358713"><ele>323.0</ele><time>2026-04-01T12:50:48.999Z</time></trkpt><trkpt lat="45.74142572778873" lon="8.513065400839716"><ele>321.6666666666667</ele><time>2026-04-01T12:50:49.999Z</time></trkpt><trkpt lat="45.741552768922176" lon="8.513232639053106"><ele>320.3333333333333</ele><time>2026-04-01T12:50:50.999Z</time></trkpt><trkpt lat="45.74167383059343" lon="8.513415320090067"><ele>319.0</ele><time>2026-04-01T12:50:51.999Z</time></trkpt><trkpt lat="45.74178749928548" lon="8.513609911700215"><ele>316.0</ele><time>2026-04-01T12:50:52.999Z</time></trkpt><trkpt lat="45.74189293949473" lon="8.513820990053992"><ele>313.0</ele><time>2026-04-01T12:50:53.999Z</time></trkpt><trkpt lat="45.741987386195724" lon="8.514036976592022"><ele>310.0</ele><time>2026-04-01T12:50:54.999Z</time></trkpt><trkpt lat="45.74207211129758" lon="8.514252766711984"><ele>310.0</ele><time>2026-04-01T12:50:55.999Z</time></trkpt><trkpt lat="45.74214949947295" lon="8.51446519291067"><ele>310.0</ele><time>2026-04-01T12:50:56.999Z</time></trkpt><trkpt lat="45.74222269633388" lon="8.51468129871274"><ele>310.0</ele><time>2026-04-01T12:50:57.999Z</time></trkpt><trkpt lat="45.74229278974234" lon="8.514887765217026"><ele>307.3333333333333</ele><time>2026-04-01T12:50:58.999Z</time></trkpt><trkpt lat="45.74236924865334" lon="8.515100206180623"><ele>304.6666666666667</ele><time>2026-04-01T12:50:59.999Z</time></trkpt><trkpt lat="45.74244681409266" lon="8.51530993413028"><ele>302.0</ele><time>2026-04-01T12:51:00.999Z</time></trkpt><trkpt lat="45.742514302814705" lon="8.515509381394292"><ele>301.33333333333337</ele><time>2026-04-01T12:51:01.999Z</time></trkpt><trkpt lat="45.742584603144856" lon="8.515708026441327"><ele>300.6666666666667</ele><time>2026-04-01T12:51:02.999Z</time></trkpt><trkpt lat="45.74265226365932" lon="8.515902091989444"><ele>300.0</ele><time>2026-04-01T12:51:03.999Z</time></trkpt><trkpt lat="45.742719590671015" lon="8.516089513416027"><ele>299.25</ele><time>2026-04-01T12:51:04.999Z</time></trkpt><trkpt lat="45.74278761842139" lon="8.516281148567577"><ele>298.5</ele><time>2026-04-01T12:51:05.999Z</time></trkpt><trkpt lat="45.7428515063559" lon="8.516464700998888"><ele>297.75</ele><time>2026-04-01T12:51:06.999Z</time></trkpt><trkpt lat="45.74291946979793" lon="8.516666081591705"><ele>297.0</ele><time>2026-04-01T12:51:07.999Z</time></trkpt><trkpt lat="45.74298859052744" lon="8.51686317030372"><ele>297.0</ele><time>2026-04-01T12:51:08.999Z</time></trkpt><trkpt lat="45.74305791260949" lon="8.517051198858038"><ele>297.0</ele><time>2026-04-01T12:51:09.999Z</time></trkpt><trkpt lat="45.74313310740665" lon="8.51724615831838"><ele>297.0</ele><time>2026-04-01T12:51:10.999Z</time></trkpt><trkpt lat="45.74321527797144" lon="8.51743642862052"><ele>296.6666666666667</ele><time>2026-04-01T12:51:11.999Z</time></trkpt><trkpt lat="45.74330450791223" lon="8.517638274812683"><ele>296.33333333333337</ele><time>2026-04-01T12:51:12.999Z</time></trkpt><trkpt lat="45.743400319847915" lon="8.517846427284907"><ele>296.0</ele><time>2026-04-01T12:51:13.999Z</time></trkpt><trkpt lat="45.74349738161605" lon="8.518049430979584"><ele>296.33333333333337</ele><time>2026-04-01T12:51:14.999Z</time></trkpt><trkpt lat="45.743593894731745" lon="8.518249428362584"><ele>296.6666666666667</ele><time>2026-04-01T12:51:15.999Z</time></trkpt><trkpt lat="45.74369164793244" lon="8.51845276546573"><ele>297.0</ele><time>2026-04-01T12:51:16.999Z</time></trkpt><trkpt lat="45.74379224633365" lon="8.518662062689106"><ele>296.6666666666667</ele><time>2026-04-01T12:51:17.999Z</time></trkpt><trkpt lat="45.743897915462114" lon="8.518876579108213"><ele>296.33333333333337</ele><time>2026-04-01T12:51:18.999Z</time></trkpt><trkpt lat="45.74400235207812" lon="8.519087402095247"><ele>296.0</ele><time>2026-04-01T12:51:19.999Z</time></trkpt><trkpt lat="45.74409939736316" lon="8.519288111212017"><ele>296.0</ele><time>2026-04-01T12:51:20.999Z</time></trkpt><trkpt lat="45.74420016022369" lon="8.519477520981475"><ele>296.0</ele><time>2026-04-01T12:51:21.999Z</time></trkpt><trkpt lat="45.74429683849254" lon="8.519664682488092"><ele>296.0</ele><time>2026-04-01T12:51:22.999Z</time></trkpt><trkpt lat="45.74438651383395" lon="8.519832296151732"><ele>296.0</ele><time>2026-04-01T12:51:23.999Z</time></trkpt><trkpt lat="45.74446133581701" lon="8.519990497592028"><ele>296.0</ele><time>2026-04-01T12:51:24.999Z</time></trkpt><trkpt lat="45.74452887523312" lon="8.520139330635226"><ele>296.0</ele><time>2026-04-01T12:51:25.999Z</time></trkpt><trkpt lat="45.74460570114765" lon="8.52028951358256"><ele>296.0</ele><time>2026-04-01T12:51:26.999Z</time></trkpt><trkpt lat="45.74468620334041" lon="8.520437670968237"><ele>295.75</ele><time>2026-04-01T12:51:27.999Z</time></trkpt><trkpt lat="45.744769341042186" lon="8.520601496634663"><ele>295.5</ele><time>2026-04-01T12:51:28.999Z</time></trkpt><trkpt lat="45.744855193770135" lon="8.520756787806317"><ele>295.25</ele><time>2026-04-01T12:51:29.998Z</time></trkpt><trkpt lat="45.74493308290569" lon="8.520907613601828"><ele>295.0</ele><time>2026-04-01T12:51:30.998Z</time></trkpt><trkpt lat="45.745001071702895" lon="8.521037929025182"><ele>295.0</ele><time>2026-04-01T12:51:31.998Z</time></trkpt><trkpt lat="45.74506479567969" lon="8.521150161391216"><ele>295.0</ele><time>2026-04-01T12:51:33Z</time></trkpt><trkpt lat="45.74512181513742" lon="8.521261261930832"><ele>295.0</ele><time>2026-04-01T12:51:34Z</time></trkpt><trkpt lat="45.745179700142245" lon="8.521377022277198"><ele>295.0</ele><time>2026-04-01T12:51:35Z</time></trkpt><trkpt lat="45.74524361450128" lon="8.52150466162132"><ele>295.0</ele><time>2026-04-01T12:51:36Z</time></trkpt><trkpt lat="45.745316186882086" lon="8.521637276473555"><ele>295.0</ele><time>2026-04-01T12:51:37Z</time></trkpt><trkpt lat="45.745399636094824" lon="8.52179212406609"><ele>295.0</ele><time>2026-04-01T12:51:38Z</time></trkpt><trkpt lat="45.74548308468867" lon="8.521963071515009"><ele>295.0</ele><time>2026-04-01T12:51:39Z</time></trkpt><trkpt lat="45.74558325118907" lon="8.522144498517289"><ele>295.0</ele><time>2026-04-01T12:51:40Z</time></trkpt><trkpt lat="45.74568683570692" lon="8.52234594184639"><ele>295.0</ele><time>2026-04-01T12:51:41Z</time></trkpt><trkpt lat="45.74579575896955" lon="8.52255577515856"><ele>295.0</ele><time>2026-04-01T12:51:42Z</time></trkpt><trkpt lat="45.74590424105733" lon="8.522775873967072"><ele>295.0</ele><time>2026-04-01T12:51:43Z</time></trkpt><trkpt lat="45.74600469389286" lon="8.522984090614973"><ele>294.66666666666663</ele><time>2026-04-01T12:51:44Z</time></trkpt><trkpt lat="45.746102286217074" lon="8.523176485529348"><ele>294.3333333333333</ele><time>2026-04-01T12:51:45Z</time></trkpt><trkpt lat="45.746197282788025" lon="8.523371260213581"><ele>294.0</ele><time>2026-04-01T12:51:46Z</time></trkpt><trkpt lat="45.74627962298552" lon="8.523533655753951"><ele>294.0</ele><time>2026-04-01T12:51:47Z</time></trkpt><trkpt lat="45.746351681052715" lon="8.523687060411282"><ele>294.0</ele><time>2026-04-01T12:51:48Z</time></trkpt><trkpt lat="45.746418455007046" lon="8.523814434880661"><ele>294.0</ele><time>2026-04-01T12:51:49Z</time></trkpt><trkpt lat="45.746474191023765" lon="8.523923001923105"><ele>294.0</ele><time>2026-04-01T12:51:50Z</time></trkpt><trkpt lat="45.74652830044581" lon="8.524036994939939"><ele>294.0</ele><time>2026-04-01T12:51:51Z</time></trkpt><trkpt lat="45.746588785022205" lon="8.524165608106806"><ele>294.0</ele><time>2026-04-01T12:51:52Z</time></trkpt><trkpt lat="45.746650311846665" lon="8.524293876243773"><ele>294.0</ele><time>2026-04-01T12:51:53Z</time></trkpt><trkpt lat="45.7467232195268" lon="8.524432145749063"><ele>294.0</ele><time>2026-04-01T12:51:54Z</time></trkpt><trkpt lat="45.74679016108418" lon="8.524553119849285"><ele>294.0</ele><time>2026-04-01T12:51:55Z</time></trkpt><trkpt lat="45.74684311670354" lon="8.524661667636424"><ele>294.0</ele><time>2026-04-01T12:51:56Z</time></trkpt><trkpt lat="45.746887753250505" lon="8.524755579036857"><ele>294.0</ele><time>2026-04-01T12:51:57Z</time></trkpt><trkpt lat="45.74692794558786" lon="8.524855546242275"><ele>294.0</ele><time>2026-04-01T12:51:59Z</time></trkpt><trkpt lat="45.74693984147173" lon="8.524977887166726"><ele>294.0</ele><time>2026-04-01T12:52:04Z</time></trkpt><trkpt lat="45.7469736322581" lon="8.525101765721699"><ele>294.0</ele><time>2026-04-01T12:52:06Z</time></trkpt><trkpt lat="45.7470854676762" lon="8.525168325075182"><ele>294.0</ele><time>2026-04-01T12:52:08Z</time></trkpt><trkpt lat="45.74718065881103" lon="8.525275346444085"><ele>294.0</ele><time>2026-04-01T12:52:10Z</time></trkpt><trkpt lat="45.74722615772051" lon="8.5253580960695"><ele>294.0</ele><time>2026-04-01T12:52:11Z</time></trkpt><trkpt lat="45.74727118626091" lon="8.525442996985134"><ele>294.0</ele><time>2026-04-01T12:52:12Z</time></trkpt><trkpt lat="45.7473209111737" lon="8.525541516801605"><ele>294.0</ele><time>2026-04-01T12:52:13Z</time></trkpt><trkpt lat="45.747371224470655" lon="8.52563709430914"><ele>294.0</ele><time>2026-04-01T12:52:14Z</time></trkpt><trkpt lat="45.74742613591873" lon="8.525743941452456"><ele>294.0</ele><time>2026-04-01T12:52:15Z</time></trkpt><trkpt lat="45.747482749321826" lon="8.52586249398636"><ele>294.0</ele><time>2026-04-01T12:52:16Z</time></trkpt><trkpt lat="45.747540113182886" lon="8.5259742842418"><ele>294.0</ele><time>2026-04-01T12:52:16.999Z</time></trkpt><trkpt lat="45.74760082631632" lon="8.526088587473009"><ele>294.0</ele><time>2026-04-01T12:52:17.999Z</time></trkpt><trkpt lat="45.74765610061932" lon="8.526193576810297"><ele>294.0</ele><time>2026-04-01T12:52:18.999Z</time></trkpt><trkpt lat="45.747711129011364" lon="8.526290792736575"><ele>294.0</ele><time>2026-04-01T12:52:19.999Z</time></trkpt><trkpt lat="45.74776591133462" lon="8.526400674415951"><ele>293.8333333333333</ele><time>2026-04-01T12:52:20.999Z</time></trkpt><trkpt lat="45.747814547124996" lon="8.52649665777164"><ele>293.6666666666667</ele><time>2026-04-01T12:52:21.999Z</time></trkpt><trkpt lat="45.7478625020884" lon="8.526584354806344"><ele>293.5</ele><time>2026-04-01T12:52:22.999Z</time></trkpt><trkpt lat="45.7479080330521" lon="8.526662791351415"><ele>293.33333333333337</ele><time>2026-04-01T12:52:23.999Z</time></trkpt><trkpt lat="45.74794254135785" lon="8.526767015966195"><ele>293.1666666666667</ele><time>2026-04-01T12:52:24.999Z</time></trkpt><trkpt lat="45.74801538321428" lon="8.526851195635777"><ele>293.0</ele><time>2026-04-01T12:52:25.999Z</time></trkpt><trkpt lat="45.74807708583415" lon="8.526970321557192"><ele>293.2</ele><time>2026-04-01T12:52:26.999Z</time></trkpt><trkpt lat="45.74814142664518" lon="8.527092670401517"><ele>293.4</ele><time>2026-04-01T12:52:27.999Z</time></trkpt><trkpt lat="45.74820435946949" lon="8.527218296604556"><ele>293.59999999999997</ele><time>2026-04-01T12:52:28.999Z</time></trkpt><trkpt lat="45.74825203413546" lon="8.52736744564027"><ele>293.8</ele><time>2026-04-01T12:52:29.999Z</time></trkpt><trkpt lat="45.74832839851631" lon="8.527476381622325"><ele>294.0</ele><time>2026-04-01T12:52:30.999Z</time></trkpt><trkpt lat="45.74838634409928" lon="8.52759250091504"><ele>294.0</ele><time>2026-04-01T12:52:31.999Z</time></trkpt><trkpt lat="45.74844532076662" lon="8.527707826927195"><ele>294.0</ele><time>2026-04-01T12:52:32.999Z</time></trkpt><trkpt lat="45.748484480927736" lon="8.527822138604476"><ele>294.0</ele><time>2026-04-01T12:52:33.999Z</time></trkpt><trkpt lat="45.74853304445885" lon="8.527919407885294"><ele>294.0</ele><time>2026-04-01T12:52:34.999Z</time></trkpt><trkpt lat="45.74857719437111" lon="8.528002738235939"><ele>294.0</ele><time>2026-04-01T12:52:35.999Z</time></trkpt><trkpt lat="45.74862980744924" lon="8.528104885399047"><ele>294.0</ele><time>2026-04-01T12:52:36.999Z</time></trkpt><trkpt lat="45.74870226122583" lon="8.528204447488662"><ele>293.8</ele><time>2026-04-01T12:52:37.999Z</time></trkpt><trkpt lat="45.74875156629576" lon="8.52833940201511"><ele>293.59999999999997</ele><time>2026-04-01T12:52:38.999Z</time></trkpt><trkpt lat="45.74881919961791" lon="8.528469917140102"><ele>293.4</ele><time>2026-04-01T12:52:39.999Z</time></trkpt><trkpt lat="45.74888284217612" lon="8.528592271135105"><ele>293.2</ele><time>2026-04-01T12:52:40.999Z</time></trkpt><trkpt lat="45.7489402962239" lon="8.528704555233341"><ele>293.0</ele><time>2026-04-01T12:52:41.999Z</time></trkpt><trkpt lat="45.748992485070744" lon="8.52881550923902"><ele>294.33333333333337</ele><time>2026-04-01T12:52:42.999Z</time></trkpt><trkpt lat="45.74903169559673" lon="8.528932839054963"><ele>295.6666666666667</ele><time>2026-04-01T12:52:43.999Z</time></trkpt><trkpt lat="45.74905855783895" lon="8.529046286225368"><ele>297.0</ele><time>2026-04-01T12:52:44.999Z</time></trkpt><trkpt lat="45.749082744462655" lon="8.529169373508061"><ele>298.3333333333333</ele><time>2026-04-01T12:52:45.999Z</time></trkpt><trkpt lat="45.74910152509151" lon="8.529283900813228"><ele>299.66666666666663</ele><time>2026-04-01T12:52:46.999Z</time></trkpt><trkpt lat="45.749115783648165" lon="8.529396646261121"><ele>301.0</ele><time>2026-04-01T12:52:47.999Z</time></trkpt><trkpt lat="45.74912324631893" lon="8.529500853251845"><ele>300.8</ele><time>2026-04-01T12:52:48.999Z</time></trkpt><trkpt lat="45.74912285606008" lon="8.529598010575645"><ele>300.6</ele><time>2026-04-01T12:52:49.999Z</time></trkpt><trkpt lat="45.74911614837932" lon="8.529690005493324"><ele>300.4</ele><time>2026-04-01T12:52:50.999Z</time></trkpt><trkpt lat="45.749081843281665" lon="8.529859186641195"><ele>300.2</ele><time>2026-04-01T12:52:52.999Z</time></trkpt><trkpt lat="45.749195846953995" lon="8.529976843570994"><ele>300.0</ele><time>2026-04-01T12:52:53.999Z</time></trkpt><trkpt lat="45.74929456276716" lon="8.530068837645183"><ele>300.0</ele><time>2026-04-01T12:52:55.999Z</time></trkpt><trkpt lat="45.74935044382538" lon="8.530277185830323"><ele>300.0</ele><time>2026-04-01T12:52:57.999Z</time></trkpt><trkpt lat="45.74940361898646" lon="8.530325983787904"><ele>300.0</ele><time>2026-04-01T12:52:58.999Z</time></trkpt><trkpt lat="45.74952602928486" lon="8.53023257119071"><ele>300.0</ele><time>2026-04-01T12:53:00.999Z</time></trkpt><trkpt lat="45.74958099025165" lon="8.530148874691433"><ele>300.0</ele><time>2026-04-01T12:53:02.999Z</time></trkpt><trkpt lat="45.74964668670189" lon="8.530092435763532"><ele>300.6666666666667</ele><time>2026-04-01T12:53:03.999Z</time></trkpt><trkpt lat="45.749732503167856" lon="8.530057113685638"><ele>301.3333333333333</ele><time>2026-04-01T12:53:05.999Z</time></trkpt><trkpt lat="45.74980032915692" lon="8.530088890129377"><ele>302.0</ele><time>2026-04-01T12:53:06.999Z</time></trkpt><trkpt lat="45.74985238347806" lon="8.530152709356349"><ele>302.66666666666663</ele><time>2026-04-01T12:53:07.999Z</time></trkpt><trkpt lat="45.74994256712349" lon="8.530215404367"><ele>303.3333333333333</ele><time>2026-04-01T12:53:09.999Z</time></trkpt><trkpt lat="45.750036647385066" lon="8.530260491836083"><ele>304.0</ele><time>2026-04-01T12:53:10.999Z</time></trkpt><trkpt lat="45.75013306763881" lon="8.530286836168283"><ele>304.8</ele><time>2026-04-01T12:53:11.999Z</time></trkpt><trkpt lat="45.75023319569339" lon="8.53029505139145"><ele>305.59999999999997</ele><time>2026-04-01T12:53:12.999Z</time></trkpt><trkpt lat="45.75034482904992" lon="8.530335228769303"><ele>306.4</ele><time>2026-04-01T12:53:13.999Z</time></trkpt><trkpt lat="45.75044998869497" lon="8.53043095799818"><ele>307.2</ele><time>2026-04-01T12:53:14.999Z</time></trkpt><trkpt lat="45.75055538275042" lon="8.530437144383985"><ele>308.0</ele><time>2026-04-01T12:53:15.999Z</time></trkpt><trkpt lat="45.75067356424984" lon="8.530443775270184"><ele>308.0</ele><time>2026-04-01T12:53:16.999Z</time></trkpt><trkpt lat="45.75078750305391" lon="8.530530032719932"><ele>308.0</ele><time>2026-04-01T12:53:17.999Z</time></trkpt><trkpt lat="45.750889216068806" lon="8.530633274095798"><ele>308.0</ele><time>2026-04-01T12:53:18.999Z</time></trkpt><trkpt lat="45.75098741802122" lon="8.530754414625196"><ele>308.0</ele><time>2026-04-01T12:53:19.999Z</time></trkpt><trkpt lat="45.751091159020014" lon="8.53088674367137"><ele>307.5</ele><time>2026-04-01T12:53:20.999Z</time></trkpt><trkpt lat="45.75118563606985" lon="8.531022440060458"><ele>307.0</ele><time>2026-04-01T12:53:21.999Z</time></trkpt><trkpt lat="45.751265640022595" lon="8.531143118966938"><ele>306.5</ele><time>2026-04-01T12:53:22.999Z</time></trkpt><trkpt lat="45.751335215750764" lon="8.53125269597654"><ele>306.0</ele><time>2026-04-01T12:53:23.999Z</time></trkpt><trkpt lat="45.75140954971929" lon="8.531354588199347"><ele>306.0</ele><time>2026-04-01T12:53:24.999Z</time></trkpt><trkpt lat="45.751461566084366" lon="8.53144330483657"><ele>306.0</ele><time>2026-04-01T12:53:25.999Z</time></trkpt><trkpt lat="45.75152048047977" lon="8.531524319978406"><ele>306.0</ele><time>2026-04-01T12:53:27.999Z</time></trkpt><trkpt lat="45.751626724351034" lon="8.531528376322461"><ele>306.0</ele><time>2026-04-01T12:53:34.999Z</time></trkpt><trkpt lat="45.7515500452909" lon="8.531540027054888"><ele>306.0</ele><time>2026-04-01T12:53:59Z</time></trkpt><trkpt lat="45.75147339945727" lon="8.531508174581814"><ele>306.0</ele><time>2026-04-01T12:54:03Z</time></trkpt><trkpt lat="45.75153590773379" lon="8.531578535729972"><ele>306.0</ele><time>2026-04-01T12:54:33Z</time></trkpt><trkpt lat="45.751485520306964" lon="8.531655500029904"><ele>306.0</ele><time>2026-04-01T12:54:34Z</time></trkpt><trkpt lat="45.75149352342992" lon="8.531749336966566"><ele>306.0</ele><time>2026-04-01T12:55:51.999Z</time></trkpt><trkpt lat="45.751565724999224" lon="8.531770282459668"><ele>306.0</ele><time>2026-04-01T12:56:05Z</time></trkpt><trkpt lat="45.75147632547038" lon="8.531693058964281"><ele>306.0</ele><time>2026-04-01T12:56:40Z</time></trkpt><trkpt lat="45.75140288012071" lon="8.531684453816132"><ele>306.0</ele><time>2026-04-01T13:03:53.996Z</time></trkpt><trkpt lat="45.75147128003285" lon="8.531688204541656"><ele>306.0</ele><time>2026-04-01T13:04:08.995Z</time></trkpt><trkpt lat="45.75153317164317" lon="8.531739679799974"><ele>306.0</ele><time>2026-04-01T13:07:50.993Z</time></trkpt></trkseg></trk></gpx>